<?xml version='1.0' encoding='UTF-8'?><gpx version="1.1" creator="JPX - https://github.com/jenetics/jpx" xmlns="http://www.topografix.com/GPX/1/1"><trk><trkseg><trkpt lat="43.6863621" lon="11.1255216"><ele>77.0</ele><time>2026-05-03T08:20:04.12Z</time></trkpt><trkpt lat="43.6864182" lon="11.1254183"><ele>77.0</ele><time>2026-05-03T08:20:07.129Z</time></trkpt><trkpt lat="43.686465" lon="11.1253457"><ele>77.0</ele><time>2026-05-03T08:20:08.078Z</time></trkpt><trkpt lat="43.6865351" lon="11.1252457"><ele>77.0</ele><time>2026-05-03T08:20:09.079Z</time></trkpt><trkpt lat="43.6866149" lon="11.1251317"><ele>77.0</ele><time>2026-05-03T08:20:10.053Z</time></trkpt><trkpt lat="43.6867056" lon="11.1250016"><ele>77.33333333333334</ele><time>2026-05-03T08:20:11.06Z</time></trkpt><trkpt lat="43.6868069" lon="11.1248579"><ele>77.66666666666667</ele><time>2026-05-03T08:20:12.077Z</time></trkpt><trkpt lat="43.6869215" lon="11.1246952"><ele>78.0</ele><time>2026-05-03T08:20:13.074Z</time></trkpt><trkpt lat="43.6870365" lon="11.1245189"><ele>78.0</ele><time>2026-05-03T08:20:14.067Z</time></trkpt><trkpt lat="43.6871837" lon="11.1243372"><ele>78.0</ele><time>2026-05-03T08:20:15.084Z</time></trkpt><trkpt lat="43.6873304" lon="11.1241599"><ele>78.0</ele><time>2026-05-03T08:20:16.082Z</time></trkpt><trkpt lat="43.6874686" lon="11.1239953"><ele>78.66666666666667</ele><time>2026-05-03T08:20:17.072Z</time></trkpt><trkpt lat="43.6875903" lon="11.1238459"><ele>79.33333333333334</ele><time>2026-05-03T08:20:18.148Z</time></trkpt><trkpt lat="43.6877079" lon="11.1237051"><ele>80.0</ele><time>2026-05-03T08:20:19.313Z</time></trkpt><trkpt lat="43.6879386" lon="11.1234252"><ele>80.0</ele><time>2026-05-03T08:20:21.157Z</time></trkpt><trkpt lat="43.6880425" lon="11.1232829"><ele>80.0</ele><time>2026-05-03T08:20:22.069Z</time></trkpt><trkpt lat="43.6881394" lon="11.1231371"><ele>80.0</ele><time>2026-05-03T08:20:23.113Z</time></trkpt><trkpt lat="43.688225" lon="11.1229808"><ele>80.0</ele><time>2026-05-03T08:20:24.085Z</time></trkpt><trkpt lat="43.6883103" lon="11.1228165"><ele>80.75</ele><time>2026-05-03T08:20:25.092Z</time></trkpt><trkpt lat="43.6884078" lon="11.1226662"><ele>81.5</ele><time>2026-05-03T08:20:26.086Z</time></trkpt><trkpt lat="43.6885155" lon="11.1225324"><ele>82.25</ele><time>2026-05-03T08:20:27.064Z</time></trkpt><trkpt lat="43.6886275" lon="11.1224205"><ele>83.0</ele><time>2026-05-03T08:20:28.075Z</time></trkpt><trkpt lat="43.6887272" lon="11.1223094"><ele>81.2</ele><time>2026-05-03T08:20:29.101Z</time></trkpt><trkpt lat="43.6888157" lon="11.1222088"><ele>79.4</ele><time>2026-05-03T08:20:30.081Z</time></trkpt><trkpt lat="43.6888927" lon="11.1221246"><ele>77.60000000000001</ele><time>2026-05-03T08:20:31.088Z</time></trkpt><trkpt lat="43.6889542" lon="11.1220527"><ele>75.80000000000001</ele><time>2026-05-03T08:20:32.146Z</time></trkpt><trkpt lat="43.6890071" lon="11.1220001"><ele>74.0</ele><time>2026-05-03T08:20:33.073Z</time></trkpt><trkpt lat="43.6891113" lon="11.1219784"><ele>74.0</ele><time>2026-05-03T08:20:35.102Z</time></trkpt><trkpt lat="43.6892443" lon="11.1220702"><ele>74.0</ele><time>2026-05-03T08:20:37.066Z</time></trkpt><trkpt lat="43.6893327" lon="11.1221382"><ele>74.0</ele><time>2026-05-03T08:20:38.057Z</time></trkpt><trkpt lat="43.689432" lon="11.1222062"><ele>74.0</ele><time>2026-05-03T08:20:39.06Z</time></trkpt><trkpt lat="43.6895323" lon="11.1222684"><ele>74.2</ele><time>2026-05-03T08:20:40.069Z</time></trkpt><trkpt lat="43.6896319" lon="11.1223298"><ele>74.4</ele><time>2026-05-03T08:20:41.057Z</time></trkpt><trkpt lat="43.689734" lon="11.1223887"><ele>74.6</ele><time>2026-05-03T08:20:42.059Z</time></trkpt><trkpt lat="43.6898309" lon="11.1224431"><ele>74.8</ele><time>2026-05-03T08:20:43.074Z</time></trkpt><trkpt lat="43.6899133" lon="11.1224971"><ele>75.0</ele><time>2026-05-03T08:20:44.092Z</time></trkpt><trkpt lat="43.6899832" lon="11.1225468"><ele>75.4</ele><time>2026-05-03T08:20:45.068Z</time></trkpt><trkpt lat="43.6900493" lon="11.12259"><ele>75.8</ele><time>2026-05-03T08:20:46.061Z</time></trkpt><trkpt lat="43.6901062" lon="11.1226318"><ele>76.2</ele><time>2026-05-03T08:20:47.067Z</time></trkpt><trkpt lat="43.6901644" lon="11.1227475"><ele>76.6</ele><time>2026-05-03T08:20:49.065Z</time></trkpt><trkpt lat="43.690172" lon="11.122944"><ele>77.0</ele><time>2026-05-03T08:20:51.065Z</time></trkpt><trkpt lat="43.6901686" lon="11.1230705"><ele>77.0</ele><time>2026-05-03T08:20:52.08Z</time></trkpt><trkpt lat="43.6901533" lon="11.1232058"><ele>77.0</ele><time>2026-05-03T08:20:53.074Z</time></trkpt><trkpt lat="43.6901378" lon="11.1233386"><ele>77.0</ele><time>2026-05-03T08:20:54.067Z</time></trkpt><trkpt lat="43.6901286" lon="11.1234607"><ele>77.0</ele><time>2026-05-03T08:20:55.056Z</time></trkpt><trkpt lat="43.6901379" lon="11.1235629"><ele>77.0</ele><time>2026-05-03T08:20:56.073Z</time></trkpt><trkpt lat="43.6901767" lon="11.1236491"><ele>77.0</ele><time>2026-05-03T08:20:57.061Z</time></trkpt><trkpt lat="43.6902508" lon="11.123729"><ele>77.5</ele><time>2026-05-03T08:20:58.068Z</time></trkpt><trkpt lat="43.6903545" lon="11.123819"><ele>78.0</ele><time>2026-05-03T08:20:59.069Z</time></trkpt><trkpt lat="43.690473" lon="11.1239353"><ele>78.5</ele><time>2026-05-03T08:21:00.053Z</time></trkpt><trkpt lat="43.6905989" lon="11.1240577"><ele>79.0</ele><time>2026-05-03T08:21:01.078Z</time></trkpt><trkpt lat="43.6907199" lon="11.1241834"><ele>80.5</ele><time>2026-05-03T08:21:02.065Z</time></trkpt><trkpt lat="43.6908402" lon="11.124304"><ele>82.0</ele><time>2026-05-03T08:21:03.079Z</time></trkpt><trkpt lat="43.6909592" lon="11.1244229"><ele>83.5</ele><time>2026-05-03T08:21:04.084Z</time></trkpt><trkpt lat="43.6910798" lon="11.1245345"><ele>85.0</ele><time>2026-05-03T08:21:05.062Z</time></trkpt><trkpt lat="43.6911875" lon="11.1246451"><ele>85.0</ele><time>2026-05-03T08:21:06.06Z</time></trkpt><trkpt lat="43.6912893" lon="11.1247481"><ele>85.0</ele><time>2026-05-03T08:21:07.065Z</time></trkpt><trkpt lat="43.6913975" lon="11.1248519"><ele>85.0</ele><time>2026-05-03T08:21:08.058Z</time></trkpt><trkpt lat="43.6915103" lon="11.1249534"><ele>85.0</ele><time>2026-05-03T08:21:09.062Z</time></trkpt><trkpt lat="43.6916184" lon="11.1250512"><ele>85.6</ele><time>2026-05-03T08:21:10.063Z</time></trkpt><trkpt lat="43.6917145" lon="11.1251424"><ele>86.2</ele><time>2026-05-03T08:21:11.087Z</time></trkpt><trkpt lat="43.6918064" lon="11.1252231"><ele>86.80000000000001</ele><time>2026-05-03T08:21:12.07Z</time></trkpt><trkpt lat="43.691894" lon="11.1253093"><ele>87.4</ele><time>2026-05-03T08:21:13.064Z</time></trkpt><trkpt lat="43.6919597" lon="11.1254002"><ele>88.0</ele><time>2026-05-03T08:21:14.071Z</time></trkpt><trkpt lat="43.6919995" lon="11.1254934"><ele>88.0</ele><time>2026-05-03T08:21:15.089Z</time></trkpt><trkpt lat="43.6920235" lon="11.125591"><ele>88.0</ele><time>2026-05-03T08:21:16.085Z</time></trkpt><trkpt lat="43.6920308" lon="11.125712"><ele>88.0</ele><time>2026-05-03T08:21:17.06Z</time></trkpt><trkpt lat="43.6920254" lon="11.1258627"><ele>88.0</ele><time>2026-05-03T08:21:18.069Z</time></trkpt><trkpt lat="43.6920146" lon="11.1260506"><ele>88.0</ele><time>2026-05-03T08:21:19.073Z</time></trkpt><trkpt lat="43.6920133" lon="11.126265"><ele>91.33333333333333</ele><time>2026-05-03T08:21:20.062Z</time></trkpt><trkpt lat="43.6920122" lon="11.126486"><ele>94.66666666666666</ele><time>2026-05-03T08:21:21.071Z</time></trkpt><trkpt lat="43.6920049" lon="11.1267056"><ele>98.0</ele><time>2026-05-03T08:21:22.057Z</time></trkpt><trkpt lat="43.6919963" lon="11.1269245"><ele>102.0</ele><time>2026-05-03T08:21:23.217Z</time></trkpt><trkpt lat="43.6919745" lon="11.1273534"><ele>106.0</ele><time>2026-05-03T08:21:25.076Z</time></trkpt><trkpt lat="43.6919634" lon="11.1275601"><ele>107.75</ele><time>2026-05-03T08:21:26.064Z</time></trkpt><trkpt lat="43.6919541" lon="11.1277594"><ele>109.5</ele><time>2026-05-03T08:21:27.071Z</time></trkpt><trkpt lat="43.6919467" lon="11.1279423"><ele>111.25</ele><time>2026-05-03T08:21:28.067Z</time></trkpt><trkpt lat="43.6919413" lon="11.1281032"><ele>113.0</ele><time>2026-05-03T08:21:29.054Z</time></trkpt><trkpt lat="43.691941" lon="11.1282453"><ele>113.60000000000001</ele><time>2026-05-03T08:21:30.062Z</time></trkpt><trkpt lat="43.6919675" lon="11.1283697"><ele>114.20000000000002</ele><time>2026-05-03T08:21:31.066Z</time></trkpt><trkpt lat="43.6920154" lon="11.1284715"><ele>114.8</ele><time>2026-05-03T08:21:32.072Z</time></trkpt><trkpt lat="43.6920881" lon="11.128544"><ele>115.4</ele><time>2026-05-03T08:21:33.054Z</time></trkpt><trkpt lat="43.6921528" lon="11.1286272"><ele>116.0</ele><time>2026-05-03T08:21:34.071Z</time></trkpt><trkpt lat="43.6922129" lon="11.1287317"><ele>116.0</ele><time>2026-05-03T08:21:35.059Z</time></trkpt><trkpt lat="43.6922443" lon="11.1288886"><ele>116.0</ele><time>2026-05-03T08:21:36.059Z</time></trkpt><trkpt lat="43.692265" lon="11.1290701"><ele>116.0</ele><time>2026-05-03T08:21:37.06Z</time></trkpt><trkpt lat="43.6922894" lon="11.1292594"><ele>116.0</ele><time>2026-05-03T08:21:38.069Z</time></trkpt><trkpt lat="43.6923153" lon="11.129452"><ele>117.25</ele><time>2026-05-03T08:21:39.075Z</time></trkpt><trkpt lat="43.6923442" lon="11.1296434"><ele>118.5</ele><time>2026-05-03T08:21:40.066Z</time></trkpt><trkpt lat="43.692372" lon="11.1298324"><ele>119.75</ele><time>2026-05-03T08:21:41.085Z</time></trkpt><trkpt lat="43.6924001" lon="11.130018"><ele>121.0</ele><time>2026-05-03T08:21:42.078Z</time></trkpt><trkpt lat="43.692427" lon="11.1301947"><ele>122.5</ele><time>2026-05-03T08:21:43.092Z</time></trkpt><trkpt lat="43.6924491" lon="11.1303647"><ele>124.0</ele><time>2026-05-03T08:21:44.062Z</time></trkpt><trkpt lat="43.6924694" lon="11.1305306"><ele>125.5</ele><time>2026-05-03T08:21:45.069Z</time></trkpt><trkpt lat="43.6925019" lon="11.1306816"><ele>127.0</ele><time>2026-05-03T08:21:46.102Z</time></trkpt><trkpt lat="43.6925226" lon="11.1308234"><ele>127.5</ele><time>2026-05-03T08:21:47.066Z</time></trkpt><trkpt lat="43.6925599" lon="11.1309619"><ele>128.0</ele><time>2026-05-03T08:21:48.076Z</time></trkpt><trkpt lat="43.6926031" lon="11.1311057"><ele>128.5</ele><time>2026-05-03T08:21:49.064Z</time></trkpt><trkpt lat="43.6926619" lon="11.1312533"><ele>129.0</ele><time>2026-05-03T08:21:50.081Z</time></trkpt><trkpt lat="43.692734" lon="11.1313989"><ele>127.0</ele><time>2026-05-03T08:21:51.063Z</time></trkpt><trkpt lat="43.6927988" lon="11.1315542"><ele>125.0</ele><time>2026-05-03T08:21:52.063Z</time></trkpt><trkpt lat="43.6928656" lon="11.1317071"><ele>123.0</ele><time>2026-05-03T08:21:53.066Z</time></trkpt><trkpt lat="43.6929259" lon="11.1318643"><ele>121.0</ele><time>2026-05-03T08:21:54.055Z</time></trkpt><trkpt lat="43.6929883" lon="11.1320295"><ele>121.0</ele><time>2026-05-03T08:21:55.058Z</time></trkpt><trkpt lat="43.6930404" lon="11.1322138"><ele>121.0</ele><time>2026-05-03T08:21:56.072Z</time></trkpt><trkpt lat="43.6931012" lon="11.1324039"><ele>121.0</ele><time>2026-05-03T08:21:57.06Z</time></trkpt><trkpt lat="43.6931624" lon="11.1326019"><ele>121.0</ele><time>2026-05-03T08:21:58.051Z</time></trkpt><trkpt lat="43.6932283" lon="11.1328031"><ele>123.0</ele><time>2026-05-03T08:21:59.058Z</time></trkpt><trkpt lat="43.6932925" lon="11.1330089"><ele>125.0</ele><time>2026-05-03T08:22:00.06Z</time></trkpt><trkpt lat="43.6933601" lon="11.1332163"><ele>127.0</ele><time>2026-05-03T08:22:01.076Z</time></trkpt><trkpt lat="43.6934501" lon="11.1334127"><ele>128.0</ele><time>2026-05-03T08:22:02.077Z</time></trkpt><trkpt lat="43.6935414" lon="11.1336035"><ele>129.0</ele><time>2026-05-03T08:22:03.066Z</time></trkpt><trkpt lat="43.693631" lon="11.1337891"><ele>130.0</ele><time>2026-05-03T08:22:04.066Z</time></trkpt><trkpt lat="43.693717" lon="11.1339678"><ele>129.0</ele><time>2026-05-03T08:22:05.071Z</time></trkpt><trkpt lat="43.6938061" lon="11.134134"><ele>128.0</ele><time>2026-05-03T08:22:06.071Z</time></trkpt><trkpt lat="43.6939057" lon="11.1342896"><ele>127.0</ele><time>2026-05-03T08:22:07.083Z</time></trkpt><trkpt lat="43.6940135" lon="11.134442"><ele>127.0</ele><time>2026-05-03T08:22:08.117Z</time></trkpt><trkpt lat="43.6941209" lon="11.1345935"><ele>127.0</ele><time>2026-05-03T08:22:09.129Z</time></trkpt><trkpt lat="43.6942277" lon="11.1347407"><ele>127.0</ele><time>2026-05-03T08:22:10.072Z</time></trkpt><trkpt lat="43.6943336" lon="11.1348779"><ele>127.0</ele><time>2026-05-03T08:22:11.057Z</time></trkpt><trkpt lat="43.6944352" lon="11.1350071"><ele>127.25</ele><time>2026-05-03T08:22:12.072Z</time></trkpt><trkpt lat="43.6945353" lon="11.1351311"><ele>127.5</ele><time>2026-05-03T08:22:13.111Z</time></trkpt><trkpt lat="43.6946347" lon="11.1352495"><ele>127.75</ele><time>2026-05-03T08:22:14.085Z</time></trkpt><trkpt lat="43.6947294" lon="11.1353641"><ele>128.0</ele><time>2026-05-03T08:22:15.067Z</time></trkpt><trkpt lat="43.6948234" lon="11.1354764"><ele>128.0</ele><time>2026-05-03T08:22:16.098Z</time></trkpt><trkpt lat="43.694918" lon="11.1355897"><ele>128.0</ele><time>2026-05-03T08:22:17.058Z</time></trkpt><trkpt lat="43.6950095" lon="11.1357034"><ele>128.0</ele><time>2026-05-03T08:22:18.08Z</time></trkpt><trkpt lat="43.6950912" lon="11.1358125"><ele>128.0</ele><time>2026-05-03T08:22:19.103Z</time></trkpt><trkpt lat="43.6951647" lon="11.1359101"><ele>128.83333333333331</ele><time>2026-05-03T08:22:20.089Z</time></trkpt><trkpt lat="43.695236" lon="11.1359986"><ele>129.66666666666666</ele><time>2026-05-03T08:22:21.063Z</time></trkpt><trkpt lat="43.6953071" lon="11.1360667"><ele>130.5</ele><time>2026-05-03T08:22:22.058Z</time></trkpt><trkpt lat="43.6953826" lon="11.1361029"><ele>131.33333333333334</ele><time>2026-05-03T08:22:23.061Z</time></trkpt><trkpt lat="43.6954661" lon="11.1361188"><ele>132.16666666666669</ele><time>2026-05-03T08:22:24.06Z</time></trkpt><trkpt lat="43.695559" lon="11.1361184"><ele>133.0</ele><time>2026-05-03T08:22:25.059Z</time></trkpt><trkpt lat="43.6956514" lon="11.1361236"><ele>133.42857142857142</ele><time>2026-05-03T08:22:26.059Z</time></trkpt><trkpt lat="43.695729" lon="11.136139"><ele>133.85714285714286</ele><time>2026-05-03T08:22:27.07Z</time></trkpt><trkpt lat="43.695794" lon="11.1361711"><ele>134.28571428571428</ele><time>2026-05-03T08:22:28.059Z</time></trkpt><trkpt lat="43.6958575" lon="11.1362139"><ele>134.71428571428572</ele><time>2026-05-03T08:22:29.062Z</time></trkpt><trkpt lat="43.6959122" lon="11.1362724"><ele>135.14285714285714</ele><time>2026-05-03T08:22:30.059Z</time></trkpt><trkpt lat="43.6959586" lon="11.1363413"><ele>135.57142857142856</ele><time>2026-05-03T08:22:31.092Z</time></trkpt><trkpt lat="43.6959877" lon="11.1364411"><ele>136.0</ele><time>2026-05-03T08:22:33.054Z</time></trkpt><trkpt lat="43.6959398" lon="11.136535"><ele>137.33333333333334</ele><time>2026-05-03T08:22:35.076Z</time></trkpt><trkpt lat="43.6958627" lon="11.1365863"><ele>138.66666666666669</ele><time>2026-05-03T08:22:37.07Z</time></trkpt><trkpt lat="43.6958254" lon="11.1366968"><ele>140.0</ele><time>2026-05-03T08:22:39.06Z</time></trkpt><trkpt lat="43.6958181" lon="11.1367833"><ele>141.33333333333334</ele><time>2026-05-03T08:22:40.082Z</time></trkpt><trkpt lat="43.6958246" lon="11.1369018"><ele>142.66666666666666</ele><time>2026-05-03T08:22:41.055Z</time></trkpt><trkpt lat="43.6958614" lon="11.1370345"><ele>144.0</ele><time>2026-05-03T08:22:42.073Z</time></trkpt><trkpt lat="43.6959286" lon="11.137173"><ele>144.0</ele><time>2026-05-03T08:22:43.056Z</time></trkpt><trkpt lat="43.6960203" lon="11.1373181"><ele>144.0</ele><time>2026-05-03T08:22:44.059Z</time></trkpt><trkpt lat="43.6961019" lon="11.1374736"><ele>144.0</ele><time>2026-05-03T08:22:45.058Z</time></trkpt><trkpt lat="43.6961745" lon="11.1376285"><ele>144.0</ele><time>2026-05-03T08:22:46.056Z</time></trkpt><trkpt lat="43.6962413" lon="11.1377766"><ele>144.6</ele><time>2026-05-03T08:22:47.069Z</time></trkpt><trkpt lat="43.6963022" lon="11.1379115"><ele>145.2</ele><time>2026-05-03T08:22:48.069Z</time></trkpt><trkpt lat="43.6963586" lon="11.1380276"><ele>145.79999999999998</ele><time>2026-05-03T08:22:49.057Z</time></trkpt><trkpt lat="43.6964186" lon="11.1381266"><ele>146.4</ele><time>2026-05-03T08:22:50.08Z</time></trkpt><trkpt lat="43.6964806" lon="11.1382176"><ele>147.0</ele><time>2026-05-03T08:22:51.062Z</time></trkpt><trkpt lat="43.6965592" lon="11.1382822"><ele>147.0</ele><time>2026-05-03T08:22:52.084Z</time></trkpt><trkpt lat="43.6966454" lon="11.1383226"><ele>147.0</ele><time>2026-05-03T08:22:53.076Z</time></trkpt><trkpt lat="43.6967405" lon="11.1383492"><ele>147.0</ele><time>2026-05-03T08:22:54.069Z</time></trkpt><trkpt lat="43.6968453" lon="11.1383655"><ele>147.0</ele><time>2026-05-03T08:22:55.061Z</time></trkpt><trkpt lat="43.6969549" lon="11.1383843"><ele>147.0</ele><time>2026-05-03T08:22:56.067Z</time></trkpt><trkpt lat="43.6970666" lon="11.1384152"><ele>147.0</ele><time>2026-05-03T08:22:57.059Z</time></trkpt><trkpt lat="43.6971726" lon="11.1384671"><ele>147.0</ele><time>2026-05-03T08:22:58.056Z</time></trkpt><trkpt lat="43.6972696" lon="11.138521"><ele>147.0</ele><time>2026-05-03T08:22:59.081Z</time></trkpt><trkpt lat="43.6973619" lon="11.1385638"><ele>147.0</ele><time>2026-05-03T08:23:00.073Z</time></trkpt><trkpt lat="43.6974507" lon="11.138613"><ele>147.0</ele><time>2026-05-03T08:23:01.065Z</time></trkpt><trkpt lat="43.6975396" lon="11.1386706"><ele>147.0</ele><time>2026-05-03T08:23:02.092Z</time></trkpt><trkpt lat="43.6976271" lon="11.1387419"><ele>147.0</ele><time>2026-05-03T08:23:03.076Z</time></trkpt><trkpt lat="43.6977163" lon="11.1388456"><ele>147.0</ele><time>2026-05-03T08:23:04.079Z</time></trkpt><trkpt lat="43.6978165" lon="11.1389881"><ele>147.0</ele><time>2026-05-03T08:23:05.08Z</time></trkpt><trkpt lat="43.6979233" lon="11.1391455"><ele>145.0</ele><time>2026-05-03T08:23:06.065Z</time></trkpt><trkpt lat="43.6980264" lon="11.1393109"><ele>143.0</ele><time>2026-05-03T08:23:07.069Z</time></trkpt><trkpt lat="43.6981258" lon="11.1394756"><ele>141.0</ele><time>2026-05-03T08:23:08.074Z</time></trkpt><trkpt lat="43.6982276" lon="11.1396309"><ele>141.0</ele><time>2026-05-03T08:23:09.061Z</time></trkpt><trkpt lat="43.6983254" lon="11.1397809"><ele>141.0</ele><time>2026-05-03T08:23:10.059Z</time></trkpt><trkpt lat="43.6984192" lon="11.1399174"><ele>141.0</ele><time>2026-05-03T08:23:11.077Z</time></trkpt><trkpt lat="43.6985057" lon="11.1400432"><ele>141.0</ele><time>2026-05-03T08:23:12.067Z</time></trkpt><trkpt lat="43.6985878" lon="11.1401658"><ele>140.2</ele><time>2026-05-03T08:23:13.068Z</time></trkpt><trkpt lat="43.6986623" lon="11.1402928"><ele>139.39999999999998</ele><time>2026-05-03T08:23:14.088Z</time></trkpt><trkpt lat="43.6987336" lon="11.1404109"><ele>138.6</ele><time>2026-05-03T08:23:15.059Z</time></trkpt><trkpt lat="43.6987902" lon="11.1405142"><ele>137.79999999999998</ele><time>2026-05-03T08:23:16.085Z</time></trkpt><trkpt lat="43.6988387" lon="11.140579"><ele>137.0</ele><time>2026-05-03T08:23:17.063Z</time></trkpt><trkpt lat="43.6989068" lon="11.1406783"><ele>139.0</ele><time>2026-05-03T08:23:19.065Z</time></trkpt><trkpt lat="43.6989972" lon="11.1407818"><ele>141.0</ele><time>2026-05-03T08:23:21.083Z</time></trkpt><trkpt lat="43.6990651" lon="11.1408501"><ele>143.0</ele><time>2026-05-03T08:23:22.065Z</time></trkpt><trkpt lat="43.6991376" lon="11.140945"><ele>145.0</ele><time>2026-05-03T08:23:23.107Z</time></trkpt><trkpt lat="43.6992099" lon="11.1410433"><ele>147.0</ele><time>2026-05-03T08:23:24.248Z</time></trkpt><trkpt lat="43.6993567" lon="11.141242"><ele>148.0</ele><time>2026-05-03T08:23:26.066Z</time></trkpt><trkpt lat="43.699426" lon="11.1413471"><ele>149.0</ele><time>2026-05-03T08:23:27.067Z</time></trkpt><trkpt lat="43.6994925" lon="11.1414508"><ele>150.0</ele><time>2026-05-03T08:23:28.09Z</time></trkpt><trkpt lat="43.6995562" lon="11.1415554"><ele>151.0</ele><time>2026-05-03T08:23:29.108Z</time></trkpt><trkpt lat="43.699617" lon="11.1416641"><ele>152.0</ele><time>2026-05-03T08:23:30.053Z</time></trkpt><trkpt lat="43.6996818" lon="11.1417663"><ele>152.0</ele><time>2026-05-03T08:23:31.055Z</time></trkpt><trkpt lat="43.6997499" lon="11.1418572"><ele>152.0</ele><time>2026-05-03T08:23:32.051Z</time></trkpt><trkpt lat="43.6998126" lon="11.1419402"><ele>152.0</ele><time>2026-05-03T08:23:33.055Z</time></trkpt><trkpt lat="43.6998699" lon="11.14202"><ele>152.0</ele><time>2026-05-03T08:23:34.05Z</time></trkpt><trkpt lat="43.6999301" lon="11.1420952"><ele>152.0</ele><time>2026-05-03T08:23:35.047Z</time></trkpt><trkpt lat="43.6999952" lon="11.1421681"><ele>152.0</ele><time>2026-05-03T08:23:36.047Z</time></trkpt><trkpt lat="43.7000691" lon="11.1422345"><ele>152.0</ele><time>2026-05-03T08:23:37.059Z</time></trkpt><trkpt lat="43.7001477" lon="11.142298"><ele>152.0</ele><time>2026-05-03T08:23:38.063Z</time></trkpt><trkpt lat="43.7002291" lon="11.1423653"><ele>152.0</ele><time>2026-05-03T08:23:39.057Z</time></trkpt><trkpt lat="43.7003143" lon="11.1424385"><ele>152.0</ele><time>2026-05-03T08:23:40.057Z</time></trkpt><trkpt lat="43.7003965" lon="11.1425172"><ele>152.0</ele><time>2026-05-03T08:23:41.053Z</time></trkpt><trkpt lat="43.7004752" lon="11.1425905"><ele>154.39999999999998</ele><time>2026-05-03T08:23:42.052Z</time></trkpt><trkpt lat="43.7005485" lon="11.1426601"><ele>156.79999999999998</ele><time>2026-05-03T08:23:43.06Z</time></trkpt><trkpt lat="43.7006142" lon="11.1427185"><ele>159.2</ele><time>2026-05-03T08:23:44.049Z</time></trkpt><trkpt lat="43.7006868" lon="11.1427547"><ele>161.6</ele><time>2026-05-03T08:23:45.051Z</time></trkpt><trkpt lat="43.7007805" lon="11.142792"><ele>164.0</ele><time>2026-05-03T08:23:46.056Z</time></trkpt><trkpt lat="43.7008865" lon="11.142839"><ele>164.0</ele><time>2026-05-03T08:23:47.05Z</time></trkpt><trkpt lat="43.700987" lon="11.1428907"><ele>164.0</ele><time>2026-05-03T08:23:48.049Z</time></trkpt><trkpt lat="43.7010741" lon="11.1429631"><ele>164.0</ele><time>2026-05-03T08:23:49.071Z</time></trkpt><trkpt lat="43.7011487" lon="11.1430535"><ele>164.0</ele><time>2026-05-03T08:23:50.061Z</time></trkpt><trkpt lat="43.7012323" lon="11.1431587"><ele>164.0</ele><time>2026-05-03T08:23:51.07Z</time></trkpt><trkpt lat="43.7013118" lon="11.1432844"><ele>165.5</ele><time>2026-05-03T08:23:52.056Z</time></trkpt><trkpt lat="43.7013999" lon="11.143413"><ele>167.0</ele><time>2026-05-03T08:23:53.074Z</time></trkpt><trkpt lat="43.7014937" lon="11.1435414"><ele>168.5</ele><time>2026-05-03T08:23:54.065Z</time></trkpt><trkpt lat="43.7015875" lon="11.1436596"><ele>170.0</ele><time>2026-05-03T08:23:55.077Z</time></trkpt><trkpt lat="43.7016737" lon="11.1437667"><ele>170.0</ele><time>2026-05-03T08:23:56.06Z</time></trkpt><trkpt lat="43.7017457" lon="11.1438635"><ele>170.0</ele><time>2026-05-03T08:23:57.062Z</time></trkpt><trkpt lat="43.7018073" lon="11.1439554"><ele>170.0</ele><time>2026-05-03T08:23:58.07Z</time></trkpt><trkpt lat="43.7018776" lon="11.1440297"><ele>170.0</ele><time>2026-05-03T08:23:59.053Z</time></trkpt><trkpt lat="43.7019565" lon="11.1440951"><ele>170.0</ele><time>2026-05-03T08:24:00.056Z</time></trkpt><trkpt lat="43.7020367" lon="11.1441624"><ele>171.2</ele><time>2026-05-03T08:24:01.056Z</time></trkpt><trkpt lat="43.7021166" lon="11.1442413"><ele>172.4</ele><time>2026-05-03T08:24:02.051Z</time></trkpt><trkpt lat="43.7022038" lon="11.144325"><ele>173.60000000000002</ele><time>2026-05-03T08:24:03.051Z</time></trkpt><trkpt lat="43.7022796" lon="11.1444363"><ele>174.8</ele><time>2026-05-03T08:24:04.051Z</time></trkpt><trkpt lat="43.7023464" lon="11.1445449"><ele>176.0</ele><time>2026-05-03T08:24:05.054Z</time></trkpt><trkpt lat="43.7024101" lon="11.1446478"><ele>176.0</ele><time>2026-05-03T08:24:06.052Z</time></trkpt><trkpt lat="43.7024889" lon="11.1447381"><ele>176.0</ele><time>2026-05-03T08:24:07.051Z</time></trkpt><trkpt lat="43.7025853" lon="11.1447888"><ele>176.0</ele><time>2026-05-03T08:24:08.05Z</time></trkpt><trkpt lat="43.7026738" lon="11.1448365"><ele>176.0</ele><time>2026-05-03T08:24:09.056Z</time></trkpt><trkpt lat="43.7027493" lon="11.1448935"><ele>176.0</ele><time>2026-05-03T08:24:10.055Z</time></trkpt><trkpt lat="43.7028121" lon="11.1449709"><ele>177.60000000000002</ele><time>2026-05-03T08:24:11.055Z</time></trkpt><trkpt lat="43.7028653" lon="11.1450715"><ele>179.2</ele><time>2026-05-03T08:24:12.056Z</time></trkpt><trkpt lat="43.7029137" lon="11.1451896"><ele>180.8</ele><time>2026-05-03T08:24:13.053Z</time></trkpt><trkpt lat="43.7029691" lon="11.1453006"><ele>182.39999999999998</ele><time>2026-05-03T08:24:14.049Z</time></trkpt><trkpt lat="43.7030326" lon="11.1453898"><ele>184.0</ele><time>2026-05-03T08:24:15.052Z</time></trkpt><trkpt lat="43.7030892" lon="11.1454785"><ele>184.0</ele><time>2026-05-03T08:24:16.053Z</time></trkpt><trkpt lat="43.7031355" lon="11.1455872"><ele>184.0</ele><time>2026-05-03T08:24:17.046Z</time></trkpt><trkpt lat="43.7031721" lon="11.1457202"><ele>184.0</ele><time>2026-05-03T08:24:18.053Z</time></trkpt><trkpt lat="43.7032159" lon="11.1458608"><ele>184.0</ele><time>2026-05-03T08:24:19.051Z</time></trkpt><trkpt lat="43.7032439" lon="11.1460281"><ele>184.0</ele><time>2026-05-03T08:24:20.049Z</time></trkpt><trkpt lat="43.703281" lon="11.1462032"><ele>187.0</ele><time>2026-05-03T08:24:21.05Z</time></trkpt><trkpt lat="43.7033316" lon="11.1463745"><ele>190.0</ele><time>2026-05-03T08:24:22.048Z</time></trkpt><trkpt lat="43.7033778" lon="11.1465338"><ele>193.0</ele><time>2026-05-03T08:24:23.051Z</time></trkpt><trkpt lat="43.7034171" lon="11.1466961"><ele>196.0</ele><time>2026-05-03T08:24:24.047Z</time></trkpt><trkpt lat="43.7034665" lon="11.146863"><ele>197.4</ele><time>2026-05-03T08:24:25.051Z</time></trkpt><trkpt lat="43.703508" lon="11.147027"><ele>198.8</ele><time>2026-05-03T08:24:26.049Z</time></trkpt><trkpt lat="43.703542" lon="11.1471654"><ele>200.20000000000002</ele><time>2026-05-03T08:24:27.05Z</time></trkpt><trkpt lat="43.7035611" lon="11.1472821"><ele>201.60000000000002</ele><time>2026-05-03T08:24:28.046Z</time></trkpt><trkpt lat="43.703585" lon="11.1473872"><ele>203.0</ele><time>2026-05-03T08:24:29.05Z</time></trkpt><trkpt lat="43.7035972" lon="11.1474956"><ele>203.33333333333334</ele><time>2026-05-03T08:24:30.053Z</time></trkpt><trkpt lat="43.7036239" lon="11.1475992"><ele>203.66666666666669</ele><time>2026-05-03T08:24:31.053Z</time></trkpt><trkpt lat="43.7036499" lon="11.1477039"><ele>204.0</ele><time>2026-05-03T08:24:32.048Z</time></trkpt><trkpt lat="43.7037016" lon="11.1477805"><ele>204.33333333333331</ele><time>2026-05-03T08:24:33.054Z</time></trkpt><trkpt lat="43.7037537" lon="11.1478339"><ele>204.66666666666666</ele><time>2026-05-03T08:24:34.045Z</time></trkpt><trkpt lat="43.7038352" lon="11.1479159"><ele>205.0</ele><time>2026-05-03T08:24:36.053Z</time></trkpt><trkpt lat="43.7039067" lon="11.1480108"><ele>204.99999999999997</ele><time>2026-05-03T08:24:38.053Z</time></trkpt><trkpt lat="43.703946" lon="11.148083"><ele>205.0</ele><time>2026-05-03T08:24:39.045Z</time></trkpt><trkpt lat="43.7039757" lon="11.148165"><ele>205.0</ele><time>2026-05-03T08:24:40.05Z</time></trkpt><trkpt lat="43.7040029" lon="11.1482585"><ele>205.0</ele><time>2026-05-03T08:24:41.046Z</time></trkpt><trkpt lat="43.7040241" lon="11.1483609"><ele>204.99999999999997</ele><time>2026-05-03T08:24:42.046Z</time></trkpt><trkpt lat="43.7040728" lon="11.1484598"><ele>205.0</ele><time>2026-05-03T08:24:43.052Z</time></trkpt><trkpt lat="43.7041384" lon="11.1485882"><ele>207.25</ele><time>2026-05-03T08:24:44.046Z</time></trkpt><trkpt lat="43.7042271" lon="11.14873"><ele>209.5</ele><time>2026-05-03T08:24:45.048Z</time></trkpt><trkpt lat="43.7043127" lon="11.1488659"><ele>211.75</ele><time>2026-05-03T08:24:46.049Z</time></trkpt><trkpt lat="43.7043893" lon="11.1489999"><ele>214.0</ele><time>2026-05-03T08:24:47.054Z</time></trkpt><trkpt lat="43.7044607" lon="11.1491261"><ele>216.99999999999997</ele><time>2026-05-03T08:24:48.052Z</time></trkpt><trkpt lat="43.704539" lon="11.149235"><ele>220.0</ele><time>2026-05-03T08:24:49.051Z</time></trkpt><trkpt lat="43.7045955" lon="11.149353"><ele>223.0</ele><time>2026-05-03T08:24:50.048Z</time></trkpt><trkpt lat="43.704636" lon="11.1494618"><ele>226.0</ele><time>2026-05-03T08:24:51.05Z</time></trkpt><trkpt lat="43.7046727" lon="11.1495475"><ele>228.99999999999997</ele><time>2026-05-03T08:24:52.052Z</time></trkpt><trkpt lat="43.7046981" lon="11.149629"><ele>232.0</ele><time>2026-05-03T08:24:53.053Z</time></trkpt><trkpt lat="43.7047328" lon="11.1497028"><ele>232.0</ele><time>2026-05-03T08:24:54.051Z</time></trkpt><trkpt lat="43.7048039" lon="11.1498356"><ele>232.0</ele><time>2026-05-03T08:24:56.05Z</time></trkpt><trkpt lat="43.7048609" lon="11.1499335"><ele>232.0</ele><time>2026-05-03T08:24:57.049Z</time></trkpt><trkpt lat="43.7049256" lon="11.1500397"><ele>232.0</ele><time>2026-05-03T08:24:58.048Z</time></trkpt><trkpt lat="43.7049954" lon="11.1501489"><ele>232.0</ele><time>2026-05-03T08:24:59.048Z</time></trkpt><trkpt lat="43.7050776" lon="11.1502452"><ele>234.39999999999998</ele><time>2026-05-03T08:25:00.049Z</time></trkpt><trkpt lat="43.7051528" lon="11.1503417"><ele>236.79999999999998</ele><time>2026-05-03T08:25:01.054Z</time></trkpt><trkpt lat="43.7052231" lon="11.1504299"><ele>239.2</ele><time>2026-05-03T08:25:02.049Z</time></trkpt><trkpt lat="43.7053048" lon="11.1505088"><ele>241.6</ele><time>2026-05-03T08:25:03.052Z</time></trkpt><trkpt lat="43.7053642" lon="11.1505963"><ele>244.0</ele><time>2026-05-03T08:25:04.049Z</time></trkpt><trkpt lat="43.7054492" lon="11.1506673"><ele>247.6</ele><time>2026-05-03T08:25:05.047Z</time></trkpt><trkpt lat="43.7055199" lon="11.1507877"><ele>251.2</ele><time>2026-05-03T08:25:06.048Z</time></trkpt><trkpt lat="43.7055655" lon="11.1509301"><ele>254.79999999999998</ele><time>2026-05-03T08:25:07.049Z</time></trkpt><trkpt lat="43.7055818" lon="11.1510633"><ele>258.4</ele><time>2026-05-03T08:25:08.05Z</time></trkpt><trkpt lat="43.7055931" lon="11.1511778"><ele>262.0</ele><time>2026-05-03T08:25:09.067Z</time></trkpt><trkpt lat="43.7056345" lon="11.1513343"><ele>262.0</ele><time>2026-05-03T08:25:11.046Z</time></trkpt><trkpt lat="43.705758" lon="11.1514235"><ele>262.0</ele><time>2026-05-03T08:25:13.066Z</time></trkpt><trkpt lat="43.7058471" lon="11.1514426"><ele>262.0</ele><time>2026-05-03T08:25:14.05Z</time></trkpt><trkpt lat="43.7059729" lon="11.1514405"><ele>262.0</ele><time>2026-05-03T08:25:15.049Z</time></trkpt><trkpt lat="43.7061074" lon="11.1514444"><ele>264.5</ele><time>2026-05-03T08:25:16.051Z</time></trkpt><trkpt lat="43.7062635" lon="11.1514401"><ele>267.0</ele><time>2026-05-03T08:25:17.048Z</time></trkpt><trkpt lat="43.7064114" lon="11.1514303"><ele>269.5</ele><time>2026-05-03T08:25:18.051Z</time></trkpt><trkpt lat="43.706531" lon="11.15143"><ele>272.0</ele><time>2026-05-03T08:25:19.058Z</time></trkpt><trkpt lat="43.7066433" lon="11.1514345"><ele>272.0</ele><time>2026-05-03T08:25:20.046Z</time></trkpt><trkpt lat="43.7067527" lon="11.1514617"><ele>272.0</ele><time>2026-05-03T08:25:21.061Z</time></trkpt><trkpt lat="43.7068464" lon="11.1514818"><ele>272.0</ele><time>2026-05-03T08:25:22.056Z</time></trkpt><trkpt lat="43.7069362" lon="11.1515186"><ele>272.0</ele><time>2026-05-03T08:25:23.061Z</time></trkpt><trkpt lat="43.7070201" lon="11.151537"><ele>272.0</ele><time>2026-05-03T08:25:24.046Z</time></trkpt><trkpt lat="43.7070897" lon="11.1515508"><ele>272.5</ele><time>2026-05-03T08:25:25.046Z</time></trkpt><trkpt lat="43.7071564" lon="11.1515421"><ele>273.0</ele><time>2026-05-03T08:25:26.049Z</time></trkpt><trkpt lat="43.7072292" lon="11.1514988"><ele>273.5</ele><time>2026-05-03T08:25:27.049Z</time></trkpt><trkpt lat="43.7073185" lon="11.1514778"><ele>274.0</ele><time>2026-05-03T08:25:28.057Z</time></trkpt><trkpt lat="43.7074169" lon="11.1514391"><ele>274.5</ele><time>2026-05-03T08:25:29.056Z</time></trkpt><trkpt lat="43.7075116" lon="11.1514053"><ele>275.0</ele><time>2026-05-03T08:25:30.049Z</time></trkpt><trkpt lat="43.7075868" lon="11.1513731"><ele>275.0</ele><time>2026-05-03T08:25:31.052Z</time></trkpt><trkpt lat="43.7076904" lon="11.151306"><ele>275.0</ele><time>2026-05-03T08:25:33.046Z</time></trkpt><trkpt lat="43.7077469" lon="11.1512577"><ele>275.0</ele><time>2026-05-03T08:25:34.051Z</time></trkpt><trkpt lat="43.7078045" lon="11.1512068"><ele>275.0</ele><time>2026-05-03T08:25:35.058Z</time></trkpt><trkpt lat="43.7078578" lon="11.1511498"><ele>275.0</ele><time>2026-05-03T08:25:36.049Z</time></trkpt><trkpt lat="43.7079187" lon="11.1510685"><ele>275.0</ele><time>2026-05-03T08:25:37.061Z</time></trkpt><trkpt lat="43.7079914" lon="11.1509996"><ele>274.0</ele><time>2026-05-03T08:25:38.055Z</time></trkpt><trkpt lat="43.7080761" lon="11.1509597"><ele>273.0</ele><time>2026-05-03T08:25:39.053Z</time></trkpt><trkpt lat="43.7081456" lon="11.1509123"><ele>272.0</ele><time>2026-05-03T08:25:40.048Z</time></trkpt><trkpt lat="43.7082596" lon="11.1508483"><ele>271.0</ele><time>2026-05-03T08:25:42.055Z</time></trkpt><trkpt lat="43.7083246" lon="11.1508117"><ele>270.0</ele><time>2026-05-03T08:25:43.057Z</time></trkpt><trkpt lat="43.7083894" lon="11.1507807"><ele>269.0</ele><time>2026-05-03T08:25:44.049Z</time></trkpt><trkpt lat="43.7084587" lon="11.150738"><ele>269.5</ele><time>2026-05-03T08:25:45.051Z</time></trkpt><trkpt lat="43.7085198" lon="11.1506952"><ele>270.0</ele><time>2026-05-03T08:25:46.046Z</time></trkpt><trkpt lat="43.7085863" lon="11.1506463"><ele>270.5</ele><time>2026-05-03T08:25:47.053Z</time></trkpt><trkpt lat="43.7086616" lon="11.1505831"><ele>271.0</ele><time>2026-05-03T08:25:48.055Z</time></trkpt><trkpt lat="43.7087505" lon="11.150508"><ele>271.5</ele><time>2026-05-03T08:25:49.057Z</time></trkpt><trkpt lat="43.7088283" lon="11.1504399"><ele>272.0</ele><time>2026-05-03T08:25:50.047Z</time></trkpt><trkpt lat="43.7089134" lon="11.1503741"><ele>271.99999999999994</ele><time>2026-05-03T08:25:51.05Z</time></trkpt><trkpt lat="43.7089931" lon="11.1503153"><ele>272.0</ele><time>2026-05-03T08:25:52.055Z</time></trkpt><trkpt lat="43.7090727" lon="11.1502678"><ele>272.0</ele><time>2026-05-03T08:25:53.052Z</time></trkpt><trkpt lat="43.7091358" lon="11.1502248"><ele>272.0</ele><time>2026-05-03T08:25:54.05Z</time></trkpt><trkpt lat="43.7091968" lon="11.15019"><ele>272.0</ele><time>2026-05-03T08:25:55.049Z</time></trkpt><trkpt lat="43.7092591" lon="11.150152"><ele>271.99999999999994</ele><time>2026-05-03T08:25:56.047Z</time></trkpt><trkpt lat="43.7093196" lon="11.1501129"><ele>272.0</ele><time>2026-05-03T08:25:57.049Z</time></trkpt><trkpt lat="43.7094235" lon="11.1500528"><ele>272.0</ele><time>2026-05-03T08:25:59.051Z</time></trkpt><trkpt lat="43.7093715" lon="11.1499907"><ele>272.0</ele><time>2026-05-03T08:26:23.049Z</time></trkpt><trkpt lat="43.7092895" lon="11.1500333"><ele>272.0</ele><time>2026-05-03T08:26:26.05Z</time></trkpt><trkpt lat="43.7092105" lon="11.1500712"><ele>272.0</ele><time>2026-05-03T08:26:28.047Z</time></trkpt><trkpt lat="43.7091174" lon="11.150105"><ele>272.0</ele><time>2026-05-03T08:26:30.061Z</time></trkpt><trkpt lat="43.7090421" lon="11.1501305"><ele>272.0</ele><time>2026-05-03T08:26:32.049Z</time></trkpt><trkpt lat="43.7089757" lon="11.150155"><ele>272.0</ele><time>2026-05-03T08:26:34.05Z</time></trkpt><trkpt lat="43.7088802" lon="11.1501544"><ele>272.0</ele><time>2026-05-03T08:26:37.051Z</time></trkpt><trkpt lat="43.7088074" lon="11.1501562"><ele>272.0</ele><time>2026-05-03T08:26:39.049Z</time></trkpt><trkpt lat="43.7087316" lon="11.1501407"><ele>272.0</ele><time>2026-05-03T08:26:42.047Z</time></trkpt><trkpt lat="43.7086512" lon="11.1501228"><ele>272.0</ele><time>2026-05-03T08:26:45.051Z</time></trkpt><trkpt lat="43.7085829" lon="11.1501398"><ele>272.0</ele><time>2026-05-03T08:26:48.05Z</time></trkpt><trkpt lat="43.708514" lon="11.150169"><ele>272.1666666666667</ele><time>2026-05-03T08:26:51.054Z</time></trkpt><trkpt lat="43.7083937" lon="11.1502116"><ele>272.33333333333337</ele><time>2026-05-03T08:27:11.05Z</time></trkpt><trkpt lat="43.7083208" lon="11.1502311"><ele>272.5</ele><time>2026-05-03T08:27:29.045Z</time></trkpt><trkpt lat="43.7082392" lon="11.1502886"><ele>272.6666666666667</ele><time>2026-05-03T08:27:32.049Z</time></trkpt><trkpt lat="43.7081971" lon="11.1503599"><ele>272.8333333333333</ele><time>2026-05-03T08:27:35.051Z</time></trkpt><trkpt lat="43.7081933" lon="11.1504808"><ele>273.0</ele><time>2026-05-03T08:27:39.05Z</time></trkpt><trkpt lat="43.7081702" lon="11.1505884"><ele>273.0</ele><time>2026-05-03T08:27:42.063Z</time></trkpt><trkpt lat="43.7081622" lon="11.1506879"><ele>273.0</ele><time>2026-05-03T08:27:45.048Z</time></trkpt><trkpt lat="43.7081794" lon="11.1507815"><ele>273.0</ele><time>2026-05-03T08:27:48.047Z</time></trkpt><trkpt lat="43.7081991" lon="11.1509237"><ele>273.0</ele><time>2026-05-03T08:27:59.059Z</time></trkpt><trkpt lat="43.7082836" lon="11.1508982"><ele>273.0</ele><time>2026-05-03T08:28:03.046Z</time></trkpt><trkpt lat="43.7083468" lon="11.1508721"><ele>273.0</ele><time>2026-05-03T08:28:04.046Z</time></trkpt><trkpt lat="43.7084143" lon="11.150838"><ele>272.8</ele><time>2026-05-03T08:28:05.046Z</time></trkpt><trkpt lat="43.708491" lon="11.1507813"><ele>272.6</ele><time>2026-05-03T08:28:06.051Z</time></trkpt><trkpt lat="43.7085771" lon="11.1507127"><ele>272.4</ele><time>2026-05-03T08:28:07.045Z</time></trkpt><trkpt lat="43.7086675" lon="11.1506324"><ele>272.2</ele><time>2026-05-03T08:28:08.048Z</time></trkpt><trkpt lat="43.7087503" lon="11.1505569"><ele>272.0</ele><time>2026-05-03T08:28:09.049Z</time></trkpt><trkpt lat="43.7088171" lon="11.1504992"><ele>271.99999999999994</ele><time>2026-05-03T08:28:10.049Z</time></trkpt><trkpt lat="43.7088812" lon="11.1504481"><ele>272.0</ele><time>2026-05-03T08:28:11.053Z</time></trkpt><trkpt lat="43.7089459" lon="11.1504073"><ele>272.0</ele><time>2026-05-03T08:28:12.046Z</time></trkpt><trkpt lat="43.7090093" lon="11.1503691"><ele>272.0</ele><time>2026-05-03T08:28:13.063Z</time></trkpt><trkpt lat="43.7090739" lon="11.1503347"><ele>272.0</ele><time>2026-05-03T08:28:14.049Z</time></trkpt><trkpt lat="43.7091365" lon="11.150295"><ele>271.99999999999994</ele><time>2026-05-03T08:28:15.052Z</time></trkpt><trkpt lat="43.7091968" lon="11.1502512"><ele>272.0</ele><time>2026-05-03T08:28:16.056Z</time></trkpt><trkpt lat="43.7092588" lon="11.1502143"><ele>272.0</ele><time>2026-05-03T08:28:17.053Z</time></trkpt><trkpt lat="43.7093175" lon="11.1501705"><ele>272.0</ele><time>2026-05-03T08:28:18.049Z</time></trkpt><trkpt lat="43.7093774" lon="11.1501364"><ele>272.0</ele><time>2026-05-03T08:28:19.044Z</time></trkpt><trkpt lat="43.7094376" lon="11.1501091"><ele>272.0</ele><time>2026-05-03T08:28:20.048Z</time></trkpt><trkpt lat="43.7095609" lon="11.1500779"><ele>272.0</ele><time>2026-05-03T08:28:22.052Z</time></trkpt><trkpt lat="43.7096767" lon="11.1500516"><ele>272.0</ele><time>2026-05-03T08:28:24.047Z</time></trkpt><trkpt lat="43.7097895" lon="11.1500259"><ele>272.25</ele><time>2026-05-03T08:28:26.044Z</time></trkpt><trkpt lat="43.7098956" lon="11.1500329"><ele>272.5</ele><time>2026-05-03T08:28:28.047Z</time></trkpt><trkpt lat="43.7099988" lon="11.150086"><ele>272.75</ele><time>2026-05-03T08:28:30.043Z</time></trkpt><trkpt lat="43.7100891" lon="11.1501756"><ele>273.0</ele><time>2026-05-03T08:28:32.043Z</time></trkpt><trkpt lat="43.7101569" lon="11.1503302"><ele>273.0</ele><time>2026-05-03T08:28:34.056Z</time></trkpt><trkpt lat="43.7101841" lon="11.1504265"><ele>273.0</ele><time>2026-05-03T08:28:35.048Z</time></trkpt><trkpt lat="43.7102094" lon="11.1505355"><ele>273.0</ele><time>2026-05-03T08:28:36.045Z</time></trkpt><trkpt lat="43.7102344" lon="11.1506562"><ele>273.0</ele><time>2026-05-03T08:28:37.054Z</time></trkpt><trkpt lat="43.7102617" lon="11.1507796"><ele>273.0</ele><time>2026-05-03T08:28:38.045Z</time></trkpt><trkpt lat="43.7102997" lon="11.1508971"><ele>273.0</ele><time>2026-05-03T08:28:39.043Z</time></trkpt><trkpt lat="43.7103533" lon="11.1509977"><ele>274.0</ele><time>2026-05-03T08:28:40.046Z</time></trkpt><trkpt lat="43.7104153" lon="11.1510792"><ele>275.0</ele><time>2026-05-03T08:28:41.049Z</time></trkpt><trkpt lat="43.710472" lon="11.1511597"><ele>276.0</ele><time>2026-05-03T08:28:42.052Z</time></trkpt><trkpt lat="43.7105256" lon="11.1512488"><ele>277.0</ele><time>2026-05-03T08:28:43.048Z</time></trkpt><trkpt lat="43.7105799" lon="11.1513498"><ele>278.0</ele><time>2026-05-03T08:28:44.045Z</time></trkpt><trkpt lat="43.7106294" lon="11.151456"><ele>279.0</ele><time>2026-05-03T08:28:45.047Z</time></trkpt><trkpt lat="43.7106766" lon="11.1515589"><ele>281.0</ele><time>2026-05-03T08:28:46.05Z</time></trkpt><trkpt lat="43.7107049" lon="11.1516735"><ele>283.0</ele><time>2026-05-03T08:28:47.051Z</time></trkpt><trkpt lat="43.7107318" lon="11.1517901"><ele>285.0</ele><time>2026-05-03T08:28:48.045Z</time></trkpt><trkpt lat="43.7107507" lon="11.1519072"><ele>287.0</ele><time>2026-05-03T08:28:49.051Z</time></trkpt><trkpt lat="43.7107662" lon="11.152024"><ele>289.0</ele><time>2026-05-03T08:28:50.045Z</time></trkpt><trkpt lat="43.7107559" lon="11.1521482"><ele>291.0</ele><time>2026-05-03T08:28:51.045Z</time></trkpt><trkpt lat="43.7107395" lon="11.1522747"><ele>292.6</ele><time>2026-05-03T08:28:52.067Z</time></trkpt><trkpt lat="43.7107336" lon="11.1524112"><ele>294.20000000000005</ele><time>2026-05-03T08:28:53.046Z</time></trkpt><trkpt lat="43.7107225" lon="11.1525552"><ele>295.79999999999995</ele><time>2026-05-03T08:28:54.046Z</time></trkpt><trkpt lat="43.7107115" lon="11.1526875"><ele>297.4</ele><time>2026-05-03T08:28:55.044Z</time></trkpt><trkpt lat="43.7107015" lon="11.1528056"><ele>299.0</ele><time>2026-05-03T08:28:56.061Z</time></trkpt><trkpt lat="43.7107005" lon="11.1529189"><ele>299.0</ele><time>2026-05-03T08:28:57.052Z</time></trkpt><trkpt lat="43.710714" lon="11.1530318"><ele>299.0</ele><time>2026-05-03T08:28:58.048Z</time></trkpt><trkpt lat="43.7107336" lon="11.1531461"><ele>299.0</ele><time>2026-05-03T08:28:59.051Z</time></trkpt><trkpt lat="43.7107608" lon="11.1532528"><ele>299.0</ele><time>2026-05-03T08:29:00.047Z</time></trkpt><trkpt lat="43.7108123" lon="11.1533465"><ele>299.0</ele><time>2026-05-03T08:29:01.052Z</time></trkpt><trkpt lat="43.7108622" lon="11.1534519"><ele>299.0</ele><time>2026-05-03T08:29:02.043Z</time></trkpt><trkpt lat="43.7109279" lon="11.1535419"><ele>299.33333333333337</ele><time>2026-05-03T08:29:03.052Z</time></trkpt><trkpt lat="43.710987" lon="11.1536448"><ele>299.6666666666667</ele><time>2026-05-03T08:29:04.05Z</time></trkpt><trkpt lat="43.7110237" lon="11.1537609"><ele>300.0</ele><time>2026-05-03T08:29:05.049Z</time></trkpt><trkpt lat="43.7110713" lon="11.1538625"><ele>300.3333333333333</ele><time>2026-05-03T08:29:06.052Z</time></trkpt><trkpt lat="43.7111155" lon="11.1539676"><ele>300.66666666666663</ele><time>2026-05-03T08:29:07.05Z</time></trkpt><trkpt lat="43.7111633" lon="11.1540657"><ele>301.0</ele><time>2026-05-03T08:29:08.05Z</time></trkpt><trkpt lat="43.7112165" lon="11.15414"><ele>301.66666666666663</ele><time>2026-05-03T08:29:09.048Z</time></trkpt><trkpt lat="43.7112675" lon="11.1541969"><ele>302.3333333333333</ele><time>2026-05-03T08:29:10.047Z</time></trkpt><trkpt lat="43.711325" lon="11.154241"><ele>303.0</ele><time>2026-05-03T08:29:11.049Z</time></trkpt><trkpt lat="43.7113939" lon="11.1542628"><ele>303.6666666666667</ele><time>2026-05-03T08:29:12.045Z</time></trkpt><trkpt lat="43.7114768" lon="11.1542547"><ele>304.33333333333337</ele><time>2026-05-03T08:29:13.095Z</time></trkpt><trkpt lat="43.7115657" lon="11.154218"><ele>305.0</ele><time>2026-05-03T08:29:14.049Z</time></trkpt><trkpt lat="43.711656" lon="11.154182"><ele>305.0</ele><time>2026-05-03T08:29:15.046Z</time></trkpt><trkpt lat="43.7117404" lon="11.1541435"><ele>305.0</ele><time>2026-05-03T08:29:16.048Z</time></trkpt><trkpt lat="43.7118252" lon="11.1540924"><ele>305.0</ele><time>2026-05-03T08:29:17.06Z</time></trkpt><trkpt lat="43.7119116" lon="11.154023"><ele>305.0</ele><time>2026-05-03T08:29:18.048Z</time></trkpt><trkpt lat="43.7119876" lon="11.1539484"><ele>305.0</ele><time>2026-05-03T08:29:19.05Z</time></trkpt><trkpt lat="43.7120663" lon="11.1538822"><ele>308.1666666666667</ele><time>2026-05-03T08:29:20.049Z</time></trkpt><trkpt lat="43.7121577" lon="11.1538625"><ele>311.33333333333337</ele><time>2026-05-03T08:29:21.052Z</time></trkpt><trkpt lat="43.7122446" lon="11.1538467"><ele>314.5</ele><time>2026-05-03T08:29:22.049Z</time></trkpt><trkpt lat="43.7123282" lon="11.1538341"><ele>317.6666666666667</ele><time>2026-05-03T08:29:23.05Z</time></trkpt><trkpt lat="43.7124114" lon="11.153821"><ele>320.8333333333333</ele><time>2026-05-03T08:29:24.056Z</time></trkpt><trkpt lat="43.7124886" lon="11.1537912"><ele>324.0</ele><time>2026-05-03T08:29:25.051Z</time></trkpt><trkpt lat="43.712555" lon="11.1537639"><ele>324.0</ele><time>2026-05-03T08:29:26.047Z</time></trkpt><trkpt lat="43.7126163" lon="11.1537274"><ele>324.0</ele><time>2026-05-03T08:29:27.053Z</time></trkpt><trkpt lat="43.7126765" lon="11.1536782"><ele>324.0</ele><time>2026-05-03T08:29:28.045Z</time></trkpt><trkpt lat="43.7127242" lon="11.1536033"><ele>324.0</ele><time>2026-05-03T08:29:29.047Z</time></trkpt><trkpt lat="43.7127697" lon="11.1535118"><ele>324.0</ele><time>2026-05-03T08:29:30.05Z</time></trkpt><trkpt lat="43.7128244" lon="11.1534273"><ele>324.0</ele><time>2026-05-03T08:29:31.051Z</time></trkpt><trkpt lat="43.7128867" lon="11.1533564"><ele>321.5</ele><time>2026-05-03T08:29:32.045Z</time></trkpt><trkpt lat="43.7129543" lon="11.153306"><ele>319.0</ele><time>2026-05-03T08:29:33.049Z</time></trkpt><trkpt lat="43.7130245" lon="11.1532676"><ele>316.5</ele><time>2026-05-03T08:29:34.048Z</time></trkpt><trkpt lat="43.7131004" lon="11.1532308"><ele>314.0</ele><time>2026-05-03T08:29:35.044Z</time></trkpt><trkpt lat="43.7131788" lon="11.153201"><ele>311.5</ele><time>2026-05-03T08:29:36.047Z</time></trkpt><trkpt lat="43.7132619" lon="11.1531863"><ele>309.0</ele><time>2026-05-03T08:29:37.049Z</time></trkpt><trkpt lat="43.7133482" lon="11.1531918"><ele>309.0</ele><time>2026-05-03T08:29:38.046Z</time></trkpt><trkpt lat="43.7134381" lon="11.153213"><ele>309.0</ele><time>2026-05-03T08:29:39.05Z</time></trkpt><trkpt lat="43.7135292" lon="11.1532516"><ele>309.0</ele><time>2026-05-03T08:29:40.049Z</time></trkpt><trkpt lat="43.7136229" lon="11.1532941"><ele>309.0</ele><time>2026-05-03T08:29:41.05Z</time></trkpt><trkpt lat="43.7137185" lon="11.1533334"><ele>309.0</ele><time>2026-05-03T08:29:42.056Z</time></trkpt><trkpt lat="43.7138148" lon="11.1533682"><ele>310.0</ele><time>2026-05-03T08:29:43.049Z</time></trkpt><trkpt lat="43.7139113" lon="11.1534001"><ele>311.0</ele><time>2026-05-03T08:29:44.049Z</time></trkpt><trkpt lat="43.7140071" lon="11.1534358"><ele>312.0</ele><time>2026-05-03T08:29:45.048Z</time></trkpt><trkpt lat="43.7141019" lon="11.1534583"><ele>313.0</ele><time>2026-05-03T08:29:46.074Z</time></trkpt><trkpt lat="43.7141968" lon="11.1534599"><ele>314.0</ele><time>2026-05-03T08:29:47.095Z</time></trkpt><trkpt lat="43.7142889" lon="11.1534639"><ele>314.0</ele><time>2026-05-03T08:29:48.059Z</time></trkpt><trkpt lat="43.7143771" lon="11.1534796"><ele>314.0</ele><time>2026-05-03T08:29:49.091Z</time></trkpt><trkpt lat="43.7144615" lon="11.1534823"><ele>314.0</ele><time>2026-05-03T08:29:50.068Z</time></trkpt><trkpt lat="43.7145444" lon="11.1534775"><ele>314.0</ele><time>2026-05-03T08:29:51.052Z</time></trkpt><trkpt lat="43.7146268" lon="11.1534539"><ele>314.0</ele><time>2026-05-03T08:29:52.047Z</time></trkpt><trkpt lat="43.7147103" lon="11.1534097"><ele>314.0</ele><time>2026-05-03T08:29:53.044Z</time></trkpt><trkpt lat="43.7147971" lon="11.1533601"><ele>317.0</ele><time>2026-05-03T08:29:54.043Z</time></trkpt><trkpt lat="43.7148853" lon="11.1533098"><ele>320.0</ele><time>2026-05-03T08:29:55.059Z</time></trkpt><trkpt lat="43.7149758" lon="11.1532689"><ele>323.0</ele><time>2026-05-03T08:29:56.046Z</time></trkpt><trkpt lat="43.7150649" lon="11.1532261"><ele>326.0</ele><time>2026-05-03T08:29:57.05Z</time></trkpt><trkpt lat="43.7151525" lon="11.1531794"><ele>329.0</ele><time>2026-05-03T08:29:58.059Z</time></trkpt><trkpt lat="43.7152381" lon="11.1531355"><ele>329.6666666666667</ele><time>2026-05-03T08:29:59.049Z</time></trkpt><trkpt lat="43.7153143" lon="11.1530931"><ele>330.33333333333337</ele><time>2026-05-03T08:30:00.048Z</time></trkpt><trkpt lat="43.7153749" lon="11.1530511"><ele>331.0</ele><time>2026-05-03T08:30:01.046Z</time></trkpt><trkpt lat="43.7154299" lon="11.153007"><ele>331.6666666666667</ele><time>2026-05-03T08:30:02.051Z</time></trkpt><trkpt lat="43.7154891" lon="11.1528648"><ele>332.3333333333333</ele><time>2026-05-03T08:30:04.051Z</time></trkpt><trkpt lat="43.7155229" lon="11.152711"><ele>333.0</ele><time>2026-05-03T08:30:06.044Z</time></trkpt><trkpt lat="43.7155801" lon="11.152615"><ele>333.0</ele><time>2026-05-03T08:30:08.047Z</time></trkpt><trkpt lat="43.7156763" lon="11.1525647"><ele>333.0</ele><time>2026-05-03T08:30:10.042Z</time></trkpt><trkpt lat="43.7157399" lon="11.1525471"><ele>333.0</ele><time>2026-05-03T08:30:11.045Z</time></trkpt><trkpt lat="43.7158133" lon="11.1525302"><ele>333.0</ele><time>2026-05-03T08:30:12.048Z</time></trkpt><trkpt lat="43.715897" lon="11.1525163"><ele>333.0</ele><time>2026-05-03T08:30:13.045Z</time></trkpt><trkpt lat="43.7159632" lon="11.1525074"><ele>333.0</ele><time>2026-05-03T08:30:14.043Z</time></trkpt><trkpt lat="43.7160735" lon="11.1525017"><ele>331.6666666666667</ele><time>2026-05-03T08:30:16.05Z</time></trkpt><trkpt lat="43.7161892" lon="11.1524933"><ele>330.3333333333333</ele><time>2026-05-03T08:30:18.042Z</time></trkpt><trkpt lat="43.7162524" lon="11.1524882"><ele>329.0</ele><time>2026-05-03T08:30:19.048Z</time></trkpt><trkpt lat="43.7163805" lon="11.1524676"><ele>327.66666666666663</ele><time>2026-05-03T08:30:21.047Z</time></trkpt><trkpt lat="43.7164505" lon="11.1524682"><ele>326.3333333333333</ele><time>2026-05-03T08:30:22.045Z</time></trkpt><trkpt lat="43.716512" lon="11.1524917"><ele>325.0</ele><time>2026-05-03T08:30:23.046Z</time></trkpt><trkpt lat="43.7165809" lon="11.1525414"><ele>325.0</ele><time>2026-05-03T08:30:24.048Z</time></trkpt><trkpt lat="43.7166462" lon="11.1526162"><ele>325.0</ele><time>2026-05-03T08:30:25.057Z</time></trkpt><trkpt lat="43.716715" lon="11.1526903"><ele>325.0</ele><time>2026-05-03T08:30:26.057Z</time></trkpt><trkpt lat="43.716778" lon="11.15275"><ele>325.0</ele><time>2026-05-03T08:30:27.049Z</time></trkpt><trkpt lat="43.7168443" lon="11.1527895"><ele>325.0</ele><time>2026-05-03T08:30:28.053Z</time></trkpt><trkpt lat="43.7169138" lon="11.1528357"><ele>325.0</ele><time>2026-05-03T08:30:29.051Z</time></trkpt><trkpt lat="43.7169842" lon="11.152877"><ele>323.0</ele><time>2026-05-03T08:30:30.044Z</time></trkpt><trkpt lat="43.7170536" lon="11.152919"><ele>321.0</ele><time>2026-05-03T08:30:31.062Z</time></trkpt><trkpt lat="43.717119" lon="11.1529533"><ele>319.0</ele><time>2026-05-03T08:30:32.059Z</time></trkpt><trkpt lat="43.7171893" lon="11.1529693"><ele>317.0</ele><time>2026-05-03T08:30:33.055Z</time></trkpt><trkpt lat="43.717258" lon="11.1529732"><ele>315.0</ele><time>2026-05-03T08:30:34.045Z</time></trkpt><trkpt lat="43.7173284" lon="11.1529691"><ele>313.0</ele><time>2026-05-03T08:30:35.044Z</time></trkpt><trkpt lat="43.7173901" lon="11.1529416"><ele>311.0</ele><time>2026-05-03T08:30:36.046Z</time></trkpt><trkpt lat="43.7174946" lon="11.1529374"><ele>311.0</ele><time>2026-05-03T08:30:38.061Z</time></trkpt><trkpt lat="43.7176091" lon="11.153007"><ele>311.0</ele><time>2026-05-03T08:30:40.056Z</time></trkpt><trkpt lat="43.7176805" lon="11.1530556"><ele>311.0</ele><time>2026-05-03T08:30:41.048Z</time></trkpt><trkpt lat="43.7177618" lon="11.1530916"><ele>311.0</ele><time>2026-05-03T08:30:42.053Z</time></trkpt><trkpt lat="43.7178326" lon="11.1531134"><ele>311.0</ele><time>2026-05-03T08:30:43.049Z</time></trkpt><trkpt lat="43.7179115" lon="11.1531101"><ele>311.0</ele><time>2026-05-03T08:30:44.044Z</time></trkpt><trkpt lat="43.7179815" lon="11.1530985"><ele>311.4285714285714</ele><time>2026-05-03T08:30:45.046Z</time></trkpt><trkpt lat="43.7180484" lon="11.1530585"><ele>311.8571428571429</ele><time>2026-05-03T08:30:46.048Z</time></trkpt><trkpt lat="43.718109" lon="11.1529916"><ele>312.2857142857143</ele><time>2026-05-03T08:30:47.053Z</time></trkpt><trkpt lat="43.718156" lon="11.1529077"><ele>312.71428571428567</ele><time>2026-05-03T08:30:48.055Z</time></trkpt><trkpt lat="43.7181952" lon="11.1528207"><ele>313.1428571428571</ele><time>2026-05-03T08:30:49.048Z</time></trkpt><trkpt lat="43.7182447" lon="11.1527576"><ele>313.57142857142856</ele><time>2026-05-03T08:30:50.05Z</time></trkpt><trkpt lat="43.7183153" lon="11.1527277"><ele>314.0</ele><time>2026-05-03T08:30:51.051Z</time></trkpt><trkpt lat="43.7183939" lon="11.1527288"><ele>314.0</ele><time>2026-05-03T08:30:52.046Z</time></trkpt><trkpt lat="43.7184748" lon="11.1527259"><ele>314.0</ele><time>2026-05-03T08:30:53.046Z</time></trkpt><trkpt lat="43.7185552" lon="11.1527066"><ele>314.0</ele><time>2026-05-03T08:30:54.042Z</time></trkpt><trkpt lat="43.7186393" lon="11.1526947"><ele>314.0</ele><time>2026-05-03T08:30:55.048Z</time></trkpt><trkpt lat="43.7187105" lon="11.1526799"><ele>314.0</ele><time>2026-05-03T08:30:56.049Z</time></trkpt><trkpt lat="43.7188223" lon="11.1526781"><ele>314.0</ele><time>2026-05-03T08:30:58.049Z</time></trkpt><trkpt lat="43.7189262" lon="11.1526914"><ele>314.0</ele><time>2026-05-03T08:31:00.062Z</time></trkpt><trkpt lat="43.7190239" lon="11.152739"><ele>314.0</ele><time>2026-05-03T08:31:02.045Z</time></trkpt><trkpt lat="43.7191233" lon="11.1527794"><ele>314.0</ele><time>2026-05-03T08:31:04.043Z</time></trkpt><trkpt lat="43.7192403" lon="11.1527903"><ele>314.0</ele><time>2026-05-03T08:31:06.062Z</time></trkpt><trkpt lat="43.7193338" lon="11.1528125"><ele>314.0</ele><time>2026-05-03T08:31:08.048Z</time></trkpt><trkpt lat="43.7194094" lon="11.1528391"><ele>314.0</ele><time>2026-05-03T08:31:10.045Z</time></trkpt><trkpt lat="43.7194968" lon="11.1528797"><ele>314.0</ele><time>2026-05-03T08:31:12.048Z</time></trkpt><trkpt lat="43.719584" lon="11.1529146"><ele>314.0</ele><time>2026-05-03T08:31:14.048Z</time></trkpt><trkpt lat="43.7196694" lon="11.1529302"><ele>314.0</ele><time>2026-05-03T08:31:16.044Z</time></trkpt><trkpt lat="43.7197377" lon="11.1529513"><ele>314.0</ele><time>2026-05-03T08:31:18.058Z</time></trkpt><trkpt lat="43.7198247" lon="11.1529818"><ele>314.0</ele><time>2026-05-03T08:31:20.043Z</time></trkpt><trkpt lat="43.7199044" lon="11.1529882"><ele>314.0</ele><time>2026-05-03T08:31:22.058Z</time></trkpt><trkpt lat="43.719995" lon="11.1529938"><ele>314.0</ele><time>2026-05-03T08:31:24.047Z</time></trkpt><trkpt lat="43.7200752" lon="11.1530077"><ele>314.0</ele><time>2026-05-03T08:31:26.045Z</time></trkpt><trkpt lat="43.7201504" lon="11.1530242"><ele>314.0</ele><time>2026-05-03T08:31:28.043Z</time></trkpt><trkpt lat="43.7202395" lon="11.1530199"><ele>314.0</ele><time>2026-05-03T08:31:31.049Z</time></trkpt><trkpt lat="43.720302" lon="11.1529945"><ele>314.0</ele><time>2026-05-03T08:31:33.043Z</time></trkpt><trkpt lat="43.7203701" lon="11.1529674"><ele>315.1666666666667</ele><time>2026-05-03T08:31:35.048Z</time></trkpt><trkpt lat="43.7204402" lon="11.1529338"><ele>316.33333333333337</ele><time>2026-05-03T08:31:37.049Z</time></trkpt><trkpt lat="43.7205133" lon="11.1528825"><ele>317.5</ele><time>2026-05-03T08:31:39.042Z</time></trkpt><trkpt lat="43.7205739" lon="11.152827"><ele>318.6666666666667</ele><time>2026-05-03T08:31:41.043Z</time></trkpt><trkpt lat="43.7206713" lon="11.1527882"><ele>319.8333333333333</ele><time>2026-05-03T08:31:43.051Z</time></trkpt><trkpt lat="43.7207517" lon="11.1527588"><ele>321.0</ele><time>2026-05-03T08:31:45.047Z</time></trkpt><trkpt lat="43.720826" lon="11.1527194"><ele>320.99999999999994</ele><time>2026-05-03T08:31:47.054Z</time></trkpt><trkpt lat="43.7208978" lon="11.152688"><ele>321.0</ele><time>2026-05-03T08:31:49.05Z</time></trkpt><trkpt lat="43.7209522" lon="11.1526382"><ele>321.0</ele><time>2026-05-03T08:31:51.048Z</time></trkpt><trkpt lat="43.7210151" lon="11.1525905"><ele>321.0</ele><time>2026-05-03T08:31:53.048Z</time></trkpt><trkpt lat="43.7210888" lon="11.1525464"><ele>321.0</ele><time>2026-05-03T08:31:55.048Z</time></trkpt><trkpt lat="43.7211505" lon="11.1525234"><ele>320.99999999999994</ele><time>2026-05-03T08:31:57.044Z</time></trkpt><trkpt lat="43.7212369" lon="11.152507"><ele>321.0</ele><time>2026-05-03T08:32:00.047Z</time></trkpt><trkpt lat="43.7213213" lon="11.1524666"><ele>320.85714285714283</ele><time>2026-05-03T08:32:03.044Z</time></trkpt><trkpt lat="43.7213913" lon="11.152406"><ele>320.7142857142857</ele><time>2026-05-03T08:32:06.046Z</time></trkpt><trkpt lat="43.7214532" lon="11.1523739"><ele>320.57142857142856</ele><time>2026-05-03T08:32:09.043Z</time></trkpt><trkpt lat="43.7215172" lon="11.1523518"><ele>320.42857142857144</ele><time>2026-05-03T08:32:12.042Z</time></trkpt><trkpt lat="43.7215752" lon="11.152312"><ele>320.2857142857143</ele><time>2026-05-03T08:32:15.054Z</time></trkpt><trkpt lat="43.72165" lon="11.152277"><ele>320.1428571428571</ele><time>2026-05-03T08:32:18.051Z</time></trkpt><trkpt lat="43.7217104" lon="11.152304"><ele>320.0</ele><time>2026-05-03T08:32:21.049Z</time></trkpt><trkpt lat="43.7217694" lon="11.1523351"><ele>320.0</ele><time>2026-05-03T08:32:24.047Z</time></trkpt><trkpt lat="43.7218342" lon="11.1523413"><ele>320.0</ele><time>2026-05-03T08:32:27.046Z</time></trkpt><trkpt lat="43.7219113" lon="11.1523594"><ele>320.0</ele><time>2026-05-03T08:32:30.054Z</time></trkpt><trkpt lat="43.7219801" lon="11.15237"><ele>320.0</ele><time>2026-05-03T08:32:32.054Z</time></trkpt><trkpt lat="43.7220456" lon="11.1523753"><ele>320.0</ele><time>2026-05-03T08:32:34.055Z</time></trkpt><trkpt lat="43.7221324" lon="11.1523621"><ele>320.0</ele><time>2026-05-03T08:32:37.044Z</time></trkpt><trkpt lat="43.7222177" lon="11.1523586"><ele>319.7142857142857</ele><time>2026-05-03T08:32:40.042Z</time></trkpt><trkpt lat="43.7222866" lon="11.1523583"><ele>319.42857142857144</ele><time>2026-05-03T08:32:42.054Z</time></trkpt><trkpt lat="43.7223634" lon="11.1523588"><ele>319.1428571428571</ele><time>2026-05-03T08:32:44.05Z</time></trkpt><trkpt lat="43.7224282" lon="11.1523627"><ele>318.8571428571429</ele><time>2026-05-03T08:32:46.046Z</time></trkpt><trkpt lat="43.722493" lon="11.1524092"><ele>318.5714285714286</ele><time>2026-05-03T08:32:48.047Z</time></trkpt><trkpt lat="43.7225445" lon="11.152481"><ele>318.2857142857143</ele><time>2026-05-03T08:32:50.048Z</time></trkpt><trkpt lat="43.7226121" lon="11.1525671"><ele>318.0</ele><time>2026-05-03T08:32:52.048Z</time></trkpt><trkpt lat="43.7226825" lon="11.152615"><ele>319.8333333333333</ele><time>2026-05-03T08:32:55.054Z</time></trkpt><trkpt lat="43.722767" lon="11.1525903"><ele>321.6666666666667</ele><time>2026-05-03T08:32:58.046Z</time></trkpt><trkpt lat="43.722851" lon="11.152568"><ele>323.5</ele><time>2026-05-03T08:33:02.044Z</time></trkpt><trkpt lat="43.7229443" lon="11.1525424"><ele>325.33333333333337</ele><time>2026-05-03T08:33:05.044Z</time></trkpt><trkpt lat="43.7230234" lon="11.152503"><ele>327.1666666666667</ele><time>2026-05-03T08:33:08.041Z</time></trkpt><trkpt lat="43.7231086" lon="11.1524781"><ele>329.0</ele><time>2026-05-03T08:33:11.042Z</time></trkpt><trkpt lat="43.7231944" lon="11.1524624"><ele>329.0</ele><time>2026-05-03T08:33:14.048Z</time></trkpt><trkpt lat="43.723268" lon="11.1525192"><ele>329.0</ele><time>2026-05-03T08:33:17.049Z</time></trkpt><trkpt lat="43.7233444" lon="11.1525313"><ele>329.0</ele><time>2026-05-03T08:33:21.046Z</time></trkpt><trkpt lat="43.7234195" lon="11.1525284"><ele>329.0</ele><time>2026-05-03T08:33:24.061Z</time></trkpt><trkpt lat="43.7235314" lon="11.1524698"><ele>329.0</ele><time>2026-05-03T08:34:15.042Z</time></trkpt><trkpt lat="43.7235456" lon="11.1523261"><ele>327.83333333333337</ele><time>2026-05-03T08:34:18.045Z</time></trkpt><trkpt lat="43.7235203" lon="11.1522201"><ele>326.6666666666667</ele><time>2026-05-03T08:34:19.047Z</time></trkpt><trkpt lat="43.7234983" lon="11.1521039"><ele>325.5</ele><time>2026-05-03T08:34:20.041Z</time></trkpt><trkpt lat="43.7234804" lon="11.1519967"><ele>324.3333333333333</ele><time>2026-05-03T08:34:21.04Z</time></trkpt><trkpt lat="43.7234622" lon="11.1518964"><ele>323.16666666666663</ele><time>2026-05-03T08:34:22.038Z</time></trkpt><trkpt lat="43.7234423" lon="11.1517988"><ele>322.0</ele><time>2026-05-03T08:34:23.044Z</time></trkpt><trkpt lat="43.7234268" lon="11.1516982"><ele>322.0</ele><time>2026-05-03T08:34:24.043Z</time></trkpt><trkpt lat="43.7234157" lon="11.1515999"><ele>322.0</ele><time>2026-05-03T08:34:25.042Z</time></trkpt><trkpt lat="43.7234105" lon="11.1515038"><ele>322.0</ele><time>2026-05-03T08:34:26.051Z</time></trkpt><trkpt lat="43.723416" lon="11.1514143"><ele>322.0</ele><time>2026-05-03T08:34:27.038Z</time></trkpt><trkpt lat="43.7234302" lon="11.1513233"><ele>322.0</ele><time>2026-05-03T08:34:28.04Z</time></trkpt><trkpt lat="43.7234648" lon="11.1512114"><ele>322.0</ele><time>2026-05-03T08:34:29.042Z</time></trkpt><trkpt lat="43.7235327" lon="11.1510799"><ele>321.66666666666663</ele><time>2026-05-03T08:34:30.053Z</time></trkpt><trkpt lat="43.7236261" lon="11.1509267"><ele>321.3333333333333</ele><time>2026-05-03T08:34:31.045Z</time></trkpt><trkpt lat="43.7237191" lon="11.1507453"><ele>321.0</ele><time>2026-05-03T08:34:32.041Z</time></trkpt><trkpt lat="43.7238054" lon="11.1505707"><ele>320.25</ele><time>2026-05-03T08:34:33.044Z</time></trkpt><trkpt lat="43.7238845" lon="11.150408"><ele>319.5</ele><time>2026-05-03T08:34:34.047Z</time></trkpt><trkpt lat="43.7239546" lon="11.1502588"><ele>318.75</ele><time>2026-05-03T08:34:35.042Z</time></trkpt><trkpt lat="43.7240139" lon="11.150124"><ele>318.0</ele><time>2026-05-03T08:34:36.04Z</time></trkpt><trkpt lat="43.7240563" lon="11.1500005"><ele>317.8</ele><time>2026-05-03T08:34:37.04Z</time></trkpt><trkpt lat="43.7240776" lon="11.1498665"><ele>317.6</ele><time>2026-05-03T08:34:38.043Z</time></trkpt><trkpt lat="43.7240897" lon="11.1497328"><ele>317.4</ele><time>2026-05-03T08:34:39.039Z</time></trkpt><trkpt lat="43.7240911" lon="11.149602"><ele>317.2</ele><time>2026-05-03T08:34:40.042Z</time></trkpt><trkpt lat="43.724073" lon="11.1494648"><ele>317.0</ele><time>2026-05-03T08:34:41.042Z</time></trkpt><trkpt lat="43.7240459" lon="11.1493169"><ele>317.0</ele><time>2026-05-03T08:34:42.043Z</time></trkpt><trkpt lat="43.7240164" lon="11.1491666"><ele>317.0</ele><time>2026-05-03T08:34:43.04Z</time></trkpt><trkpt lat="43.7239995" lon="11.1490149"><ele>317.0</ele><time>2026-05-03T08:34:44.043Z</time></trkpt><trkpt lat="43.7239939" lon="11.1488574"><ele>317.0</ele><time>2026-05-03T08:34:45.053Z</time></trkpt><trkpt lat="43.7240008" lon="11.148704"><ele>317.0</ele><time>2026-05-03T08:34:46.047Z</time></trkpt><trkpt lat="43.7240102" lon="11.1485657"><ele>316.2</ele><time>2026-05-03T08:34:47.046Z</time></trkpt><trkpt lat="43.7240005" lon="11.1484342"><ele>315.4</ele><time>2026-05-03T08:34:48.046Z</time></trkpt><trkpt lat="43.7239713" lon="11.1483046"><ele>314.6</ele><time>2026-05-03T08:34:49.041Z</time></trkpt><trkpt lat="43.7239391" lon="11.1481785"><ele>313.8</ele><time>2026-05-03T08:34:50.042Z</time></trkpt><trkpt lat="43.7239134" lon="11.1480514"><ele>313.0</ele><time>2026-05-03T08:34:51.043Z</time></trkpt><trkpt lat="43.7239018" lon="11.1479183"><ele>311.6</ele><time>2026-05-03T08:34:52.04Z</time></trkpt><trkpt lat="43.7238936" lon="11.1477849"><ele>310.20000000000005</ele><time>2026-05-03T08:34:53.043Z</time></trkpt><trkpt lat="43.7238751" lon="11.1476519"><ele>308.8</ele><time>2026-05-03T08:34:54.043Z</time></trkpt><trkpt lat="43.7238456" lon="11.147516"><ele>307.40000000000003</ele><time>2026-05-03T08:34:55.044Z</time></trkpt><trkpt lat="43.7238078" lon="11.147378"><ele>306.0</ele><time>2026-05-03T08:34:56.042Z</time></trkpt><trkpt lat="43.723758" lon="11.1472516"><ele>304.8333333333333</ele><time>2026-05-03T08:34:57.041Z</time></trkpt><trkpt lat="43.723701" lon="11.1471411"><ele>303.6666666666667</ele><time>2026-05-03T08:34:58.041Z</time></trkpt><trkpt lat="43.723646" lon="11.1470395"><ele>302.5</ele><time>2026-05-03T08:34:59.043Z</time></trkpt><trkpt lat="43.7235932" lon="11.146946"><ele>301.33333333333337</ele><time>2026-05-03T08:35:00.044Z</time></trkpt><trkpt lat="43.7235561" lon="11.1468476"><ele>300.1666666666667</ele><time>2026-05-03T08:35:01.043Z</time></trkpt><trkpt lat="43.7235202" lon="11.1467387"><ele>299.0</ele><time>2026-05-03T08:35:02.043Z</time></trkpt><trkpt lat="43.7234807" lon="11.1466061"><ele>298.8</ele><time>2026-05-03T08:35:03.042Z</time></trkpt><trkpt lat="43.7234305" lon="11.1464734"><ele>298.59999999999997</ele><time>2026-05-03T08:35:04.041Z</time></trkpt><trkpt lat="43.7233822" lon="11.1463548"><ele>298.4</ele><time>2026-05-03T08:35:05.046Z</time></trkpt><trkpt lat="43.723342" lon="11.1462477"><ele>298.2</ele><time>2026-05-03T08:35:06.039Z</time></trkpt><trkpt lat="43.7233085" lon="11.1461566"><ele>298.0</ele><time>2026-05-03T08:35:07.043Z</time></trkpt><trkpt lat="43.723265" lon="11.1460118"><ele>298.0</ele><time>2026-05-03T08:35:09.043Z</time></trkpt><trkpt lat="43.7232266" lon="11.1458726"><ele>298.0</ele><time>2026-05-03T08:35:12.046Z</time></trkpt><trkpt lat="43.7231575" lon="11.1456729"><ele>298.0</ele><time>2026-05-03T08:35:14.043Z</time></trkpt><trkpt lat="43.7231157" lon="11.145523"><ele>298.0</ele><time>2026-05-03T08:35:15.042Z</time></trkpt><trkpt lat="43.7230889" lon="11.1453643"><ele>300.0</ele><time>2026-05-03T08:35:16.038Z</time></trkpt><trkpt lat="43.7230884" lon="11.1452004"><ele>302.0</ele><time>2026-05-03T08:35:17.041Z</time></trkpt><trkpt lat="43.7231093" lon="11.1450239"><ele>304.0</ele><time>2026-05-03T08:35:18.041Z</time></trkpt><trkpt lat="43.7231438" lon="11.144828"><ele>306.0</ele><time>2026-05-03T08:35:19.045Z</time></trkpt><trkpt lat="43.7231968" lon="11.1446309"><ele>308.25</ele><time>2026-05-03T08:35:20.046Z</time></trkpt><trkpt lat="43.7232512" lon="11.1444433"><ele>310.5</ele><time>2026-05-03T08:35:21.05Z</time></trkpt><trkpt lat="43.7232985" lon="11.1442625"><ele>312.75</ele><time>2026-05-03T08:35:22.041Z</time></trkpt><trkpt lat="43.7233401" lon="11.1440903"><ele>315.0</ele><time>2026-05-03T08:35:23.04Z</time></trkpt><trkpt lat="43.7233692" lon="11.1439392"><ele>316.0</ele><time>2026-05-03T08:35:24.039Z</time></trkpt><trkpt lat="43.7234034" lon="11.1438148"><ele>317.0</ele><time>2026-05-03T08:35:25.043Z</time></trkpt><trkpt lat="43.7234269" lon="11.1437029"><ele>318.0</ele><time>2026-05-03T08:35:26.045Z</time></trkpt><trkpt lat="43.7234182" lon="11.1435997"><ele>319.0</ele><time>2026-05-03T08:35:27.045Z</time></trkpt><trkpt lat="43.7233883" lon="11.1435003"><ele>320.0</ele><time>2026-05-03T08:35:28.044Z</time></trkpt><trkpt lat="43.7233333" lon="11.1433978"><ele>321.0</ele><time>2026-05-03T08:35:29.038Z</time></trkpt><trkpt lat="43.7232625" lon="11.1432871"><ele>321.0</ele><time>2026-05-03T08:35:30.042Z</time></trkpt><trkpt lat="43.723179" lon="11.1431677"><ele>321.0</ele><time>2026-05-03T08:35:31.042Z</time></trkpt><trkpt lat="43.7230872" lon="11.143046"><ele>321.0</ele><time>2026-05-03T08:35:32.04Z</time></trkpt><trkpt lat="43.7230003" lon="11.1429265"><ele>321.0</ele><time>2026-05-03T08:35:33.04Z</time></trkpt><trkpt lat="43.7229206" lon="11.1428152"><ele>321.0</ele><time>2026-05-03T08:35:34.041Z</time></trkpt><trkpt lat="43.7228486" lon="11.1426985"><ele>321.0</ele><time>2026-05-03T08:35:35.039Z</time></trkpt><trkpt lat="43.7227777" lon="11.1425725"><ele>321.0</ele><time>2026-05-03T08:35:36.047Z</time></trkpt><trkpt lat="43.7227089" lon="11.1424367"><ele>321.0</ele><time>2026-05-03T08:35:37.038Z</time></trkpt><trkpt lat="43.7226573" lon="11.142279"><ele>323.75</ele><time>2026-05-03T08:35:38.049Z</time></trkpt><trkpt lat="43.7226192" lon="11.1421165"><ele>326.5</ele><time>2026-05-03T08:35:39.044Z</time></trkpt><trkpt lat="43.7226215" lon="11.1419503"><ele>329.25</ele><time>2026-05-03T08:35:40.041Z</time></trkpt><trkpt lat="43.7226378" lon="11.1417741"><ele>332.0</ele><time>2026-05-03T08:35:41.043Z</time></trkpt><trkpt lat="43.7226711" lon="11.1415838"><ele>331.75</ele><time>2026-05-03T08:35:42.046Z</time></trkpt><trkpt lat="43.722707" lon="11.1413926"><ele>331.5</ele><time>2026-05-03T08:35:43.041Z</time></trkpt><trkpt lat="43.7227414" lon="11.141208"><ele>331.25</ele><time>2026-05-03T08:35:44.041Z</time></trkpt><trkpt lat="43.7227733" lon="11.1410277"><ele>331.0</ele><time>2026-05-03T08:35:45.038Z</time></trkpt><trkpt lat="43.7227983" lon="11.140844"><ele>327.2</ele><time>2026-05-03T08:35:46.043Z</time></trkpt><trkpt lat="43.7228302" lon="11.1406875"><ele>323.40000000000003</ele><time>2026-05-03T08:35:47.039Z</time></trkpt><trkpt lat="43.7228668" lon="11.1405584"><ele>319.6</ele><time>2026-05-03T08:35:48.051Z</time></trkpt><trkpt lat="43.7229011" lon="11.140437"><ele>315.8</ele><time>2026-05-03T08:35:49.043Z</time></trkpt><trkpt lat="43.722921" lon="11.140321"><ele>312.0</ele><time>2026-05-03T08:35:50.04Z</time></trkpt><trkpt lat="43.7229248" lon="11.1402129"><ele>312.0</ele><time>2026-05-03T08:35:51.046Z</time></trkpt><trkpt lat="43.7229038" lon="11.1401015"><ele>312.0</ele><time>2026-05-03T08:35:52.046Z</time></trkpt><trkpt lat="43.7228528" lon="11.1400146"><ele>312.0</ele><time>2026-05-03T08:35:53.044Z</time></trkpt><trkpt lat="43.7227911" lon="11.1399341"><ele>312.0</ele><time>2026-05-03T08:35:54.038Z</time></trkpt><trkpt lat="43.722718" lon="11.1398704"><ele>312.0</ele><time>2026-05-03T08:35:55.048Z</time></trkpt><trkpt lat="43.7226581" lon="11.1398051"><ele>312.0</ele><time>2026-05-03T08:35:56.043Z</time></trkpt><trkpt lat="43.7226126" lon="11.1397239"><ele>313.0</ele><time>2026-05-03T08:35:57.038Z</time></trkpt><trkpt lat="43.7225856" lon="11.1396087"><ele>314.0</ele><time>2026-05-03T08:35:58.044Z</time></trkpt><trkpt lat="43.722613" lon="11.1394997"><ele>315.0</ele><time>2026-05-03T08:35:59.048Z</time></trkpt><trkpt lat="43.7226459" lon="11.1393821"><ele>316.0</ele><time>2026-05-03T08:36:00.041Z</time></trkpt><trkpt lat="43.722692" lon="11.1392533"><ele>317.0</ele><time>2026-05-03T08:36:01.042Z</time></trkpt><trkpt lat="43.7227506" lon="11.1391107"><ele>319.0</ele><time>2026-05-03T08:36:02.049Z</time></trkpt><trkpt lat="43.7228065" lon="11.1389534"><ele>321.0</ele><time>2026-05-03T08:36:03.043Z</time></trkpt><trkpt lat="43.7228421" lon="11.1387846"><ele>323.0</ele><time>2026-05-03T08:36:04.043Z</time></trkpt><trkpt lat="43.7228804" lon="11.1386346"><ele>325.0</ele><time>2026-05-03T08:36:05.045Z</time></trkpt><trkpt lat="43.722932" lon="11.1385121"><ele>325.0</ele><time>2026-05-03T08:36:06.04Z</time></trkpt><trkpt lat="43.7229723" lon="11.1383938"><ele>325.0</ele><time>2026-05-03T08:36:07.042Z</time></trkpt><trkpt lat="43.7229785" lon="11.1382728"><ele>325.0</ele><time>2026-05-03T08:36:08.05Z</time></trkpt><trkpt lat="43.7229705" lon="11.1381475"><ele>325.0</ele><time>2026-05-03T08:36:09.043Z</time></trkpt><trkpt lat="43.7229421" lon="11.1380208"><ele>325.0</ele><time>2026-05-03T08:36:10.039Z</time></trkpt><trkpt lat="43.7228752" lon="11.1378824"><ele>326.5</ele><time>2026-05-03T08:36:11.039Z</time></trkpt><trkpt lat="43.7227966" lon="11.137723"><ele>328.0</ele><time>2026-05-03T08:36:12.04Z</time></trkpt><trkpt lat="43.7227284" lon="11.1375753"><ele>329.5</ele><time>2026-05-03T08:36:13.043Z</time></trkpt><trkpt lat="43.7226643" lon="11.1374469"><ele>331.0</ele><time>2026-05-03T08:36:14.047Z</time></trkpt><trkpt lat="43.7226027" lon="11.1373247"><ele>334.8</ele><time>2026-05-03T08:36:15.045Z</time></trkpt><trkpt lat="43.7225404" lon="11.1372135"><ele>338.6</ele><time>2026-05-03T08:36:16.04Z</time></trkpt><trkpt lat="43.7224639" lon="11.1371272"><ele>342.4</ele><time>2026-05-03T08:36:17.043Z</time></trkpt><trkpt lat="43.7223771" lon="11.1370562"><ele>346.2</ele><time>2026-05-03T08:36:18.044Z</time></trkpt><trkpt lat="43.7222798" lon="11.1369971"><ele>350.0</ele><time>2026-05-03T08:36:19.053Z</time></trkpt><trkpt lat="43.7221866" lon="11.1369274"><ele>350.0</ele><time>2026-05-03T08:36:20.043Z</time></trkpt><trkpt lat="43.7221115" lon="11.1368453"><ele>350.0</ele><time>2026-05-03T08:36:21.042Z</time></trkpt><trkpt lat="43.7220403" lon="11.1367863"><ele>350.0</ele><time>2026-05-03T08:36:22.037Z</time></trkpt><trkpt lat="43.7219815" lon="11.1367192"><ele>350.0</ele><time>2026-05-03T08:36:23.042Z</time></trkpt><trkpt lat="43.7219223" lon="11.1366495"><ele>350.0</ele><time>2026-05-03T08:36:24.042Z</time></trkpt><trkpt lat="43.7218718" lon="11.136569"><ele>350.0</ele><time>2026-05-03T08:36:25.043Z</time></trkpt><trkpt lat="43.7218172" lon="11.1364879"><ele>346.4</ele><time>2026-05-03T08:36:26.038Z</time></trkpt><trkpt lat="43.721759" lon="11.136374"><ele>342.8</ele><time>2026-05-03T08:36:27.047Z</time></trkpt><trkpt lat="43.7217403" lon="11.136237"><ele>339.20000000000005</ele><time>2026-05-03T08:36:28.039Z</time></trkpt><trkpt lat="43.7217352" lon="11.1360977"><ele>335.6</ele><time>2026-05-03T08:36:29.043Z</time></trkpt><trkpt lat="43.721725" lon="11.1359327"><ele>332.0</ele><time>2026-05-03T08:36:30.043Z</time></trkpt><trkpt lat="43.7216946" lon="11.1357822"><ele>332.8</ele><time>2026-05-03T08:36:31.047Z</time></trkpt><trkpt lat="43.7216779" lon="11.1356323"><ele>333.6</ele><time>2026-05-03T08:36:32.045Z</time></trkpt><trkpt lat="43.721659" lon="11.1354899"><ele>334.40000000000003</ele><time>2026-05-03T08:36:33.044Z</time></trkpt><trkpt lat="43.7216402" lon="11.1353528"><ele>335.20000000000005</ele><time>2026-05-03T08:36:34.042Z</time></trkpt><trkpt lat="43.7216369" lon="11.1352149"><ele>336.0</ele><time>2026-05-03T08:36:35.049Z</time></trkpt><trkpt lat="43.721652" lon="11.1350722"><ele>336.0</ele><time>2026-05-03T08:36:36.041Z</time></trkpt><trkpt lat="43.7216532" lon="11.1349199"><ele>336.0</ele><time>2026-05-03T08:36:37.041Z</time></trkpt><trkpt lat="43.7216609" lon="11.134761"><ele>336.0</ele><time>2026-05-03T08:36:38.045Z</time></trkpt><trkpt lat="43.7216718" lon="11.1346043"><ele>336.0</ele><time>2026-05-03T08:36:39.04Z</time></trkpt><trkpt lat="43.7216761" lon="11.1344514"><ele>334.8</ele><time>2026-05-03T08:36:40.044Z</time></trkpt><trkpt lat="43.7216921" lon="11.1342984"><ele>333.6</ele><time>2026-05-03T08:36:41.043Z</time></trkpt><trkpt lat="43.7217136" lon="11.1341427"><ele>332.4</ele><time>2026-05-03T08:36:42.044Z</time></trkpt><trkpt lat="43.7217395" lon="11.1339938"><ele>331.2</ele><time>2026-05-03T08:36:43.055Z</time></trkpt><trkpt lat="43.7217742" lon="11.133866"><ele>330.0</ele><time>2026-05-03T08:36:44.048Z</time></trkpt><trkpt lat="43.7218011" lon="11.1337463"><ele>328.2</ele><time>2026-05-03T08:36:45.042Z</time></trkpt><trkpt lat="43.7218294" lon="11.1336196"><ele>326.4</ele><time>2026-05-03T08:36:46.048Z</time></trkpt><trkpt lat="43.7218482" lon="11.1334846"><ele>324.6</ele><time>2026-05-03T08:36:47.045Z</time></trkpt><trkpt lat="43.7218502" lon="11.1333529"><ele>322.8</ele><time>2026-05-03T08:36:48.042Z</time></trkpt><trkpt lat="43.7218522" lon="11.1332247"><ele>321.0</ele><time>2026-05-03T08:36:49.045Z</time></trkpt><trkpt lat="43.7218399" lon="11.1330948"><ele>318.6</ele><time>2026-05-03T08:36:50.05Z</time></trkpt><trkpt lat="43.7218666" lon="11.1329821"><ele>316.20000000000005</ele><time>2026-05-03T08:36:51.041Z</time></trkpt><trkpt lat="43.7218922" lon="11.1328591"><ele>313.79999999999995</ele><time>2026-05-03T08:36:52.042Z</time></trkpt><trkpt lat="43.7219277" lon="11.1327272"><ele>311.4</ele><time>2026-05-03T08:36:53.049Z</time></trkpt><trkpt lat="43.7219716" lon="11.1325906"><ele>309.0</ele><time>2026-05-03T08:36:54.039Z</time></trkpt><trkpt lat="43.722026" lon="11.1324535"><ele>310.2</ele><time>2026-05-03T08:36:55.039Z</time></trkpt><trkpt lat="43.7220865" lon="11.1323271"><ele>311.4</ele><time>2026-05-03T08:36:56.042Z</time></trkpt><trkpt lat="43.7221423" lon="11.132203"><ele>312.6</ele><time>2026-05-03T08:36:57.042Z</time></trkpt><trkpt lat="43.722199" lon="11.1320846"><ele>313.8</ele><time>2026-05-03T08:36:58.043Z</time></trkpt><trkpt lat="43.7222659" lon="11.13198"><ele>315.0</ele><time>2026-05-03T08:36:59.047Z</time></trkpt><trkpt lat="43.7223399" lon="11.1318831"><ele>315.0</ele><time>2026-05-03T08:37:00.043Z</time></trkpt><trkpt lat="43.7224115" lon="11.1317877"><ele>315.0</ele><time>2026-05-03T08:37:01.049Z</time></trkpt><trkpt lat="43.7224925" lon="11.1317078"><ele>315.0</ele><time>2026-05-03T08:37:02.048Z</time></trkpt><trkpt lat="43.7225662" lon="11.1316298"><ele>315.0</ele><time>2026-05-03T08:37:03.041Z</time></trkpt><trkpt lat="43.7226263" lon="11.1315556"><ele>315.0</ele><time>2026-05-03T08:37:04.041Z</time></trkpt><trkpt lat="43.7226784" lon="11.1314885"><ele>315.0</ele><time>2026-05-03T08:37:05.05Z</time></trkpt><trkpt lat="43.7227568" lon="11.131367"><ele>314.2</ele><time>2026-05-03T08:37:07.044Z</time></trkpt><trkpt lat="43.722734" lon="11.1312203"><ele>313.4</ele><time>2026-05-03T08:37:09.043Z</time></trkpt><trkpt lat="43.7226275" lon="11.1311725"><ele>312.6</ele><time>2026-05-03T08:37:11.043Z</time></trkpt><trkpt lat="43.722548" lon="11.131194"><ele>311.8</ele><time>2026-05-03T08:37:12.046Z</time></trkpt><trkpt lat="43.7224537" lon="11.1312264"><ele>311.0</ele><time>2026-05-03T08:37:13.042Z</time></trkpt><trkpt lat="43.7223603" lon="11.1312648"><ele>309.33333333333337</ele><time>2026-05-03T08:37:14.041Z</time></trkpt><trkpt lat="43.7222664" lon="11.1312991"><ele>307.6666666666667</ele><time>2026-05-03T08:37:15.044Z</time></trkpt><trkpt lat="43.7221726" lon="11.1313349"><ele>306.0</ele><time>2026-05-03T08:37:16.05Z</time></trkpt><trkpt lat="43.7220851" lon="11.1313722"><ele>304.3333333333333</ele><time>2026-05-03T08:37:17.045Z</time></trkpt><trkpt lat="43.722008" lon="11.1314109"><ele>302.66666666666663</ele><time>2026-05-03T08:37:18.042Z</time></trkpt><trkpt lat="43.7219337" lon="11.1314491"><ele>301.0</ele><time>2026-05-03T08:37:19.038Z</time></trkpt><trkpt lat="43.7218585" lon="11.1314751"><ele>301.0</ele><time>2026-05-03T08:37:20.037Z</time></trkpt><trkpt lat="43.7217757" lon="11.1315062"><ele>301.0</ele><time>2026-05-03T08:37:21.036Z</time></trkpt><trkpt lat="43.7216903" lon="11.1315415"><ele>301.0</ele><time>2026-05-03T08:37:22.039Z</time></trkpt><trkpt lat="43.7216071" lon="11.1315911"><ele>301.0</ele><time>2026-05-03T08:37:23.046Z</time></trkpt><trkpt lat="43.7215288" lon="11.1316483"><ele>301.0</ele><time>2026-05-03T08:37:24.048Z</time></trkpt><trkpt lat="43.7214614" lon="11.1317337"><ele>301.0</ele><time>2026-05-03T08:37:25.042Z</time></trkpt><trkpt lat="43.7213952" lon="11.1318145"><ele>301.0</ele><time>2026-05-03T08:37:26.037Z</time></trkpt><trkpt lat="43.7213315" lon="11.1318852"><ele>301.0</ele><time>2026-05-03T08:37:27.041Z</time></trkpt><trkpt lat="43.721271" lon="11.1319465"><ele>301.0</ele><time>2026-05-03T08:37:28.041Z</time></trkpt><trkpt lat="43.7212143" lon="11.1320006"><ele>301.0</ele><time>2026-05-03T08:37:29.041Z</time></trkpt><trkpt lat="43.7211298" lon="11.1321039"><ele>301.0</ele><time>2026-05-03T08:37:31.041Z</time></trkpt><trkpt lat="43.7210751" lon="11.1320301"><ele>301.0</ele><time>2026-05-03T08:37:34.042Z</time></trkpt><trkpt lat="43.7210876" lon="11.1319303"><ele>301.0</ele><time>2026-05-03T08:37:35.048Z</time></trkpt><trkpt lat="43.7211017" lon="11.1318176"><ele>301.0</ele><time>2026-05-03T08:37:36.041Z</time></trkpt><trkpt lat="43.7211286" lon="11.1316658"><ele>301.0</ele><time>2026-05-03T08:37:37.04Z</time></trkpt><trkpt lat="43.7211449" lon="11.1314937"><ele>301.0</ele><time>2026-05-03T08:37:38.05Z</time></trkpt><trkpt lat="43.7211558" lon="11.1313348"><ele>301.0</ele><time>2026-05-03T08:37:39.045Z</time></trkpt><trkpt lat="43.7211616" lon="11.1311792"><ele>299.6</ele><time>2026-05-03T08:37:40.041Z</time></trkpt><trkpt lat="43.7211718" lon="11.1310285"><ele>298.20000000000005</ele><time>2026-05-03T08:37:41.041Z</time></trkpt><trkpt lat="43.7211862" lon="11.1308925"><ele>296.79999999999995</ele><time>2026-05-03T08:37:42.046Z</time></trkpt><trkpt lat="43.721205" lon="11.1307675"><ele>295.4</ele><time>2026-05-03T08:37:43.038Z</time></trkpt><trkpt lat="43.7212315" lon="11.1306527"><ele>294.0</ele><time>2026-05-03T08:37:44.038Z</time></trkpt><trkpt lat="43.7212661" lon="11.1305442"><ele>292.4</ele><time>2026-05-03T08:37:45.042Z</time></trkpt><trkpt lat="43.7213165" lon="11.1304434"><ele>290.79999999999995</ele><time>2026-05-03T08:37:46.043Z</time></trkpt><trkpt lat="43.721383" lon="11.130339"><ele>289.20000000000005</ele><time>2026-05-03T08:37:47.04Z</time></trkpt><trkpt lat="43.7214655" lon="11.1302405"><ele>287.6</ele><time>2026-05-03T08:37:48.041Z</time></trkpt><trkpt lat="43.7215501" lon="11.1301477"><ele>286.0</ele><time>2026-05-03T08:37:49.043Z</time></trkpt><trkpt lat="43.721624" lon="11.1300578"><ele>286.0</ele><time>2026-05-03T08:37:50.04Z</time></trkpt><trkpt lat="43.721686" lon="11.1299646"><ele>286.0</ele><time>2026-05-03T08:37:51.04Z</time></trkpt><trkpt lat="43.7217401" lon="11.1298598"><ele>286.0</ele><time>2026-05-03T08:37:52.039Z</time></trkpt><trkpt lat="43.7217929" lon="11.1297526"><ele>286.0</ele><time>2026-05-03T08:37:53.041Z</time></trkpt><trkpt lat="43.7218305" lon="11.1296418"><ele>286.0</ele><time>2026-05-03T08:37:54.042Z</time></trkpt><trkpt lat="43.7218519" lon="11.1295325"><ele>286.0</ele><time>2026-05-03T08:37:55.046Z</time></trkpt><trkpt lat="43.7218476" lon="11.1294222"><ele>284.8</ele><time>2026-05-03T08:37:56.041Z</time></trkpt><trkpt lat="43.7218255" lon="11.1293041"><ele>283.6</ele><time>2026-05-03T08:37:57.041Z</time></trkpt><trkpt lat="43.7217994" lon="11.129177"><ele>282.4</ele><time>2026-05-03T08:37:58.039Z</time></trkpt><trkpt lat="43.7217594" lon="11.1290433"><ele>281.2</ele><time>2026-05-03T08:37:59.043Z</time></trkpt><trkpt lat="43.7217054" lon="11.1289071"><ele>280.0</ele><time>2026-05-03T08:38:00.04Z</time></trkpt><trkpt lat="43.7216479" lon="11.1287671"><ele>279.2</ele><time>2026-05-03T08:38:01.04Z</time></trkpt><trkpt lat="43.7216019" lon="11.1286189"><ele>278.4</ele><time>2026-05-03T08:38:02.042Z</time></trkpt><trkpt lat="43.7215542" lon="11.1284812"><ele>277.6</ele><time>2026-05-03T08:38:03.044Z</time></trkpt><trkpt lat="43.7215048" lon="11.1283482"><ele>276.8</ele><time>2026-05-03T08:38:04.045Z</time></trkpt><trkpt lat="43.7214493" lon="11.128219"><ele>276.0</ele><time>2026-05-03T08:38:05.044Z</time></trkpt><trkpt lat="43.7213812" lon="11.1280942"><ele>273.5</ele><time>2026-05-03T08:38:06.041Z</time></trkpt><trkpt lat="43.7212954" lon="11.127974"><ele>271.0</ele><time>2026-05-03T08:38:07.041Z</time></trkpt><trkpt lat="43.7211923" lon="11.1278664"><ele>268.5</ele><time>2026-05-03T08:38:08.048Z</time></trkpt><trkpt lat="43.7210844" lon="11.1277604"><ele>266.0</ele><time>2026-05-03T08:38:09.037Z</time></trkpt><trkpt lat="43.7209775" lon="11.1276538"><ele>266.0</ele><time>2026-05-03T08:38:10.038Z</time></trkpt><trkpt lat="43.7208666" lon="11.1275588"><ele>266.0</ele><time>2026-05-03T08:38:11.041Z</time></trkpt><trkpt lat="43.7207641" lon="11.1274575"><ele>266.0</ele><time>2026-05-03T08:38:12.044Z</time></trkpt><trkpt lat="43.7206649" lon="11.1273626"><ele>266.0</ele><time>2026-05-03T08:38:13.045Z</time></trkpt><trkpt lat="43.7205654" lon="11.1272659"><ele>264.5</ele><time>2026-05-03T08:38:14.041Z</time></trkpt><trkpt lat="43.7204655" lon="11.1271744"><ele>263.0</ele><time>2026-05-03T08:38:15.045Z</time></trkpt><trkpt lat="43.7203743" lon="11.1270758"><ele>261.5</ele><time>2026-05-03T08:38:16.044Z</time></trkpt><trkpt lat="43.7202954" lon="11.1269598"><ele>260.0</ele><time>2026-05-03T08:38:17.04Z</time></trkpt><trkpt lat="43.7202265" lon="11.1268264"><ele>259.75</ele><time>2026-05-03T08:38:18.05Z</time></trkpt><trkpt lat="43.7201622" lon="11.1266889"><ele>259.5</ele><time>2026-05-03T08:38:19.04Z</time></trkpt><trkpt lat="43.7201103" lon="11.1265456"><ele>259.25</ele><time>2026-05-03T08:38:20.037Z</time></trkpt><trkpt lat="43.7200448" lon="11.12642"><ele>259.0</ele><time>2026-05-03T08:38:21.043Z</time></trkpt><trkpt lat="43.7199777" lon="11.1263"><ele>257.8</ele><time>2026-05-03T08:38:22.049Z</time></trkpt><trkpt lat="43.7199138" lon="11.12618"><ele>256.59999999999997</ele><time>2026-05-03T08:38:23.049Z</time></trkpt><trkpt lat="43.719859" lon="11.1260542"><ele>255.4</ele><time>2026-05-03T08:38:24.042Z</time></trkpt><trkpt lat="43.7198087" lon="11.1259288"><ele>254.2</ele><time>2026-05-03T08:38:25.041Z</time></trkpt><trkpt lat="43.7197712" lon="11.1258045"><ele>253.0</ele><time>2026-05-03T08:38:26.042Z</time></trkpt><trkpt lat="43.7197367" lon="11.1256888"><ele>252.83333333333331</ele><time>2026-05-03T08:38:27.039Z</time></trkpt><trkpt lat="43.7197049" lon="11.1255775"><ele>252.66666666666666</ele><time>2026-05-03T08:38:28.038Z</time></trkpt><trkpt lat="43.7196734" lon="11.1254694"><ele>252.5</ele><time>2026-05-03T08:38:29.039Z</time></trkpt><trkpt lat="43.719644" lon="11.1253651"><ele>252.33333333333331</ele><time>2026-05-03T08:38:30.04Z</time></trkpt><trkpt lat="43.7196152" lon="11.1252716"><ele>252.16666666666666</ele><time>2026-05-03T08:38:31.048Z</time></trkpt><trkpt lat="43.7195846" lon="11.125187"><ele>252.0</ele><time>2026-05-03T08:38:32.037Z</time></trkpt><trkpt lat="43.7195453" lon="11.1251171"><ele>252.0</ele><time>2026-05-03T08:38:33.037Z</time></trkpt><trkpt lat="43.7194891" lon="11.1250677"><ele>252.0</ele><time>2026-05-03T08:38:34.042Z</time></trkpt><trkpt lat="43.7194241" lon="11.1250211"><ele>252.0</ele><time>2026-05-03T08:38:35.039Z</time></trkpt><trkpt lat="43.7193594" lon="11.1249757"><ele>252.0</ele><time>2026-05-03T08:38:36.045Z</time></trkpt><trkpt lat="43.7192816" lon="11.1249514"><ele>252.0</ele><time>2026-05-03T08:38:37.048Z</time></trkpt><trkpt lat="43.7192014" lon="11.1249234"><ele>252.0</ele><time>2026-05-03T08:38:38.041Z</time></trkpt><trkpt lat="43.7191368" lon="11.1248521"><ele>249.16666666666666</ele><time>2026-05-03T08:38:39.041Z</time></trkpt><trkpt lat="43.719072" lon="11.1247907"><ele>246.33333333333331</ele><time>2026-05-03T08:38:40.04Z</time></trkpt><trkpt lat="43.7190007" lon="11.1247354"><ele>243.5</ele><time>2026-05-03T08:38:41.046Z</time></trkpt><trkpt lat="43.7189305" lon="11.1246621"><ele>240.66666666666666</ele><time>2026-05-03T08:38:42.036Z</time></trkpt><trkpt lat="43.7188566" lon="11.1245891"><ele>237.83333333333331</ele><time>2026-05-03T08:38:43.04Z</time></trkpt><trkpt lat="43.718786" lon="11.124504"><ele>235.0</ele><time>2026-05-03T08:38:44.042Z</time></trkpt><trkpt lat="43.7187121" lon="11.1244214"><ele>235.0</ele><time>2026-05-03T08:38:45.045Z</time></trkpt><trkpt lat="43.7186414" lon="11.124338"><ele>235.0</ele><time>2026-05-03T08:38:46.039Z</time></trkpt><trkpt lat="43.7185712" lon="11.124258"><ele>235.0</ele><time>2026-05-03T08:38:47.039Z</time></trkpt><trkpt lat="43.7184978" lon="11.1241869"><ele>235.0</ele><time>2026-05-03T08:38:48.041Z</time></trkpt><trkpt lat="43.7184216" lon="11.1241225"><ele>235.0</ele><time>2026-05-03T08:38:49.043Z</time></trkpt><trkpt lat="43.7183457" lon="11.1240577"><ele>231.49999999999997</ele><time>2026-05-03T08:38:50.039Z</time></trkpt><trkpt lat="43.7182684" lon="11.1240094"><ele>228.0</ele><time>2026-05-03T08:38:51.039Z</time></trkpt><trkpt lat="43.7182003" lon="11.1239568"><ele>224.5</ele><time>2026-05-03T08:38:52.042Z</time></trkpt><trkpt lat="43.7181376" lon="11.1239173"><ele>221.0</ele><time>2026-05-03T08:38:53.038Z</time></trkpt><trkpt lat="43.7180811" lon="11.1238763"><ele>217.49999999999997</ele><time>2026-05-03T08:38:54.046Z</time></trkpt><trkpt lat="43.7179785" lon="11.1237846"><ele>214.0</ele><time>2026-05-03T08:38:56.041Z</time></trkpt><trkpt lat="43.7179184" lon="11.1236565"><ele>214.0</ele><time>2026-05-03T08:38:58.049Z</time></trkpt><trkpt lat="43.7179089" lon="11.1235371"><ele>213.99999999999997</ele><time>2026-05-03T08:39:00.054Z</time></trkpt><trkpt lat="43.7179211" lon="11.1234224"><ele>213.99999999999997</ele><time>2026-05-03T08:39:02.041Z</time></trkpt><trkpt lat="43.7179393" lon="11.1232978"><ele>214.0</ele><time>2026-05-03T08:39:04.05Z</time></trkpt><trkpt lat="43.7179141" lon="11.1231683"><ele>214.0</ele><time>2026-05-03T08:39:06.044Z</time></trkpt><trkpt lat="43.7178291" lon="11.1230815"><ele>211.33333333333331</ele><time>2026-05-03T08:39:08.046Z</time></trkpt><trkpt lat="43.7177127" lon="11.1231041"><ele>208.66666666666666</ele><time>2026-05-03T08:39:10.046Z</time></trkpt><trkpt lat="43.7176532" lon="11.1231488"><ele>206.0</ele><time>2026-05-03T08:39:11.047Z</time></trkpt><trkpt lat="43.7175873" lon="11.1231834"><ele>203.33333333333331</ele><time>2026-05-03T08:39:12.042Z</time></trkpt><trkpt lat="43.7175159" lon="11.1232047"><ele>200.66666666666666</ele><time>2026-05-03T08:39:13.041Z</time></trkpt><trkpt lat="43.7174399" lon="11.1232147"><ele>198.0</ele><time>2026-05-03T08:39:14.039Z</time></trkpt><trkpt lat="43.717368" lon="11.1232001"><ele>198.0</ele><time>2026-05-03T08:39:15.041Z</time></trkpt><trkpt lat="43.7173041" lon="11.1231557"><ele>198.0</ele><time>2026-05-03T08:39:16.038Z</time></trkpt><trkpt lat="43.7172402" lon="11.1230916"><ele>198.0</ele><time>2026-05-03T08:39:17.047Z</time></trkpt><trkpt lat="43.7171869" lon="11.123015"><ele>198.0</ele><time>2026-05-03T08:39:18.045Z</time></trkpt><trkpt lat="43.717128" lon="11.1229471"><ele>198.0</ele><time>2026-05-03T08:39:19.039Z</time></trkpt><trkpt lat="43.7170618" lon="11.1228711"><ele>198.0</ele><time>2026-05-03T08:39:20.039Z</time></trkpt><trkpt lat="43.7169862" lon="11.1227952"><ele>198.0</ele><time>2026-05-03T08:39:21.044Z</time></trkpt><trkpt lat="43.7169032" lon="11.1227178"><ele>198.0</ele><time>2026-05-03T08:39:22.038Z</time></trkpt><trkpt lat="43.7168241" lon="11.1226422"><ele>198.0</ele><time>2026-05-03T08:39:23.048Z</time></trkpt><trkpt lat="43.7167475" lon="11.122567"><ele>198.0</ele><time>2026-05-03T08:39:24.037Z</time></trkpt><trkpt lat="43.7166624" lon="11.1224913"><ele>198.0</ele><time>2026-05-03T08:39:25.036Z</time></trkpt><trkpt lat="43.7165873" lon="11.1224232"><ele>195.66666666666666</ele><time>2026-05-03T08:39:26.051Z</time></trkpt><trkpt lat="43.7165246" lon="11.1223485"><ele>193.33333333333334</ele><time>2026-05-03T08:39:27.042Z</time></trkpt><trkpt lat="43.7164651" lon="11.1222699"><ele>191.0</ele><time>2026-05-03T08:39:28.046Z</time></trkpt><trkpt lat="43.7164083" lon="11.1221864"><ele>188.66666666666669</ele><time>2026-05-03T08:39:29.037Z</time></trkpt><trkpt lat="43.7163306" lon="11.1221153"><ele>186.33333333333334</ele><time>2026-05-03T08:39:30.039Z</time></trkpt><trkpt lat="43.7162503" lon="11.1220336"><ele>184.0</ele><time>2026-05-03T08:39:31.046Z</time></trkpt><trkpt lat="43.7161796" lon="11.1219475"><ele>184.0</ele><time>2026-05-03T08:39:32.041Z</time></trkpt><trkpt lat="43.7161099" lon="11.1218503"><ele>184.0</ele><time>2026-05-03T08:39:33.04Z</time></trkpt><trkpt lat="43.7160341" lon="11.1217418"><ele>184.0</ele><time>2026-05-03T08:39:34.04Z</time></trkpt><trkpt lat="43.7159594" lon="11.121628"><ele>184.0</ele><time>2026-05-03T08:39:35.038Z</time></trkpt><trkpt lat="43.7158815" lon="11.1214967"><ele>184.0</ele><time>2026-05-03T08:39:36.038Z</time></trkpt><trkpt lat="43.7158053" lon="11.121351"><ele>183.25</ele><time>2026-05-03T08:39:37.04Z</time></trkpt><trkpt lat="43.7157266" lon="11.12121"><ele>182.5</ele><time>2026-05-03T08:39:38.039Z</time></trkpt><trkpt lat="43.7156513" lon="11.1210745"><ele>181.75</ele><time>2026-05-03T08:39:39.042Z</time></trkpt><trkpt lat="43.7155848" lon="11.1209428"><ele>181.0</ele><time>2026-05-03T08:39:40.041Z</time></trkpt><trkpt lat="43.7155367" lon="11.1208109"><ele>179.20000000000002</ele><time>2026-05-03T08:39:41.039Z</time></trkpt><trkpt lat="43.715493" lon="11.1206876"><ele>177.4</ele><time>2026-05-03T08:39:42.037Z</time></trkpt><trkpt lat="43.7154412" lon="11.1205703"><ele>175.6</ele><time>2026-05-03T08:39:43.042Z</time></trkpt><trkpt lat="43.7153803" lon="11.1204488"><ele>173.8</ele><time>2026-05-03T08:39:44.049Z</time></trkpt><trkpt lat="43.715321" lon="11.1203265"><ele>172.0</ele><time>2026-05-03T08:39:45.04Z</time></trkpt><trkpt lat="43.7152695" lon="11.1201973"><ele>171.6</ele><time>2026-05-03T08:39:46.04Z</time></trkpt><trkpt lat="43.7152036" lon="11.1200782"><ele>171.2</ele><time>2026-05-03T08:39:47.044Z</time></trkpt><trkpt lat="43.715157" lon="11.1199644"><ele>170.8</ele><time>2026-05-03T08:39:48.04Z</time></trkpt><trkpt lat="43.7151087" lon="11.1198441"><ele>170.4</ele><time>2026-05-03T08:39:49.038Z</time></trkpt><trkpt lat="43.7150856" lon="11.1197215"><ele>170.0</ele><time>2026-05-03T08:39:50.039Z</time></trkpt><trkpt lat="43.7150674" lon="11.1195946"><ele>170.0</ele><time>2026-05-03T08:39:51.04Z</time></trkpt><trkpt lat="43.7150421" lon="11.1194725"><ele>170.0</ele><time>2026-05-03T08:39:52.04Z</time></trkpt><trkpt lat="43.7149982" lon="11.1193593"><ele>170.0</ele><time>2026-05-03T08:39:53.036Z</time></trkpt><trkpt lat="43.7149386" lon="11.119248"><ele>170.0</ele><time>2026-05-03T08:39:54.04Z</time></trkpt><trkpt lat="43.7148575" lon="11.1191362"><ele>170.0</ele><time>2026-05-03T08:39:55.038Z</time></trkpt><trkpt lat="43.7147648" lon="11.1190322"><ele>168.4</ele><time>2026-05-03T08:39:56.044Z</time></trkpt><trkpt lat="43.7146685" lon="11.1189414"><ele>166.8</ele><time>2026-05-03T08:39:57.041Z</time></trkpt><trkpt lat="43.7145731" lon="11.1188591"><ele>165.2</ele><time>2026-05-03T08:39:58.039Z</time></trkpt><trkpt lat="43.7144844" lon="11.118778"><ele>163.6</ele><time>2026-05-03T08:39:59.038Z</time></trkpt><trkpt lat="43.7144059" lon="11.1186846"><ele>162.0</ele><time>2026-05-03T08:40:00.047Z</time></trkpt><trkpt lat="43.7143465" lon="11.1185641"><ele>162.0</ele><time>2026-05-03T08:40:01.041Z</time></trkpt><trkpt lat="43.7142929" lon="11.1184458"><ele>162.0</ele><time>2026-05-03T08:40:02.041Z</time></trkpt><trkpt lat="43.7142375" lon="11.1183384"><ele>162.0</ele><time>2026-05-03T08:40:03.04Z</time></trkpt><trkpt lat="43.7141843" lon="11.1182328"><ele>162.0</ele><time>2026-05-03T08:40:04.037Z</time></trkpt><trkpt lat="43.7141389" lon="11.1181132"><ele>162.0</ele><time>2026-05-03T08:40:05.041Z</time></trkpt><trkpt lat="43.714109" lon="11.1179764"><ele>160.6</ele><time>2026-05-03T08:40:06.04Z</time></trkpt><trkpt lat="43.7140919" lon="11.117839"><ele>159.2</ele><time>2026-05-03T08:40:07.054Z</time></trkpt><trkpt lat="43.7140626" lon="11.117712"><ele>157.8</ele><time>2026-05-03T08:40:08.039Z</time></trkpt><trkpt lat="43.7140249" lon="11.1175832"><ele>156.4</ele><time>2026-05-03T08:40:09.039Z</time></trkpt><trkpt lat="43.713993" lon="11.1174466"><ele>155.0</ele><time>2026-05-03T08:40:10.037Z</time></trkpt><trkpt lat="43.7139581" lon="11.1173068"><ele>153.4</ele><time>2026-05-03T08:40:11.036Z</time></trkpt><trkpt lat="43.7139254" lon="11.1171649"><ele>151.8</ele><time>2026-05-03T08:40:12.042Z</time></trkpt><trkpt lat="43.7138879" lon="11.1170226"><ele>150.2</ele><time>2026-05-03T08:40:13.044Z</time></trkpt><trkpt lat="43.7138624" lon="11.1168769"><ele>148.6</ele><time>2026-05-03T08:40:14.041Z</time></trkpt><trkpt lat="43.7138444" lon="11.1167345"><ele>147.0</ele><time>2026-05-03T08:40:15.041Z</time></trkpt><trkpt lat="43.7138351" lon="11.1165951"><ele>146.4</ele><time>2026-05-03T08:40:16.034Z</time></trkpt><trkpt lat="43.7138375" lon="11.1164563"><ele>145.79999999999998</ele><time>2026-05-03T08:40:17.04Z</time></trkpt><trkpt lat="43.7138435" lon="11.1163187"><ele>145.2</ele><time>2026-05-03T08:40:18.041Z</time></trkpt><trkpt lat="43.7138425" lon="11.1161857"><ele>144.6</ele><time>2026-05-03T08:40:19.037Z</time></trkpt><trkpt lat="43.7138603" lon="11.1160486"><ele>144.0</ele><time>2026-05-03T08:40:20.039Z</time></trkpt><trkpt lat="43.7138893" lon="11.1159072"><ele>144.0</ele><time>2026-05-03T08:40:21.039Z</time></trkpt><trkpt lat="43.7139225" lon="11.11577"><ele>144.0</ele><time>2026-05-03T08:40:22.042Z</time></trkpt><trkpt lat="43.7139653" lon="11.1156402"><ele>144.0</ele><time>2026-05-03T08:40:23.035Z</time></trkpt><trkpt lat="43.7140108" lon="11.1155162"><ele>144.0</ele><time>2026-05-03T08:40:24.037Z</time></trkpt><trkpt lat="43.7140564" lon="11.1153981"><ele>144.0</ele><time>2026-05-03T08:40:25.041Z</time></trkpt><trkpt lat="43.7141014" lon="11.1152859"><ele>143.83333333333334</ele><time>2026-05-03T08:40:26.041Z</time></trkpt><trkpt lat="43.7141421" lon="11.1151747"><ele>143.66666666666666</ele><time>2026-05-03T08:40:27.039Z</time></trkpt><trkpt lat="43.7141505" lon="11.1150583"><ele>143.5</ele><time>2026-05-03T08:40:28.037Z</time></trkpt><trkpt lat="43.7141547" lon="11.1149413"><ele>143.33333333333331</ele><time>2026-05-03T08:40:29.038Z</time></trkpt><trkpt lat="43.7141431" lon="11.1148265"><ele>143.16666666666666</ele><time>2026-05-03T08:40:30.036Z</time></trkpt><trkpt lat="43.7141196" lon="11.1147213"><ele>143.0</ele><time>2026-05-03T08:40:31.035Z</time></trkpt><trkpt lat="43.7140718" lon="11.1146232"><ele>141.6</ele><time>2026-05-03T08:40:32.047Z</time></trkpt><trkpt lat="43.7140132" lon="11.1145254"><ele>140.20000000000002</ele><time>2026-05-03T08:40:33.041Z</time></trkpt><trkpt lat="43.7139362" lon="11.1144385"><ele>138.8</ele><time>2026-05-03T08:40:34.037Z</time></trkpt><trkpt lat="43.7138469" lon="11.114353"><ele>137.4</ele><time>2026-05-03T08:40:35.039Z</time></trkpt><trkpt lat="43.7137505" lon="11.1142755"><ele>136.0</ele><time>2026-05-03T08:40:36.04Z</time></trkpt><trkpt lat="43.7136577" lon="11.1142012"><ele>135.6</ele><time>2026-05-03T08:40:37.038Z</time></trkpt><trkpt lat="43.7135711" lon="11.1141236"><ele>135.2</ele><time>2026-05-03T08:40:38.04Z</time></trkpt><trkpt lat="43.7134933" lon="11.1140378"><ele>134.8</ele><time>2026-05-03T08:40:39.036Z</time></trkpt><trkpt lat="43.7134257" lon="11.1139403"><ele>134.4</ele><time>2026-05-03T08:40:40.042Z</time></trkpt><trkpt lat="43.7133692" lon="11.1138267"><ele>134.0</ele><time>2026-05-03T08:40:41.039Z</time></trkpt><trkpt lat="43.7133249" lon="11.1136902"><ele>132.75</ele><time>2026-05-03T08:40:42.041Z</time></trkpt><trkpt lat="43.7132882" lon="11.1135344"><ele>131.5</ele><time>2026-05-03T08:40:43.039Z</time></trkpt><trkpt lat="43.7132521" lon="11.11337"><ele>130.25</ele><time>2026-05-03T08:40:44.039Z</time></trkpt><trkpt lat="43.7132244" lon="11.1132009"><ele>129.0</ele><time>2026-05-03T08:40:45.04Z</time></trkpt><trkpt lat="43.7132073" lon="11.1130327"><ele>128.0</ele><time>2026-05-03T08:40:46.057Z</time></trkpt><trkpt lat="43.7132034" lon="11.1128646"><ele>127.0</ele><time>2026-05-03T08:40:47.039Z</time></trkpt><trkpt lat="43.7131938" lon="11.1127017"><ele>126.0</ele><time>2026-05-03T08:40:48.046Z</time></trkpt><trkpt lat="43.7131741" lon="11.112548"><ele>125.0</ele><time>2026-05-03T08:40:49.042Z</time></trkpt><trkpt lat="43.7131488" lon="11.1124083"><ele>124.4</ele><time>2026-05-03T08:40:50.035Z</time></trkpt><trkpt lat="43.7131152" lon="11.1122715"><ele>123.8</ele><time>2026-05-03T08:40:51.035Z</time></trkpt><trkpt lat="43.7130649" lon="11.1121462"><ele>123.19999999999999</ele><time>2026-05-03T08:40:52.037Z</time></trkpt><trkpt lat="43.7130162" lon="11.1120337"><ele>122.6</ele><time>2026-05-03T08:40:53.043Z</time></trkpt><trkpt lat="43.7129668" lon="11.1119369"><ele>122.0</ele><time>2026-05-03T08:40:54.054Z</time></trkpt><trkpt lat="43.7129111" lon="11.1118469"><ele>122.0</ele><time>2026-05-03T08:40:55.036Z</time></trkpt><trkpt lat="43.7128358" lon="11.1117668"><ele>121.99999999999999</ele><time>2026-05-03T08:40:56.038Z</time></trkpt><trkpt lat="43.7127615" lon="11.1116518"><ele>121.99999999999999</ele><time>2026-05-03T08:40:57.038Z</time></trkpt><trkpt lat="43.7126761" lon="11.1115398"><ele>122.0</ele><time>2026-05-03T08:40:58.038Z</time></trkpt><trkpt lat="43.7125949" lon="11.1114126"><ele>122.0</ele><time>2026-05-03T08:40:59.036Z</time></trkpt><trkpt lat="43.7125189" lon="11.1112657"><ele>125.5</ele><time>2026-05-03T08:41:00.041Z</time></trkpt><trkpt lat="43.7124345" lon="11.1111279"><ele>129.0</ele><time>2026-05-03T08:41:01.043Z</time></trkpt><trkpt lat="43.7123488" lon="11.1109962"><ele>132.5</ele><time>2026-05-03T08:41:02.038Z</time></trkpt><trkpt lat="43.7122642" lon="11.1108668"><ele>136.0</ele><time>2026-05-03T08:41:03.046Z</time></trkpt><trkpt lat="43.7121758" lon="11.110745"><ele>135.75</ele><time>2026-05-03T08:41:04.037Z</time></trkpt><trkpt lat="43.7120799" lon="11.1106347"><ele>135.5</ele><time>2026-05-03T08:41:05.036Z</time></trkpt><trkpt lat="43.7119841" lon="11.1105253"><ele>135.25</ele><time>2026-05-03T08:41:06.038Z</time></trkpt><trkpt lat="43.7118902" lon="11.1104141"><ele>135.0</ele><time>2026-05-03T08:41:07.038Z</time></trkpt><trkpt lat="43.7117989" lon="11.1102979"><ele>135.75</ele><time>2026-05-03T08:41:08.034Z</time></trkpt><trkpt lat="43.7117072" lon="11.1101803"><ele>136.5</ele><time>2026-05-03T08:41:09.04Z</time></trkpt><trkpt lat="43.7116142" lon="11.1100622"><ele>137.25</ele><time>2026-05-03T08:41:10.036Z</time></trkpt><trkpt lat="43.7115213" lon="11.1099412"><ele>138.0</ele><time>2026-05-03T08:41:11.042Z</time></trkpt><trkpt lat="43.7114279" lon="11.1098186"><ele>138.0</ele><time>2026-05-03T08:41:12.035Z</time></trkpt><trkpt lat="43.7113335" lon="11.109694"><ele>138.0</ele><time>2026-05-03T08:41:13.048Z</time></trkpt><trkpt lat="43.7112372" lon="11.1095671"><ele>138.0</ele><time>2026-05-03T08:41:14.035Z</time></trkpt><trkpt lat="43.7111399" lon="11.1094383"><ele>138.0</ele><time>2026-05-03T08:41:15.039Z</time></trkpt><trkpt lat="43.7110424" lon="11.1093129"><ele>139.5</ele><time>2026-05-03T08:41:16.037Z</time></trkpt><trkpt lat="43.7109486" lon="11.1091915"><ele>141.0</ele><time>2026-05-03T08:41:17.036Z</time></trkpt><trkpt lat="43.7108559" lon="11.1090724"><ele>142.5</ele><time>2026-05-03T08:41:18.035Z</time></trkpt><trkpt lat="43.7107639" lon="11.1089485"><ele>144.0</ele><time>2026-05-03T08:41:19.037Z</time></trkpt><trkpt lat="43.7106717" lon="11.1088199"><ele>144.0</ele><time>2026-05-03T08:41:20.038Z</time></trkpt><trkpt lat="43.7105803" lon="11.1086967"><ele>144.0</ele><time>2026-05-03T08:41:21.039Z</time></trkpt><trkpt lat="43.7104913" lon="11.1085826"><ele>144.0</ele><time>2026-05-03T08:41:22.044Z</time></trkpt><trkpt lat="43.7103998" lon="11.1084758"><ele>144.0</ele><time>2026-05-03T08:41:23.04Z</time></trkpt><trkpt lat="43.7103043" lon="11.1083721"><ele>144.0</ele><time>2026-05-03T08:41:24.045Z</time></trkpt><trkpt lat="43.7102023" lon="11.1082774"><ele>144.0</ele><time>2026-05-03T08:41:25.042Z</time></trkpt><trkpt lat="43.7100847" lon="11.108199"><ele>144.0</ele><time>2026-05-03T08:41:26.042Z</time></trkpt><trkpt lat="43.709962" lon="11.1081325"><ele>144.0</ele><time>2026-05-03T08:41:27.039Z</time></trkpt><trkpt lat="43.7098436" lon="11.1080712"><ele>143.8</ele><time>2026-05-03T08:41:28.038Z</time></trkpt><trkpt lat="43.7097288" lon="11.1080217"><ele>143.60000000000002</ele><time>2026-05-03T08:41:29.041Z</time></trkpt><trkpt lat="43.7096244" lon="11.1079674"><ele>143.4</ele><time>2026-05-03T08:41:30.041Z</time></trkpt><trkpt lat="43.7095271" lon="11.1079186"><ele>143.20000000000002</ele><time>2026-05-03T08:41:31.042Z</time></trkpt><trkpt lat="43.7094347" lon="11.1078707"><ele>143.0</ele><time>2026-05-03T08:41:32.042Z</time></trkpt><trkpt lat="43.7093472" lon="11.1078081"><ele>142.75</ele><time>2026-05-03T08:41:33.05Z</time></trkpt><trkpt lat="43.709266" lon="11.1077128"><ele>142.5</ele><time>2026-05-03T08:41:34.039Z</time></trkpt><trkpt lat="43.7091921" lon="11.1075888"><ele>142.25</ele><time>2026-05-03T08:41:35.039Z</time></trkpt><trkpt lat="43.7091135" lon="11.1074594"><ele>142.0</ele><time>2026-05-03T08:41:36.041Z</time></trkpt><trkpt lat="43.7090334" lon="11.1073357"><ele>141.0</ele><time>2026-05-03T08:41:37.05Z</time></trkpt><trkpt lat="43.7089531" lon="11.1072226"><ele>140.0</ele><time>2026-05-03T08:41:38.039Z</time></trkpt><trkpt lat="43.708876" lon="11.1071169"><ele>139.0</ele><time>2026-05-03T08:41:39.037Z</time></trkpt><trkpt lat="43.7088063" lon="11.1070136"><ele>138.0</ele><time>2026-05-03T08:41:40.038Z</time></trkpt><trkpt lat="43.7087326" lon="11.1069211"><ele>137.0</ele><time>2026-05-03T08:41:41.046Z</time></trkpt><trkpt lat="43.7086692" lon="11.1068227"><ele>137.0</ele><time>2026-05-03T08:41:42.039Z</time></trkpt><trkpt lat="43.7086058" lon="11.106729"><ele>137.0</ele><time>2026-05-03T08:41:43.041Z</time></trkpt><trkpt lat="43.7085422" lon="11.1066393"><ele>137.0</ele><time>2026-05-03T08:41:44.042Z</time></trkpt><trkpt lat="43.708478" lon="11.1065536"><ele>137.0</ele><time>2026-05-03T08:41:45.051Z</time></trkpt><trkpt lat="43.7084136" lon="11.1064757"><ele>137.0</ele><time>2026-05-03T08:41:46.041Z</time></trkpt><trkpt lat="43.7083448" lon="11.1064113"><ele>137.0</ele><time>2026-05-03T08:41:47.036Z</time></trkpt><trkpt lat="43.7082604" lon="11.1063767"><ele>135.0</ele><time>2026-05-03T08:41:48.036Z</time></trkpt><trkpt lat="43.7081591" lon="11.1063512"><ele>133.0</ele><time>2026-05-03T08:41:49.041Z</time></trkpt><trkpt lat="43.708036" lon="11.1063299"><ele>131.0</ele><time>2026-05-03T08:41:50.035Z</time></trkpt><trkpt lat="43.7078961" lon="11.1063183"><ele>129.0</ele><time>2026-05-03T08:41:51.039Z</time></trkpt><trkpt lat="43.707745" lon="11.106314"><ele>127.66666666666666</ele><time>2026-05-03T08:41:52.038Z</time></trkpt><trkpt lat="43.707588" lon="11.1063113"><ele>126.33333333333333</ele><time>2026-05-03T08:41:53.04Z</time></trkpt><trkpt lat="43.7074265" lon="11.1063108"><ele>125.0</ele><time>2026-05-03T08:41:54.04Z</time></trkpt><trkpt lat="43.7072736" lon="11.1063068"><ele>125.0</ele><time>2026-05-03T08:41:55.038Z</time></trkpt><trkpt lat="43.7071333" lon="11.1063037"><ele>125.0</ele><time>2026-05-03T08:41:56.039Z</time></trkpt><trkpt lat="43.7070017" lon="11.1063119"><ele>125.0</ele><time>2026-05-03T08:41:57.036Z</time></trkpt><trkpt lat="43.7068757" lon="11.1063198"><ele>125.0</ele><time>2026-05-03T08:41:58.037Z</time></trkpt><trkpt lat="43.7067531" lon="11.1063244"><ele>125.2</ele><time>2026-05-03T08:41:59.039Z</time></trkpt><trkpt lat="43.7066407" lon="11.106326"><ele>125.4</ele><time>2026-05-03T08:42:00.038Z</time></trkpt><trkpt lat="43.7065356" lon="11.1063093"><ele>125.6</ele><time>2026-05-03T08:42:01.042Z</time></trkpt><trkpt lat="43.7064287" lon="11.1062807"><ele>125.8</ele><time>2026-05-03T08:42:02.04Z</time></trkpt><trkpt lat="43.7063179" lon="11.1062273"><ele>126.0</ele><time>2026-05-03T08:42:03.04Z</time></trkpt><trkpt lat="43.7062104" lon="11.1061503"><ele>126.0</ele><time>2026-05-03T08:42:04.039Z</time></trkpt><trkpt lat="43.7061097" lon="11.1060852"><ele>126.0</ele><time>2026-05-03T08:42:05.042Z</time></trkpt><trkpt lat="43.706014" lon="11.1060282"><ele>126.0</ele><time>2026-05-03T08:42:06.038Z</time></trkpt><trkpt lat="43.7059185" lon="11.1059711"><ele>126.0</ele><time>2026-05-03T08:42:07.038Z</time></trkpt><trkpt lat="43.7058184" lon="11.1059072"><ele>126.0</ele><time>2026-05-03T08:42:08.037Z</time></trkpt><trkpt lat="43.7057166" lon="11.1058359"><ele>126.0</ele><time>2026-05-03T08:42:09.039Z</time></trkpt><trkpt lat="43.705616" lon="11.105755"><ele>126.0</ele><time>2026-05-03T08:42:10.037Z</time></trkpt><trkpt lat="43.7055193" lon="11.1056696"><ele>126.0</ele><time>2026-05-03T08:42:11.04Z</time></trkpt><trkpt lat="43.7054247" lon="11.1055875"><ele>126.0</ele><time>2026-05-03T08:42:12.036Z</time></trkpt><trkpt lat="43.7053322" lon="11.1055073"><ele>123.75</ele><time>2026-05-03T08:42:13.039Z</time></trkpt><trkpt lat="43.7052404" lon="11.105422"><ele>121.5</ele><time>2026-05-03T08:42:14.037Z</time></trkpt><trkpt lat="43.7051482" lon="11.1053271"><ele>119.25</ele><time>2026-05-03T08:42:15.039Z</time></trkpt><trkpt lat="43.7050605" lon="11.1052081"><ele>117.0</ele><time>2026-05-03T08:42:16.035Z</time></trkpt><trkpt lat="43.7049805" lon="11.1050647"><ele>116.5</ele><time>2026-05-03T08:42:17.034Z</time></trkpt><trkpt lat="43.7049024" lon="11.1049122"><ele>116.0</ele><time>2026-05-03T08:42:18.034Z</time></trkpt><trkpt lat="43.7048255" lon="11.1047575"><ele>115.5</ele><time>2026-05-03T08:42:19.042Z</time></trkpt><trkpt lat="43.7047491" lon="11.1046127"><ele>115.0</ele><time>2026-05-03T08:42:20.043Z</time></trkpt><trkpt lat="43.7046748" lon="11.104478"><ele>115.0</ele><time>2026-05-03T08:42:21.037Z</time></trkpt><trkpt lat="43.7045996" lon="11.1043466"><ele>115.0</ele><time>2026-05-03T08:42:22.035Z</time></trkpt><trkpt lat="43.7045211" lon="11.104224"><ele>115.0</ele><time>2026-05-03T08:42:23.037Z</time></trkpt><trkpt lat="43.7044372" lon="11.1041035"><ele>115.0</ele><time>2026-05-03T08:42:24.036Z</time></trkpt><trkpt lat="43.7043544" lon="11.1039806"><ele>113.25</ele><time>2026-05-03T08:42:25.038Z</time></trkpt><trkpt lat="43.7042654" lon="11.1038598"><ele>111.5</ele><time>2026-05-03T08:42:26.035Z</time></trkpt><trkpt lat="43.7041634" lon="11.103746"><ele>109.75</ele><time>2026-05-03T08:42:27.039Z</time></trkpt><trkpt lat="43.7040583" lon="11.1036343"><ele>108.0</ele><time>2026-05-03T08:42:28.035Z</time></trkpt><trkpt lat="43.7039525" lon="11.1035153"><ele>108.0</ele><time>2026-05-03T08:42:29.036Z</time></trkpt><trkpt lat="43.703848" lon="11.1033938"><ele>108.0</ele><time>2026-05-03T08:42:30.042Z</time></trkpt><trkpt lat="43.7037457" lon="11.1032792"><ele>108.0</ele><time>2026-05-03T08:42:31.042Z</time></trkpt><trkpt lat="43.7036424" lon="11.1031672"><ele>108.0</ele><time>2026-05-03T08:42:32.034Z</time></trkpt><trkpt lat="43.7035367" lon="11.1030453"><ele>107.5</ele><time>2026-05-03T08:42:33.035Z</time></trkpt><trkpt lat="43.7034319" lon="11.1029126"><ele>107.0</ele><time>2026-05-03T08:42:34.038Z</time></trkpt><trkpt lat="43.7033319" lon="11.1027716"><ele>106.5</ele><time>2026-05-03T08:42:35.037Z</time></trkpt><trkpt lat="43.7032381" lon="11.1026256"><ele>106.0</ele><time>2026-05-03T08:42:36.037Z</time></trkpt><trkpt lat="43.7031461" lon="11.1024792"><ele>104.25</ele><time>2026-05-03T08:42:37.039Z</time></trkpt><trkpt lat="43.7030535" lon="11.1023424"><ele>102.5</ele><time>2026-05-03T08:42:38.04Z</time></trkpt><trkpt lat="43.702964" lon="11.1022124"><ele>100.75</ele><time>2026-05-03T08:42:39.035Z</time></trkpt><trkpt lat="43.7028798" lon="11.1020731"><ele>99.0</ele><time>2026-05-03T08:42:40.036Z</time></trkpt><trkpt lat="43.7027987" lon="11.1019337"><ele>98.75</ele><time>2026-05-03T08:42:41.035Z</time></trkpt><trkpt lat="43.7027174" lon="11.1018012"><ele>98.5</ele><time>2026-05-03T08:42:42.039Z</time></trkpt><trkpt lat="43.702634" lon="11.1016727"><ele>98.25</ele><time>2026-05-03T08:42:43.04Z</time></trkpt><trkpt lat="43.7025534" lon="11.1015491"><ele>98.0</ele><time>2026-05-03T08:42:44.038Z</time></trkpt><trkpt lat="43.7024771" lon="11.1014319"><ele>98.0</ele><time>2026-05-03T08:42:45.039Z</time></trkpt><trkpt lat="43.702404" lon="11.1013169"><ele>98.0</ele><time>2026-05-03T08:42:46.037Z</time></trkpt><trkpt lat="43.7023274" lon="11.1011965"><ele>98.0</ele><time>2026-05-03T08:42:47.044Z</time></trkpt><trkpt lat="43.7022472" lon="11.1010721"><ele>98.0</ele><time>2026-05-03T08:42:48.033Z</time></trkpt><trkpt lat="43.7021725" lon="11.1009463"><ele>98.0</ele><time>2026-05-03T08:42:49.04Z</time></trkpt><trkpt lat="43.7021018" lon="11.1008275"><ele>98.0</ele><time>2026-05-03T08:42:50.035Z</time></trkpt><trkpt lat="43.7020338" lon="11.1007141"><ele>98.0</ele><time>2026-05-03T08:42:51.041Z</time></trkpt><trkpt lat="43.701967" lon="11.1006001"><ele>98.0</ele><time>2026-05-03T08:42:52.038Z</time></trkpt><trkpt lat="43.7018912" lon="11.1004959"><ele>98.0</ele><time>2026-05-03T08:42:53.046Z</time></trkpt><trkpt lat="43.701827" lon="11.1003924"><ele>97.2</ele><time>2026-05-03T08:42:54.039Z</time></trkpt><trkpt lat="43.7017664" lon="11.1002938"><ele>96.4</ele><time>2026-05-03T08:42:55.041Z</time></trkpt><trkpt lat="43.701709" lon="11.1001999"><ele>95.60000000000001</ele><time>2026-05-03T08:42:56.037Z</time></trkpt><trkpt lat="43.7016529" lon="11.1001039"><ele>94.80000000000001</ele><time>2026-05-03T08:42:57.038Z</time></trkpt><trkpt lat="43.7015935" lon="11.1000013"><ele>94.0</ele><time>2026-05-03T08:42:58.037Z</time></trkpt><trkpt lat="43.701542" lon="11.0998848"><ele>92.80000000000001</ele><time>2026-05-03T08:42:59.042Z</time></trkpt><trkpt lat="43.7014991" lon="11.099765"><ele>91.60000000000001</ele><time>2026-05-03T08:43:00.042Z</time></trkpt><trkpt lat="43.7014574" lon="11.0996479"><ele>90.4</ele><time>2026-05-03T08:43:01.041Z</time></trkpt><trkpt lat="43.7014205" lon="11.099527"><ele>89.2</ele><time>2026-05-03T08:43:02.038Z</time></trkpt><trkpt lat="43.7013716" lon="11.0994145"><ele>88.0</ele><time>2026-05-03T08:43:03.036Z</time></trkpt><trkpt lat="43.7013212" lon="11.0993022"><ele>88.0</ele><time>2026-05-03T08:43:04.038Z</time></trkpt><trkpt lat="43.7012699" lon="11.0991886"><ele>88.0</ele><time>2026-05-03T08:43:05.039Z</time></trkpt><trkpt lat="43.7012089" lon="11.0990916"><ele>88.0</ele><time>2026-05-03T08:43:06.039Z</time></trkpt><trkpt lat="43.7011507" lon="11.0989978"><ele>88.0</ele><time>2026-05-03T08:43:07.037Z</time></trkpt><trkpt lat="43.7010883" lon="11.0989176"><ele>88.0</ele><time>2026-05-03T08:43:08.041Z</time></trkpt><trkpt lat="43.7010151" lon="11.0988543"><ele>87.5</ele><time>2026-05-03T08:43:09.038Z</time></trkpt><trkpt lat="43.7009349" lon="11.0988026"><ele>87.0</ele><time>2026-05-03T08:43:10.039Z</time></trkpt><trkpt lat="43.7008578" lon="11.0987497"><ele>86.5</ele><time>2026-05-03T08:43:11.036Z</time></trkpt><trkpt lat="43.7007809" lon="11.098708"><ele>86.0</ele><time>2026-05-03T08:43:12.037Z</time></trkpt><trkpt lat="43.700701" lon="11.0986873"><ele>85.5</ele><time>2026-05-03T08:43:13.033Z</time></trkpt><trkpt lat="43.7006254" lon="11.0986525"><ele>85.0</ele><time>2026-05-03T08:43:14.034Z</time></trkpt><trkpt lat="43.7005534" lon="11.0986074"><ele>85.0</ele><time>2026-05-03T08:43:15.038Z</time></trkpt><trkpt lat="43.7004813" lon="11.0985617"><ele>85.0</ele><time>2026-05-03T08:43:16.036Z</time></trkpt><trkpt lat="43.7004122" lon="11.0985093"><ele>85.0</ele><time>2026-05-03T08:43:17.042Z</time></trkpt><trkpt lat="43.7003435" lon="11.0984669"><ele>85.0</ele><time>2026-05-03T08:43:18.034Z</time></trkpt><trkpt lat="43.7002782" lon="11.0984259"><ele>85.0</ele><time>2026-05-03T08:43:19.038Z</time></trkpt><trkpt lat="43.7002211" lon="11.0983757"><ele>85.0</ele><time>2026-05-03T08:43:20.039Z</time></trkpt><trkpt lat="43.7001633" lon="11.098331"><ele>85.0</ele><time>2026-05-03T08:43:21.041Z</time></trkpt><trkpt lat="43.7001035" lon="11.0982848"><ele>82.66666666666666</ele><time>2026-05-03T08:43:22.039Z</time></trkpt><trkpt lat="43.7000461" lon="11.098235"><ele>80.33333333333333</ele><time>2026-05-03T08:43:23.038Z</time></trkpt><trkpt lat="43.6999885" lon="11.0981824"><ele>78.0</ele><time>2026-05-03T08:43:24.041Z</time></trkpt><trkpt lat="43.6999326" lon="11.0981387"><ele>75.66666666666667</ele><time>2026-05-03T08:43:25.033Z</time></trkpt><trkpt lat="43.6998775" lon="11.0980924"><ele>73.33333333333334</ele><time>2026-05-03T08:43:26.039Z</time></trkpt><trkpt lat="43.6997691" lon="11.098049"><ele>71.0</ele><time>2026-05-03T08:43:28.042Z</time></trkpt><trkpt lat="43.6996732" lon="11.0980088"><ele>71.0</ele><time>2026-05-03T08:43:30.037Z</time></trkpt><trkpt lat="43.6995908" lon="11.0979589"><ele>71.0</ele><time>2026-05-03T08:43:32.035Z</time></trkpt><trkpt lat="43.6994896" lon="11.0979337"><ele>71.0</ele><time>2026-05-03T08:43:36.042Z</time></trkpt><trkpt lat="43.6994057" lon="11.0980152"><ele>71.0</ele><time>2026-05-03T08:43:38.038Z</time></trkpt><trkpt lat="43.6993657" lon="11.0980921"><ele>71.0</ele><time>2026-05-03T08:43:39.035Z</time></trkpt><trkpt lat="43.6993398" lon="11.0981956"><ele>71.0</ele><time>2026-05-03T08:43:40.037Z</time></trkpt><trkpt lat="43.6993107" lon="11.0983205"><ele>70.6</ele><time>2026-05-03T08:43:41.038Z</time></trkpt><trkpt lat="43.6992595" lon="11.0984403"><ele>70.19999999999999</ele><time>2026-05-03T08:43:42.049Z</time></trkpt><trkpt lat="43.6992106" lon="11.0985675"><ele>69.80000000000001</ele><time>2026-05-03T08:43:43.037Z</time></trkpt><trkpt lat="43.6991591" lon="11.0986959"><ele>69.4</ele><time>2026-05-03T08:43:44.036Z</time></trkpt><trkpt lat="43.6991104" lon="11.0988326"><ele>69.0</ele><time>2026-05-03T08:43:45.038Z</time></trkpt><trkpt lat="43.6990552" lon="11.0989728"><ele>68.5</ele><time>2026-05-03T08:43:46.042Z</time></trkpt><trkpt lat="43.6990035" lon="11.0991289"><ele>68.0</ele><time>2026-05-03T08:43:47.036Z</time></trkpt><trkpt lat="43.698959" lon="11.0992947"><ele>67.5</ele><time>2026-05-03T08:43:48.043Z</time></trkpt><trkpt lat="43.6989019" lon="11.0994504"><ele>67.0</ele><time>2026-05-03T08:43:49.039Z</time></trkpt><trkpt lat="43.6988414" lon="11.0995986"><ele>67.0</ele><time>2026-05-03T08:43:50.043Z</time></trkpt><trkpt lat="43.6987725" lon="11.0997396"><ele>67.0</ele><time>2026-05-03T08:43:51.038Z</time></trkpt><trkpt lat="43.6986853" lon="11.0998579"><ele>67.0</ele><time>2026-05-03T08:43:52.042Z</time></trkpt><trkpt lat="43.6985964" lon="11.0999783"><ele>67.0</ele><time>2026-05-03T08:43:53.043Z</time></trkpt><trkpt lat="43.6985035" lon="11.1000937"><ele>65.75</ele><time>2026-05-03T08:43:54.04Z</time></trkpt><trkpt lat="43.6983971" lon="11.1001756"><ele>64.5</ele><time>2026-05-03T08:43:55.041Z</time></trkpt><trkpt lat="43.6982836" lon="11.100228"><ele>63.25</ele><time>2026-05-03T08:43:56.038Z</time></trkpt><trkpt lat="43.6981672" lon="11.100259"><ele>62.0</ele><time>2026-05-03T08:43:57.037Z</time></trkpt><trkpt lat="43.6980524" lon="11.1002848"><ele>62.0</ele><time>2026-05-03T08:43:58.043Z</time></trkpt><trkpt lat="43.6979436" lon="11.1003063"><ele>62.0</ele><time>2026-05-03T08:43:59.045Z</time></trkpt><trkpt lat="43.6978451" lon="11.1003274"><ele>62.0</ele><time>2026-05-03T08:44:00.044Z</time></trkpt><trkpt lat="43.6977556" lon="11.100341"><ele>62.0</ele><time>2026-05-03T08:44:01.043Z</time></trkpt><trkpt lat="43.6976743" lon="11.1003529"><ele>62.0</ele><time>2026-05-03T08:44:02.034Z</time></trkpt><trkpt lat="43.6975943" lon="11.1003368"><ele>62.28571428571429</ele><time>2026-05-03T08:44:03.037Z</time></trkpt><trkpt lat="43.6975188" lon="11.1002988"><ele>62.57142857142858</ele><time>2026-05-03T08:44:04.048Z</time></trkpt><trkpt lat="43.6974455" lon="11.1002562"><ele>62.85714285714286</ele><time>2026-05-03T08:44:05.043Z</time></trkpt><trkpt lat="43.6973763" lon="11.1002056"><ele>63.14285714285714</ele><time>2026-05-03T08:44:06.045Z</time></trkpt><trkpt lat="43.6973131" lon="11.1001555"><ele>63.42857142857142</ele><time>2026-05-03T08:44:07.037Z</time></trkpt><trkpt lat="43.6972581" lon="11.1001037"><ele>63.71428571428571</ele><time>2026-05-03T08:44:08.037Z</time></trkpt><trkpt lat="43.6972106" lon="11.1000442"><ele>64.0</ele><time>2026-05-03T08:44:09.048Z</time></trkpt><trkpt lat="43.697164" lon="11.099971"><ele>63.666666666666664</ele><time>2026-05-03T08:44:10.047Z</time></trkpt><trkpt lat="43.6971282" lon="11.0998876"><ele>63.33333333333333</ele><time>2026-05-03T08:44:11.045Z</time></trkpt><trkpt lat="43.6970886" lon="11.0998177"><ele>63.0</ele><time>2026-05-03T08:44:12.036Z</time></trkpt><trkpt lat="43.6969854" lon="11.0997208"><ele>62.66666666666667</ele><time>2026-05-03T08:44:14.042Z</time></trkpt><trkpt lat="43.6969229" lon="11.0997082"><ele>62.333333333333336</ele><time>2026-05-03T08:44:15.045Z</time></trkpt><trkpt lat="43.6968055" lon="11.0997606"><ele>62.0</ele><time>2026-05-03T08:44:17.037Z</time></trkpt><trkpt lat="43.6967485" lon="11.0998238"><ele>62.00000000000001</ele><time>2026-05-03T08:44:18.038Z</time></trkpt><trkpt lat="43.6966816" lon="11.0998928"><ele>62.0</ele><time>2026-05-03T08:44:19.042Z</time></trkpt><trkpt lat="43.6966013" lon="11.0999451"><ele>62.0</ele><time>2026-05-03T08:44:20.037Z</time></trkpt><trkpt lat="43.6965175" lon="11.0999707"><ele>62.0</ele><time>2026-05-03T08:44:21.036Z</time></trkpt><trkpt lat="43.6964412" lon="11.0999759"><ele>62.00000000000001</ele><time>2026-05-03T08:44:22.047Z</time></trkpt><trkpt lat="43.6963464" lon="11.0999719"><ele>62.0</ele><time>2026-05-03T08:44:24.037Z</time></trkpt><trkpt lat="43.6962598" lon="11.1000178"><ele>61.833333333333336</ele><time>2026-05-03T08:44:27.043Z</time></trkpt><trkpt lat="43.6961921" lon="11.1000278"><ele>61.66666666666667</ele><time>2026-05-03T08:44:28.046Z</time></trkpt><trkpt lat="43.696118" lon="11.1000175"><ele>61.5</ele><time>2026-05-03T08:44:29.05Z</time></trkpt><trkpt lat="43.6960356" lon="11.0999763"><ele>61.33333333333333</ele><time>2026-05-03T08:44:30.038Z</time></trkpt><trkpt lat="43.6959504" lon="11.0999068"><ele>61.166666666666664</ele><time>2026-05-03T08:44:31.033Z</time></trkpt><trkpt lat="43.6958587" lon="11.0998184"><ele>61.0</ele><time>2026-05-03T08:44:32.033Z</time></trkpt><trkpt lat="43.6957612" lon="11.0997085"><ele>60.8</ele><time>2026-05-03T08:44:33.036Z</time></trkpt><trkpt lat="43.6956609" lon="11.099612"><ele>60.599999999999994</ele><time>2026-05-03T08:44:34.032Z</time></trkpt><trkpt lat="43.6955681" lon="11.0995325"><ele>60.4</ele><time>2026-05-03T08:44:35.045Z</time></trkpt><trkpt lat="43.695485" lon="11.0994513"><ele>60.2</ele><time>2026-05-03T08:44:36.037Z</time></trkpt><trkpt lat="43.6953985" lon="11.0993726"><ele>60.0</ele><time>2026-05-03T08:44:37.033Z</time></trkpt><trkpt lat="43.6953151" lon="11.0992985"><ele>60.166666666666664</ele><time>2026-05-03T08:44:38.045Z</time></trkpt><trkpt lat="43.6952379" lon="11.0992299"><ele>60.33333333333333</ele><time>2026-05-03T08:44:39.039Z</time></trkpt><trkpt lat="43.6951663" lon="11.0991659"><ele>60.5</ele><time>2026-05-03T08:44:40.033Z</time></trkpt><trkpt lat="43.6950997" lon="11.0991041"><ele>60.666666666666664</ele><time>2026-05-03T08:44:41.034Z</time></trkpt><trkpt lat="43.6950383" lon="11.0990367"><ele>60.83333333333333</ele><time>2026-05-03T08:44:42.047Z</time></trkpt><trkpt lat="43.6949744" lon="11.0989665"><ele>61.0</ele><time>2026-05-03T08:44:43.039Z</time></trkpt><trkpt lat="43.6948974" lon="11.0989096"><ele>61.0</ele><time>2026-05-03T08:44:44.045Z</time></trkpt><trkpt lat="43.6948207" lon="11.0988355"><ele>60.99999999999999</ele><time>2026-05-03T08:44:45.04Z</time></trkpt><trkpt lat="43.6947361" lon="11.098754"><ele>60.99999999999999</ele><time>2026-05-03T08:44:46.047Z</time></trkpt><trkpt lat="43.6946455" lon="11.0986556"><ele>61.0</ele><time>2026-05-03T08:44:47.036Z</time></trkpt><trkpt lat="43.6945522" lon="11.0985532"><ele>61.0</ele><time>2026-05-03T08:44:48.047Z</time></trkpt><trkpt lat="43.6944618" lon="11.098454"><ele>60.75</ele><time>2026-05-03T08:44:49.039Z</time></trkpt><trkpt lat="43.6943713" lon="11.0983556"><ele>60.5</ele><time>2026-05-03T08:44:50.043Z</time></trkpt><trkpt lat="43.6942805" lon="11.0982556"><ele>60.25</ele><time>2026-05-03T08:44:51.033Z</time></trkpt><trkpt lat="43.694191" lon="11.0981557"><ele>60.0</ele><time>2026-05-03T08:44:52.049Z</time></trkpt><trkpt lat="43.6941034" lon="11.0980591"><ele>60.0</ele><time>2026-05-03T08:44:53.038Z</time></trkpt><trkpt lat="43.6940215" lon="11.0979703"><ele>60.0</ele><time>2026-05-03T08:44:54.046Z</time></trkpt><trkpt lat="43.6939463" lon="11.0978812"><ele>60.0</ele><time>2026-05-03T08:44:55.046Z</time></trkpt><trkpt lat="43.6938691" lon="11.0977899"><ele>60.0</ele><time>2026-05-03T08:44:56.034Z</time></trkpt><trkpt lat="43.6937929" lon="11.0976934"><ele>60.0</ele><time>2026-05-03T08:44:57.038Z</time></trkpt><trkpt lat="43.6937208" lon="11.0975967"><ele>60.0</ele><time>2026-05-03T08:44:58.044Z</time></trkpt><trkpt lat="43.6936537" lon="11.0975067"><ele>60.0</ele><time>2026-05-03T08:44:59.06Z</time></trkpt><trkpt lat="43.6935891" lon="11.0974195"><ele>60.0</ele><time>2026-05-03T08:45:00.037Z</time></trkpt><trkpt lat="43.6935278" lon="11.0973366"><ele>60.0</ele><time>2026-05-03T08:45:01.04Z</time></trkpt><trkpt lat="43.6934713" lon="11.0972597"><ele>60.0</ele><time>2026-05-03T08:45:02.046Z</time></trkpt><trkpt lat="43.6934188" lon="11.0971904"><ele>60.0</ele><time>2026-05-03T08:45:03.039Z</time></trkpt><trkpt lat="43.6933462" lon="11.0970719"><ele>60.0</ele><time>2026-05-03T08:45:05.04Z</time></trkpt><trkpt lat="43.6933751" lon="11.0969449"><ele>60.0</ele><time>2026-05-03T08:45:07.042Z</time></trkpt><trkpt lat="43.6934271" lon="11.096876"><ele>60.0</ele><time>2026-05-03T08:45:08.036Z</time></trkpt><trkpt lat="43.6934888" lon="11.0968028"><ele>60.0</ele><time>2026-05-03T08:45:09.033Z</time></trkpt><trkpt lat="43.6935616" lon="11.0967176"><ele>60.0</ele><time>2026-05-03T08:45:10.037Z</time></trkpt><trkpt lat="43.693639" lon="11.0966201"><ele>60.75</ele><time>2026-05-03T08:45:11.044Z</time></trkpt><trkpt lat="43.6937178" lon="11.0965234"><ele>61.5</ele><time>2026-05-03T08:45:12.042Z</time></trkpt><trkpt lat="43.6938031" lon="11.0964226"><ele>62.25</ele><time>2026-05-03T08:45:13.041Z</time></trkpt><trkpt lat="43.693891" lon="11.0963151"><ele>63.0</ele><time>2026-05-03T08:45:14.038Z</time></trkpt><trkpt lat="43.6939812" lon="11.0962036"><ele>63.0</ele><time>2026-05-03T08:45:15.036Z</time></trkpt><trkpt lat="43.6940703" lon="11.0960924"><ele>63.0</ele><time>2026-05-03T08:45:16.031Z</time></trkpt><trkpt lat="43.6941597" lon="11.0959832"><ele>63.0</ele><time>2026-05-03T08:45:17.034Z</time></trkpt><trkpt lat="43.6942487" lon="11.0958757"><ele>63.0</ele><time>2026-05-03T08:45:18.033Z</time></trkpt><trkpt lat="43.6943364" lon="11.0957694"><ele>62.0</ele><time>2026-05-03T08:45:19.032Z</time></trkpt><trkpt lat="43.6944241" lon="11.0956619"><ele>61.0</ele><time>2026-05-03T08:45:20.034Z</time></trkpt><trkpt lat="43.6945114" lon="11.0955515"><ele>60.0</ele><time>2026-05-03T08:45:21.035Z</time></trkpt><trkpt lat="43.6946001" lon="11.0954359"><ele>59.0</ele><time>2026-05-03T08:45:22.042Z</time></trkpt><trkpt lat="43.6946918" lon="11.0953173"><ele>59.0</ele><time>2026-05-03T08:45:23.041Z</time></trkpt><trkpt lat="43.6947821" lon="11.0952001"><ele>59.0</ele><time>2026-05-03T08:45:24.033Z</time></trkpt><trkpt lat="43.6948693" lon="11.0950858"><ele>59.0</ele><time>2026-05-03T08:45:25.035Z</time></trkpt><trkpt lat="43.6949552" lon="11.0949719"><ele>59.0</ele><time>2026-05-03T08:45:26.042Z</time></trkpt><trkpt lat="43.6950402" lon="11.0948571"><ele>58.75</ele><time>2026-05-03T08:45:27.042Z</time></trkpt><trkpt lat="43.6951279" lon="11.0947426"><ele>58.5</ele><time>2026-05-03T08:45:28.033Z</time></trkpt><trkpt lat="43.6952166" lon="11.0946316"><ele>58.25</ele><time>2026-05-03T08:45:29.039Z</time></trkpt><trkpt lat="43.6952996" lon="11.094532"><ele>58.0</ele><time>2026-05-03T08:45:30.033Z</time></trkpt><trkpt lat="43.6953804" lon="11.09444"><ele>58.0</ele><time>2026-05-03T08:45:31.041Z</time></trkpt><trkpt lat="43.6954614" lon="11.0943458"><ele>58.0</ele><time>2026-05-03T08:45:32.034Z</time></trkpt><trkpt lat="43.695537" lon="11.0942491"><ele>58.0</ele><time>2026-05-03T08:45:33.034Z</time></trkpt><trkpt lat="43.6956046" lon="11.094144"><ele>58.0</ele><time>2026-05-03T08:45:34.034Z</time></trkpt><trkpt lat="43.6956596" lon="11.0940216"><ele>58.0</ele><time>2026-05-03T08:45:35.032Z</time></trkpt><trkpt lat="43.6957038" lon="11.093887"><ele>58.2</ele><time>2026-05-03T08:45:36.035Z</time></trkpt><trkpt lat="43.6957422" lon="11.0937502"><ele>58.4</ele><time>2026-05-03T08:45:37.037Z</time></trkpt><trkpt lat="43.6957784" lon="11.0936185"><ele>58.60000000000001</ele><time>2026-05-03T08:45:38.035Z</time></trkpt><trkpt lat="43.6958153" lon="11.0934956"><ele>58.800000000000004</ele><time>2026-05-03T08:45:39.041Z</time></trkpt><trkpt lat="43.6958565" lon="11.0933782"><ele>59.0</ele><time>2026-05-03T08:45:40.048Z</time></trkpt><trkpt lat="43.6959013" lon="11.0932639"><ele>59.400000000000006</ele><time>2026-05-03T08:45:41.035Z</time></trkpt><trkpt lat="43.695949" lon="11.0931516"><ele>59.800000000000004</ele><time>2026-05-03T08:45:42.044Z</time></trkpt><trkpt lat="43.6960085" lon="11.0930419"><ele>60.199999999999996</ele><time>2026-05-03T08:45:43.034Z</time></trkpt><trkpt lat="43.6960577" lon="11.0929259"><ele>60.599999999999994</ele><time>2026-05-03T08:45:44.035Z</time></trkpt><trkpt lat="43.6960998" lon="11.0928121"><ele>61.0</ele><time>2026-05-03T08:45:45.045Z</time></trkpt><trkpt lat="43.6961334" lon="11.092706"><ele>60.666666666666664</ele><time>2026-05-03T08:45:46.039Z</time></trkpt><trkpt lat="43.6961636" lon="11.0926127"><ele>60.33333333333333</ele><time>2026-05-03T08:45:47.041Z</time></trkpt><trkpt lat="43.6961959" lon="11.0925219"><ele>60.0</ele><time>2026-05-03T08:45:48.042Z</time></trkpt><trkpt lat="43.6962237" lon="11.0924374"><ele>59.66666666666667</ele><time>2026-05-03T08:45:49.036Z</time></trkpt><trkpt lat="43.6962801" lon="11.0922731"><ele>59.333333333333336</ele><time>2026-05-03T08:45:51.041Z</time></trkpt><trkpt lat="43.6963119" lon="11.0921723"><ele>59.0</ele><time>2026-05-03T08:45:52.038Z</time></trkpt><trkpt lat="43.6963383" lon="11.0920803"><ele>59.0</ele><time>2026-05-03T08:45:53.039Z</time></trkpt><trkpt lat="43.6963613" lon="11.0919992"><ele>59.00000000000001</ele><time>2026-05-03T08:45:54.035Z</time></trkpt><trkpt lat="43.6964166" lon="11.0918455"><ele>59.00000000000001</ele><time>2026-05-03T08:45:56.043Z</time></trkpt><trkpt lat="43.6964695" lon="11.091704"><ele>59.0</ele><time>2026-05-03T08:45:58.044Z</time></trkpt><trkpt lat="43.6965119" lon="11.0916094"><ele>59.0</ele><time>2026-05-03T08:46:00.047Z</time></trkpt><trkpt lat="43.6965572" lon="11.0914919"><ele>59.2</ele><time>2026-05-03T08:46:02.042Z</time></trkpt><trkpt lat="43.6966151" lon="11.0913661"><ele>59.400000000000006</ele><time>2026-05-03T08:46:04.043Z</time></trkpt><trkpt lat="43.6966705" lon="11.0912588"><ele>59.6</ele><time>2026-05-03T08:46:06.037Z</time></trkpt><trkpt lat="43.6967144" lon="11.0911627"><ele>59.8</ele><time>2026-05-03T08:46:08.036Z</time></trkpt><trkpt lat="43.6967649" lon="11.0910449"><ele>60.0</ele><time>2026-05-03T08:46:10.046Z</time></trkpt><trkpt lat="43.6968156" lon="11.0909116"><ele>60.0</ele><time>2026-05-03T08:46:12.035Z</time></trkpt><trkpt lat="43.6968612" lon="11.0907802"><ele>60.0</ele><time>2026-05-03T08:46:14.036Z</time></trkpt><trkpt lat="43.6969086" lon="11.0906491"><ele>60.0</ele><time>2026-05-03T08:46:16.04Z</time></trkpt><trkpt lat="43.69695" lon="11.0905284"><ele>60.0</ele><time>2026-05-03T08:46:18.042Z</time></trkpt><trkpt lat="43.6969874" lon="11.0904226"><ele>60.0</ele><time>2026-05-03T08:46:20.035Z</time></trkpt><trkpt lat="43.6970245" lon="11.0903107"><ele>59.833333333333336</ele><time>2026-05-03T08:46:22.044Z</time></trkpt><trkpt lat="43.6970557" lon="11.0901959"><ele>59.66666666666667</ele><time>2026-05-03T08:46:24.033Z</time></trkpt><trkpt lat="43.6970773" lon="11.0900826"><ele>59.5</ele><time>2026-05-03T08:46:26.047Z</time></trkpt><trkpt lat="43.6970956" lon="11.0899684"><ele>59.333333333333336</ele><time>2026-05-03T08:46:28.031Z</time></trkpt><trkpt lat="43.6971033" lon="11.0898725"><ele>59.16666666666667</ele><time>2026-05-03T08:46:30.031Z</time></trkpt><trkpt lat="43.6971149" lon="11.0897744"><ele>59.0</ele><time>2026-05-03T08:46:32.035Z</time></trkpt><trkpt lat="43.697117" lon="11.0896616"><ele>59.00000000000001</ele><time>2026-05-03T08:46:35.038Z</time></trkpt><trkpt lat="43.697111" lon="11.0895477"><ele>59.0</ele><time>2026-05-03T08:46:38.039Z</time></trkpt><trkpt lat="43.6971054" lon="11.0894555"><ele>59.0</ele><time>2026-05-03T08:46:40.047Z</time></trkpt><trkpt lat="43.697118" lon="11.0893501"><ele>59.0</ele><time>2026-05-03T08:46:43.046Z</time></trkpt><trkpt lat="43.6971514" lon="11.0892275"><ele>59.00000000000001</ele><time>2026-05-03T08:46:46.035Z</time></trkpt><trkpt lat="43.6972107" lon="11.0891014"><ele>59.0</ele><time>2026-05-03T08:46:48.042Z</time></trkpt><trkpt lat="43.6972534" lon="11.089023"><ele>59.75</ele><time>2026-05-03T08:46:49.042Z</time></trkpt><trkpt lat="43.6973265" lon="11.0888951"><ele>60.5</ele><time>2026-05-03T08:46:51.038Z</time></trkpt><trkpt lat="43.6973958" lon="11.0887678"><ele>61.25</ele><time>2026-05-03T08:46:53.038Z</time></trkpt><trkpt lat="43.6974698" lon="11.0886454"><ele>62.0</ele><time>2026-05-03T08:46:55.036Z</time></trkpt><trkpt lat="43.697556" lon="11.0885265"><ele>62.00000000000001</ele><time>2026-05-03T08:46:57.044Z</time></trkpt><trkpt lat="43.6976316" lon="11.0884227"><ele>62.0</ele><time>2026-05-03T08:46:59.041Z</time></trkpt><trkpt lat="43.6977085" lon="11.0883196"><ele>62.0</ele><time>2026-05-03T08:47:01.045Z</time></trkpt><trkpt lat="43.6977832" lon="11.0882375"><ele>62.0</ele><time>2026-05-03T08:47:03.041Z</time></trkpt><trkpt lat="43.6978213" lon="11.0881458"><ele>62.00000000000001</ele><time>2026-05-03T08:47:05.036Z</time></trkpt><trkpt lat="43.6978264" lon="11.088058"><ele>62.0</ele><time>2026-05-03T08:47:07.038Z</time></trkpt><trkpt lat="43.6977861" lon="11.0879676"><ele>61.833333333333336</ele><time>2026-05-03T08:47:09.034Z</time></trkpt><trkpt lat="43.6977361" lon="11.0878921"><ele>61.66666666666667</ele><time>2026-05-03T08:47:11.039Z</time></trkpt><trkpt lat="43.6976872" lon="11.0878171"><ele>61.5</ele><time>2026-05-03T08:47:13.043Z</time></trkpt><trkpt lat="43.6976243" lon="11.0877389"><ele>61.33333333333333</ele><time>2026-05-03T08:47:15.036Z</time></trkpt><trkpt lat="43.6975578" lon="11.0876476"><ele>61.166666666666664</ele><time>2026-05-03T08:47:17.045Z</time></trkpt><trkpt lat="43.6974948" lon="11.0875357"><ele>61.0</ele><time>2026-05-03T08:47:19.039Z</time></trkpt><trkpt lat="43.6974146" lon="11.0874264"><ele>61.0</ele><time>2026-05-03T08:47:21.04Z</time></trkpt><trkpt lat="43.6973447" lon="11.0873123"><ele>60.99999999999999</ele><time>2026-05-03T08:47:23.035Z</time></trkpt><trkpt lat="43.697283" lon="11.0871884"><ele>60.99999999999999</ele><time>2026-05-03T08:47:25.034Z</time></trkpt><trkpt lat="43.6972322" lon="11.087059"><ele>61.0</ele><time>2026-05-03T08:47:27.032Z</time></trkpt><trkpt lat="43.6971918" lon="11.0869173"><ele>61.0</ele><time>2026-05-03T08:47:29.039Z</time></trkpt><trkpt lat="43.6971597" lon="11.0867885"><ele>61.0</ele><time>2026-05-03T08:47:31.041Z</time></trkpt><trkpt lat="43.6971352" lon="11.0866543"><ele>60.99999999999999</ele><time>2026-05-03T08:47:33.057Z</time></trkpt><trkpt lat="43.6971106" lon="11.0865369"><ele>60.99999999999999</ele><time>2026-05-03T08:47:35.031Z</time></trkpt><trkpt lat="43.6970595" lon="11.0864309"><ele>61.0</ele><time>2026-05-03T08:47:37.037Z</time></trkpt><trkpt lat="43.6969927" lon="11.0863248"><ele>61.0</ele><time>2026-05-03T08:47:39.037Z</time></trkpt><trkpt lat="43.6969315" lon="11.0862177"><ele>61.599999999999994</ele><time>2026-05-03T08:47:41.033Z</time></trkpt><trkpt lat="43.6968699" lon="11.0861109"><ele>62.199999999999996</ele><time>2026-05-03T08:47:43.033Z</time></trkpt><trkpt lat="43.6968091" lon="11.0859839"><ele>62.800000000000004</ele><time>2026-05-03T08:47:45.035Z</time></trkpt><trkpt lat="43.6967638" lon="11.085852"><ele>63.400000000000006</ele><time>2026-05-03T08:47:47.031Z</time></trkpt><trkpt lat="43.6967239" lon="11.0856994"><ele>64.0</ele><time>2026-05-03T08:47:49.034Z</time></trkpt><trkpt lat="43.6966764" lon="11.0855402"><ele>64.0</ele><time>2026-05-03T08:47:51.043Z</time></trkpt><trkpt lat="43.6966339" lon="11.0853837"><ele>64.0</ele><time>2026-05-03T08:47:53.035Z</time></trkpt><trkpt lat="43.6966077" lon="11.0852371"><ele>64.0</ele><time>2026-05-03T08:47:55.039Z</time></trkpt><trkpt lat="43.6965909" lon="11.0851203"><ele>64.0</ele><time>2026-05-03T08:47:57.042Z</time></trkpt><trkpt lat="43.6965868" lon="11.0850224"><ele>64.0</ele><time>2026-05-03T08:47:59.045Z</time></trkpt><trkpt lat="43.6965882" lon="11.0849194"><ele>63.99999999999999</ele><time>2026-05-03T08:48:02.046Z</time></trkpt><trkpt lat="43.6965711" lon="11.084817"><ele>64.0</ele><time>2026-05-03T08:48:16.03Z</time></trkpt><trkpt lat="43.6964923" lon="11.0847605"><ele>64.0</ele><time>2026-05-03T08:49:09.04Z</time></trkpt><trkpt lat="43.6965692" lon="11.0848191"><ele>64.0</ele><time>2026-05-03T08:50:10.043Z</time></trkpt><trkpt lat="43.6965863" lon="11.0849078"><ele>63.99999999999999</ele><time>2026-05-03T08:50:12.034Z</time></trkpt><trkpt lat="43.6965975" lon="11.0850233"><ele>64.0</ele><time>2026-05-03T08:50:14.041Z</time></trkpt><trkpt lat="43.6966144" lon="11.0851525"><ele>64.0</ele><time>2026-05-03T08:50:16.039Z</time></trkpt><trkpt lat="43.6966379" lon="11.0853276"><ele>64.0</ele><time>2026-05-03T08:50:18.031Z</time></trkpt><trkpt lat="43.6966628" lon="11.0854387"><ele>64.0</ele><time>2026-05-03T08:50:19.039Z</time></trkpt><trkpt lat="43.6967046" lon="11.0855572"><ele>64.0</ele><time>2026-05-03T08:50:20.031Z</time></trkpt><trkpt lat="43.6967445" lon="11.0856766"><ele>64.0</ele><time>2026-05-03T08:50:21.039Z</time></trkpt><trkpt lat="43.6967811" lon="11.085787"><ele>63.666666666666664</ele><time>2026-05-03T08:50:22.037Z</time></trkpt><trkpt lat="43.6968086" lon="11.0858899"><ele>63.33333333333333</ele><time>2026-05-03T08:50:23.032Z</time></trkpt><trkpt lat="43.6968383" lon="11.0859973"><ele>63.0</ele><time>2026-05-03T08:50:24.033Z</time></trkpt><trkpt lat="43.6968816" lon="11.0861094"><ele>62.66666666666667</ele><time>2026-05-03T08:50:25.037Z</time></trkpt><trkpt lat="43.6969248" lon="11.0862107"><ele>62.333333333333336</ele><time>2026-05-03T08:50:26.028Z</time></trkpt><trkpt lat="43.6969634" lon="11.0862954"><ele>62.0</ele><time>2026-05-03T08:50:27.031Z</time></trkpt><trkpt lat="43.6970014" lon="11.08637"><ele>62.00000000000001</ele><time>2026-05-03T08:50:28.029Z</time></trkpt><trkpt lat="43.6970635" lon="11.0865177"><ele>62.0</ele><time>2026-05-03T08:50:30.035Z</time></trkpt><trkpt lat="43.697095" lon="11.0866035"><ele>62.0</ele><time>2026-05-03T08:50:31.031Z</time></trkpt><trkpt lat="43.6971246" lon="11.0866999"><ele>62.0</ele><time>2026-05-03T08:50:32.033Z</time></trkpt><trkpt lat="43.6971426" lon="11.086811"><ele>62.00000000000001</ele><time>2026-05-03T08:50:33.031Z</time></trkpt><trkpt lat="43.6971646" lon="11.0869136"><ele>62.0</ele><time>2026-05-03T08:50:34.03Z</time></trkpt><trkpt lat="43.6971882" lon="11.0870019"><ele>61.833333333333336</ele><time>2026-05-03T08:50:35.031Z</time></trkpt><trkpt lat="43.697232" lon="11.0871563"><ele>61.66666666666667</ele><time>2026-05-03T08:50:37.038Z</time></trkpt><trkpt lat="43.6972669" lon="11.0872335"><ele>61.5</ele><time>2026-05-03T08:50:38.043Z</time></trkpt><trkpt lat="43.6973153" lon="11.087324"><ele>61.33333333333333</ele><time>2026-05-03T08:50:39.05Z</time></trkpt><trkpt lat="43.6973647" lon="11.0874098"><ele>61.166666666666664</ele><time>2026-05-03T08:50:40.032Z</time></trkpt><trkpt lat="43.6974235" lon="11.08749"><ele>61.0</ele><time>2026-05-03T08:50:41.032Z</time></trkpt><trkpt lat="43.6974794" lon="11.087565"><ele>61.599999999999994</ele><time>2026-05-03T08:50:42.037Z</time></trkpt><trkpt lat="43.6975352" lon="11.0876351"><ele>62.199999999999996</ele><time>2026-05-03T08:50:43.036Z</time></trkpt><trkpt lat="43.697626" lon="11.0877454"><ele>62.800000000000004</ele><time>2026-05-03T08:50:45.041Z</time></trkpt><trkpt lat="43.6977083" lon="11.0878483"><ele>63.400000000000006</ele><time>2026-05-03T08:50:47.043Z</time></trkpt><trkpt lat="43.6977797" lon="11.0879438"><ele>64.0</ele><time>2026-05-03T08:50:49.038Z</time></trkpt><trkpt lat="43.6978436" lon="11.0880286"><ele>63.6</ele><time>2026-05-03T08:50:51.043Z</time></trkpt><trkpt lat="43.6978523" lon="11.0881345"><ele>63.2</ele><time>2026-05-03T08:50:53.042Z</time></trkpt><trkpt lat="43.6978184" lon="11.0882295"><ele>62.800000000000004</ele><time>2026-05-03T08:50:55.037Z</time></trkpt><trkpt lat="43.697713" lon="11.0883492"><ele>62.400000000000006</ele><time>2026-05-03T08:50:57.037Z</time></trkpt><trkpt lat="43.6976432" lon="11.0884322"><ele>62.0</ele><time>2026-05-03T08:50:58.039Z</time></trkpt><trkpt lat="43.6975757" lon="11.0885161"><ele>62.00000000000001</ele><time>2026-05-03T08:50:59.031Z</time></trkpt><trkpt lat="43.6975177" lon="11.0885898"><ele>62.0</ele><time>2026-05-03T08:51:00.034Z</time></trkpt><trkpt lat="43.6974625" lon="11.0886658"><ele>62.0</ele><time>2026-05-03T08:51:01.03Z</time></trkpt><trkpt lat="43.6974001" lon="11.0887539"><ele>62.0</ele><time>2026-05-03T08:51:02.044Z</time></trkpt><trkpt lat="43.6973448" lon="11.0888646"><ele>62.00000000000001</ele><time>2026-05-03T08:51:03.034Z</time></trkpt><trkpt lat="43.6972918" lon="11.088972"><ele>62.0</ele><time>2026-05-03T08:51:04.039Z</time></trkpt><trkpt lat="43.6972432" lon="11.0890627"><ele>61.50000000000001</ele><time>2026-05-03T08:51:05.033Z</time></trkpt><trkpt lat="43.6972017" lon="11.0891449"><ele>61.0</ele><time>2026-05-03T08:51:06.038Z</time></trkpt><trkpt lat="43.6971633" lon="11.0892204"><ele>60.5</ele><time>2026-05-03T08:51:07.041Z</time></trkpt><trkpt lat="43.6971152" lon="11.0893797"><ele>60.0</ele><time>2026-05-03T08:51:09.045Z</time></trkpt><trkpt lat="43.6971053" lon="11.0894915"><ele>59.50000000000001</ele><time>2026-05-03T08:51:10.03Z</time></trkpt><trkpt lat="43.697101" lon="11.0896167"><ele>59.0</ele><time>2026-05-03T08:51:11.048Z</time></trkpt><trkpt lat="43.6970995" lon="11.0897397"><ele>59.00000000000001</ele><time>2026-05-03T08:51:12.032Z</time></trkpt><trkpt lat="43.6971002" lon="11.0898596"><ele>59.0</ele><time>2026-05-03T08:51:13.035Z</time></trkpt><trkpt lat="43.697079" lon="11.0899686"><ele>59.0</ele><time>2026-05-03T08:51:14.03Z</time></trkpt><trkpt lat="43.6970598" lon="11.0900862"><ele>59.0</ele><time>2026-05-03T08:51:15.032Z</time></trkpt><trkpt lat="43.6970308" lon="11.0901993"><ele>59.00000000000001</ele><time>2026-05-03T08:51:16.029Z</time></trkpt><trkpt lat="43.6970053" lon="11.0903139"><ele>59.0</ele><time>2026-05-03T08:51:17.029Z</time></trkpt><trkpt lat="43.6969696" lon="11.0904247"><ele>59.16666666666667</ele><time>2026-05-03T08:51:18.045Z</time></trkpt><trkpt lat="43.6969335" lon="11.0905404"><ele>59.333333333333336</ele><time>2026-05-03T08:51:19.045Z</time></trkpt><trkpt lat="43.6968929" lon="11.0906557"><ele>59.5</ele><time>2026-05-03T08:51:20.031Z</time></trkpt><trkpt lat="43.6968534" lon="11.0907642"><ele>59.66666666666667</ele><time>2026-05-03T08:51:21.04Z</time></trkpt><trkpt lat="43.6968142" lon="11.0908676"><ele>59.833333333333336</ele><time>2026-05-03T08:51:22.029Z</time></trkpt><trkpt lat="43.6967754" lon="11.0909733"><ele>60.0</ele><time>2026-05-03T08:51:23.033Z</time></trkpt><trkpt lat="43.6967344" lon="11.0910823"><ele>60.0</ele><time>2026-05-03T08:51:24.03Z</time></trkpt><trkpt lat="43.696687" lon="11.0911878"><ele>60.0</ele><time>2026-05-03T08:51:25.046Z</time></trkpt><trkpt lat="43.6966398" lon="11.0912891"><ele>60.0</ele><time>2026-05-03T08:51:26.042Z</time></trkpt><trkpt lat="43.6965962" lon="11.0913924"><ele>60.0</ele><time>2026-05-03T08:51:27.042Z</time></trkpt><trkpt lat="43.6965462" lon="11.0914903"><ele>60.0</ele><time>2026-05-03T08:51:28.032Z</time></trkpt><trkpt lat="43.6965035" lon="11.0915954"><ele>60.0</ele><time>2026-05-03T08:51:29.039Z</time></trkpt><trkpt lat="43.6964563" lon="11.0917008"><ele>59.8</ele><time>2026-05-03T08:51:30.044Z</time></trkpt><trkpt lat="43.6964169" lon="11.0918162"><ele>59.6</ele><time>2026-05-03T08:51:31.039Z</time></trkpt><trkpt lat="43.6963737" lon="11.0919275"><ele>59.400000000000006</ele><time>2026-05-03T08:51:32.041Z</time></trkpt><trkpt lat="43.6963285" lon="11.0920328"><ele>59.2</ele><time>2026-05-03T08:51:33.033Z</time></trkpt><trkpt lat="43.6962873" lon="11.0921414"><ele>59.0</ele><time>2026-05-03T08:51:34.04Z</time></trkpt><trkpt lat="43.6962477" lon="11.092257"><ele>59.0</ele><time>2026-05-03T08:51:35.031Z</time></trkpt><trkpt lat="43.6962075" lon="11.0923778"><ele>59.00000000000001</ele><time>2026-05-03T08:51:36.042Z</time></trkpt><trkpt lat="43.6961657" lon="11.0925033"><ele>59.00000000000001</ele><time>2026-05-03T08:51:37.03Z</time></trkpt><trkpt lat="43.6961216" lon="11.0926315"><ele>59.0</ele><time>2026-05-03T08:51:38.031Z</time></trkpt><trkpt lat="43.6960774" lon="11.0927597"><ele>59.0</ele><time>2026-05-03T08:51:39.034Z</time></trkpt><trkpt lat="43.6960346" lon="11.0928873"><ele>59.00000000000001</ele><time>2026-05-03T08:51:40.033Z</time></trkpt><trkpt lat="43.6959932" lon="11.0930063"><ele>59.0</ele><time>2026-05-03T08:51:41.033Z</time></trkpt><trkpt lat="43.695954" lon="11.0931118"><ele>59.0</ele><time>2026-05-03T08:51:42.039Z</time></trkpt><trkpt lat="43.6959127" lon="11.0932142"><ele>59.0</ele><time>2026-05-03T08:51:43.037Z</time></trkpt><trkpt lat="43.6958661" lon="11.093321"><ele>59.00000000000001</ele><time>2026-05-03T08:51:44.045Z</time></trkpt><trkpt lat="43.695824" lon="11.0934358"><ele>59.0</ele><time>2026-05-03T08:51:45.033Z</time></trkpt><trkpt lat="43.6957853" lon="11.0935539"><ele>59.00000000000001</ele><time>2026-05-03T08:51:46.032Z</time></trkpt><trkpt lat="43.6957505" lon="11.0936708"><ele>59.0</ele><time>2026-05-03T08:51:47.037Z</time></trkpt><trkpt lat="43.6957203" lon="11.0937911"><ele>59.0</ele><time>2026-05-03T08:51:48.042Z</time></trkpt><trkpt lat="43.6956887" lon="11.0939067"><ele>59.0</ele><time>2026-05-03T08:51:49.031Z</time></trkpt><trkpt lat="43.6956545" lon="11.0940089"><ele>59.00000000000001</ele><time>2026-05-03T08:51:50.034Z</time></trkpt><trkpt lat="43.6956213" lon="11.0941001"><ele>59.0</ele><time>2026-05-03T08:51:51.04Z</time></trkpt><trkpt lat="43.6955801" lon="11.0941842"><ele>58.833333333333336</ele><time>2026-05-03T08:51:52.03Z</time></trkpt><trkpt lat="43.6955281" lon="11.0942655"><ele>58.66666666666667</ele><time>2026-05-03T08:51:53.041Z</time></trkpt><trkpt lat="43.6954645" lon="11.0943429"><ele>58.5</ele><time>2026-05-03T08:51:54.032Z</time></trkpt><trkpt lat="43.6953943" lon="11.0944179"><ele>58.33333333333333</ele><time>2026-05-03T08:51:55.04Z</time></trkpt><trkpt lat="43.6953269" lon="11.0944891"><ele>58.166666666666664</ele><time>2026-05-03T08:51:56.041Z</time></trkpt><trkpt lat="43.6952632" lon="11.0945568"><ele>58.0</ele><time>2026-05-03T08:51:57.046Z</time></trkpt><trkpt lat="43.6952039" lon="11.094625"><ele>58.166666666666664</ele><time>2026-05-03T08:51:58.042Z</time></trkpt><trkpt lat="43.6951484" lon="11.0946959"><ele>58.33333333333333</ele><time>2026-05-03T08:51:59.031Z</time></trkpt><trkpt lat="43.6950891" lon="11.0947659"><ele>58.5</ele><time>2026-05-03T08:52:00.035Z</time></trkpt><trkpt lat="43.6950273" lon="11.0948438"><ele>58.66666666666667</ele><time>2026-05-03T08:52:01.03Z</time></trkpt><trkpt lat="43.6949603" lon="11.094938"><ele>58.833333333333336</ele><time>2026-05-03T08:52:02.029Z</time></trkpt><trkpt lat="43.6948893" lon="11.0950415"><ele>59.0</ele><time>2026-05-03T08:52:03.036Z</time></trkpt><trkpt lat="43.6948142" lon="11.0951496"><ele>59.0</ele><time>2026-05-03T08:52:04.033Z</time></trkpt><trkpt lat="43.6947297" lon="11.0952603"><ele>59.0</ele><time>2026-05-03T08:52:05.042Z</time></trkpt><trkpt lat="43.6946425" lon="11.0953704"><ele>59.0</ele><time>2026-05-03T08:52:06.039Z</time></trkpt><trkpt lat="43.6945588" lon="11.0954735"><ele>59.0</ele><time>2026-05-03T08:52:07.034Z</time></trkpt><trkpt lat="43.6944818" lon="11.0955718"><ele>59.800000000000004</ele><time>2026-05-03T08:52:08.032Z</time></trkpt><trkpt lat="43.6944072" lon="11.0956666"><ele>60.60000000000001</ele><time>2026-05-03T08:52:09.038Z</time></trkpt><trkpt lat="43.694334" lon="11.0957621"><ele>61.4</ele><time>2026-05-03T08:52:10.036Z</time></trkpt><trkpt lat="43.6942565" lon="11.095857"><ele>62.2</ele><time>2026-05-03T08:52:11.049Z</time></trkpt><trkpt lat="43.6941739" lon="11.0959595"><ele>63.0</ele><time>2026-05-03T08:52:12.035Z</time></trkpt><trkpt lat="43.6940797" lon="11.0960804"><ele>63.0</ele><time>2026-05-03T08:52:13.03Z</time></trkpt><trkpt lat="43.6939723" lon="11.0962193"><ele>63.0</ele><time>2026-05-03T08:52:14.031Z</time></trkpt><trkpt lat="43.6938631" lon="11.0963597"><ele>63.0</ele><time>2026-05-03T08:52:15.041Z</time></trkpt><trkpt lat="43.6937636" lon="11.0964866"><ele>63.0</ele><time>2026-05-03T08:52:16.041Z</time></trkpt><trkpt lat="43.693674" lon="11.0965964"><ele>62.4</ele><time>2026-05-03T08:52:17.036Z</time></trkpt><trkpt lat="43.693599" lon="11.0966876"><ele>61.8</ele><time>2026-05-03T08:52:18.033Z</time></trkpt><trkpt lat="43.6935307" lon="11.0967678"><ele>61.2</ele><time>2026-05-03T08:52:19.037Z</time></trkpt><trkpt lat="43.6934681" lon="11.0968369"><ele>60.6</ele><time>2026-05-03T08:52:20.041Z</time></trkpt><trkpt lat="43.6933778" lon="11.0969328"><ele>60.0</ele><time>2026-05-03T08:52:22.041Z</time></trkpt><trkpt lat="43.6933374" lon="11.097027"><ele>60.0</ele><time>2026-05-03T08:52:24.031Z</time></trkpt><trkpt lat="43.6933611" lon="11.097141"><ele>60.0</ele><time>2026-05-03T08:52:26.031Z</time></trkpt><trkpt lat="43.6934074" lon="11.0972221"><ele>60.0</ele><time>2026-05-03T08:52:27.036Z</time></trkpt><trkpt lat="43.6934876" lon="11.0973214"><ele>60.0</ele><time>2026-05-03T08:52:28.037Z</time></trkpt><trkpt lat="43.6935855" lon="11.0974476"><ele>60.0</ele><time>2026-05-03T08:52:29.039Z</time></trkpt><trkpt lat="43.6937004" lon="11.0976"><ele>60.0</ele><time>2026-05-03T08:52:30.038Z</time></trkpt><trkpt lat="43.6938233" lon="11.0977544"><ele>60.0</ele><time>2026-05-03T08:52:31.029Z</time></trkpt><trkpt lat="43.6939455" lon="11.0978986"><ele>60.0</ele><time>2026-05-03T08:52:32.032Z</time></trkpt><trkpt lat="43.6940594" lon="11.0980327"><ele>60.0</ele><time>2026-05-03T08:52:33.031Z</time></trkpt><trkpt lat="43.6941691" lon="11.0981563"><ele>60.0</ele><time>2026-05-03T08:52:34.031Z</time></trkpt><trkpt lat="43.6942823" lon="11.0982824"><ele>60.0</ele><time>2026-05-03T08:52:35.038Z</time></trkpt><trkpt lat="43.694399" lon="11.0984108"><ele>60.0</ele><time>2026-05-03T08:52:36.031Z</time></trkpt><trkpt lat="43.6945151" lon="11.0985397"><ele>60.25</ele><time>2026-05-03T08:52:37.032Z</time></trkpt><trkpt lat="43.6946291" lon="11.0986596"><ele>60.5</ele><time>2026-05-03T08:52:38.03Z</time></trkpt><trkpt lat="43.6947314" lon="11.0987646"><ele>60.75</ele><time>2026-05-03T08:52:39.039Z</time></trkpt><trkpt lat="43.694818" lon="11.0988551"><ele>61.0</ele><time>2026-05-03T08:52:40.03Z</time></trkpt><trkpt lat="43.6948852" lon="11.0989309"><ele>60.99999999999999</ele><time>2026-05-03T08:52:41.042Z</time></trkpt><trkpt lat="43.6949484" lon="11.0989929"><ele>61.0</ele><time>2026-05-03T08:52:42.029Z</time></trkpt><trkpt lat="43.6950173" lon="11.0990546"><ele>61.0</ele><time>2026-05-03T08:52:43.041Z</time></trkpt><trkpt lat="43.6950907" lon="11.09912"><ele>61.0</ele><time>2026-05-03T08:52:44.034Z</time></trkpt><trkpt lat="43.6951695" lon="11.0991899"><ele>60.99999999999999</ele><time>2026-05-03T08:52:45.045Z</time></trkpt><trkpt lat="43.6952516" lon="11.0992622"><ele>61.0</ele><time>2026-05-03T08:52:46.032Z</time></trkpt><trkpt lat="43.695334" lon="11.0993319"><ele>60.83333333333333</ele><time>2026-05-03T08:52:47.038Z</time></trkpt><trkpt lat="43.6954119" lon="11.0994004"><ele>60.666666666666664</ele><time>2026-05-03T08:52:48.036Z</time></trkpt><trkpt lat="43.6954826" lon="11.0994638"><ele>60.5</ele><time>2026-05-03T08:52:49.039Z</time></trkpt><trkpt lat="43.6955481" lon="11.0995236"><ele>60.33333333333333</ele><time>2026-05-03T08:52:50.032Z</time></trkpt><trkpt lat="43.6956163" lon="11.0995782"><ele>60.166666666666664</ele><time>2026-05-03T08:52:51.034Z</time></trkpt><trkpt lat="43.6956951" lon="11.0996422"><ele>60.0</ele><time>2026-05-03T08:52:52.048Z</time></trkpt><trkpt lat="43.6957817" lon="11.0997284"><ele>60.0</ele><time>2026-05-03T08:52:53.032Z</time></trkpt><trkpt lat="43.6958714" lon="11.0998248"><ele>60.0</ele><time>2026-05-03T08:52:54.031Z</time></trkpt><trkpt lat="43.69596" lon="11.0999112"><ele>60.0</ele><time>2026-05-03T08:52:55.035Z</time></trkpt><trkpt lat="43.6960476" lon="11.0999785"><ele>60.0</ele><time>2026-05-03T08:52:56.04Z</time></trkpt><trkpt lat="43.6961351" lon="11.1000234"><ele>60.0</ele><time>2026-05-03T08:52:57.03Z</time></trkpt><trkpt lat="43.6962215" lon="11.1000477"><ele>60.166666666666664</ele><time>2026-05-03T08:52:58.037Z</time></trkpt><trkpt lat="43.6963086" lon="11.1000497"><ele>60.33333333333333</ele><time>2026-05-03T08:52:59.031Z</time></trkpt><trkpt lat="43.6963968" lon="11.1000369"><ele>60.5</ele><time>2026-05-03T08:53:00.031Z</time></trkpt><trkpt lat="43.6964807" lon="11.1000198"><ele>60.666666666666664</ele><time>2026-05-03T08:53:01.032Z</time></trkpt><trkpt lat="43.6965596" lon="11.1000044"><ele>60.83333333333333</ele><time>2026-05-03T08:53:02.03Z</time></trkpt><trkpt lat="43.6966364" lon="11.1000045"><ele>61.0</ele><time>2026-05-03T08:53:03.036Z</time></trkpt><trkpt lat="43.6967095" lon="11.1000242"><ele>60.99999999999999</ele><time>2026-05-03T08:53:04.041Z</time></trkpt><trkpt lat="43.6967702" lon="11.1000719"><ele>61.0</ele><time>2026-05-03T08:53:05.032Z</time></trkpt><trkpt lat="43.696825" lon="11.1001228"><ele>61.0</ele><time>2026-05-03T08:53:06.043Z</time></trkpt><trkpt lat="43.6968815" lon="11.1001654"><ele>61.0</ele><time>2026-05-03T08:53:07.049Z</time></trkpt><trkpt lat="43.6970061" lon="11.100161"><ele>60.99999999999999</ele><time>2026-05-03T08:53:09.033Z</time></trkpt><trkpt lat="43.6970657" lon="11.1001198"><ele>61.0</ele><time>2026-05-03T08:53:10.039Z</time></trkpt><trkpt lat="43.6971189" lon="11.1000552"><ele>61.0</ele><time>2026-05-03T08:53:11.026Z</time></trkpt><trkpt lat="43.6971569" lon="11.0999635"><ele>60.99999999999999</ele><time>2026-05-03T08:53:12.029Z</time></trkpt><trkpt lat="43.697177" lon="11.0998482"><ele>60.99999999999999</ele><time>2026-05-03T08:53:13.035Z</time></trkpt><trkpt lat="43.6971935" lon="11.0997236"><ele>61.0</ele><time>2026-05-03T08:53:14.032Z</time></trkpt><trkpt lat="43.697227" lon="11.0995888"><ele>61.0</ele><time>2026-05-03T08:53:15.041Z</time></trkpt><trkpt lat="43.6973063" lon="11.0994567"><ele>61.0</ele><time>2026-05-03T08:53:16.029Z</time></trkpt><trkpt lat="43.6973984" lon="11.0993129"><ele>61.0</ele><time>2026-05-03T08:53:17.036Z</time></trkpt><trkpt lat="43.6974941" lon="11.099151"><ele>61.0</ele><time>2026-05-03T08:53:18.033Z</time></trkpt><trkpt lat="43.6975859" lon="11.0989659"><ele>60.666666666666664</ele><time>2026-05-03T08:53:19.031Z</time></trkpt><trkpt lat="43.697667" lon="11.0987651"><ele>60.33333333333333</ele><time>2026-05-03T08:53:20.038Z</time></trkpt><trkpt lat="43.6977374" lon="11.0985431"><ele>60.0</ele><time>2026-05-03T08:53:21.031Z</time></trkpt><trkpt lat="43.6977972" lon="11.098307"><ele>60.0</ele><time>2026-05-03T08:53:22.028Z</time></trkpt><trkpt lat="43.6978418" lon="11.098058"><ele>60.0</ele><time>2026-05-03T08:53:23.031Z</time></trkpt><trkpt lat="43.6978743" lon="11.0978002"><ele>60.0</ele><time>2026-05-03T08:53:24.134Z</time></trkpt><trkpt lat="43.6979084" lon="11.0972652"><ele>59.33333333333333</ele><time>2026-05-03T08:53:26.032Z</time></trkpt><trkpt lat="43.6979127" lon="11.0969929"><ele>58.666666666666664</ele><time>2026-05-03T08:53:27.032Z</time></trkpt><trkpt lat="43.6979178" lon="11.0967197"><ele>58.0</ele><time>2026-05-03T08:53:28.039Z</time></trkpt><trkpt lat="43.697925" lon="11.0964484"><ele>58.0</ele><time>2026-05-03T08:53:29.038Z</time></trkpt><trkpt lat="43.6979434" lon="11.0961808"><ele>58.0</ele><time>2026-05-03T08:53:30.035Z</time></trkpt><trkpt lat="43.6979736" lon="11.0959179"><ele>58.0</ele><time>2026-05-03T08:53:31.035Z</time></trkpt><trkpt lat="43.6980123" lon="11.0956608"><ele>57.666666666666664</ele><time>2026-05-03T08:53:32.033Z</time></trkpt><trkpt lat="43.6980609" lon="11.0954109"><ele>57.33333333333333</ele><time>2026-05-03T08:53:33.032Z</time></trkpt><trkpt lat="43.6981199" lon="11.0951695"><ele>57.0</ele><time>2026-05-03T08:53:34.034Z</time></trkpt><trkpt lat="43.6981876" lon="11.0949385"><ele>56.66666666666667</ele><time>2026-05-03T08:53:35.031Z</time></trkpt><trkpt lat="43.6982634" lon="11.0947162"><ele>56.333333333333336</ele><time>2026-05-03T08:53:36.03Z</time></trkpt><trkpt lat="43.6983465" lon="11.0945004"><ele>56.0</ele><time>2026-05-03T08:53:37.032Z</time></trkpt><trkpt lat="43.6984387" lon="11.0942929"><ele>56.0</ele><time>2026-05-03T08:53:38.026Z</time></trkpt><trkpt lat="43.6985405" lon="11.0940948"><ele>56.0</ele><time>2026-05-03T08:53:39.033Z</time></trkpt><trkpt lat="43.6986476" lon="11.0939018"><ele>56.0</ele><time>2026-05-03T08:53:40.029Z</time></trkpt><trkpt lat="43.6987605" lon="11.093715"><ele>56.333333333333336</ele><time>2026-05-03T08:53:41.035Z</time></trkpt><trkpt lat="43.6988785" lon="11.0935346"><ele>56.66666666666667</ele><time>2026-05-03T08:53:42.04Z</time></trkpt><trkpt lat="43.6990027" lon="11.0933624"><ele>57.0</ele><time>2026-05-03T08:53:43.038Z</time></trkpt><trkpt lat="43.6991309" lon="11.0931954"><ele>57.0</ele><time>2026-05-03T08:53:44.034Z</time></trkpt><trkpt lat="43.6992606" lon="11.0930293"><ele>57.0</ele><time>2026-05-03T08:53:45.038Z</time></trkpt><trkpt lat="43.6993922" lon="11.0928654"><ele>57.0</ele><time>2026-05-03T08:53:46.032Z</time></trkpt><trkpt lat="43.6995238" lon="11.0927003"><ele>57.0</ele><time>2026-05-03T08:53:47.03Z</time></trkpt><trkpt lat="43.6996563" lon="11.0925356"><ele>57.0</ele><time>2026-05-03T08:53:48.038Z</time></trkpt><trkpt lat="43.699788" lon="11.0923691"><ele>57.0</ele><time>2026-05-03T08:53:49.027Z</time></trkpt><trkpt lat="43.6999165" lon="11.0921975"><ele>57.0</ele><time>2026-05-03T08:53:50.028Z</time></trkpt><trkpt lat="43.7000418" lon="11.0920217"><ele>57.0</ele><time>2026-05-03T08:53:51.036Z</time></trkpt><trkpt lat="43.7001636" lon="11.0918416"><ele>57.0</ele><time>2026-05-03T08:53:52.038Z</time></trkpt><trkpt lat="43.700283" lon="11.0916588"><ele>57.0</ele><time>2026-05-03T08:53:53.031Z</time></trkpt><trkpt lat="43.7003983" lon="11.0914718"><ele>57.0</ele><time>2026-05-03T08:53:54.031Z</time></trkpt><trkpt lat="43.7005088" lon="11.0912801"><ele>57.0</ele><time>2026-05-03T08:53:55.028Z</time></trkpt><trkpt lat="43.7006156" lon="11.091085"><ele>57.0</ele><time>2026-05-03T08:53:56.031Z</time></trkpt><trkpt lat="43.7007179" lon="11.0908858"><ele>57.0</ele><time>2026-05-03T08:53:57.029Z</time></trkpt><trkpt lat="43.7008179" lon="11.0906848"><ele>57.0</ele><time>2026-05-03T08:53:58.047Z</time></trkpt><trkpt lat="43.7009169" lon="11.0904831"><ele>56.33333333333333</ele><time>2026-05-03T08:53:59.039Z</time></trkpt><trkpt lat="43.701018" lon="11.0902836"><ele>55.666666666666664</ele><time>2026-05-03T08:54:00.029Z</time></trkpt><trkpt lat="43.7011201" lon="11.090085"><ele>55.0</ele><time>2026-05-03T08:54:01.03Z</time></trkpt><trkpt lat="43.7012194" lon="11.0898841"><ele>54.666666666666664</ele><time>2026-05-03T08:54:02.035Z</time></trkpt><trkpt lat="43.701318" lon="11.0896842"><ele>54.33333333333333</ele><time>2026-05-03T08:54:03.03Z</time></trkpt><trkpt lat="43.7014186" lon="11.0894887"><ele>54.0</ele><time>2026-05-03T08:54:04.031Z</time></trkpt><trkpt lat="43.7015239" lon="11.0892996"><ele>54.0</ele><time>2026-05-03T08:54:05.033Z</time></trkpt><trkpt lat="43.7016342" lon="11.0891172"><ele>54.0</ele><time>2026-05-03T08:54:06.032Z</time></trkpt><trkpt lat="43.7017487" lon="11.0889409"><ele>54.0</ele><time>2026-05-03T08:54:07.027Z</time></trkpt><trkpt lat="43.7018679" lon="11.0887704"><ele>54.0</ele><time>2026-05-03T08:54:08.035Z</time></trkpt><trkpt lat="43.7019901" lon="11.0886051"><ele>54.0</ele><time>2026-05-03T08:54:09.04Z</time></trkpt><trkpt lat="43.7021203" lon="11.0884525"><ele>54.0</ele><time>2026-05-03T08:54:10.029Z</time></trkpt><trkpt lat="43.7022569" lon="11.0883114"><ele>54.0</ele><time>2026-05-03T08:54:11.03Z</time></trkpt><trkpt lat="43.7023988" lon="11.0881812"><ele>54.0</ele><time>2026-05-03T08:54:12.028Z</time></trkpt><trkpt lat="43.7025472" lon="11.0880653"><ele>54.0</ele><time>2026-05-03T08:54:13.026Z</time></trkpt><trkpt lat="43.7027014" lon="11.0879633"><ele>53.66666666666667</ele><time>2026-05-03T08:54:14.026Z</time></trkpt><trkpt lat="43.7028588" lon="11.0878713"><ele>53.333333333333336</ele><time>2026-05-03T08:54:15.036Z</time></trkpt><trkpt lat="43.7030186" lon="11.0877881"><ele>53.0</ele><time>2026-05-03T08:54:16.043Z</time></trkpt><trkpt lat="43.7031805" lon="11.0877148"><ele>53.0</ele><time>2026-05-03T08:54:17.034Z</time></trkpt><trkpt lat="43.703345" lon="11.0876572"><ele>53.0</ele><time>2026-05-03T08:54:18.031Z</time></trkpt><trkpt lat="43.7035098" lon="11.0876138"><ele>53.0</ele><time>2026-05-03T08:54:19.035Z</time></trkpt><trkpt lat="43.7036689" lon="11.0875855"><ele>53.5</ele><time>2026-05-03T08:54:20.035Z</time></trkpt><trkpt lat="43.7038193" lon="11.0875693"><ele>54.0</ele><time>2026-05-03T08:54:21.033Z</time></trkpt><trkpt lat="43.70396" lon="11.0875619"><ele>54.5</ele><time>2026-05-03T08:54:22.039Z</time></trkpt><trkpt lat="43.7040853" lon="11.0875636"><ele>55.0</ele><time>2026-05-03T08:54:23.031Z</time></trkpt><trkpt lat="43.7041926" lon="11.0875698"><ele>54.99999999999999</ele><time>2026-05-03T08:54:24.033Z</time></trkpt><trkpt lat="43.7042861" lon="11.087577"><ele>55.0</ele><time>2026-05-03T08:54:25.028Z</time></trkpt><trkpt lat="43.7043735" lon="11.0875855"><ele>55.0</ele><time>2026-05-03T08:54:26.04Z</time></trkpt><trkpt lat="43.7044521" lon="11.0876057"><ele>55.0</ele><time>2026-05-03T08:54:27.049Z</time></trkpt><trkpt lat="43.7045206" lon="11.087638"><ele>54.99999999999999</ele><time>2026-05-03T08:54:28.039Z</time></trkpt><trkpt lat="43.7045803" lon="11.087679"><ele>55.0</ele><time>2026-05-03T08:54:29.03Z</time></trkpt><trkpt lat="43.7046395" lon="11.0877124"><ele>54.83333333333333</ele><time>2026-05-03T08:54:30.046Z</time></trkpt><trkpt lat="43.704762" lon="11.0877068"><ele>54.666666666666664</ele><time>2026-05-03T08:54:32.045Z</time></trkpt><trkpt lat="43.7048152" lon="11.0876537"><ele>54.5</ele><time>2026-05-03T08:54:33.037Z</time></trkpt><trkpt lat="43.7048542" lon="11.0875744"><ele>54.33333333333333</ele><time>2026-05-03T08:54:34.032Z</time></trkpt><trkpt lat="43.7048726" lon="11.0874758"><ele>54.166666666666664</ele><time>2026-05-03T08:54:35.035Z</time></trkpt><trkpt lat="43.704872" lon="11.0873607"><ele>54.0</ele><time>2026-05-03T08:54:36.03Z</time></trkpt><trkpt lat="43.7048364" lon="11.0872419"><ele>54.0</ele><time>2026-05-03T08:54:37.031Z</time></trkpt><trkpt lat="43.7047843" lon="11.0871205"><ele>54.0</ele><time>2026-05-03T08:54:38.041Z</time></trkpt><trkpt lat="43.704744" lon="11.0869878"><ele>54.0</ele><time>2026-05-03T08:54:39.043Z</time></trkpt><trkpt lat="43.7047225" lon="11.0868282"><ele>54.0</ele><time>2026-05-03T08:54:40.043Z</time></trkpt><trkpt lat="43.7047122" lon="11.0866386"><ele>54.0</ele><time>2026-05-03T08:54:41.029Z</time></trkpt><trkpt lat="43.7046952" lon="11.0864315"><ele>54.0</ele><time>2026-05-03T08:54:42.033Z</time></trkpt><trkpt lat="43.7046616" lon="11.086215"><ele>54.0</ele><time>2026-05-03T08:54:43.045Z</time></trkpt><trkpt lat="43.7046161" lon="11.085996"><ele>54.0</ele><time>2026-05-03T08:54:44.045Z</time></trkpt><trkpt lat="43.7045683" lon="11.0857739"><ele>54.0</ele><time>2026-05-03T08:54:45.028Z</time></trkpt><trkpt lat="43.7045255" lon="11.0855476"><ele>54.0</ele><time>2026-05-03T08:54:46.036Z</time></trkpt><trkpt lat="43.704494" lon="11.0853169"><ele>54.0</ele><time>2026-05-03T08:54:47.045Z</time></trkpt><trkpt lat="43.7044751" lon="11.0850834"><ele>54.0</ele><time>2026-05-03T08:54:48.032Z</time></trkpt><trkpt lat="43.7044707" lon="11.0848502"><ele>54.0</ele><time>2026-05-03T08:54:49.034Z</time></trkpt><trkpt lat="43.70448" lon="11.0846175"><ele>54.0</ele><time>2026-05-03T08:54:50.036Z</time></trkpt><trkpt lat="43.7045013" lon="11.0843865"><ele>54.0</ele><time>2026-05-03T08:54:51.032Z</time></trkpt><trkpt lat="43.7045381" lon="11.0841595"><ele>54.0</ele><time>2026-05-03T08:54:52.033Z</time></trkpt><trkpt lat="43.704586" lon="11.0839358"><ele>54.0</ele><time>2026-05-03T08:54:53.031Z</time></trkpt><trkpt lat="43.7046413" lon="11.0837141"><ele>54.0</ele><time>2026-05-03T08:54:54.04Z</time></trkpt><trkpt lat="43.7047025" lon="11.0834947"><ele>54.0</ele><time>2026-05-03T08:54:55.03Z</time></trkpt><trkpt lat="43.7047679" lon="11.0832767"><ele>53.66666666666667</ele><time>2026-05-03T08:54:56.028Z</time></trkpt><trkpt lat="43.704835" lon="11.0830578"><ele>53.333333333333336</ele><time>2026-05-03T08:54:57.036Z</time></trkpt><trkpt lat="43.7048983" lon="11.0828354"><ele>53.0</ele><time>2026-05-03T08:54:58.039Z</time></trkpt><trkpt lat="43.7049613" lon="11.0826119"><ele>53.0</ele><time>2026-05-03T08:54:59.03Z</time></trkpt><trkpt lat="43.7050227" lon="11.0823863"><ele>53.0</ele><time>2026-05-03T08:55:00.029Z</time></trkpt><trkpt lat="43.7050784" lon="11.0821562"><ele>53.0</ele><time>2026-05-03T08:55:01.038Z</time></trkpt><trkpt lat="43.705133" lon="11.0819245"><ele>53.0</ele><time>2026-05-03T08:55:02.039Z</time></trkpt><trkpt lat="43.705186" lon="11.0816915"><ele>53.0</ele><time>2026-05-03T08:55:03.033Z</time></trkpt><trkpt lat="43.7052362" lon="11.0814568"><ele>53.0</ele><time>2026-05-03T08:55:04.036Z</time></trkpt><trkpt lat="43.7052812" lon="11.0812192"><ele>53.0</ele><time>2026-05-03T08:55:05.043Z</time></trkpt><trkpt lat="43.705324" lon="11.0809783"><ele>53.0</ele><time>2026-05-03T08:55:06.031Z</time></trkpt><trkpt lat="43.7053674" lon="11.0807343"><ele>53.0</ele><time>2026-05-03T08:55:07.031Z</time></trkpt><trkpt lat="43.7054078" lon="11.0804858"><ele>53.0</ele><time>2026-05-03T08:55:08.036Z</time></trkpt><trkpt lat="43.7054447" lon="11.0802323"><ele>53.0</ele><time>2026-05-03T08:55:09.031Z</time></trkpt><trkpt lat="43.7054766" lon="11.0799745"><ele>53.0</ele><time>2026-05-03T08:55:10.028Z</time></trkpt><trkpt lat="43.7055033" lon="11.0797131"><ele>53.0</ele><time>2026-05-03T08:55:11.031Z</time></trkpt><trkpt lat="43.7055297" lon="11.0794505"><ele>53.0</ele><time>2026-05-03T08:55:12.031Z</time></trkpt><trkpt lat="43.7055533" lon="11.0791875"><ele>53.0</ele><time>2026-05-03T08:55:13.036Z</time></trkpt><trkpt lat="43.7055761" lon="11.0789255"><ele>53.0</ele><time>2026-05-03T08:55:14.031Z</time></trkpt><trkpt lat="43.7055972" lon="11.0786653"><ele>53.0</ele><time>2026-05-03T08:55:15.026Z</time></trkpt><trkpt lat="43.7056157" lon="11.078406"><ele>53.0</ele><time>2026-05-03T08:55:16.038Z</time></trkpt><trkpt lat="43.7056329" lon="11.0781472"><ele>52.333333333333336</ele><time>2026-05-03T08:55:17.033Z</time></trkpt><trkpt lat="43.7056513" lon="11.0778891"><ele>51.66666666666667</ele><time>2026-05-03T08:55:18.036Z</time></trkpt><trkpt lat="43.7056714" lon="11.0776317"><ele>51.0</ele><time>2026-05-03T08:55:19.028Z</time></trkpt><trkpt lat="43.7056918" lon="11.0773745"><ele>50.66666666666667</ele><time>2026-05-03T08:55:20.029Z</time></trkpt><trkpt lat="43.7057099" lon="11.0771169"><ele>50.333333333333336</ele><time>2026-05-03T08:55:21.037Z</time></trkpt><trkpt lat="43.7057289" lon="11.0768596"><ele>50.0</ele><time>2026-05-03T08:55:22.044Z</time></trkpt><trkpt lat="43.7057473" lon="11.0766034"><ele>50.0</ele><time>2026-05-03T08:55:23.029Z</time></trkpt><trkpt lat="43.7057658" lon="11.0763496"><ele>50.0</ele><time>2026-05-03T08:55:24.035Z</time></trkpt><trkpt lat="43.7057821" lon="11.0760977"><ele>50.0</ele><time>2026-05-03T08:55:25.033Z</time></trkpt><trkpt lat="43.7057997" lon="11.0758479"><ele>50.333333333333336</ele><time>2026-05-03T08:55:26.025Z</time></trkpt><trkpt lat="43.7058209" lon="11.0755998"><ele>50.66666666666667</ele><time>2026-05-03T08:55:27.036Z</time></trkpt><trkpt lat="43.7058477" lon="11.0753536"><ele>51.0</ele><time>2026-05-03T08:55:28.029Z</time></trkpt><trkpt lat="43.7058822" lon="11.075111"><ele>51.33333333333333</ele><time>2026-05-03T08:55:29.029Z</time></trkpt><trkpt lat="43.7059289" lon="11.0748737"><ele>51.666666666666664</ele><time>2026-05-03T08:55:30.027Z</time></trkpt><trkpt lat="43.7059834" lon="11.0746398"><ele>52.0</ele><time>2026-05-03T08:55:31.033Z</time></trkpt><trkpt lat="43.7060431" lon="11.0744081"><ele>51.666666666666664</ele><time>2026-05-03T08:55:32.035Z</time></trkpt><trkpt lat="43.7061078" lon="11.0741784"><ele>51.33333333333333</ele><time>2026-05-03T08:55:33.039Z</time></trkpt><trkpt lat="43.7061793" lon="11.0739526"><ele>51.0</ele><time>2026-05-03T08:55:34.037Z</time></trkpt><trkpt lat="43.7062533" lon="11.0737324"><ele>51.0</ele><time>2026-05-03T08:55:35.034Z</time></trkpt><trkpt lat="43.7063436" lon="11.0735259"><ele>51.0</ele><time>2026-05-03T08:55:36.043Z</time></trkpt><trkpt lat="43.7064406" lon="11.0733255"><ele>51.0</ele><time>2026-05-03T08:55:37.029Z</time></trkpt><trkpt lat="43.7065425" lon="11.0731311"><ele>51.0</ele><time>2026-05-03T08:55:38.036Z</time></trkpt><trkpt lat="43.706646" lon="11.0729458"><ele>51.0</ele><time>2026-05-03T08:55:39.035Z</time></trkpt><trkpt lat="43.706748" lon="11.0727726"><ele>51.0</ele><time>2026-05-03T08:55:40.035Z</time></trkpt><trkpt lat="43.7068452" lon="11.07261"><ele>51.0</ele><time>2026-05-03T08:55:41.028Z</time></trkpt><trkpt lat="43.7069349" lon="11.07246"><ele>51.0</ele><time>2026-05-03T08:55:42.031Z</time></trkpt><trkpt lat="43.7070174" lon="11.0723276"><ele>51.0</ele><time>2026-05-03T08:55:43.037Z</time></trkpt><trkpt lat="43.7070929" lon="11.072205"><ele>51.0</ele><time>2026-05-03T08:55:44.033Z</time></trkpt><trkpt lat="43.7071637" lon="11.0720868"><ele>51.0</ele><time>2026-05-03T08:55:45.036Z</time></trkpt><trkpt lat="43.7072283" lon="11.0719803"><ele>51.0</ele><time>2026-05-03T08:55:46.03Z</time></trkpt><trkpt lat="43.7072882" lon="11.0718856"><ele>51.0</ele><time>2026-05-03T08:55:47.038Z</time></trkpt><trkpt lat="43.7073511" lon="11.0718073"><ele>51.0</ele><time>2026-05-03T08:55:48.031Z</time></trkpt><trkpt lat="43.7074171" lon="11.0717514"><ele>51.0</ele><time>2026-05-03T08:55:49.029Z</time></trkpt><trkpt lat="43.7074873" lon="11.0717217"><ele>51.0</ele><time>2026-05-03T08:55:50.03Z</time></trkpt><trkpt lat="43.707559" lon="11.0717077"><ele>51.0</ele><time>2026-05-03T08:55:51.036Z</time></trkpt><trkpt lat="43.7076269" lon="11.0716876"><ele>51.0</ele><time>2026-05-03T08:55:52.033Z</time></trkpt><trkpt lat="43.707686" lon="11.0716481"><ele>51.0</ele><time>2026-05-03T08:55:53.041Z</time></trkpt><trkpt lat="43.7077598" lon="11.0715117"><ele>51.0</ele><time>2026-05-03T08:55:55.029Z</time></trkpt><trkpt lat="43.7077738" lon="11.0714188"><ele>51.0</ele><time>2026-05-03T08:55:56.031Z</time></trkpt><trkpt lat="43.7077663" lon="11.0713186"><ele>51.0</ele><time>2026-05-03T08:55:57.044Z</time></trkpt><trkpt lat="43.7077408" lon="11.0712306"><ele>50.833333333333336</ele><time>2026-05-03T08:55:58.036Z</time></trkpt><trkpt lat="43.7076973" lon="11.0711625"><ele>50.66666666666667</ele><time>2026-05-03T08:55:59.028Z</time></trkpt><trkpt lat="43.7076368" lon="11.071112"><ele>50.5</ele><time>2026-05-03T08:56:00.046Z</time></trkpt><trkpt lat="43.707559" lon="11.0710846"><ele>50.333333333333336</ele><time>2026-05-03T08:56:01.043Z</time></trkpt><trkpt lat="43.7074728" lon="11.0710769"><ele>50.16666666666667</ele><time>2026-05-03T08:56:02.03Z</time></trkpt><trkpt lat="43.7073872" lon="11.071061"><ele>50.0</ele><time>2026-05-03T08:56:03.029Z</time></trkpt><trkpt lat="43.7073037" lon="11.0710206"><ele>50.0</ele><time>2026-05-03T08:56:04.028Z</time></trkpt><trkpt lat="43.7072275" lon="11.070944"><ele>50.0</ele><time>2026-05-03T08:56:05.047Z</time></trkpt><trkpt lat="43.7071562" lon="11.0708429"><ele>50.0</ele><time>2026-05-03T08:56:06.04Z</time></trkpt><trkpt lat="43.7070862" lon="11.0707314"><ele>50.0</ele><time>2026-05-03T08:56:07.039Z</time></trkpt><trkpt lat="43.7070124" lon="11.0706161"><ele>50.0</ele><time>2026-05-03T08:56:08.032Z</time></trkpt><trkpt lat="43.706937" lon="11.0704942"><ele>50.25</ele><time>2026-05-03T08:56:09.034Z</time></trkpt><trkpt lat="43.7068609" lon="11.0703681"><ele>50.5</ele><time>2026-05-03T08:56:10.027Z</time></trkpt><trkpt lat="43.7067807" lon="11.0702441"><ele>50.75</ele><time>2026-05-03T08:56:11.047Z</time></trkpt><trkpt lat="43.7066935" lon="11.0701281"><ele>51.0</ele><time>2026-05-03T08:56:12.048Z</time></trkpt><trkpt lat="43.7065957" lon="11.0700269"><ele>50.75</ele><time>2026-05-03T08:56:13.03Z</time></trkpt><trkpt lat="43.7064893" lon="11.0699317"><ele>50.5</ele><time>2026-05-03T08:56:14.031Z</time></trkpt><trkpt lat="43.7063764" lon="11.0698394"><ele>50.25</ele><time>2026-05-03T08:56:15.037Z</time></trkpt><trkpt lat="43.7062594" lon="11.0697502"><ele>50.0</ele><time>2026-05-03T08:56:16.038Z</time></trkpt><trkpt lat="43.7061415" lon="11.0696614"><ele>49.75</ele><time>2026-05-03T08:56:17.034Z</time></trkpt><trkpt lat="43.7060246" lon="11.0695725"><ele>49.5</ele><time>2026-05-03T08:56:18.044Z</time></trkpt><trkpt lat="43.7059091" lon="11.0694842"><ele>49.25</ele><time>2026-05-03T08:56:19.028Z</time></trkpt><trkpt lat="43.7057967" lon="11.0693956"><ele>49.0</ele><time>2026-05-03T08:56:20.039Z</time></trkpt><trkpt lat="43.7056861" lon="11.069308"><ele>49.0</ele><time>2026-05-03T08:56:21.035Z</time></trkpt><trkpt lat="43.7055756" lon="11.0692189"><ele>49.0</ele><time>2026-05-03T08:56:22.028Z</time></trkpt><trkpt lat="43.7054659" lon="11.0691285"><ele>49.0</ele><time>2026-05-03T08:56:23.03Z</time></trkpt><trkpt lat="43.7053541" lon="11.069041"><ele>49.0</ele><time>2026-05-03T08:56:24.038Z</time></trkpt><trkpt lat="43.7052403" lon="11.0689516"><ele>50.0</ele><time>2026-05-03T08:56:25.04Z</time></trkpt><trkpt lat="43.7051264" lon="11.068861"><ele>51.0</ele><time>2026-05-03T08:56:26.045Z</time></trkpt><trkpt lat="43.7050113" lon="11.0687729"><ele>52.0</ele><time>2026-05-03T08:56:27.033Z</time></trkpt><trkpt lat="43.7048968" lon="11.0686838"><ele>53.0</ele><time>2026-05-03T08:56:28.034Z</time></trkpt><trkpt lat="43.7047829" lon="11.0685956"><ele>53.0</ele><time>2026-05-03T08:56:29.034Z</time></trkpt><trkpt lat="43.7046713" lon="11.0685109"><ele>53.0</ele><time>2026-05-03T08:56:30.04Z</time></trkpt><trkpt lat="43.7045613" lon="11.0684358"><ele>53.0</ele><time>2026-05-03T08:56:31.028Z</time></trkpt><trkpt lat="43.7044538" lon="11.0683685"><ele>53.0</ele><time>2026-05-03T08:56:32.026Z</time></trkpt><trkpt lat="43.7043469" lon="11.0683113"><ele>52.8</ele><time>2026-05-03T08:56:33.026Z</time></trkpt><trkpt lat="43.7042374" lon="11.0682658"><ele>52.599999999999994</ele><time>2026-05-03T08:56:34.027Z</time></trkpt><trkpt lat="43.7041239" lon="11.0682372"><ele>52.400000000000006</ele><time>2026-05-03T08:56:35.033Z</time></trkpt><trkpt lat="43.704012" lon="11.0682122"><ele>52.2</ele><time>2026-05-03T08:56:36.028Z</time></trkpt><trkpt lat="43.7039085" lon="11.068191"><ele>52.0</ele><time>2026-05-03T08:56:37.033Z</time></trkpt><trkpt lat="43.7038116" lon="11.0681683"><ele>51.99999999999999</ele><time>2026-05-03T08:56:38.032Z</time></trkpt><trkpt lat="43.7037171" lon="11.068151"><ele>52.0</ele><time>2026-05-03T08:56:39.033Z</time></trkpt><trkpt lat="43.7036284" lon="11.0681361"><ele>52.0</ele><time>2026-05-03T08:56:40.038Z</time></trkpt><trkpt lat="43.7035483" lon="11.0681261"><ele>52.0</ele><time>2026-05-03T08:56:41.03Z</time></trkpt><trkpt lat="43.7034765" lon="11.0681122"><ele>51.99999999999999</ele><time>2026-05-03T08:56:42.031Z</time></trkpt><trkpt lat="43.7033734" lon="11.0680609"><ele>52.0</ele><time>2026-05-03T08:56:44.029Z</time></trkpt><trkpt lat="43.7033164" lon="11.0679661"><ele>51.8</ele><time>2026-05-03T08:56:46.035Z</time></trkpt><trkpt lat="43.7032495" lon="11.0678399"><ele>51.6</ele><time>2026-05-03T08:56:48.034Z</time></trkpt><trkpt lat="43.7031725" lon="11.0676994"><ele>51.4</ele><time>2026-05-03T08:56:50.032Z</time></trkpt><trkpt lat="43.7031312" lon="11.067624"><ele>51.199999999999996</ele><time>2026-05-03T08:56:51.03Z</time></trkpt><trkpt lat="43.7030861" lon="11.0675426"><ele>51.0</ele><time>2026-05-03T08:56:52.027Z</time></trkpt><trkpt lat="43.70304" lon="11.0674583"><ele>51.0</ele><time>2026-05-03T08:56:53.03Z</time></trkpt><trkpt lat="43.7029906" lon="11.0673699"><ele>51.0</ele><time>2026-05-03T08:56:54.029Z</time></trkpt><trkpt lat="43.7029374" lon="11.0672718"><ele>51.0</ele><time>2026-05-03T08:56:55.033Z</time></trkpt><trkpt lat="43.7028788" lon="11.0671665"><ele>51.0</ele><time>2026-05-03T08:56:56.033Z</time></trkpt><trkpt lat="43.7028088" lon="11.0670526"><ele>51.0</ele><time>2026-05-03T08:56:57.034Z</time></trkpt><trkpt lat="43.7027304" lon="11.0669284"><ele>51.75</ele><time>2026-05-03T08:56:58.031Z</time></trkpt><trkpt lat="43.702654" lon="11.0667939"><ele>52.5</ele><time>2026-05-03T08:56:59.054Z</time></trkpt><trkpt lat="43.7025818" lon="11.0666498"><ele>53.25</ele><time>2026-05-03T08:57:00.035Z</time></trkpt><trkpt lat="43.7025095" lon="11.0665087"><ele>54.0</ele><time>2026-05-03T08:57:01.031Z</time></trkpt><trkpt lat="43.7024455" lon="11.0663649"><ele>54.0</ele><time>2026-05-03T08:57:02.03Z</time></trkpt><trkpt lat="43.7023858" lon="11.0662332"><ele>54.00000000000001</ele><time>2026-05-03T08:57:03.041Z</time></trkpt><trkpt lat="43.7023252" lon="11.0661168"><ele>54.00000000000001</ele><time>2026-05-03T08:57:04.035Z</time></trkpt><trkpt lat="43.7022701" lon="11.066008"><ele>54.0</ele><time>2026-05-03T08:57:05.032Z</time></trkpt><trkpt lat="43.7022158" lon="11.0659101"><ele>54.0</ele><time>2026-05-03T08:57:06.03Z</time></trkpt><trkpt lat="43.7021565" lon="11.0658247"><ele>54.5</ele><time>2026-05-03T08:57:07.032Z</time></trkpt><trkpt lat="43.7021031" lon="11.0657327"><ele>55.0</ele><time>2026-05-03T08:57:08.032Z</time></trkpt><trkpt lat="43.7020579" lon="11.0656266"><ele>55.5</ele><time>2026-05-03T08:57:09.028Z</time></trkpt><trkpt lat="43.702014" lon="11.0655218"><ele>56.0</ele><time>2026-05-03T08:57:10.04Z</time></trkpt><trkpt lat="43.7019801" lon="11.0654231"><ele>56.5</ele><time>2026-05-03T08:57:11.039Z</time></trkpt><trkpt lat="43.7019552" lon="11.0653327"><ele>57.0</ele><time>2026-05-03T08:57:12.033Z</time></trkpt><trkpt lat="43.7019328" lon="11.0652436"><ele>57.0</ele><time>2026-05-03T08:57:13.049Z</time></trkpt><trkpt lat="43.7019169" lon="11.0651568"><ele>57.0</ele><time>2026-05-03T08:57:14.029Z</time></trkpt><trkpt lat="43.7019251" lon="11.0650105"><ele>57.0</ele><time>2026-05-03T08:57:16.029Z</time></trkpt><trkpt lat="43.7019808" lon="11.064894"><ele>57.0</ele><time>2026-05-03T08:57:18.037Z</time></trkpt><trkpt lat="43.7020739" lon="11.0647737"><ele>57.0</ele><time>2026-05-03T08:57:20.024Z</time></trkpt><trkpt lat="43.7021444" lon="11.0647163"><ele>58.166666666666664</ele><time>2026-05-03T08:57:21.037Z</time></trkpt><trkpt lat="43.7022141" lon="11.0646543"><ele>59.33333333333333</ele><time>2026-05-03T08:57:22.029Z</time></trkpt><trkpt lat="43.7022737" lon="11.0645863"><ele>60.5</ele><time>2026-05-03T08:57:23.034Z</time></trkpt><trkpt lat="43.7023241" lon="11.0645041"><ele>61.666666666666664</ele><time>2026-05-03T08:57:24.027Z</time></trkpt><trkpt lat="43.7023768" lon="11.0644143"><ele>62.83333333333333</ele><time>2026-05-03T08:57:25.032Z</time></trkpt><trkpt lat="43.7024244" lon="11.064309"><ele>64.0</ele><time>2026-05-03T08:57:26.031Z</time></trkpt><trkpt lat="43.7024677" lon="11.0642026"><ele>65.66666666666666</ele><time>2026-05-03T08:57:27.027Z</time></trkpt><trkpt lat="43.7025005" lon="11.0641122"><ele>67.33333333333333</ele><time>2026-05-03T08:57:28.033Z</time></trkpt><trkpt lat="43.7025278" lon="11.064026"><ele>69.0</ele><time>2026-05-03T08:57:29.03Z</time></trkpt><trkpt lat="43.7025446" lon="11.0639307"><ele>70.66666666666667</ele><time>2026-05-03T08:57:30.039Z</time></trkpt><trkpt lat="43.7025585" lon="11.0638438"><ele>72.33333333333334</ele><time>2026-05-03T08:57:31.032Z</time></trkpt><trkpt lat="43.7025926" lon="11.0636952"><ele>74.0</ele><time>2026-05-03T08:57:33.033Z</time></trkpt><trkpt lat="43.7026341" lon="11.0635174"><ele>74.0</ele><time>2026-05-03T08:57:35.033Z</time></trkpt><trkpt lat="43.7026427" lon="11.0634098"><ele>74.0</ele><time>2026-05-03T08:57:36.043Z</time></trkpt><trkpt lat="43.7026424" lon="11.0632958"><ele>74.0</ele><time>2026-05-03T08:57:37.039Z</time></trkpt><trkpt lat="43.7026473" lon="11.0631868"><ele>74.0</ele><time>2026-05-03T08:57:38.033Z</time></trkpt><trkpt lat="43.702646" lon="11.063077"><ele>74.0</ele><time>2026-05-03T08:57:39.028Z</time></trkpt><trkpt lat="43.7026398" lon="11.0629668"><ele>74.0</ele><time>2026-05-03T08:57:40.025Z</time></trkpt><trkpt lat="43.7026324" lon="11.0628515"><ele>76.2</ele><time>2026-05-03T08:57:41.03Z</time></trkpt><trkpt lat="43.7026167" lon="11.0627361"><ele>78.4</ele><time>2026-05-03T08:57:42.024Z</time></trkpt><trkpt lat="43.7026002" lon="11.0626162"><ele>80.6</ele><time>2026-05-03T08:57:43.026Z</time></trkpt><trkpt lat="43.7025777" lon="11.0624762"><ele>82.8</ele><time>2026-05-03T08:57:44.038Z</time></trkpt><trkpt lat="43.7025655" lon="11.0623386"><ele>85.0</ele><time>2026-05-03T08:57:45.031Z</time></trkpt><trkpt lat="43.7025578" lon="11.0622235"><ele>86.4</ele><time>2026-05-03T08:57:46.025Z</time></trkpt><trkpt lat="43.702553" lon="11.0620998"><ele>87.8</ele><time>2026-05-03T08:57:47.032Z</time></trkpt><trkpt lat="43.7025416" lon="11.0619637"><ele>89.19999999999999</ele><time>2026-05-03T08:57:48.028Z</time></trkpt><trkpt lat="43.702532" lon="11.0618245"><ele>90.6</ele><time>2026-05-03T08:57:49.033Z</time></trkpt><trkpt lat="43.7025214" lon="11.0616802"><ele>92.0</ele><time>2026-05-03T08:57:50.04Z</time></trkpt><trkpt lat="43.7025076" lon="11.0615162"><ele>93.5</ele><time>2026-05-03T08:57:51.029Z</time></trkpt><trkpt lat="43.7024863" lon="11.0613201"><ele>95.0</ele><time>2026-05-03T08:57:52.027Z</time></trkpt><trkpt lat="43.7024674" lon="11.0611063"><ele>96.5</ele><time>2026-05-03T08:57:53.035Z</time></trkpt><trkpt lat="43.7024509" lon="11.0609111"><ele>98.0</ele><time>2026-05-03T08:57:54.034Z</time></trkpt><trkpt lat="43.7024363" lon="11.0607435"><ele>99.33333333333333</ele><time>2026-05-03T08:57:55.034Z</time></trkpt><trkpt lat="43.7024224" lon="11.0605936"><ele>100.66666666666666</ele><time>2026-05-03T08:57:56.037Z</time></trkpt><trkpt lat="43.7024154" lon="11.0604715"><ele>102.0</ele><time>2026-05-03T08:57:57.03Z</time></trkpt><trkpt lat="43.7024096" lon="11.0603576"><ele>103.33333333333334</ele><time>2026-05-03T08:57:58.025Z</time></trkpt><trkpt lat="43.7023962" lon="11.0602618"><ele>104.66666666666667</ele><time>2026-05-03T08:57:59.033Z</time></trkpt><trkpt lat="43.7023759" lon="11.0601752"><ele>106.0</ele><time>2026-05-03T08:58:00.054Z</time></trkpt><trkpt lat="43.702359" lon="11.060084"><ele>106.00000000000001</ele><time>2026-05-03T08:58:01.032Z</time></trkpt><trkpt lat="43.7023385" lon="11.0599956"><ele>106.0</ele><time>2026-05-03T08:58:02.023Z</time></trkpt><trkpt lat="43.7023243" lon="11.05985"><ele>106.0</ele><time>2026-05-03T08:58:04.024Z</time></trkpt><trkpt lat="43.702343" lon="11.0596848"><ele>106.0</ele><time>2026-05-03T08:58:06.033Z</time></trkpt><trkpt lat="43.7023543" lon="11.0595967"><ele>106.00000000000001</ele><time>2026-05-03T08:58:07.029Z</time></trkpt><trkpt lat="43.7023759" lon="11.0594997"><ele>106.0</ele><time>2026-05-03T08:58:08.027Z</time></trkpt><trkpt lat="43.7023888" lon="11.0594006"><ele>107.8</ele><time>2026-05-03T08:58:09.036Z</time></trkpt><trkpt lat="43.7023788" lon="11.0592499"><ele>109.6</ele><time>2026-05-03T08:58:11.027Z</time></trkpt><trkpt lat="43.7023218" lon="11.059155"><ele>111.4</ele><time>2026-05-03T08:58:13.033Z</time></trkpt><trkpt lat="43.702232" lon="11.0590372"><ele>113.2</ele><time>2026-05-03T08:58:15.034Z</time></trkpt><trkpt lat="43.7021896" lon="11.0589695"><ele>115.0</ele><time>2026-05-03T08:58:16.039Z</time></trkpt><trkpt lat="43.7021499" lon="11.0588791"><ele>116.66666666666667</ele><time>2026-05-03T08:58:17.03Z</time></trkpt><trkpt lat="43.7021129" lon="11.0587942"><ele>118.33333333333334</ele><time>2026-05-03T08:58:18.027Z</time></trkpt><trkpt lat="43.7020578" lon="11.0586569"><ele>120.0</ele><time>2026-05-03T08:58:20.026Z</time></trkpt><trkpt lat="43.7020639" lon="11.0585445"><ele>121.66666666666666</ele><time>2026-05-03T08:58:22.028Z</time></trkpt><trkpt lat="43.7021292" lon="11.0584531"><ele>123.33333333333333</ele><time>2026-05-03T08:58:24.025Z</time></trkpt><trkpt lat="43.7021907" lon="11.0584057"><ele>125.0</ele><time>2026-05-03T08:58:25.035Z</time></trkpt><trkpt lat="43.7022639" lon="11.0583514"><ele>125.0</ele><time>2026-05-03T08:58:26.039Z</time></trkpt><trkpt lat="43.7023266" lon="11.0583043"><ele>125.0</ele><time>2026-05-03T08:58:27.035Z</time></trkpt><trkpt lat="43.7024168" lon="11.0582485"><ele>125.0</ele><time>2026-05-03T08:58:29.028Z</time></trkpt><trkpt lat="43.7025023" lon="11.058235"><ele>125.0</ele><time>2026-05-03T08:58:32.025Z</time></trkpt><trkpt lat="43.7025774" lon="11.0581979"><ele>125.0</ele><time>2026-05-03T08:58:35.033Z</time></trkpt><trkpt lat="43.7025818" lon="11.0580397"><ele>126.25</ele><time>2026-05-03T08:58:38.035Z</time></trkpt><trkpt lat="43.7025586" lon="11.0579341"><ele>127.5</ele><time>2026-05-03T08:58:39.028Z</time></trkpt><trkpt lat="43.7025296" lon="11.0578037"><ele>128.75</ele><time>2026-05-03T08:58:40.025Z</time></trkpt><trkpt lat="43.7025021" lon="11.0576168"><ele>130.0</ele><time>2026-05-03T08:58:41.035Z</time></trkpt><trkpt lat="43.7024751" lon="11.0573725"><ele>130.25</ele><time>2026-05-03T08:58:42.036Z</time></trkpt><trkpt lat="43.7024502" lon="11.0571477"><ele>130.5</ele><time>2026-05-03T08:58:43.033Z</time></trkpt><trkpt lat="43.7024213" lon="11.0569535"><ele>130.75</ele><time>2026-05-03T08:58:44.025Z</time></trkpt><trkpt lat="43.702397" lon="11.0567736"><ele>131.0</ele><time>2026-05-03T08:58:45.021Z</time></trkpt><trkpt lat="43.7023776" lon="11.0566096"><ele>131.8</ele><time>2026-05-03T08:58:46.04Z</time></trkpt><trkpt lat="43.7023571" lon="11.0564486"><ele>132.6</ele><time>2026-05-03T08:58:47.031Z</time></trkpt><trkpt lat="43.702331" lon="11.0562985"><ele>133.4</ele><time>2026-05-03T08:58:48.038Z</time></trkpt><trkpt lat="43.7023115" lon="11.0561673"><ele>134.2</ele><time>2026-05-03T08:58:49.025Z</time></trkpt><trkpt lat="43.702294" lon="11.0560368"><ele>135.0</ele><time>2026-05-03T08:58:50.037Z</time></trkpt><trkpt lat="43.7022792" lon="11.0559078"><ele>136.4</ele><time>2026-05-03T08:58:51.038Z</time></trkpt><trkpt lat="43.7022629" lon="11.0557799"><ele>137.8</ele><time>2026-05-03T08:58:52.023Z</time></trkpt><trkpt lat="43.7022396" lon="11.0556437"><ele>139.2</ele><time>2026-05-03T08:58:53.04Z</time></trkpt><trkpt lat="43.7022168" lon="11.0554849"><ele>140.6</ele><time>2026-05-03T08:58:54.03Z</time></trkpt><trkpt lat="43.7022004" lon="11.0553034"><ele>142.0</ele><time>2026-05-03T08:58:55.031Z</time></trkpt><trkpt lat="43.7021913" lon="11.0551236"><ele>142.0</ele><time>2026-05-03T08:58:56.027Z</time></trkpt><trkpt lat="43.7021797" lon="11.0549789"><ele>142.0</ele><time>2026-05-03T08:58:57.028Z</time></trkpt><trkpt lat="43.7021676" lon="11.0548619"><ele>142.0</ele><time>2026-05-03T08:58:58.029Z</time></trkpt><trkpt lat="43.7021596" lon="11.0547518"><ele>142.0</ele><time>2026-05-03T08:58:59.029Z</time></trkpt><trkpt lat="43.7021483" lon="11.0546482"><ele>142.0</ele><time>2026-05-03T08:59:00.035Z</time></trkpt><trkpt lat="43.7021387" lon="11.0544938"><ele>142.5</ele><time>2026-05-03T08:59:02.028Z</time></trkpt><trkpt lat="43.7021501" lon="11.0543361"><ele>143.0</ele><time>2026-05-03T08:59:04.024Z</time></trkpt><trkpt lat="43.7021688" lon="11.0542333"><ele>143.5</ele><time>2026-05-03T08:59:05.024Z</time></trkpt><trkpt lat="43.7021878" lon="11.0541343"><ele>144.0</ele><time>2026-05-03T08:59:06.036Z</time></trkpt><trkpt lat="43.7022106" lon="11.0540018"><ele>144.5</ele><time>2026-05-03T08:59:08.034Z</time></trkpt><trkpt lat="43.7022046" lon="11.0538994"><ele>145.0</ele><time>2026-05-03T08:59:10.026Z</time></trkpt><trkpt lat="43.7021638" lon="11.0538022"><ele>145.0</ele><time>2026-05-03T08:59:13.028Z</time></trkpt><trkpt lat="43.7021578" lon="11.0536919"><ele>145.0</ele><time>2026-05-03T08:59:16.025Z</time></trkpt><trkpt lat="43.7021478" lon="11.0535111"><ele>145.0</ele><time>2026-05-03T08:59:18.025Z</time></trkpt><trkpt lat="43.7021326" lon="11.0534052"><ele>145.0</ele><time>2026-05-03T08:59:19.028Z</time></trkpt><trkpt lat="43.7021095" lon="11.0533059"><ele>145.0</ele><time>2026-05-03T08:59:20.024Z</time></trkpt><trkpt lat="43.7020744" lon="11.0532038"><ele>145.0</ele><time>2026-05-03T08:59:21.024Z</time></trkpt><trkpt lat="43.7020273" lon="11.0530967"><ele>144.6</ele><time>2026-05-03T08:59:22.027Z</time></trkpt><trkpt lat="43.7019687" lon="11.0529839"><ele>144.2</ele><time>2026-05-03T08:59:23.028Z</time></trkpt><trkpt lat="43.7019083" lon="11.0528651"><ele>143.8</ele><time>2026-05-03T08:59:24.027Z</time></trkpt><trkpt lat="43.7018443" lon="11.0527406"><ele>143.4</ele><time>2026-05-03T08:59:25.027Z</time></trkpt><trkpt lat="43.7017752" lon="11.0526138"><ele>143.0</ele><time>2026-05-03T08:59:26.032Z</time></trkpt><trkpt lat="43.7017004" lon="11.052488"><ele>145.20000000000002</ele><time>2026-05-03T08:59:27.032Z</time></trkpt><trkpt lat="43.7016202" lon="11.0523724"><ele>147.4</ele><time>2026-05-03T08:59:28.034Z</time></trkpt><trkpt lat="43.70154" lon="11.0522599"><ele>149.60000000000002</ele><time>2026-05-03T08:59:29.029Z</time></trkpt><trkpt lat="43.7014535" lon="11.0521582"><ele>151.8</ele><time>2026-05-03T08:59:30.023Z</time></trkpt><trkpt lat="43.7013688" lon="11.0520743"><ele>154.0</ele><time>2026-05-03T08:59:31.036Z</time></trkpt><trkpt lat="43.7012987" lon="11.0519873"><ele>154.0</ele><time>2026-05-03T08:59:32.032Z</time></trkpt><trkpt lat="43.7012374" lon="11.0518979"><ele>154.0</ele><time>2026-05-03T08:59:33.026Z</time></trkpt><trkpt lat="43.7011713" lon="11.0518098"><ele>154.0</ele><time>2026-05-03T08:59:34.028Z</time></trkpt><trkpt lat="43.7011093" lon="11.051701"><ele>154.0</ele><time>2026-05-03T08:59:35.029Z</time></trkpt><trkpt lat="43.701039" lon="11.0515962"><ele>154.0</ele><time>2026-05-03T08:59:36.032Z</time></trkpt><trkpt lat="43.7009691" lon="11.0514989"><ele>156.2</ele><time>2026-05-03T08:59:37.03Z</time></trkpt><trkpt lat="43.7009029" lon="11.0514138"><ele>158.4</ele><time>2026-05-03T08:59:38.035Z</time></trkpt><trkpt lat="43.7008371" lon="11.051338"><ele>160.6</ele><time>2026-05-03T08:59:39.028Z</time></trkpt><trkpt lat="43.7007676" lon="11.051272"><ele>162.8</ele><time>2026-05-03T08:59:40.031Z</time></trkpt><trkpt lat="43.7006835" lon="11.0512159"><ele>165.0</ele><time>2026-05-03T08:59:41.028Z</time></trkpt><trkpt lat="43.7005879" lon="11.0511623"><ele>165.0</ele><time>2026-05-03T08:59:42.027Z</time></trkpt><trkpt lat="43.7005019" lon="11.0510917"><ele>165.0</ele><time>2026-05-03T08:59:43.033Z</time></trkpt><trkpt lat="43.7004215" lon="11.051057"><ele>165.0</ele><time>2026-05-03T08:59:44.027Z</time></trkpt><trkpt lat="43.70034" lon="11.051002"><ele>165.0</ele><time>2026-05-03T08:59:45.024Z</time></trkpt><trkpt lat="43.7002504" lon="11.0509642"><ele>165.0</ele><time>2026-05-03T08:59:46.029Z</time></trkpt><trkpt lat="43.7001586" lon="11.0509273"><ele>164.6</ele><time>2026-05-03T08:59:47.034Z</time></trkpt><trkpt lat="43.7000653" lon="11.0508763"><ele>164.2</ele><time>2026-05-03T08:59:48.03Z</time></trkpt><trkpt lat="43.6999646" lon="11.050852"><ele>163.8</ele><time>2026-05-03T08:59:49.033Z</time></trkpt><trkpt lat="43.6998744" lon="11.0508009"><ele>163.4</ele><time>2026-05-03T08:59:50.036Z</time></trkpt><trkpt lat="43.6997954" lon="11.0507635"><ele>163.0</ele><time>2026-05-03T08:59:51.026Z</time></trkpt><trkpt lat="43.6997276" lon="11.050729"><ele>163.0</ele><time>2026-05-03T08:59:52.024Z</time></trkpt><trkpt lat="43.6996649" lon="11.0506992"><ele>163.0</ele><time>2026-05-03T08:59:53.03Z</time></trkpt><trkpt lat="43.6995595" lon="11.0506452"><ele>163.0</ele><time>2026-05-03T08:59:55.037Z</time></trkpt><trkpt lat="43.699463" lon="11.0505834"><ele>163.0</ele><time>2026-05-03T08:59:57.025Z</time></trkpt><trkpt lat="43.6994035" lon="11.0505412"><ele>163.0</ele><time>2026-05-03T08:59:58.033Z</time></trkpt><trkpt lat="43.6993378" lon="11.0504924"><ele>163.0</ele><time>2026-05-03T08:59:59.04Z</time></trkpt><trkpt lat="43.6992771" lon="11.0504178"><ele>163.8</ele><time>2026-05-03T09:00:00.085Z</time></trkpt><trkpt lat="43.6992207" lon="11.0503242"><ele>164.60000000000002</ele><time>2026-05-03T09:00:01.027Z</time></trkpt><trkpt lat="43.6991623" lon="11.050235"><ele>165.39999999999998</ele><time>2026-05-03T09:00:02.025Z</time></trkpt><trkpt lat="43.6990974" lon="11.0501596"><ele>166.2</ele><time>2026-05-03T09:00:03.031Z</time></trkpt><trkpt lat="43.6990194" lon="11.0500882"><ele>167.0</ele><time>2026-05-03T09:00:04.04Z</time></trkpt><trkpt lat="43.698934" lon="11.0500223"><ele>165.6</ele><time>2026-05-03T09:00:05.034Z</time></trkpt><trkpt lat="43.6988497" lon="11.0499524"><ele>164.2</ele><time>2026-05-03T09:00:06.034Z</time></trkpt><trkpt lat="43.6987597" lon="11.0498899"><ele>162.8</ele><time>2026-05-03T09:00:07.024Z</time></trkpt><trkpt lat="43.698674" lon="11.0498178"><ele>161.4</ele><time>2026-05-03T09:00:08.032Z</time></trkpt><trkpt lat="43.6985972" lon="11.0497441"><ele>160.0</ele><time>2026-05-03T09:00:09.031Z</time></trkpt><trkpt lat="43.6985267" lon="11.0496738"><ele>160.0</ele><time>2026-05-03T09:00:10.024Z</time></trkpt><trkpt lat="43.6984529" lon="11.0496113"><ele>160.0</ele><time>2026-05-03T09:00:11.041Z</time></trkpt><trkpt lat="43.6983746" lon="11.0495662"><ele>160.0</ele><time>2026-05-03T09:00:12.029Z</time></trkpt><trkpt lat="43.6983024" lon="11.0495223"><ele>160.0</ele><time>2026-05-03T09:00:13.033Z</time></trkpt><trkpt lat="43.6982343" lon="11.0494881"><ele>160.0</ele><time>2026-05-03T09:00:14.03Z</time></trkpt><trkpt lat="43.6981722" lon="11.0494564"><ele>160.0</ele><time>2026-05-03T09:00:15.027Z</time></trkpt><trkpt lat="43.6980523" lon="11.0494562"><ele>160.0</ele><time>2026-05-03T09:00:17.027Z</time></trkpt><trkpt lat="43.6979855" lon="11.0494774"><ele>160.0</ele><time>2026-05-03T09:00:18.031Z</time></trkpt><trkpt lat="43.6979189" lon="11.0495067"><ele>160.0</ele><time>2026-05-03T09:00:19.029Z</time></trkpt><trkpt lat="43.6978173" lon="11.0496039"><ele>160.0</ele><time>2026-05-03T09:00:21.027Z</time></trkpt><trkpt lat="43.6977563" lon="11.0497551"><ele>160.0</ele><time>2026-05-03T09:00:23.022Z</time></trkpt><trkpt lat="43.6977314" lon="11.0498457"><ele>161.33333333333334</ele><time>2026-05-03T09:00:24.028Z</time></trkpt><trkpt lat="43.6977071" lon="11.0499462"><ele>162.66666666666669</ele><time>2026-05-03T09:00:25.037Z</time></trkpt><trkpt lat="43.6976783" lon="11.0500509"><ele>164.0</ele><time>2026-05-03T09:00:26.035Z</time></trkpt><trkpt lat="43.6976389" lon="11.0501516"><ele>165.33333333333334</ele><time>2026-05-03T09:00:27.031Z</time></trkpt><trkpt lat="43.6975812" lon="11.0502375"><ele>166.66666666666666</ele><time>2026-05-03T09:00:28.021Z</time></trkpt><trkpt lat="43.6975176" lon="11.0503145"><ele>168.0</ele><time>2026-05-03T09:00:29.03Z</time></trkpt><trkpt lat="43.6974466" lon="11.0503621"><ele>169.4</ele><time>2026-05-03T09:00:30.025Z</time></trkpt><trkpt lat="43.6973682" lon="11.0503923"><ele>170.8</ele><time>2026-05-03T09:00:31.025Z</time></trkpt><trkpt lat="43.6972737" lon="11.0504024"><ele>172.2</ele><time>2026-05-03T09:00:32.027Z</time></trkpt><trkpt lat="43.6971727" lon="11.0504067"><ele>173.6</ele><time>2026-05-03T09:00:33.025Z</time></trkpt><trkpt lat="43.6970696" lon="11.0504075"><ele>175.0</ele><time>2026-05-03T09:00:34.023Z</time></trkpt><trkpt lat="43.696969" lon="11.0504071"><ele>175.33333333333334</ele><time>2026-05-03T09:00:35.029Z</time></trkpt><trkpt lat="43.6968751" lon="11.0504206"><ele>175.66666666666669</ele><time>2026-05-03T09:00:36.025Z</time></trkpt><trkpt lat="43.6967918" lon="11.0504308"><ele>176.0</ele><time>2026-05-03T09:00:37.027Z</time></trkpt><trkpt lat="43.6967208" lon="11.050439"><ele>176.33333333333334</ele><time>2026-05-03T09:00:38.032Z</time></trkpt><trkpt lat="43.6966568" lon="11.0504311"><ele>176.66666666666666</ele><time>2026-05-03T09:00:39.031Z</time></trkpt><trkpt lat="43.6965551" lon="11.0504374"><ele>177.0</ele><time>2026-05-03T09:00:41.046Z</time></trkpt><trkpt lat="43.696485" lon="11.0504334"><ele>177.0</ele><time>2026-05-03T09:00:43.031Z</time></trkpt><trkpt lat="43.6964307" lon="11.0503543"><ele>177.0</ele><time>2026-05-03T09:00:46.032Z</time></trkpt><trkpt lat="43.6964675" lon="11.05024"><ele>177.0</ele><time>2026-05-03T09:00:48.03Z</time></trkpt><trkpt lat="43.6964834" lon="11.0500791"><ele>177.0</ele><time>2026-05-03T09:00:50.026Z</time></trkpt><trkpt lat="43.6964785" lon="11.0499897"><ele>177.0</ele><time>2026-05-03T09:00:51.029Z</time></trkpt><trkpt lat="43.6964691" lon="11.0499022"><ele>177.0</ele><time>2026-05-03T09:00:52.028Z</time></trkpt><trkpt lat="43.6964495" lon="11.0498175"><ele>175.75</ele><time>2026-05-03T09:00:53.025Z</time></trkpt><trkpt lat="43.6963885" lon="11.0496884"><ele>174.5</ele><time>2026-05-03T09:00:55.025Z</time></trkpt><trkpt lat="43.6963658" lon="11.0495383"><ele>173.25</ele><time>2026-05-03T09:00:57.026Z</time></trkpt><trkpt lat="43.6963727" lon="11.0493791"><ele>172.0</ele><time>2026-05-03T09:00:59.026Z</time></trkpt><trkpt lat="43.6963698" lon="11.0492015"><ele>170.0</ele><time>2026-05-03T09:01:01.03Z</time></trkpt><trkpt lat="43.6963576" lon="11.0491069"><ele>168.0</ele><time>2026-05-03T09:01:02.025Z</time></trkpt><trkpt lat="43.6963356" lon="11.0490119"><ele>166.0</ele><time>2026-05-03T09:01:03.023Z</time></trkpt><trkpt lat="43.6963106" lon="11.0489151"><ele>164.0</ele><time>2026-05-03T09:01:04.028Z</time></trkpt><trkpt lat="43.6962792" lon="11.0488177"><ele>162.0</ele><time>2026-05-03T09:01:05.034Z</time></trkpt><trkpt lat="43.6962426" lon="11.0487135"><ele>160.0</ele><time>2026-05-03T09:01:06.031Z</time></trkpt><trkpt lat="43.696207" lon="11.0486026"><ele>160.0</ele><time>2026-05-03T09:01:07.034Z</time></trkpt><trkpt lat="43.6961678" lon="11.0484863"><ele>160.0</ele><time>2026-05-03T09:01:08.031Z</time></trkpt><trkpt lat="43.6961285" lon="11.0483588"><ele>160.0</ele><time>2026-05-03T09:01:09.047Z</time></trkpt><trkpt lat="43.6960982" lon="11.0482205"><ele>160.0</ele><time>2026-05-03T09:01:10.024Z</time></trkpt><trkpt lat="43.6960794" lon="11.048075"><ele>160.0</ele><time>2026-05-03T09:01:11.037Z</time></trkpt><trkpt lat="43.6960701" lon="11.0479274"><ele>162.2</ele><time>2026-05-03T09:01:12.037Z</time></trkpt><trkpt lat="43.6960685" lon="11.0477819"><ele>164.4</ele><time>2026-05-03T09:01:13.022Z</time></trkpt><trkpt lat="43.69607" lon="11.0476388"><ele>166.60000000000002</ele><time>2026-05-03T09:01:14.025Z</time></trkpt><trkpt lat="43.6960709" lon="11.0474984"><ele>168.8</ele><time>2026-05-03T09:01:15.029Z</time></trkpt><trkpt lat="43.6960659" lon="11.0473609"><ele>171.0</ele><time>2026-05-03T09:01:16.024Z</time></trkpt><trkpt lat="43.6960559" lon="11.0472258"><ele>171.0</ele><time>2026-05-03T09:01:17.032Z</time></trkpt><trkpt lat="43.6960349" lon="11.0470935"><ele>171.0</ele><time>2026-05-03T09:01:18.033Z</time></trkpt><trkpt lat="43.6960092" lon="11.0469651"><ele>171.0</ele><time>2026-05-03T09:01:19.03Z</time></trkpt><trkpt lat="43.6959833" lon="11.0468439"><ele>171.0</ele><time>2026-05-03T09:01:20.025Z</time></trkpt><trkpt lat="43.695961" lon="11.0467303"><ele>171.0</ele><time>2026-05-03T09:01:21.029Z</time></trkpt><trkpt lat="43.6959381" lon="11.046625"><ele>170.5</ele><time>2026-05-03T09:01:22.032Z</time></trkpt><trkpt lat="43.6959151" lon="11.0465288"><ele>170.0</ele><time>2026-05-03T09:01:23.025Z</time></trkpt><trkpt lat="43.6958951" lon="11.0464419"><ele>169.5</ele><time>2026-05-03T09:01:24.027Z</time></trkpt><trkpt lat="43.6958643" lon="11.0462937"><ele>169.0</ele><time>2026-05-03T09:01:26.025Z</time></trkpt><trkpt lat="43.6958318" lon="11.0461921"><ele>168.5</ele><time>2026-05-03T09:01:28.051Z</time></trkpt><trkpt lat="43.6957651" lon="11.046135"><ele>168.0</ele><time>2026-05-03T09:01:30.034Z</time></trkpt><trkpt lat="43.6956781" lon="11.0461209"><ele>168.0</ele><time>2026-05-03T09:01:32.041Z</time></trkpt><trkpt lat="43.6955943" lon="11.0461303"><ele>168.0</ele><time>2026-05-03T09:01:34.028Z</time></trkpt><trkpt lat="43.6955302" lon="11.0461168"><ele>168.0</ele><time>2026-05-03T09:01:36.032Z</time></trkpt><trkpt lat="43.695481" lon="11.0460415"><ele>168.0</ele><time>2026-05-03T09:01:39.033Z</time></trkpt><trkpt lat="43.6954658" lon="11.0459351"><ele>168.0</ele><time>2026-05-03T09:01:41.026Z</time></trkpt><trkpt lat="43.6954457" lon="11.0458064"><ele>168.0</ele><time>2026-05-03T09:01:43.032Z</time></trkpt><trkpt lat="43.6954206" lon="11.0456586"><ele>168.33333333333334</ele><time>2026-05-03T09:01:45.029Z</time></trkpt><trkpt lat="43.6953996" lon="11.0455377"><ele>168.66666666666666</ele><time>2026-05-03T09:01:47.027Z</time></trkpt><trkpt lat="43.6953781" lon="11.04543"><ele>169.0</ele><time>2026-05-03T09:01:49.033Z</time></trkpt><trkpt lat="43.6953498" lon="11.0453437"><ele>169.33333333333331</ele><time>2026-05-03T09:01:51.032Z</time></trkpt><trkpt lat="43.6953095" lon="11.0452533"><ele>169.66666666666666</ele><time>2026-05-03T09:01:53.03Z</time></trkpt><trkpt lat="43.6952603" lon="11.0451514"><ele>170.0</ele><time>2026-05-03T09:01:55.028Z</time></trkpt><trkpt lat="43.6952158" lon="11.0450427"><ele>169.0</ele><time>2026-05-03T09:01:57.026Z</time></trkpt><trkpt lat="43.6951693" lon="11.0449369"><ele>168.0</ele><time>2026-05-03T09:01:59.024Z</time></trkpt><trkpt lat="43.6951209" lon="11.0448469"><ele>167.0</ele><time>2026-05-03T09:02:01.026Z</time></trkpt><trkpt lat="43.695068" lon="11.0447514"><ele>166.0</ele><time>2026-05-03T09:02:03.033Z</time></trkpt><trkpt lat="43.6950225" lon="11.0446588"><ele>165.0</ele><time>2026-05-03T09:02:05.024Z</time></trkpt><trkpt lat="43.694979" lon="11.044534"><ele>164.0</ele><time>2026-05-03T09:02:07.025Z</time></trkpt><trkpt lat="43.6949369" lon="11.0444113"><ele>164.0</ele><time>2026-05-03T09:02:09.028Z</time></trkpt><trkpt lat="43.6948881" lon="11.0442968"><ele>164.0</ele><time>2026-05-03T09:02:11.028Z</time></trkpt><trkpt lat="43.6948404" lon="11.0441644"><ele>164.0</ele><time>2026-05-03T09:02:13.023Z</time></trkpt><trkpt lat="43.6948156" lon="11.044042"><ele>164.0</ele><time>2026-05-03T09:02:15.03Z</time></trkpt><trkpt lat="43.6948089" lon="11.0439441"><ele>164.0</ele><time>2026-05-03T09:02:17.033Z</time></trkpt><trkpt lat="43.6948338" lon="11.0438251"><ele>163.0</ele><time>2026-05-03T09:02:20.034Z</time></trkpt><trkpt lat="43.694853" lon="11.0437405"><ele>162.0</ele><time>2026-05-03T09:02:22.023Z</time></trkpt><trkpt lat="43.694888" lon="11.0436642"><ele>161.0</ele><time>2026-05-03T09:02:24.032Z</time></trkpt><trkpt lat="43.694964" lon="11.0435843"><ele>160.0</ele><time>2026-05-03T09:02:26.031Z</time></trkpt><trkpt lat="43.6950571" lon="11.0435037"><ele>159.0</ele><time>2026-05-03T09:02:28.022Z</time></trkpt><trkpt lat="43.6951393" lon="11.0434406"><ele>158.0</ele><time>2026-05-03T09:02:30.042Z</time></trkpt><trkpt lat="43.6952223" lon="11.0433697"><ele>158.83333333333331</ele><time>2026-05-03T09:02:32.026Z</time></trkpt><trkpt lat="43.695283" lon="11.0433223"><ele>159.66666666666666</ele><time>2026-05-03T09:02:34.043Z</time></trkpt><trkpt lat="43.6953502" lon="11.0432858"><ele>160.5</ele><time>2026-05-03T09:02:36.034Z</time></trkpt><trkpt lat="43.6954169" lon="11.0432792"><ele>161.33333333333334</ele><time>2026-05-03T09:02:38.028Z</time></trkpt><trkpt lat="43.6955121" lon="11.0433374"><ele>162.16666666666669</ele><time>2026-05-03T09:02:41.027Z</time></trkpt><trkpt lat="43.6955743" lon="11.0433834"><ele>163.0</ele><time>2026-05-03T09:02:43.036Z</time></trkpt><trkpt lat="43.6956344" lon="11.0433189"><ele>160.66666666666669</ele><time>2026-05-03T09:03:44.027Z</time></trkpt><trkpt lat="43.6956573" lon="11.0432118"><ele>158.33333333333334</ele><time>2026-05-03T09:03:46.029Z</time></trkpt><trkpt lat="43.6956616" lon="11.0431072"><ele>156.0</ele><time>2026-05-03T09:03:48.03Z</time></trkpt><trkpt lat="43.6956674" lon="11.0429913"><ele>153.66666666666666</ele><time>2026-05-03T09:03:51.025Z</time></trkpt><trkpt lat="43.6957212" lon="11.0429191"><ele>151.33333333333331</ele><time>2026-05-03T09:03:54.026Z</time></trkpt><trkpt lat="43.6957897" lon="11.0428865"><ele>149.0</ele><time>2026-05-03T09:03:57.023Z</time></trkpt><trkpt lat="43.6958619" lon="11.0428462"><ele>149.0</ele><time>2026-05-03T09:04:10.028Z</time></trkpt><trkpt lat="43.6959292" lon="11.042831"><ele>149.0</ele><time>2026-05-03T09:04:12.025Z</time></trkpt><trkpt lat="43.6959956" lon="11.0428086"><ele>149.0</ele><time>2026-05-03T09:04:14.026Z</time></trkpt><trkpt lat="43.6960616" lon="11.0427926"><ele>149.0</ele><time>2026-05-03T09:04:16.021Z</time></trkpt><trkpt lat="43.6961235" lon="11.0427727"><ele>149.0</ele><time>2026-05-03T09:04:18.027Z</time></trkpt><trkpt lat="43.6962064" lon="11.0427562"><ele>149.0</ele><time>2026-05-03T09:04:21.029Z</time></trkpt><trkpt lat="43.6961895" lon="11.0426648"><ele>149.0</ele><time>2026-05-03T09:04:25.028Z</time></trkpt><trkpt lat="43.6961495" lon="11.0425969"><ele>148.33333333333331</ele><time>2026-05-03T09:04:27.03Z</time></trkpt><trkpt lat="43.6961037" lon="11.0425268"><ele>147.66666666666666</ele><time>2026-05-03T09:04:29.026Z</time></trkpt><trkpt lat="43.6960551" lon="11.0424466"><ele>147.0</ele><time>2026-05-03T09:04:31.039Z</time></trkpt><trkpt lat="43.6960142" lon="11.0423794"><ele>146.33333333333334</ele><time>2026-05-03T09:04:33.025Z</time></trkpt><trkpt lat="43.695982" lon="11.0422764"><ele>145.66666666666669</ele><time>2026-05-03T09:04:36.03Z</time></trkpt><trkpt lat="43.6959195" lon="11.0422079"><ele>145.0</ele><time>2026-05-03T09:04:41.025Z</time></trkpt><trkpt lat="43.69583" lon="11.0422142"><ele>143.33333333333334</ele><time>2026-05-03T09:04:44.022Z</time></trkpt><trkpt lat="43.6957431" lon="11.0422522"><ele>141.66666666666669</ele><time>2026-05-03T09:04:47.023Z</time></trkpt><trkpt lat="43.6956566" lon="11.0422525"><ele>140.0</ele><time>2026-05-03T09:04:50.023Z</time></trkpt><trkpt lat="43.695584" lon="11.0422322"><ele>138.33333333333334</ele><time>2026-05-03T09:04:53.022Z</time></trkpt><trkpt lat="43.6955165" lon="11.0422651"><ele>136.66666666666666</ele><time>2026-05-03T09:04:56.027Z</time></trkpt><trkpt lat="43.6954361" lon="11.0423085"><ele>135.0</ele><time>2026-05-03T09:04:59.025Z</time></trkpt><trkpt lat="43.6953816" lon="11.0423816"><ele>135.0</ele><time>2026-05-03T09:05:02.026Z</time></trkpt><trkpt lat="43.6953228" lon="11.0424316"><ele>135.0</ele><time>2026-05-03T09:05:05.032Z</time></trkpt><trkpt lat="43.6952383" lon="11.0424788"><ele>135.0</ele><time>2026-05-03T09:05:08.028Z</time></trkpt><trkpt lat="43.6951555" lon="11.0424975"><ele>135.0</ele><time>2026-05-03T09:05:17.029Z</time></trkpt><trkpt lat="43.6951328" lon="11.0425917"><ele>135.0</ele><time>2026-05-03T09:05:45.027Z</time></trkpt><trkpt lat="43.6951872" lon="11.0426546"><ele>135.0</ele><time>2026-05-03T09:16:45.019Z</time></trkpt><trkpt lat="43.6952487" lon="11.042688"><ele>136.83333333333334</ele><time>2026-05-03T09:16:48.026Z</time></trkpt><trkpt lat="43.6952667" lon="11.0427907"><ele>138.66666666666666</ele><time>2026-05-03T09:17:24.032Z</time></trkpt><trkpt lat="43.6952554" lon="11.0428957"><ele>140.5</ele><time>2026-05-03T09:17:26.014Z</time></trkpt><trkpt lat="43.6952352" lon="11.0429937"><ele>142.33333333333331</ele><time>2026-05-03T09:17:28.016Z</time></trkpt><trkpt lat="43.6952168" lon="11.0431252"><ele>144.16666666666666</ele><time>2026-05-03T09:17:31.025Z</time></trkpt><trkpt lat="43.6951909" lon="11.0432389"><ele>146.0</ele><time>2026-05-03T09:17:33.054Z</time></trkpt><trkpt lat="43.6951723" lon="11.0433541"><ele>148.0</ele><time>2026-05-03T09:17:35.022Z</time></trkpt><trkpt lat="43.6951509" lon="11.0434366"><ele>150.0</ele><time>2026-05-03T09:17:37.022Z</time></trkpt><trkpt lat="43.6951064" lon="11.0434995"><ele>152.0</ele><time>2026-05-03T09:17:39.017Z</time></trkpt><trkpt lat="43.6950224" lon="11.0435829"><ele>154.0</ele><time>2026-05-03T09:17:41.019Z</time></trkpt><trkpt lat="43.6949506" lon="11.0436446"><ele>156.0</ele><time>2026-05-03T09:17:43.02Z</time></trkpt><trkpt lat="43.6948944" lon="11.0437125"><ele>158.0</ele><time>2026-05-03T09:17:46.02Z</time></trkpt><trkpt lat="43.6948646" lon="11.0437893"><ele>158.0</ele><time>2026-05-03T09:18:29.022Z</time></trkpt><trkpt lat="43.694831" lon="11.0439014"><ele>158.0</ele><time>2026-05-03T09:18:31.012Z</time></trkpt><trkpt lat="43.6948357" lon="11.0440208"><ele>158.0</ele><time>2026-05-03T09:18:33.024Z</time></trkpt><trkpt lat="43.694864" lon="11.0441651"><ele>158.0</ele><time>2026-05-03T09:18:35.02Z</time></trkpt><trkpt lat="43.6949294" lon="11.0443069"><ele>158.0</ele><time>2026-05-03T09:18:37.016Z</time></trkpt><trkpt lat="43.6949645" lon="11.0443825"><ele>158.8</ele><time>2026-05-03T09:18:38.023Z</time></trkpt><trkpt lat="43.6950277" lon="11.044529"><ele>159.60000000000002</ele><time>2026-05-03T09:18:40.018Z</time></trkpt><trkpt lat="43.6950727" lon="11.0446689"><ele>160.39999999999998</ele><time>2026-05-03T09:18:42.026Z</time></trkpt><trkpt lat="43.6951206" lon="11.0447726"><ele>161.2</ele><time>2026-05-03T09:18:44.016Z</time></trkpt><trkpt lat="43.695187" lon="11.0448902"><ele>162.0</ele><time>2026-05-03T09:18:46.014Z</time></trkpt><trkpt lat="43.6952479" lon="11.0450108"><ele>164.0</ele><time>2026-05-03T09:18:48.014Z</time></trkpt><trkpt lat="43.6953004" lon="11.0451479"><ele>166.0</ele><time>2026-05-03T09:18:50.016Z</time></trkpt><trkpt lat="43.6953649" lon="11.0452937"><ele>168.0</ele><time>2026-05-03T09:18:52.024Z</time></trkpt><trkpt lat="43.6954122" lon="11.0454338"><ele>170.0</ele><time>2026-05-03T09:18:54.021Z</time></trkpt><trkpt lat="43.6954454" lon="11.0455755"><ele>170.0</ele><time>2026-05-03T09:18:56.029Z</time></trkpt><trkpt lat="43.6954669" lon="11.0456657"><ele>170.0</ele><time>2026-05-03T09:18:57.022Z</time></trkpt><trkpt lat="43.6954833" lon="11.0457565"><ele>170.0</ele><time>2026-05-03T09:18:58.026Z</time></trkpt><trkpt lat="43.6955023" lon="11.0458534"><ele>170.0</ele><time>2026-05-03T09:18:59.017Z</time></trkpt><trkpt lat="43.6955333" lon="11.0459894"><ele>170.0</ele><time>2026-05-03T09:19:01.026Z</time></trkpt><trkpt lat="43.695547" lon="11.0460974"><ele>170.0</ele><time>2026-05-03T09:19:03.02Z</time></trkpt><trkpt lat="43.6955359" lon="11.0462008"><ele>170.25</ele><time>2026-05-03T09:19:05.021Z</time></trkpt><trkpt lat="43.6954683" lon="11.0463476"><ele>170.5</ele><time>2026-05-03T09:19:07.017Z</time></trkpt><trkpt lat="43.6954126" lon="11.0464571"><ele>170.75</ele><time>2026-05-03T09:19:08.017Z</time></trkpt><trkpt lat="43.6953561" lon="11.0465953"><ele>171.0</ele><time>2026-05-03T09:19:09.027Z</time></trkpt><trkpt lat="43.6952927" lon="11.0467375"><ele>168.66666666666666</ele><time>2026-05-03T09:19:10.017Z</time></trkpt><trkpt lat="43.6951562" lon="11.0470317"><ele>166.33333333333331</ele><time>2026-05-03T09:19:12.021Z</time></trkpt><trkpt lat="43.6950999" lon="11.0471975"><ele>164.0</ele><time>2026-05-03T09:19:13.019Z</time></trkpt><trkpt lat="43.6950417" lon="11.0473624"><ele>166.25</ele><time>2026-05-03T09:19:14.021Z</time></trkpt><trkpt lat="43.6949966" lon="11.0475337"><ele>168.5</ele><time>2026-05-03T09:19:15.014Z</time></trkpt><trkpt lat="43.6949494" lon="11.0477008"><ele>170.75</ele><time>2026-05-03T09:19:16.027Z</time></trkpt><trkpt lat="43.6949024" lon="11.0478576"><ele>173.0</ele><time>2026-05-03T09:19:17.02Z</time></trkpt><trkpt lat="43.6948559" lon="11.0480088"><ele>173.0</ele><time>2026-05-03T09:19:18.021Z</time></trkpt><trkpt lat="43.6948112" lon="11.0481566"><ele>173.0</ele><time>2026-05-03T09:19:19.018Z</time></trkpt><trkpt lat="43.694765" lon="11.0482953"><ele>173.0</ele><time>2026-05-03T09:19:20.022Z</time></trkpt><trkpt lat="43.6947247" lon="11.0484277"><ele>173.0</ele><time>2026-05-03T09:19:21.014Z</time></trkpt><trkpt lat="43.694672" lon="11.0485407"><ele>173.0</ele><time>2026-05-03T09:19:22.018Z</time></trkpt><trkpt lat="43.6946082" lon="11.0486473"><ele>172.60000000000002</ele><time>2026-05-03T09:19:23.012Z</time></trkpt><trkpt lat="43.6945384" lon="11.0487536"><ele>172.20000000000002</ele><time>2026-05-03T09:19:24.019Z</time></trkpt><trkpt lat="43.6944755" lon="11.0488723"><ele>171.8</ele><time>2026-05-03T09:19:25.021Z</time></trkpt><trkpt lat="43.6944057" lon="11.0489921"><ele>171.4</ele><time>2026-05-03T09:19:26.011Z</time></trkpt><trkpt lat="43.6943316" lon="11.0491132"><ele>171.0</ele><time>2026-05-03T09:19:27.017Z</time></trkpt><trkpt lat="43.6942525" lon="11.049215"><ele>173.33333333333334</ele><time>2026-05-03T09:19:28.031Z</time></trkpt><trkpt lat="43.6942085" lon="11.0493283"><ele>175.66666666666666</ele><time>2026-05-03T09:19:29.015Z</time></trkpt><trkpt lat="43.6941636" lon="11.0494276"><ele>178.0</ele><time>2026-05-03T09:19:30.02Z</time></trkpt><trkpt lat="43.6941193" lon="11.04951"><ele>180.33333333333331</ele><time>2026-05-03T09:19:31.015Z</time></trkpt><trkpt lat="43.6940457" lon="11.0496483"><ele>182.66666666666666</ele><time>2026-05-03T09:19:33.024Z</time></trkpt><trkpt lat="43.6939973" lon="11.0497183"><ele>185.0</ele><time>2026-05-03T09:19:34.016Z</time></trkpt><trkpt lat="43.6939302" lon="11.0497812"><ele>185.0</ele><time>2026-05-03T09:19:35.02Z</time></trkpt><trkpt lat="43.6938408" lon="11.0498311"><ele>185.0</ele><time>2026-05-03T09:19:36.023Z</time></trkpt><trkpt lat="43.6937232" lon="11.0498915"><ele>185.0</ele><time>2026-05-03T09:19:37.023Z</time></trkpt><trkpt lat="43.6935744" lon="11.049942"><ele>185.0</ele><time>2026-05-03T09:19:38.025Z</time></trkpt><trkpt lat="43.6934183" lon="11.0499978"><ele>185.0</ele><time>2026-05-03T09:19:39.022Z</time></trkpt><trkpt lat="43.6932684" lon="11.0500418"><ele>185.0</ele><time>2026-05-03T09:19:40.027Z</time></trkpt><trkpt lat="43.6931232" lon="11.0500655"><ele>185.0</ele><time>2026-05-03T09:19:41.018Z</time></trkpt><trkpt lat="43.6929792" lon="11.0500642"><ele>185.0</ele><time>2026-05-03T09:19:42.019Z</time></trkpt><trkpt lat="43.6928383" lon="11.0500434"><ele>185.75</ele><time>2026-05-03T09:19:43.015Z</time></trkpt><trkpt lat="43.6926979" lon="11.0500096"><ele>186.5</ele><time>2026-05-03T09:19:44.021Z</time></trkpt><trkpt lat="43.6925632" lon="11.0499762"><ele>187.25</ele><time>2026-05-03T09:19:45.017Z</time></trkpt><trkpt lat="43.69244" lon="11.0499409"><ele>188.0</ele><time>2026-05-03T09:19:46.024Z</time></trkpt><trkpt lat="43.6923255" lon="11.0499047"><ele>188.2</ele><time>2026-05-03T09:19:47.017Z</time></trkpt><trkpt lat="43.6922199" lon="11.0498696"><ele>188.4</ele><time>2026-05-03T09:19:48.018Z</time></trkpt><trkpt lat="43.6921247" lon="11.0498229"><ele>188.6</ele><time>2026-05-03T09:19:49.026Z</time></trkpt><trkpt lat="43.6920338" lon="11.0497599"><ele>188.79999999999998</ele><time>2026-05-03T09:19:50.02Z</time></trkpt><trkpt lat="43.6919454" lon="11.0496793"><ele>189.0</ele><time>2026-05-03T09:19:51.013Z</time></trkpt><trkpt lat="43.691847" lon="11.0496013"><ele>189.0</ele><time>2026-05-03T09:19:52.02Z</time></trkpt><trkpt lat="43.6917571" lon="11.0495029"><ele>189.0</ele><time>2026-05-03T09:19:53.015Z</time></trkpt><trkpt lat="43.6916682" lon="11.0494116"><ele>189.0</ele><time>2026-05-03T09:19:54.019Z</time></trkpt><trkpt lat="43.6915846" lon="11.0493224"><ele>189.0</ele><time>2026-05-03T09:19:55.023Z</time></trkpt><trkpt lat="43.6915007" lon="11.0492436"><ele>189.0</ele><time>2026-05-03T09:19:56.028Z</time></trkpt><trkpt lat="43.6914205" lon="11.0491604"><ele>188.6</ele><time>2026-05-03T09:19:57.026Z</time></trkpt><trkpt lat="43.6913359" lon="11.0490884"><ele>188.2</ele><time>2026-05-03T09:19:58.023Z</time></trkpt><trkpt lat="43.6912455" lon="11.0490321"><ele>187.79999999999998</ele><time>2026-05-03T09:19:59.018Z</time></trkpt><trkpt lat="43.691147" lon="11.0490053"><ele>187.39999999999998</ele><time>2026-05-03T09:20:00.027Z</time></trkpt><trkpt lat="43.6910507" lon="11.0489772"><ele>187.0</ele><time>2026-05-03T09:20:01.021Z</time></trkpt><trkpt lat="43.6909628" lon="11.0489343"><ele>187.0</ele><time>2026-05-03T09:20:02.016Z</time></trkpt><trkpt lat="43.69088" lon="11.0488767"><ele>187.0</ele><time>2026-05-03T09:20:03.02Z</time></trkpt><trkpt lat="43.6907932" lon="11.0488119"><ele>187.0</ele><time>2026-05-03T09:20:04.021Z</time></trkpt><trkpt lat="43.6906995" lon="11.048746"><ele>187.0</ele><time>2026-05-03T09:20:05.016Z</time></trkpt><trkpt lat="43.6906026" lon="11.0486714"><ele>187.0</ele><time>2026-05-03T09:20:06.018Z</time></trkpt><trkpt lat="43.6905116" lon="11.0485873"><ele>187.0</ele><time>2026-05-03T09:20:07.034Z</time></trkpt><trkpt lat="43.6904307" lon="11.04849"><ele>187.0</ele><time>2026-05-03T09:20:08.02Z</time></trkpt><trkpt lat="43.6903543" lon="11.0483892"><ele>187.0</ele><time>2026-05-03T09:20:09.02Z</time></trkpt><trkpt lat="43.6902879" lon="11.0482791"><ele>187.0</ele><time>2026-05-03T09:20:10.017Z</time></trkpt><trkpt lat="43.6902185" lon="11.048194"><ele>187.0</ele><time>2026-05-03T09:20:11.016Z</time></trkpt><trkpt lat="43.6901542" lon="11.0481067"><ele>188.2</ele><time>2026-05-03T09:20:12.034Z</time></trkpt><trkpt lat="43.6900949" lon="11.0480066"><ele>189.39999999999998</ele><time>2026-05-03T09:20:13.027Z</time></trkpt><trkpt lat="43.690022" lon="11.0479336"><ele>190.60000000000002</ele><time>2026-05-03T09:20:14.025Z</time></trkpt><trkpt lat="43.6899355" lon="11.0478689"><ele>191.8</ele><time>2026-05-03T09:20:15.016Z</time></trkpt><trkpt lat="43.6898253" lon="11.0478369"><ele>193.0</ele><time>2026-05-03T09:20:16.025Z</time></trkpt><trkpt lat="43.6897056" lon="11.0478042"><ele>193.0</ele><time>2026-05-03T09:20:17.02Z</time></trkpt><trkpt lat="43.6895796" lon="11.0477671"><ele>193.0</ele><time>2026-05-03T09:20:18.014Z</time></trkpt><trkpt lat="43.6894492" lon="11.047717"><ele>193.0</ele><time>2026-05-03T09:20:19.027Z</time></trkpt><trkpt lat="43.6893112" lon="11.0476722"><ele>193.0</ele><time>2026-05-03T09:20:20.02Z</time></trkpt><trkpt lat="43.6891702" lon="11.0476288"><ele>193.25</ele><time>2026-05-03T09:20:21.013Z</time></trkpt><trkpt lat="43.6890299" lon="11.0475825"><ele>193.5</ele><time>2026-05-03T09:20:22.036Z</time></trkpt><trkpt lat="43.6888905" lon="11.047537"><ele>193.75</ele><time>2026-05-03T09:20:23.028Z</time></trkpt><trkpt lat="43.6887511" lon="11.0474934"><ele>194.0</ele><time>2026-05-03T09:20:24.024Z</time></trkpt><trkpt lat="43.6886137" lon="11.0474483"><ele>192.5</ele><time>2026-05-03T09:20:25.016Z</time></trkpt><trkpt lat="43.6884839" lon="11.0474057"><ele>191.0</ele><time>2026-05-03T09:20:26.019Z</time></trkpt><trkpt lat="43.6883589" lon="11.0473649"><ele>189.5</ele><time>2026-05-03T09:20:27.025Z</time></trkpt><trkpt lat="43.6882358" lon="11.0473213"><ele>188.0</ele><time>2026-05-03T09:20:28.018Z</time></trkpt><trkpt lat="43.6881182" lon="11.0472827"><ele>188.0</ele><time>2026-05-03T09:20:29.02Z</time></trkpt><trkpt lat="43.6880073" lon="11.0472517"><ele>188.0</ele><time>2026-05-03T09:20:30.018Z</time></trkpt><trkpt lat="43.6879019" lon="11.0471931"><ele>188.0</ele><time>2026-05-03T09:20:31.021Z</time></trkpt><trkpt lat="43.6878069" lon="11.0471538"><ele>188.0</ele><time>2026-05-03T09:20:32.017Z</time></trkpt><trkpt lat="43.687711" lon="11.0471404"><ele>188.0</ele><time>2026-05-03T09:20:33.034Z</time></trkpt><trkpt lat="43.6876079" lon="11.0471412"><ele>189.4</ele><time>2026-05-03T09:20:34.02Z</time></trkpt><trkpt lat="43.6875142" lon="11.047147"><ele>190.8</ele><time>2026-05-03T09:20:35.028Z</time></trkpt><trkpt lat="43.6874276" lon="11.0471695"><ele>192.2</ele><time>2026-05-03T09:20:36.017Z</time></trkpt><trkpt lat="43.6873362" lon="11.0471769"><ele>193.6</ele><time>2026-05-03T09:20:37.013Z</time></trkpt><trkpt lat="43.6872338" lon="11.0471885"><ele>195.0</ele><time>2026-05-03T09:20:38.025Z</time></trkpt><trkpt lat="43.6871391" lon="11.0471959"><ele>195.0</ele><time>2026-05-03T09:20:39.017Z</time></trkpt><trkpt lat="43.6870554" lon="11.0472167"><ele>195.0</ele><time>2026-05-03T09:20:40.025Z</time></trkpt><trkpt lat="43.6869845" lon="11.0472984"><ele>195.0</ele><time>2026-05-03T09:20:41.022Z</time></trkpt><trkpt lat="43.6868966" lon="11.0473908"><ele>195.0</ele><time>2026-05-03T09:20:42.018Z</time></trkpt><trkpt lat="43.6868125" lon="11.047492"><ele>195.0</ele><time>2026-05-03T09:20:43.021Z</time></trkpt><trkpt lat="43.6867244" lon="11.0475938"><ele>197.2</ele><time>2026-05-03T09:20:44.022Z</time></trkpt><trkpt lat="43.6866318" lon="11.0476953"><ele>199.4</ele><time>2026-05-03T09:20:45.027Z</time></trkpt><trkpt lat="43.686544" lon="11.0478018"><ele>201.60000000000002</ele><time>2026-05-03T09:20:46.023Z</time></trkpt><trkpt lat="43.6864633" lon="11.0478961"><ele>203.8</ele><time>2026-05-03T09:20:47.033Z</time></trkpt><trkpt lat="43.6863941" lon="11.0479687"><ele>206.0</ele><time>2026-05-03T09:20:48.024Z</time></trkpt><trkpt lat="43.6863196" lon="11.0480032"><ele>206.0</ele><time>2026-05-03T09:20:49.02Z</time></trkpt><trkpt lat="43.6862305" lon="11.0480289"><ele>206.0</ele><time>2026-05-03T09:20:50.017Z</time></trkpt><trkpt lat="43.6861153" lon="11.0480388"><ele>206.0</ele><time>2026-05-03T09:20:51.024Z</time></trkpt><trkpt lat="43.6859794" lon="11.048041"><ele>206.0</ele><time>2026-05-03T09:20:52.016Z</time></trkpt><trkpt lat="43.6858329" lon="11.0480378"><ele>206.5</ele><time>2026-05-03T09:20:53.025Z</time></trkpt><trkpt lat="43.6856861" lon="11.0480422"><ele>207.0</ele><time>2026-05-03T09:20:54.021Z</time></trkpt><trkpt lat="43.6855388" lon="11.0480498"><ele>207.5</ele><time>2026-05-03T09:20:55.024Z</time></trkpt><trkpt lat="43.685394" lon="11.0480468"><ele>208.0</ele><time>2026-05-03T09:20:56.015Z</time></trkpt><trkpt lat="43.685254" lon="11.0480378"><ele>208.0</ele><time>2026-05-03T09:20:57.025Z</time></trkpt><trkpt lat="43.6851211" lon="11.0480277"><ele>208.0</ele><time>2026-05-03T09:20:58.018Z</time></trkpt><trkpt lat="43.6849949" lon="11.0480274"><ele>208.0</ele><time>2026-05-03T09:20:59.024Z</time></trkpt><trkpt lat="43.6848739" lon="11.0480405"><ele>208.0</ele><time>2026-05-03T09:21:00.018Z</time></trkpt><trkpt lat="43.6847577" lon="11.0480639"><ele>208.0</ele><time>2026-05-03T09:21:01.015Z</time></trkpt><trkpt lat="43.6846456" lon="11.0480801"><ele>208.0</ele><time>2026-05-03T09:21:02.021Z</time></trkpt><trkpt lat="43.6845433" lon="11.0481001"><ele>208.0</ele><time>2026-05-03T09:21:03.026Z</time></trkpt><trkpt lat="43.6844408" lon="11.0481235"><ele>208.0</ele><time>2026-05-03T09:21:04.014Z</time></trkpt><trkpt lat="43.6843308" lon="11.04814"><ele>208.0</ele><time>2026-05-03T09:21:05.028Z</time></trkpt><trkpt lat="43.6842142" lon="11.0481398"><ele>205.25</ele><time>2026-05-03T09:21:06.024Z</time></trkpt><trkpt lat="43.6840963" lon="11.0481215"><ele>202.5</ele><time>2026-05-03T09:21:07.017Z</time></trkpt><trkpt lat="43.6839794" lon="11.0481063"><ele>199.75</ele><time>2026-05-03T09:21:08.018Z</time></trkpt><trkpt lat="43.6838626" lon="11.0481106"><ele>197.0</ele><time>2026-05-03T09:21:09.018Z</time></trkpt><trkpt lat="43.6837446" lon="11.048124"><ele>197.0</ele><time>2026-05-03T09:21:10.017Z</time></trkpt><trkpt lat="43.6836283" lon="11.0481437"><ele>197.0</ele><time>2026-05-03T09:21:11.023Z</time></trkpt><trkpt lat="43.6835138" lon="11.0481746"><ele>197.0</ele><time>2026-05-03T09:21:12.019Z</time></trkpt><trkpt lat="43.6834048" lon="11.0482239"><ele>197.0</ele><time>2026-05-03T09:21:13.017Z</time></trkpt><trkpt lat="43.6833043" lon="11.048291"><ele>198.6</ele><time>2026-05-03T09:21:14.023Z</time></trkpt><trkpt lat="43.6832152" lon="11.0483785"><ele>200.2</ele><time>2026-05-03T09:21:15.027Z</time></trkpt><trkpt lat="43.6831332" lon="11.0484647"><ele>201.8</ele><time>2026-05-03T09:21:16.022Z</time></trkpt><trkpt lat="43.6830471" lon="11.0485161"><ele>203.4</ele><time>2026-05-03T09:21:17.021Z</time></trkpt><trkpt lat="43.6829565" lon="11.0485361"><ele>205.0</ele><time>2026-05-03T09:21:18.011Z</time></trkpt><trkpt lat="43.6828653" lon="11.0485283"><ele>205.0</ele><time>2026-05-03T09:21:19.016Z</time></trkpt><trkpt lat="43.6827694" lon="11.048484"><ele>205.0</ele><time>2026-05-03T09:21:20.016Z</time></trkpt><trkpt lat="43.6826566" lon="11.0484435"><ele>205.0</ele><time>2026-05-03T09:21:21.01Z</time></trkpt><trkpt lat="43.6825261" lon="11.0484558"><ele>205.0</ele><time>2026-05-03T09:21:22.017Z</time></trkpt><trkpt lat="43.6823864" lon="11.0484879"><ele>207.33333333333331</ele><time>2026-05-03T09:21:23.016Z</time></trkpt><trkpt lat="43.6822394" lon="11.0485105"><ele>209.66666666666669</ele><time>2026-05-03T09:21:24.023Z</time></trkpt><trkpt lat="43.6820884" lon="11.0485209"><ele>212.0</ele><time>2026-05-03T09:21:25.015Z</time></trkpt><trkpt lat="43.6819368" lon="11.0485303"><ele>213.25</ele><time>2026-05-03T09:21:26.019Z</time></trkpt><trkpt lat="43.6817871" lon="11.0485431"><ele>214.5</ele><time>2026-05-03T09:21:27.023Z</time></trkpt><trkpt lat="43.6816439" lon="11.0485606"><ele>215.75</ele><time>2026-05-03T09:21:28.021Z</time></trkpt><trkpt lat="43.6815093" lon="11.0485984"><ele>217.0</ele><time>2026-05-03T09:21:29.022Z</time></trkpt><trkpt lat="43.6813801" lon="11.0486352"><ele>217.0</ele><time>2026-05-03T09:21:30.014Z</time></trkpt><trkpt lat="43.6812539" lon="11.0486657"><ele>217.0</ele><time>2026-05-03T09:21:31.021Z</time></trkpt><trkpt lat="43.6811253" lon="11.0486807"><ele>217.0</ele><time>2026-05-03T09:21:32.014Z</time></trkpt><trkpt lat="43.6809963" lon="11.0486983"><ele>217.0</ele><time>2026-05-03T09:21:33.028Z</time></trkpt><trkpt lat="43.6808748" lon="11.0487156"><ele>218.2</ele><time>2026-05-03T09:21:34.017Z</time></trkpt><trkpt lat="43.6807673" lon="11.0487264"><ele>219.39999999999998</ele><time>2026-05-03T09:21:35.017Z</time></trkpt><trkpt lat="43.6806647" lon="11.048744"><ele>220.60000000000002</ele><time>2026-05-03T09:21:36.028Z</time></trkpt><trkpt lat="43.6805589" lon="11.0487693"><ele>221.8</ele><time>2026-05-03T09:21:37.015Z</time></trkpt><trkpt lat="43.6804554" lon="11.0488148"><ele>223.0</ele><time>2026-05-03T09:21:38.021Z</time></trkpt><trkpt lat="43.6803479" lon="11.0488513"><ele>223.8</ele><time>2026-05-03T09:21:39.014Z</time></trkpt><trkpt lat="43.6802583" lon="11.0489199"><ele>224.60000000000002</ele><time>2026-05-03T09:21:40.016Z</time></trkpt><trkpt lat="43.6801729" lon="11.0489974"><ele>225.39999999999998</ele><time>2026-05-03T09:21:41.025Z</time></trkpt><trkpt lat="43.6800887" lon="11.0490799"><ele>226.2</ele><time>2026-05-03T09:21:42.024Z</time></trkpt><trkpt lat="43.6800105" lon="11.0491517"><ele>227.0</ele><time>2026-05-03T09:21:43.022Z</time></trkpt><trkpt lat="43.6799328" lon="11.0492063"><ele>228.50000000000003</ele><time>2026-05-03T09:21:44.013Z</time></trkpt><trkpt lat="43.6798514" lon="11.0492439"><ele>230.0</ele><time>2026-05-03T09:21:45.02Z</time></trkpt><trkpt lat="43.6797796" lon="11.0492659"><ele>231.5</ele><time>2026-05-03T09:21:46.024Z</time></trkpt><trkpt lat="43.6797179" lon="11.0493091"><ele>233.0</ele><time>2026-05-03T09:21:47.022Z</time></trkpt><trkpt lat="43.679649" lon="11.0493712"><ele>234.50000000000003</ele><time>2026-05-03T09:21:48.022Z</time></trkpt><trkpt lat="43.6795828" lon="11.0494631"><ele>236.0</ele><time>2026-05-03T09:21:49.013Z</time></trkpt><trkpt lat="43.6795226" lon="11.049572"><ele>236.0</ele><time>2026-05-03T09:21:50.031Z</time></trkpt><trkpt lat="43.6794651" lon="11.0496709"><ele>236.00000000000003</ele><time>2026-05-03T09:21:51.016Z</time></trkpt><trkpt lat="43.679405" lon="11.0497655"><ele>236.00000000000003</ele><time>2026-05-03T09:21:52.017Z</time></trkpt><trkpt lat="43.6793411" lon="11.0498637"><ele>236.0</ele><time>2026-05-03T09:21:53.017Z</time></trkpt><trkpt lat="43.6792719" lon="11.0499586"><ele>236.0</ele><time>2026-05-03T09:21:54.016Z</time></trkpt><trkpt lat="43.6791904" lon="11.0500327"><ele>237.60000000000002</ele><time>2026-05-03T09:21:55.012Z</time></trkpt><trkpt lat="43.6791294" lon="11.0501254"><ele>239.20000000000002</ele><time>2026-05-03T09:21:56.011Z</time></trkpt><trkpt lat="43.6790619" lon="11.050211"><ele>240.79999999999998</ele><time>2026-05-03T09:21:57.025Z</time></trkpt><trkpt lat="43.6789997" lon="11.0503143"><ele>242.39999999999998</ele><time>2026-05-03T09:21:58.017Z</time></trkpt><trkpt lat="43.6789497" lon="11.0504423"><ele>244.0</ele><time>2026-05-03T09:21:59.021Z</time></trkpt><trkpt lat="43.6788955" lon="11.0505703"><ele>244.0</ele><time>2026-05-03T09:22:00.029Z</time></trkpt><trkpt lat="43.678839" lon="11.050697"><ele>243.99999999999997</ele><time>2026-05-03T09:22:01.012Z</time></trkpt><trkpt lat="43.6787851" lon="11.0508113"><ele>243.99999999999997</ele><time>2026-05-03T09:22:02.016Z</time></trkpt><trkpt lat="43.6787397" lon="11.0509298"><ele>244.0</ele><time>2026-05-03T09:22:03.01Z</time></trkpt><trkpt lat="43.6786964" lon="11.0510407"><ele>244.0</ele><time>2026-05-03T09:22:04.009Z</time></trkpt><trkpt lat="43.6786655" lon="11.0511499"><ele>244.39999999999998</ele><time>2026-05-03T09:22:05.019Z</time></trkpt><trkpt lat="43.6786329" lon="11.0512744"><ele>244.79999999999998</ele><time>2026-05-03T09:22:06.025Z</time></trkpt><trkpt lat="43.6786025" lon="11.0514041"><ele>245.20000000000002</ele><time>2026-05-03T09:22:07.013Z</time></trkpt><trkpt lat="43.6785814" lon="11.0515276"><ele>245.60000000000002</ele><time>2026-05-03T09:22:08.014Z</time></trkpt><trkpt lat="43.6785494" lon="11.0516491"><ele>246.0</ele><time>2026-05-03T09:22:09.011Z</time></trkpt><trkpt lat="43.6785028" lon="11.0517753"><ele>245.20000000000002</ele><time>2026-05-03T09:22:10.015Z</time></trkpt><trkpt lat="43.6784468" lon="11.0518976"><ele>244.40000000000003</ele><time>2026-05-03T09:22:11.024Z</time></trkpt><trkpt lat="43.6783894" lon="11.0520353"><ele>243.6</ele><time>2026-05-03T09:22:12.018Z</time></trkpt><trkpt lat="43.6783333" lon="11.052168"><ele>242.8</ele><time>2026-05-03T09:22:13.011Z</time></trkpt><trkpt lat="43.6782732" lon="11.0522953"><ele>242.0</ele><time>2026-05-03T09:22:14.022Z</time></trkpt><trkpt lat="43.6782112" lon="11.052417"><ele>241.0</ele><time>2026-05-03T09:22:15.017Z</time></trkpt><trkpt lat="43.6781463" lon="11.0525354"><ele>240.0</ele><time>2026-05-03T09:22:16.021Z</time></trkpt><trkpt lat="43.6780709" lon="11.052652"><ele>239.0</ele><time>2026-05-03T09:22:17.017Z</time></trkpt><trkpt lat="43.677992" lon="11.0527713"><ele>238.0</ele><time>2026-05-03T09:22:18.018Z</time></trkpt><trkpt lat="43.6779128" lon="11.0528764"><ele>237.0</ele><time>2026-05-03T09:22:19.016Z</time></trkpt><trkpt lat="43.6778402" lon="11.0529808"><ele>237.0</ele><time>2026-05-03T09:22:20.018Z</time></trkpt><trkpt lat="43.6777691" lon="11.0530811"><ele>237.0</ele><time>2026-05-03T09:22:21.018Z</time></trkpt><trkpt lat="43.6776988" lon="11.0531734"><ele>237.0</ele><time>2026-05-03T09:22:22.021Z</time></trkpt><trkpt lat="43.6776351" lon="11.0532647"><ele>237.0</ele><time>2026-05-03T09:22:23.016Z</time></trkpt><trkpt lat="43.6775748" lon="11.0533471"><ele>237.0</ele><time>2026-05-03T09:22:24.02Z</time></trkpt><trkpt lat="43.6775149" lon="11.0534139"><ele>236.0</ele><time>2026-05-03T09:22:25.019Z</time></trkpt><trkpt lat="43.6774574" lon="11.0534783"><ele>235.0</ele><time>2026-05-03T09:22:26.014Z</time></trkpt><trkpt lat="43.6774031" lon="11.0535439"><ele>234.0</ele><time>2026-05-03T09:22:27.01Z</time></trkpt><trkpt lat="43.6773391" lon="11.0535751"><ele>233.0</ele><time>2026-05-03T09:22:28.021Z</time></trkpt><trkpt lat="43.6772704" lon="11.0536017"><ele>232.0</ele><time>2026-05-03T09:22:29.011Z</time></trkpt><trkpt lat="43.6772058" lon="11.0535852"><ele>231.0</ele><time>2026-05-03T09:22:30.018Z</time></trkpt><trkpt lat="43.6770866" lon="11.0535374"><ele>231.0</ele><time>2026-05-03T09:22:32.017Z</time></trkpt><trkpt lat="43.6770147" lon="11.0535215"><ele>231.0</ele><time>2026-05-03T09:22:33.018Z</time></trkpt><trkpt lat="43.6769377" lon="11.0535364"><ele>231.0</ele><time>2026-05-03T09:22:34.014Z</time></trkpt><trkpt lat="43.6768644" lon="11.0535662"><ele>231.0</ele><time>2026-05-03T09:22:35.019Z</time></trkpt><trkpt lat="43.676797" lon="11.0536308"><ele>231.0</ele><time>2026-05-03T09:22:36.011Z</time></trkpt><trkpt lat="43.6767282" lon="11.0537302"><ele>231.0</ele><time>2026-05-03T09:22:37.02Z</time></trkpt><trkpt lat="43.6766604" lon="11.0538442"><ele>228.0</ele><time>2026-05-03T09:22:38.016Z</time></trkpt><trkpt lat="43.6765792" lon="11.0539435"><ele>225.00000000000003</ele><time>2026-05-03T09:22:39.013Z</time></trkpt><trkpt lat="43.6764909" lon="11.0540274"><ele>222.00000000000003</ele><time>2026-05-03T09:22:40.023Z</time></trkpt><trkpt lat="43.6763912" lon="11.0540941"><ele>219.0</ele><time>2026-05-03T09:22:41.009Z</time></trkpt><trkpt lat="43.6762958" lon="11.0541652"><ele>216.0</ele><time>2026-05-03T09:22:42.011Z</time></trkpt><trkpt lat="43.6762061" lon="11.0542395"><ele>214.60000000000002</ele><time>2026-05-03T09:22:43.012Z</time></trkpt><trkpt lat="43.676111" lon="11.0543048"><ele>213.20000000000002</ele><time>2026-05-03T09:22:44.019Z</time></trkpt><trkpt lat="43.6760138" lon="11.0543752"><ele>211.8</ele><time>2026-05-03T09:22:45.01Z</time></trkpt><trkpt lat="43.6759132" lon="11.0544498"><ele>210.39999999999998</ele><time>2026-05-03T09:22:46.014Z</time></trkpt><trkpt lat="43.6758118" lon="11.0545302"><ele>209.0</ele><time>2026-05-03T09:22:47.016Z</time></trkpt><trkpt lat="43.6757112" lon="11.0545977"><ele>206.25</ele><time>2026-05-03T09:22:48.014Z</time></trkpt><trkpt lat="43.6756226" lon="11.0546741"><ele>203.5</ele><time>2026-05-03T09:22:49.018Z</time></trkpt><trkpt lat="43.6755281" lon="11.0547511"><ele>200.75</ele><time>2026-05-03T09:22:50.019Z</time></trkpt><trkpt lat="43.6754381" lon="11.0548549"><ele>198.0</ele><time>2026-05-03T09:22:51.012Z</time></trkpt><trkpt lat="43.6753572" lon="11.0549755"><ele>197.2</ele><time>2026-05-03T09:22:52.014Z</time></trkpt><trkpt lat="43.6752889" lon="11.0551029"><ele>196.4</ele><time>2026-05-03T09:22:53.013Z</time></trkpt><trkpt lat="43.6752223" lon="11.0552256"><ele>195.6</ele><time>2026-05-03T09:22:54.011Z</time></trkpt><trkpt lat="43.6751649" lon="11.0553449"><ele>194.79999999999998</ele><time>2026-05-03T09:22:55.014Z</time></trkpt><trkpt lat="43.6751088" lon="11.0554563"><ele>194.0</ele><time>2026-05-03T09:22:56.019Z</time></trkpt><trkpt lat="43.6750621" lon="11.0555728"><ele>193.50000000000003</ele><time>2026-05-03T09:22:57.022Z</time></trkpt><trkpt lat="43.6750125" lon="11.0556791"><ele>193.0</ele><time>2026-05-03T09:22:58.011Z</time></trkpt><trkpt lat="43.6749655" lon="11.0557784"><ele>192.5</ele><time>2026-05-03T09:22:59.031Z</time></trkpt><trkpt lat="43.6749191" lon="11.0558723"><ele>192.0</ele><time>2026-05-03T09:23:00.031Z</time></trkpt><trkpt lat="43.6748626" lon="11.055948"><ele>191.5</ele><time>2026-05-03T09:23:01.02Z</time></trkpt><trkpt lat="43.6747907" lon="11.055996"><ele>191.0</ele><time>2026-05-03T09:23:02.016Z</time></trkpt><trkpt lat="43.674693" lon="11.0560137"><ele>191.0</ele><time>2026-05-03T09:23:03.012Z</time></trkpt><trkpt lat="43.6745811" lon="11.056027"><ele>191.0</ele><time>2026-05-03T09:23:04.02Z</time></trkpt><trkpt lat="43.674463" lon="11.0560569"><ele>191.0</ele><time>2026-05-03T09:23:05.013Z</time></trkpt><trkpt lat="43.6743436" lon="11.0561017"><ele>191.0</ele><time>2026-05-03T09:23:06.015Z</time></trkpt><trkpt lat="43.6742288" lon="11.0561383"><ele>191.0</ele><time>2026-05-03T09:23:07.01Z</time></trkpt><trkpt lat="43.6741283" lon="11.0561753"><ele>191.0</ele><time>2026-05-03T09:23:08.018Z</time></trkpt><trkpt lat="43.6740421" lon="11.0562195"><ele>191.0</ele><time>2026-05-03T09:23:09.02Z</time></trkpt><trkpt lat="43.6739661" lon="11.0562857"><ele>191.0</ele><time>2026-05-03T09:23:10.014Z</time></trkpt><trkpt lat="43.6738944" lon="11.0563704"><ele>191.0</ele><time>2026-05-03T09:23:11.018Z</time></trkpt><trkpt lat="43.673829" lon="11.0564695"><ele>191.0</ele><time>2026-05-03T09:23:12.024Z</time></trkpt><trkpt lat="43.6737638" lon="11.0565734"><ele>191.0</ele><time>2026-05-03T09:23:13.012Z</time></trkpt><trkpt lat="43.6736933" lon="11.0566805"><ele>191.0</ele><time>2026-05-03T09:23:14.012Z</time></trkpt><trkpt lat="43.6736157" lon="11.0567841"><ele>191.0</ele><time>2026-05-03T09:23:15.014Z</time></trkpt><trkpt lat="43.6735334" lon="11.0568827"><ele>191.0</ele><time>2026-05-03T09:23:16.02Z</time></trkpt><trkpt lat="43.6734506" lon="11.0569823"><ele>193.4</ele><time>2026-05-03T09:23:17.015Z</time></trkpt><trkpt lat="43.6733624" lon="11.0570762"><ele>195.8</ele><time>2026-05-03T09:23:18.014Z</time></trkpt><trkpt lat="43.6732705" lon="11.0571623"><ele>198.20000000000002</ele><time>2026-05-03T09:23:19.013Z</time></trkpt><trkpt lat="43.6731771" lon="11.0572468"><ele>200.60000000000002</ele><time>2026-05-03T09:23:20.014Z</time></trkpt><trkpt lat="43.673085" lon="11.0573359"><ele>203.0</ele><time>2026-05-03T09:23:21.012Z</time></trkpt><trkpt lat="43.6729945" lon="11.0574272"><ele>202.4</ele><time>2026-05-03T09:23:22.013Z</time></trkpt><trkpt lat="43.6729042" lon="11.0575134"><ele>201.8</ele><time>2026-05-03T09:23:23.014Z</time></trkpt><trkpt lat="43.6728173" lon="11.0575897"><ele>201.2</ele><time>2026-05-03T09:23:24.054Z</time></trkpt><trkpt lat="43.6727341" lon="11.0576515"><ele>200.6</ele><time>2026-05-03T09:23:25.017Z</time></trkpt><trkpt lat="43.6726506" lon="11.0577"><ele>200.0</ele><time>2026-05-03T09:23:26.013Z</time></trkpt><trkpt lat="43.6725648" lon="11.0577278"><ele>202.00000000000003</ele><time>2026-05-03T09:23:27.015Z</time></trkpt><trkpt lat="43.6724789" lon="11.05774"><ele>204.0</ele><time>2026-05-03T09:23:28.01Z</time></trkpt><trkpt lat="43.6723915" lon="11.0577468"><ele>206.0</ele><time>2026-05-03T09:23:29.011Z</time></trkpt><trkpt lat="43.6723027" lon="11.0577574"><ele>208.0</ele><time>2026-05-03T09:23:30.019Z</time></trkpt><trkpt lat="43.6722151" lon="11.0577538"><ele>210.00000000000003</ele><time>2026-05-03T09:23:31.018Z</time></trkpt><trkpt lat="43.6721331" lon="11.0577156"><ele>212.0</ele><time>2026-05-03T09:23:32.012Z</time></trkpt><trkpt lat="43.6720568" lon="11.0576461"><ele>212.0</ele><time>2026-05-03T09:23:33.012Z</time></trkpt><trkpt lat="43.6719843" lon="11.0575563"><ele>212.0</ele><time>2026-05-03T09:23:34.021Z</time></trkpt><trkpt lat="43.6719103" lon="11.0574583"><ele>212.0</ele><time>2026-05-03T09:23:35.017Z</time></trkpt><trkpt lat="43.6718333" lon="11.0573555"><ele>212.0</ele><time>2026-05-03T09:23:36.017Z</time></trkpt><trkpt lat="43.6717537" lon="11.0572498"><ele>212.0</ele><time>2026-05-03T09:23:37.019Z</time></trkpt><trkpt lat="43.671672" lon="11.0571449"><ele>215.5</ele><time>2026-05-03T09:23:38.02Z</time></trkpt><trkpt lat="43.6715905" lon="11.0570407"><ele>219.0</ele><time>2026-05-03T09:23:39.01Z</time></trkpt><trkpt lat="43.6715085" lon="11.0569368"><ele>222.5</ele><time>2026-05-03T09:23:40.01Z</time></trkpt><trkpt lat="43.6714254" lon="11.0568305"><ele>226.0</ele><time>2026-05-03T09:23:41.023Z</time></trkpt><trkpt lat="43.6713439" lon="11.0567194"><ele>227.20000000000002</ele><time>2026-05-03T09:23:42.022Z</time></trkpt><trkpt lat="43.6712642" lon="11.0566106"><ele>228.40000000000003</ele><time>2026-05-03T09:23:43.013Z</time></trkpt><trkpt lat="43.6711898" lon="11.0565035"><ele>229.6</ele><time>2026-05-03T09:23:44.008Z</time></trkpt><trkpt lat="43.6711204" lon="11.0564038"><ele>230.8</ele><time>2026-05-03T09:23:45.011Z</time></trkpt><trkpt lat="43.6710558" lon="11.0563056"><ele>232.0</ele><time>2026-05-03T09:23:46.009Z</time></trkpt><trkpt lat="43.6709933" lon="11.0562054"><ele>232.0</ele><time>2026-05-03T09:23:47.014Z</time></trkpt><trkpt lat="43.6709325" lon="11.0560958"><ele>232.0</ele><time>2026-05-03T09:23:48.013Z</time></trkpt><trkpt lat="43.6708716" lon="11.0559813"><ele>232.0</ele><time>2026-05-03T09:23:49.011Z</time></trkpt><trkpt lat="43.670806" lon="11.0558727"><ele>232.0</ele><time>2026-05-03T09:23:50.022Z</time></trkpt><trkpt lat="43.6707419" lon="11.0557663"><ele>232.0</ele><time>2026-05-03T09:23:51.02Z</time></trkpt><trkpt lat="43.6706715" lon="11.0556714"><ele>231.83333333333331</ele><time>2026-05-03T09:23:52.021Z</time></trkpt><trkpt lat="43.670599" lon="11.0555826"><ele>231.66666666666666</ele><time>2026-05-03T09:23:53.017Z</time></trkpt><trkpt lat="43.6705189" lon="11.0555013"><ele>231.5</ele><time>2026-05-03T09:23:54.014Z</time></trkpt><trkpt lat="43.6704404" lon="11.0554273"><ele>231.33333333333331</ele><time>2026-05-03T09:23:55.012Z</time></trkpt><trkpt lat="43.6703697" lon="11.0553618"><ele>231.16666666666666</ele><time>2026-05-03T09:23:56.023Z</time></trkpt><trkpt lat="43.6703122" lon="11.0553114"><ele>231.0</ele><time>2026-05-03T09:23:57.012Z</time></trkpt><trkpt lat="43.6702424" lon="11.0552404"><ele>231.0</ele><time>2026-05-03T09:23:59.013Z</time></trkpt><trkpt lat="43.6701808" lon="11.0551812"><ele>231.0</ele><time>2026-05-03T09:24:10.016Z</time></trkpt><trkpt lat="43.6701049" lon="11.0551313"><ele>231.0</ele><time>2026-05-03T09:24:13.017Z</time></trkpt><trkpt lat="43.6701681" lon="11.0550619"><ele>231.0</ele><time>2026-05-03T09:24:36.016Z</time></trkpt><trkpt lat="43.670245" lon="11.0550837"><ele>231.0</ele><time>2026-05-03T09:24:38.013Z</time></trkpt><trkpt lat="43.6703344" lon="11.0550816"><ele>231.0</ele><time>2026-05-03T09:24:40.018Z</time></trkpt><trkpt lat="43.6704354" lon="11.0550826"><ele>231.0</ele><time>2026-05-03T09:24:42.014Z</time></trkpt><trkpt lat="43.6705486" lon="11.0550905"><ele>231.0</ele><time>2026-05-03T09:24:44.016Z</time></trkpt><trkpt lat="43.6706687" lon="11.0551067"><ele>231.0</ele><time>2026-05-03T09:24:46.011Z</time></trkpt><trkpt lat="43.6707866" lon="11.0551149"><ele>231.0</ele><time>2026-05-03T09:24:48.014Z</time></trkpt><trkpt lat="43.6708865" lon="11.0551226"><ele>231.0</ele><time>2026-05-03T09:24:50.009Z</time></trkpt><trkpt lat="43.6709706" lon="11.0551323"><ele>231.0</ele><time>2026-05-03T09:24:52.011Z</time></trkpt><trkpt lat="43.671063" lon="11.055134"><ele>231.0</ele><time>2026-05-03T09:24:54.01Z</time></trkpt><trkpt lat="43.6711296" lon="11.0551223"><ele>231.0</ele><time>2026-05-03T09:24:56.014Z</time></trkpt><trkpt lat="43.6711914" lon="11.0550905"><ele>231.0</ele><time>2026-05-03T09:24:59.018Z</time></trkpt><trkpt lat="43.6712267" lon="11.0549808"><ele>231.0</ele><time>2026-05-03T09:25:02.008Z</time></trkpt><trkpt lat="43.6712734" lon="11.0548751"><ele>229.8</ele><time>2026-05-03T09:25:04.013Z</time></trkpt><trkpt lat="43.6713262" lon="11.0547762"><ele>228.60000000000002</ele><time>2026-05-03T09:25:06.008Z</time></trkpt><trkpt lat="43.6713856" lon="11.0546709"><ele>227.4</ele><time>2026-05-03T09:25:08.009Z</time></trkpt><trkpt lat="43.6714543" lon="11.0545688"><ele>226.2</ele><time>2026-05-03T09:25:10.009Z</time></trkpt><trkpt lat="43.6715167" lon="11.0544677"><ele>225.0</ele><time>2026-05-03T09:25:12.013Z</time></trkpt><trkpt lat="43.6715722" lon="11.0543686"><ele>225.0</ele><time>2026-05-03T09:25:14.012Z</time></trkpt><trkpt lat="43.6716284" lon="11.0542772"><ele>225.0</ele><time>2026-05-03T09:25:16.009Z</time></trkpt><trkpt lat="43.6716829" lon="11.0541862"><ele>225.0</ele><time>2026-05-03T09:25:18.007Z</time></trkpt><trkpt lat="43.6717321" lon="11.0540824"><ele>225.0</ele><time>2026-05-03T09:25:20.016Z</time></trkpt><trkpt lat="43.6717797" lon="11.0539788"><ele>225.0</ele><time>2026-05-03T09:25:22.007Z</time></trkpt><trkpt lat="43.6718347" lon="11.0538817"><ele>225.0</ele><time>2026-05-03T09:25:24.016Z</time></trkpt><trkpt lat="43.6718864" lon="11.0537792"><ele>223.0</ele><time>2026-05-03T09:25:26.007Z</time></trkpt><trkpt lat="43.6719218" lon="11.0536706"><ele>221.0</ele><time>2026-05-03T09:25:28.009Z</time></trkpt><trkpt lat="43.6719443" lon="11.0535595"><ele>219.0</ele><time>2026-05-03T09:25:30.013Z</time></trkpt><trkpt lat="43.6719549" lon="11.0534393"><ele>217.0</ele><time>2026-05-03T09:25:32.021Z</time></trkpt><trkpt lat="43.671951" lon="11.0533244"><ele>215.0</ele><time>2026-05-03T09:25:34.018Z</time></trkpt><trkpt lat="43.6719317" lon="11.0532247"><ele>213.0</ele><time>2026-05-03T09:25:36.008Z</time></trkpt><trkpt lat="43.6719045" lon="11.0531348"><ele>211.16666666666666</ele><time>2026-05-03T09:25:38.008Z</time></trkpt><trkpt lat="43.6718858" lon="11.0530484"><ele>209.33333333333331</ele><time>2026-05-03T09:25:40.015Z</time></trkpt><trkpt lat="43.6718843" lon="11.0529504"><ele>207.5</ele><time>2026-05-03T09:25:42.005Z</time></trkpt><trkpt lat="43.6719193" lon="11.0528607"><ele>205.66666666666666</ele><time>2026-05-03T09:25:44.008Z</time></trkpt><trkpt lat="43.6719742" lon="11.0528036"><ele>203.83333333333331</ele><time>2026-05-03T09:25:46.008Z</time></trkpt><trkpt lat="43.6720548" lon="11.0527489"><ele>202.0</ele><time>2026-05-03T09:25:48.018Z</time></trkpt><trkpt lat="43.6721377" lon="11.0526927"><ele>202.0</ele><time>2026-05-03T09:25:50.013Z</time></trkpt><trkpt lat="43.6722067" lon="11.0526513"><ele>202.0</ele><time>2026-05-03T09:25:52.019Z</time></trkpt><trkpt lat="43.6722721" lon="11.0526112"><ele>202.0</ele><time>2026-05-03T09:25:54.012Z</time></trkpt><trkpt lat="43.6723283" lon="11.0525568"><ele>202.0</ele><time>2026-05-03T09:25:56.015Z</time></trkpt><trkpt lat="43.6723681" lon="11.0524783"><ele>202.0</ele><time>2026-05-03T09:25:58.016Z</time></trkpt><trkpt lat="43.6724001" lon="11.0523494"><ele>202.0</ele><time>2026-05-03T09:26:00.017Z</time></trkpt><trkpt lat="43.6724142" lon="11.0522624"><ele>202.0</ele><time>2026-05-03T09:26:01.009Z</time></trkpt><trkpt lat="43.6724245" lon="11.0521756"><ele>200.39999999999998</ele><time>2026-05-03T09:26:02.019Z</time></trkpt><trkpt lat="43.6724349" lon="11.0520876"><ele>198.79999999999998</ele><time>2026-05-03T09:26:03.017Z</time></trkpt><trkpt lat="43.6724592" lon="11.0519303"><ele>197.2</ele><time>2026-05-03T09:26:05.006Z</time></trkpt><trkpt lat="43.6724835" lon="11.0517965"><ele>195.6</ele><time>2026-05-03T09:26:07.009Z</time></trkpt><trkpt lat="43.6725044" lon="11.0516664"><ele>194.0</ele><time>2026-05-03T09:26:09.017Z</time></trkpt><trkpt lat="43.6725236" lon="11.051526"><ele>192.0</ele><time>2026-05-03T09:26:11.011Z</time></trkpt><trkpt lat="43.672545" lon="11.0513881"><ele>190.0</ele><time>2026-05-03T09:26:13.007Z</time></trkpt><trkpt lat="43.6725674" lon="11.0512673"><ele>188.0</ele><time>2026-05-03T09:26:15.015Z</time></trkpt><trkpt lat="43.6725861" lon="11.0511494"><ele>186.0</ele><time>2026-05-03T09:26:17.009Z</time></trkpt><trkpt lat="43.6726029" lon="11.051019"><ele>184.0</ele><time>2026-05-03T09:26:19.014Z</time></trkpt><trkpt lat="43.6726164" lon="11.0508984"><ele>182.39999999999998</ele><time>2026-05-03T09:26:21.012Z</time></trkpt><trkpt lat="43.6726194" lon="11.0507866"><ele>180.8</ele><time>2026-05-03T09:26:23.014Z</time></trkpt><trkpt lat="43.6726068" lon="11.0506711"><ele>179.2</ele><time>2026-05-03T09:26:25.015Z</time></trkpt><trkpt lat="43.6725808" lon="11.0505353"><ele>177.60000000000002</ele><time>2026-05-03T09:26:27.007Z</time></trkpt><trkpt lat="43.6725441" lon="11.0503756"><ele>176.0</ele><time>2026-05-03T09:26:29.009Z</time></trkpt><trkpt lat="43.6725235" lon="11.0502925"><ele>176.0</ele><time>2026-05-03T09:26:30.019Z</time></trkpt><trkpt lat="43.6725034" lon="11.05021"><ele>176.0</ele><time>2026-05-03T09:26:31.01Z</time></trkpt><trkpt lat="43.6724663" lon="11.0500487"><ele>176.0</ele><time>2026-05-03T09:26:33.011Z</time></trkpt><trkpt lat="43.6724347" lon="11.0499028"><ele>176.0</ele><time>2026-05-03T09:26:35.008Z</time></trkpt><trkpt lat="43.6724059" lon="11.049742"><ele>176.0</ele><time>2026-05-03T09:26:37.009Z</time></trkpt><trkpt lat="43.6723704" lon="11.0495872"><ele>175.33333333333331</ele><time>2026-05-03T09:26:39.01Z</time></trkpt><trkpt lat="43.6723317" lon="11.0494491"><ele>174.66666666666666</ele><time>2026-05-03T09:26:41.008Z</time></trkpt><trkpt lat="43.6722987" lon="11.0493684"><ele>174.0</ele><time>2026-05-03T09:26:42.011Z</time></trkpt><trkpt lat="43.6722638" lon="11.0492879"><ele>173.33333333333334</ele><time>2026-05-03T09:26:43.01Z</time></trkpt><trkpt lat="43.6722214" lon="11.0492115"><ele>172.66666666666669</ele><time>2026-05-03T09:26:44.005Z</time></trkpt><trkpt lat="43.6721806" lon="11.0491343"><ele>172.0</ele><time>2026-05-03T09:26:45.004Z</time></trkpt><trkpt lat="43.6721228" lon="11.0490223"><ele>171.0</ele><time>2026-05-03T09:26:47.007Z</time></trkpt><trkpt lat="43.6720771" lon="11.0489063"><ele>170.0</ele><time>2026-05-03T09:26:49.007Z</time></trkpt><trkpt lat="43.6720413" lon="11.0487969"><ele>169.0</ele><time>2026-05-03T09:26:51.009Z</time></trkpt><trkpt lat="43.6720226" lon="11.0486893"><ele>168.0</ele><time>2026-05-03T09:26:53.009Z</time></trkpt><trkpt lat="43.6720103" lon="11.0485872"><ele>167.0</ele><time>2026-05-03T09:26:56.01Z</time></trkpt><trkpt lat="43.6719955" lon="11.0485007"><ele>166.0</ele><time>2026-05-03T09:26:58.01Z</time></trkpt><trkpt lat="43.6719765" lon="11.0484123"><ele>165.66666666666669</ele><time>2026-05-03T09:27:00.005Z</time></trkpt><trkpt lat="43.6719556" lon="11.0482825"><ele>165.33333333333334</ele><time>2026-05-03T09:27:03.014Z</time></trkpt><trkpt lat="43.671938" lon="11.0481811"><ele>165.0</ele><time>2026-05-03T09:27:05.007Z</time></trkpt><trkpt lat="43.671915" lon="11.0480763"><ele>164.66666666666666</ele><time>2026-05-03T09:27:07.012Z</time></trkpt><trkpt lat="43.6718843" lon="11.0479581"><ele>164.33333333333331</ele><time>2026-05-03T09:27:09.007Z</time></trkpt><trkpt lat="43.6718466" lon="11.0478403"><ele>164.0</ele><time>2026-05-03T09:27:11.018Z</time></trkpt><trkpt lat="43.6718103" lon="11.0477313"><ele>163.16666666666666</ele><time>2026-05-03T09:27:13.009Z</time></trkpt><trkpt lat="43.6717773" lon="11.0476249"><ele>162.33333333333331</ele><time>2026-05-03T09:27:15.022Z</time></trkpt><trkpt lat="43.6717544" lon="11.0475309"><ele>161.5</ele><time>2026-05-03T09:27:17.008Z</time></trkpt><trkpt lat="43.6717339" lon="11.0474334"><ele>160.66666666666666</ele><time>2026-05-03T09:27:19.011Z</time></trkpt><trkpt lat="43.6717182" lon="11.0473093"><ele>159.83333333333334</ele><time>2026-05-03T09:27:22.01Z</time></trkpt><trkpt lat="43.6717111" lon="11.0471865"><ele>159.0</ele><time>2026-05-03T09:27:25.02Z</time></trkpt><trkpt lat="43.6717222" lon="11.0470674"><ele>157.57142857142856</ele><time>2026-05-03T09:27:28.015Z</time></trkpt><trkpt lat="43.6717392" lon="11.0469759"><ele>156.14285714285717</ele><time>2026-05-03T09:27:31.015Z</time></trkpt><trkpt lat="43.671746" lon="11.0468532"><ele>154.71428571428572</ele><time>2026-05-03T09:27:40.009Z</time></trkpt><trkpt lat="43.6717803" lon="11.0467776"><ele>153.28571428571428</ele><time>2026-05-03T09:27:42.015Z</time></trkpt><trkpt lat="43.6718309" lon="11.0466938"><ele>151.85714285714283</ele><time>2026-05-03T09:27:45.013Z</time></trkpt><trkpt lat="43.6718892" lon="11.0466287"><ele>150.42857142857142</ele><time>2026-05-03T09:27:48.016Z</time></trkpt><trkpt lat="43.6719459" lon="11.046573"><ele>149.0</ele><time>2026-05-03T09:27:50.022Z</time></trkpt><trkpt lat="43.6720243" lon="11.0464862"><ele>147.8</ele><time>2026-05-03T09:27:52.016Z</time></trkpt><trkpt lat="43.672093" lon="11.046384"><ele>146.60000000000002</ele><time>2026-05-03T09:27:54.03Z</time></trkpt><trkpt lat="43.6721595" lon="11.0462844"><ele>145.4</ele><time>2026-05-03T09:27:56.019Z</time></trkpt><trkpt lat="43.6722279" lon="11.046183"><ele>144.20000000000002</ele><time>2026-05-03T09:27:58.013Z</time></trkpt><trkpt lat="43.6723081" lon="11.0460507"><ele>143.0</ele><time>2026-05-03T09:28:00.021Z</time></trkpt><trkpt lat="43.6723799" lon="11.0459609"><ele>143.0</ele><time>2026-05-03T09:28:02.006Z</time></trkpt><trkpt lat="43.6724469" lon="11.0458928"><ele>143.0</ele><time>2026-05-03T09:28:04.012Z</time></trkpt><trkpt lat="43.6725338" lon="11.0458412"><ele>143.0</ele><time>2026-05-03T09:28:07.009Z</time></trkpt><trkpt lat="43.6726005" lon="11.045808"><ele>143.0</ele><time>2026-05-03T09:28:09.009Z</time></trkpt><trkpt lat="43.6726804" lon="11.0457634"><ele>143.0</ele><time>2026-05-03T09:28:11.012Z</time></trkpt><trkpt lat="43.6727555" lon="11.0457059"><ele>143.0</ele><time>2026-05-03T09:28:13.01Z</time></trkpt><trkpt lat="43.6728091" lon="11.0456519"><ele>141.83333333333331</ele><time>2026-05-03T09:28:15.007Z</time></trkpt><trkpt lat="43.6728688" lon="11.045599"><ele>140.66666666666666</ele><time>2026-05-03T09:28:17.011Z</time></trkpt><trkpt lat="43.6729379" lon="11.0455512"><ele>139.5</ele><time>2026-05-03T09:28:19.008Z</time></trkpt><trkpt lat="43.673004" lon="11.0454981"><ele>138.33333333333334</ele><time>2026-05-03T09:28:21.015Z</time></trkpt><trkpt lat="43.6730816" lon="11.045423"><ele>137.16666666666669</ele><time>2026-05-03T09:28:24.014Z</time></trkpt><trkpt lat="43.6731423" lon="11.0453414"><ele>136.0</ele><time>2026-05-03T09:28:26.009Z</time></trkpt><trkpt lat="43.6732004" lon="11.0452501"><ele>136.0</ele><time>2026-05-03T09:28:28.023Z</time></trkpt><trkpt lat="43.6732643" lon="11.045167"><ele>136.0</ele><time>2026-05-03T09:28:30.008Z</time></trkpt><trkpt lat="43.6733067" lon="11.0450726"><ele>136.0</ele><time>2026-05-03T09:28:32.008Z</time></trkpt><trkpt lat="43.6733699" lon="11.0449796"><ele>136.0</ele><time>2026-05-03T09:28:34.014Z</time></trkpt><trkpt lat="43.6734258" lon="11.0449147"><ele>136.0</ele><time>2026-05-03T09:28:36.018Z</time></trkpt><trkpt lat="43.6734822" lon="11.0448547"><ele>136.0</ele><time>2026-05-03T09:28:38.01Z</time></trkpt><trkpt lat="43.673536" lon="11.0447805"><ele>135.5</ele><time>2026-05-03T09:29:14.013Z</time></trkpt><trkpt lat="43.6735181" lon="11.0446856"><ele>135.0</ele><time>2026-05-03T09:29:17.009Z</time></trkpt><trkpt lat="43.6734696" lon="11.0446052"><ele>134.5</ele><time>2026-05-03T09:29:19.014Z</time></trkpt><trkpt lat="43.6734236" lon="11.0445385"><ele>134.0</ele><time>2026-05-03T09:30:00.013Z</time></trkpt><trkpt lat="43.6733847" lon="11.0444568"><ele>133.5</ele><time>2026-05-03T09:30:03.019Z</time></trkpt><trkpt lat="43.6733545" lon="11.0443484"><ele>133.0</ele><time>2026-05-03T09:30:05.014Z</time></trkpt><trkpt lat="43.6732992" lon="11.0442314"><ele>133.0</ele><time>2026-05-03T09:30:07.015Z</time></trkpt><trkpt lat="43.6732649" lon="11.044142"><ele>133.0</ele><time>2026-05-03T09:30:09.015Z</time></trkpt><trkpt lat="43.6732227" lon="11.0440396"><ele>133.0</ele><time>2026-05-03T09:30:11.012Z</time></trkpt><trkpt lat="43.6731761" lon="11.0439243"><ele>133.0</ele><time>2026-05-03T09:30:13.022Z</time></trkpt><trkpt lat="43.6731314" lon="11.0437951"><ele>133.0</ele><time>2026-05-03T09:30:15.008Z</time></trkpt><trkpt lat="43.6730849" lon="11.0436587"><ele>133.4</ele><time>2026-05-03T09:30:17.021Z</time></trkpt><trkpt lat="43.6730384" lon="11.0435129"><ele>133.8</ele><time>2026-05-03T09:30:19.009Z</time></trkpt><trkpt lat="43.6729916" lon="11.0433621"><ele>134.2</ele><time>2026-05-03T09:30:21.017Z</time></trkpt><trkpt lat="43.6729678" lon="11.0432804"><ele>134.6</ele><time>2026-05-03T09:30:22.013Z</time></trkpt><trkpt lat="43.6729164" lon="11.0431255"><ele>135.0</ele><time>2026-05-03T09:30:24.017Z</time></trkpt><trkpt lat="43.6728658" lon="11.0429819"><ele>136.8</ele><time>2026-05-03T09:30:26.017Z</time></trkpt><trkpt lat="43.672821" lon="11.0428534"><ele>138.6</ele><time>2026-05-03T09:30:28.018Z</time></trkpt><trkpt lat="43.6727778" lon="11.0427261"><ele>140.4</ele><time>2026-05-03T09:30:30.013Z</time></trkpt><trkpt lat="43.6727317" lon="11.0426187"><ele>142.2</ele><time>2026-05-03T09:30:32.019Z</time></trkpt><trkpt lat="43.6726834" lon="11.0425084"><ele>144.0</ele><time>2026-05-03T09:30:34.016Z</time></trkpt><trkpt lat="43.6726494" lon="11.0424106"><ele>144.5</ele><time>2026-05-03T09:30:36.018Z</time></trkpt><trkpt lat="43.6726578" lon="11.0423231"><ele>145.0</ele><time>2026-05-03T09:30:38.017Z</time></trkpt><trkpt lat="43.6726857" lon="11.0422341"><ele>145.5</ele><time>2026-05-03T09:30:40.018Z</time></trkpt><trkpt lat="43.6727442" lon="11.0421404"><ele>146.0</ele><time>2026-05-03T09:30:43.027Z</time></trkpt><trkpt lat="43.6728213" lon="11.0420997"><ele>146.5</ele><time>2026-05-03T09:30:45.014Z</time></trkpt><trkpt lat="43.6729198" lon="11.0421233"><ele>147.0</ele><time>2026-05-03T09:30:47.011Z</time></trkpt><trkpt lat="43.6730195" lon="11.042205"><ele>147.0</ele><time>2026-05-03T09:30:49.015Z</time></trkpt><trkpt lat="43.6731212" lon="11.0422988"><ele>147.0</ele><time>2026-05-03T09:30:51.017Z</time></trkpt><trkpt lat="43.673223" lon="11.0423831"><ele>147.0</ele><time>2026-05-03T09:30:53.02Z</time></trkpt><trkpt lat="43.6732794" lon="11.0424219"><ele>147.0</ele><time>2026-05-03T09:30:54.013Z</time></trkpt><trkpt lat="43.6733893" lon="11.0424743"><ele>147.0</ele><time>2026-05-03T09:30:56.011Z</time></trkpt><trkpt lat="43.6734881" lon="11.0424963"><ele>147.0</ele><time>2026-05-03T09:30:58.005Z</time></trkpt><trkpt lat="43.6735709" lon="11.0425238"><ele>147.0</ele><time>2026-05-03T09:31:00.01Z</time></trkpt><trkpt lat="43.6736386" lon="11.0425601"><ele>147.0</ele><time>2026-05-03T09:31:03.03Z</time></trkpt><trkpt lat="43.6736658" lon="11.0424815"><ele>147.0</ele><time>2026-05-03T09:31:06.028Z</time></trkpt><trkpt lat="43.6736694" lon="11.0423738"><ele>147.0</ele><time>2026-05-03T09:31:08.017Z</time></trkpt><trkpt lat="43.6737038" lon="11.0422686"><ele>147.0</ele><time>2026-05-03T09:31:10.023Z</time></trkpt><trkpt lat="43.6737356" lon="11.0421486"><ele>149.5</ele><time>2026-05-03T09:31:12.016Z</time></trkpt><trkpt lat="43.6737809" lon="11.0420278"><ele>152.0</ele><time>2026-05-03T09:31:14.018Z</time></trkpt><trkpt lat="43.6738192" lon="11.0419525"><ele>154.5</ele><time>2026-05-03T09:31:16.016Z</time></trkpt><trkpt lat="43.6738369" lon="11.0418633"><ele>157.0</ele><time>2026-05-03T09:31:18.022Z</time></trkpt><trkpt lat="43.6738391" lon="11.0417466"><ele>159.5</ele><time>2026-05-03T09:31:20.015Z</time></trkpt><trkpt lat="43.67386" lon="11.0416243"><ele>162.0</ele><time>2026-05-03T09:31:22.008Z</time></trkpt><trkpt lat="43.6738823" lon="11.0415063"><ele>164.33333333333334</ele><time>2026-05-03T09:31:24.013Z</time></trkpt><trkpt lat="43.6738916" lon="11.0413951"><ele>166.66666666666666</ele><time>2026-05-03T09:31:26.022Z</time></trkpt><trkpt lat="43.6738812" lon="11.0412951"><ele>169.0</ele><time>2026-05-03T09:31:28.014Z</time></trkpt><trkpt lat="43.6738549" lon="11.0411776"><ele>171.33333333333331</ele><time>2026-05-03T09:31:30.007Z</time></trkpt><trkpt lat="43.673809" lon="11.0410623"><ele>173.66666666666666</ele><time>2026-05-03T09:31:32.019Z</time></trkpt><trkpt lat="43.673749" lon="11.0409802"><ele>176.0</ele><time>2026-05-03T09:31:34.022Z</time></trkpt><trkpt lat="43.6737056" lon="11.0409054"><ele>176.0</ele><time>2026-05-03T09:31:36.01Z</time></trkpt><trkpt lat="43.6736806" lon="11.0408208"><ele>176.0</ele><time>2026-05-03T09:31:38.01Z</time></trkpt><trkpt lat="43.6736923" lon="11.0407231"><ele>176.0</ele><time>2026-05-03T09:31:40.026Z</time></trkpt><trkpt lat="43.6737343" lon="11.0406356"><ele>176.0</ele><time>2026-05-03T09:31:42.013Z</time></trkpt><trkpt lat="43.6738081" lon="11.0405803"><ele>176.0</ele><time>2026-05-03T09:31:44.011Z</time></trkpt><trkpt lat="43.6738918" lon="11.0405174"><ele>176.0</ele><time>2026-05-03T09:31:46.029Z</time></trkpt><trkpt lat="43.6739821" lon="11.0404479"><ele>177.8</ele><time>2026-05-03T09:31:48.018Z</time></trkpt><trkpt lat="43.6740526" lon="11.0403682"><ele>179.60000000000002</ele><time>2026-05-03T09:31:50.013Z</time></trkpt><trkpt lat="43.6741044" lon="11.040245"><ele>181.4</ele><time>2026-05-03T09:31:52.023Z</time></trkpt><trkpt lat="43.6741535" lon="11.0401074"><ele>183.2</ele><time>2026-05-03T09:31:54.005Z</time></trkpt><trkpt lat="43.6741964" lon="11.0399602"><ele>185.0</ele><time>2026-05-03T09:31:56.016Z</time></trkpt><trkpt lat="43.674239" lon="11.0398285"><ele>188.0</ele><time>2026-05-03T09:31:58.015Z</time></trkpt><trkpt lat="43.6742865" lon="11.0397123"><ele>191.0</ele><time>2026-05-03T09:32:00.016Z</time></trkpt><trkpt lat="43.6743156" lon="11.0396302"><ele>194.0</ele><time>2026-05-03T09:32:24.007Z</time></trkpt><trkpt lat="43.6743261" lon="11.0394988"><ele>197.0</ele><time>2026-05-03T09:32:27.011Z</time></trkpt><trkpt lat="43.6743616" lon="11.0394023"><ele>200.00000000000003</ele><time>2026-05-03T09:32:29.003Z</time></trkpt><trkpt lat="43.6743936" lon="11.0393225"><ele>203.0</ele><time>2026-05-03T09:32:31.007Z</time></trkpt><trkpt lat="43.6744034" lon="11.0392101"><ele>205.0</ele><time>2026-05-03T09:32:33.004Z</time></trkpt><trkpt lat="43.6744204" lon="11.0390843"><ele>207.0</ele><time>2026-05-03T09:32:35.007Z</time></trkpt><trkpt lat="43.6744436" lon="11.0389568"><ele>209.0</ele><time>2026-05-03T09:32:37.012Z</time></trkpt><trkpt lat="43.6744525" lon="11.038828"><ele>211.0</ele><time>2026-05-03T09:32:39.009Z</time></trkpt><trkpt lat="43.6744494" lon="11.0386934"><ele>213.0</ele><time>2026-05-03T09:32:41.004Z</time></trkpt><trkpt lat="43.6744509" lon="11.0385666"><ele>212.99999999999997</ele><time>2026-05-03T09:32:43.015Z</time></trkpt><trkpt lat="43.6744584" lon="11.038452"><ele>213.0</ele><time>2026-05-03T09:32:45.01Z</time></trkpt><trkpt lat="43.6744599" lon="11.0383558"><ele>213.0</ele><time>2026-05-03T09:32:47.024Z</time></trkpt><trkpt lat="43.6744569" lon="11.0382673"><ele>213.0</ele><time>2026-05-03T09:32:49.01Z</time></trkpt><trkpt lat="43.6744489" lon="11.0381692"><ele>213.0</ele><time>2026-05-03T09:32:51.022Z</time></trkpt><trkpt lat="43.6744321" lon="11.0380618"><ele>212.99999999999997</ele><time>2026-05-03T09:32:53.018Z</time></trkpt><trkpt lat="43.6744139" lon="11.0379731"><ele>213.0</ele><time>2026-05-03T09:32:55.012Z</time></trkpt><trkpt lat="43.6743387" lon="11.0379199"><ele>214.33333333333334</ele><time>2026-05-03T09:32:59.018Z</time></trkpt><trkpt lat="43.6743204" lon="11.0378077"><ele>215.66666666666669</ele><time>2026-05-03T09:33:02.018Z</time></trkpt><trkpt lat="43.674313" lon="11.0377095"><ele>217.0</ele><time>2026-05-03T09:33:04.01Z</time></trkpt><trkpt lat="43.674248" lon="11.0376003"><ele>218.33333333333334</ele><time>2026-05-03T09:33:07.014Z</time></trkpt><trkpt lat="43.6741917" lon="11.0375543"><ele>219.66666666666669</ele><time>2026-05-03T09:33:08.004Z</time></trkpt><trkpt lat="43.6741185" lon="11.037501"><ele>221.0</ele><time>2026-05-03T09:33:09.006Z</time></trkpt><trkpt lat="43.6740306" lon="11.0374307"><ele>221.0</ele><time>2026-05-03T09:33:10.008Z</time></trkpt><trkpt lat="43.6739278" lon="11.0373416"><ele>221.0</ele><time>2026-05-03T09:33:11.011Z</time></trkpt><trkpt lat="43.6738172" lon="11.0372409"><ele>221.0</ele><time>2026-05-03T09:33:12.019Z</time></trkpt><trkpt lat="43.6737018" lon="11.0371368"><ele>221.0</ele><time>2026-05-03T09:33:13.006Z</time></trkpt><trkpt lat="43.6735873" lon="11.0370412"><ele>224.0</ele><time>2026-05-03T09:33:14.009Z</time></trkpt><trkpt lat="43.6734782" lon="11.0369475"><ele>227.0</ele><time>2026-05-03T09:33:15.012Z</time></trkpt><trkpt lat="43.6733735" lon="11.0368536"><ele>230.0</ele><time>2026-05-03T09:33:16.018Z</time></trkpt><trkpt lat="43.6732755" lon="11.0367634"><ele>233.0</ele><time>2026-05-03T09:33:17.01Z</time></trkpt><trkpt lat="43.6731904" lon="11.0366822"><ele>233.33333333333334</ele><time>2026-05-03T09:33:18.031Z</time></trkpt><trkpt lat="43.6731149" lon="11.036609"><ele>233.66666666666669</ele><time>2026-05-03T09:33:19.006Z</time></trkpt><trkpt lat="43.6730425" lon="11.0365422"><ele>234.0</ele><time>2026-05-03T09:33:20.008Z</time></trkpt><trkpt lat="43.6729766" lon="11.0364777"><ele>234.33333333333331</ele><time>2026-05-03T09:33:21.007Z</time></trkpt><trkpt lat="43.672922" lon="11.036416"><ele>234.66666666666666</ele><time>2026-05-03T09:33:22.017Z</time></trkpt><trkpt lat="43.6728751" lon="11.0363544"><ele>235.0</ele><time>2026-05-03T09:33:23.003Z</time></trkpt><trkpt lat="43.6728453" lon="11.0362773"><ele>234.99999999999997</ele><time>2026-05-03T09:33:24.008Z</time></trkpt><trkpt lat="43.6728523" lon="11.0361846"><ele>235.0</ele><time>2026-05-03T09:33:25.015Z</time></trkpt><trkpt lat="43.6728573" lon="11.0360687"><ele>235.0</ele><time>2026-05-03T09:33:26.028Z</time></trkpt><trkpt lat="43.672872" lon="11.0359667"><ele>235.0</ele><time>2026-05-03T09:33:27.007Z</time></trkpt><trkpt lat="43.6728834" lon="11.0358714"><ele>234.99999999999997</ele><time>2026-05-03T09:33:28.015Z</time></trkpt><trkpt lat="43.6729007" lon="11.0357859"><ele>235.0</ele><time>2026-05-03T09:33:29.017Z</time></trkpt><trkpt lat="43.6729313" lon="11.0356295"><ele>233.8</ele><time>2026-05-03T09:33:31.029Z</time></trkpt><trkpt lat="43.672945" lon="11.0354894"><ele>232.6</ele><time>2026-05-03T09:33:33.005Z</time></trkpt><trkpt lat="43.6729494" lon="11.0353875"><ele>231.39999999999998</ele><time>2026-05-03T09:33:35.014Z</time></trkpt><trkpt lat="43.6729574" lon="11.0352855"><ele>230.2</ele><time>2026-05-03T09:33:38.006Z</time></trkpt><trkpt lat="43.6729218" lon="11.035172"><ele>229.0</ele><time>2026-05-03T09:33:41.015Z</time></trkpt><trkpt lat="43.6728194" lon="11.03507"><ele>228.0</ele><time>2026-05-03T09:33:43.005Z</time></trkpt><trkpt lat="43.6727377" lon="11.0350093"><ele>226.99999999999997</ele><time>2026-05-03T09:33:44.008Z</time></trkpt><trkpt lat="43.6726444" lon="11.0349362"><ele>225.99999999999997</ele><time>2026-05-03T09:33:45.01Z</time></trkpt><trkpt lat="43.6725512" lon="11.0348633"><ele>225.0</ele><time>2026-05-03T09:33:46.003Z</time></trkpt><trkpt lat="43.6724685" lon="11.0347963"><ele>224.0</ele><time>2026-05-03T09:33:47.026Z</time></trkpt><trkpt lat="43.6723941" lon="11.0347358"><ele>224.00000000000003</ele><time>2026-05-03T09:33:48.008Z</time></trkpt><trkpt lat="43.672326" lon="11.0346829"><ele>224.0</ele><time>2026-05-03T09:33:49.01Z</time></trkpt><trkpt lat="43.672263" lon="11.034629"><ele>224.0</ele><time>2026-05-03T09:33:50.016Z</time></trkpt><trkpt lat="43.6721961" lon="11.0345754"><ele>224.0</ele><time>2026-05-03T09:33:51.011Z</time></trkpt><trkpt lat="43.6721253" lon="11.0345149"><ele>224.00000000000003</ele><time>2026-05-03T09:33:52.005Z</time></trkpt><trkpt lat="43.6720542" lon="11.034446"><ele>224.0</ele><time>2026-05-03T09:33:53.015Z</time></trkpt><trkpt lat="43.6719819" lon="11.0343786"><ele>223.50000000000003</ele><time>2026-05-03T09:33:54.007Z</time></trkpt><trkpt lat="43.6719102" lon="11.0343119"><ele>223.0</ele><time>2026-05-03T09:33:55.011Z</time></trkpt><trkpt lat="43.6718403" lon="11.0342477"><ele>222.5</ele><time>2026-05-03T09:33:56.013Z</time></trkpt><trkpt lat="43.671776" lon="11.0341884"><ele>222.0</ele><time>2026-05-03T09:33:57.018Z</time></trkpt><trkpt lat="43.6717147" lon="11.0341306"><ele>221.50000000000003</ele><time>2026-05-03T09:33:58.009Z</time></trkpt><trkpt lat="43.6716515" lon="11.0340705"><ele>221.0</ele><time>2026-05-03T09:33:59.009Z</time></trkpt><trkpt lat="43.6715885" lon="11.0340125"><ele>221.00000000000003</ele><time>2026-05-03T09:34:00.019Z</time></trkpt><trkpt lat="43.6715277" lon="11.0339613"><ele>221.0</ele><time>2026-05-03T09:34:01.013Z</time></trkpt><trkpt lat="43.6714671" lon="11.0339113"><ele>221.0</ele><time>2026-05-03T09:34:02.01Z</time></trkpt><trkpt lat="43.671404" lon="11.0338637"><ele>221.0</ele><time>2026-05-03T09:34:03.018Z</time></trkpt><trkpt lat="43.6713432" lon="11.0338155"><ele>221.00000000000003</ele><time>2026-05-03T09:34:04.005Z</time></trkpt><trkpt lat="43.6712904" lon="11.0337666"><ele>221.0</ele><time>2026-05-03T09:34:05.007Z</time></trkpt><trkpt lat="43.6712036" lon="11.0336458"><ele>221.00000000000003</ele><time>2026-05-03T09:34:07.017Z</time></trkpt><trkpt lat="43.6711563" lon="11.0335825"><ele>221.0</ele><time>2026-05-03T09:34:08.012Z</time></trkpt><trkpt lat="43.6711097" lon="11.0335074"><ele>221.0</ele><time>2026-05-03T09:34:09.012Z</time></trkpt><trkpt lat="43.6710602" lon="11.0334298"><ele>221.0</ele><time>2026-05-03T09:34:10.006Z</time></trkpt><trkpt lat="43.6710083" lon="11.0333525"><ele>221.0</ele><time>2026-05-03T09:34:11.007Z</time></trkpt><trkpt lat="43.6709609" lon="11.0332716"><ele>221.00000000000003</ele><time>2026-05-03T09:34:12.006Z</time></trkpt><trkpt lat="43.670921" lon="11.033189"><ele>221.0</ele><time>2026-05-03T09:34:13.003Z</time></trkpt><trkpt lat="43.6708829" lon="11.033099"><ele>221.66666666666669</ele><time>2026-05-03T09:34:14.014Z</time></trkpt><trkpt lat="43.6708451" lon="11.0330074"><ele>222.33333333333334</ele><time>2026-05-03T09:34:15.005Z</time></trkpt><trkpt lat="43.6708217" lon="11.0329158"><ele>223.0</ele><time>2026-05-03T09:34:16.014Z</time></trkpt><trkpt lat="43.6707936" lon="11.0328262"><ele>223.66666666666669</ele><time>2026-05-03T09:34:17.023Z</time></trkpt><trkpt lat="43.6707676" lon="11.032729"><ele>224.33333333333334</ele><time>2026-05-03T09:34:18.009Z</time></trkpt><trkpt lat="43.6707394" lon="11.0326258"><ele>225.0</ele><time>2026-05-03T09:34:19.015Z</time></trkpt><trkpt lat="43.6707054" lon="11.0325253"><ele>223.16666666666666</ele><time>2026-05-03T09:34:20.015Z</time></trkpt><trkpt lat="43.6706704" lon="11.0324284"><ele>221.33333333333331</ele><time>2026-05-03T09:34:21.009Z</time></trkpt><trkpt lat="43.6706416" lon="11.0323272"><ele>219.5</ele><time>2026-05-03T09:34:22.009Z</time></trkpt><trkpt lat="43.6706086" lon="11.0322304"><ele>217.66666666666666</ele><time>2026-05-03T09:34:23.004Z</time></trkpt><trkpt lat="43.6705773" lon="11.0321372"><ele>215.83333333333331</ele><time>2026-05-03T09:34:24.01Z</time></trkpt><trkpt lat="43.6705434" lon="11.0320482"><ele>214.0</ele><time>2026-05-03T09:34:25.003Z</time></trkpt><trkpt lat="43.6705106" lon="11.0319658"><ele>214.0</ele><time>2026-05-03T09:34:26.003Z</time></trkpt><trkpt lat="43.6704514" lon="11.0318306"><ele>213.99999999999997</ele><time>2026-05-03T09:34:28.029Z</time></trkpt><trkpt lat="43.6703725" lon="11.0317192"><ele>213.99999999999997</ele><time>2026-05-03T09:34:30.011Z</time></trkpt><trkpt lat="43.6703172" lon="11.0316693"><ele>214.0</ele><time>2026-05-03T09:34:31.01Z</time></trkpt><trkpt lat="43.6702615" lon="11.0316259"><ele>214.0</ele><time>2026-05-03T09:34:32.006Z</time></trkpt><trkpt lat="43.6701534" lon="11.0315603"><ele>213.16666666666666</ele><time>2026-05-03T09:34:34.017Z</time></trkpt><trkpt lat="43.6700517" lon="11.031515"><ele>212.33333333333331</ele><time>2026-05-03T09:34:36.018Z</time></trkpt><trkpt lat="43.6699478" lon="11.0314461"><ele>211.5</ele><time>2026-05-03T09:34:38.009Z</time></trkpt><trkpt lat="43.6698848" lon="11.0313963"><ele>210.66666666666669</ele><time>2026-05-03T09:34:39.012Z</time></trkpt><trkpt lat="43.669829" lon="11.0313442"><ele>209.83333333333334</ele><time>2026-05-03T09:34:40.024Z</time></trkpt><trkpt lat="43.6697764" lon="11.0312934"><ele>209.0</ele><time>2026-05-03T09:34:41.012Z</time></trkpt><trkpt lat="43.6696908" lon="11.0312129"><ele>209.0</ele><time>2026-05-03T09:34:43.014Z</time></trkpt><trkpt lat="43.6696088" lon="11.0311301"><ele>209.0</ele><time>2026-05-03T09:34:45.023Z</time></trkpt><trkpt lat="43.6695394" lon="11.0310524"><ele>209.0</ele><time>2026-05-03T09:34:47.009Z</time></trkpt><trkpt lat="43.6694731" lon="11.0309747"><ele>209.0</ele><time>2026-05-03T09:34:49.01Z</time></trkpt><trkpt lat="43.6693812" lon="11.0308566"><ele>209.0</ele><time>2026-05-03T09:34:51.005Z</time></trkpt><trkpt lat="43.6693309" lon="11.0307771"><ele>208.00000000000003</ele><time>2026-05-03T09:34:52.01Z</time></trkpt><trkpt lat="43.6692771" lon="11.0307004"><ele>207.0</ele><time>2026-05-03T09:34:53.009Z</time></trkpt><trkpt lat="43.6692288" lon="11.0306303"><ele>206.0</ele><time>2026-05-03T09:34:54.008Z</time></trkpt><trkpt lat="43.6691549" lon="11.0305143"><ele>205.0</ele><time>2026-05-03T09:34:56.013Z</time></trkpt><trkpt lat="43.6690765" lon="11.0304925"><ele>204.00000000000003</ele><time>2026-05-03T09:34:58.011Z</time></trkpt><trkpt lat="43.6690079" lon="11.0305432"><ele>203.0</ele><time>2026-05-03T09:35:00.012Z</time></trkpt><trkpt lat="43.6690296" lon="11.0306499"><ele>203.00000000000003</ele><time>2026-05-03T09:35:03.012Z</time></trkpt><trkpt lat="43.6691057" lon="11.0307102"><ele>203.0</ele><time>2026-05-03T09:35:05.01Z</time></trkpt><trkpt lat="43.6692071" lon="11.0307655"><ele>203.0</ele><time>2026-05-03T09:35:07.015Z</time></trkpt><trkpt lat="43.6692889" lon="11.030804"><ele>203.0</ele><time>2026-05-03T09:35:09.015Z</time></trkpt><trkpt lat="43.6693582" lon="11.0308357"><ele>203.00000000000003</ele><time>2026-05-03T09:35:11.007Z</time></trkpt><trkpt lat="43.6694282" lon="11.0308789"><ele>203.0</ele><time>2026-05-03T09:35:13.008Z</time></trkpt><trkpt lat="43.6694975" lon="11.0309471"><ele>204.00000000000003</ele><time>2026-05-03T09:35:15.014Z</time></trkpt><trkpt lat="43.66957" lon="11.0310413"><ele>205.0</ele><time>2026-05-03T09:35:17.013Z</time></trkpt><trkpt lat="43.6696585" lon="11.0311551"><ele>206.0</ele><time>2026-05-03T09:35:19.009Z</time></trkpt><trkpt lat="43.6697127" lon="11.0312206"><ele>207.0</ele><time>2026-05-03T09:35:20.015Z</time></trkpt><trkpt lat="43.6697674" lon="11.0312838"><ele>208.00000000000003</ele><time>2026-05-03T09:35:21.009Z</time></trkpt><trkpt lat="43.6698169" lon="11.0313413"><ele>209.0</ele><time>2026-05-03T09:35:22.003Z</time></trkpt><trkpt lat="43.6698762" lon="11.0314036"><ele>209.00000000000003</ele><time>2026-05-03T09:35:23.01Z</time></trkpt><trkpt lat="43.6699569" lon="11.0314659"><ele>209.0</ele><time>2026-05-03T09:35:24.006Z</time></trkpt><trkpt lat="43.6700386" lon="11.0315138"><ele>209.0</ele><time>2026-05-03T09:35:25.006Z</time></trkpt><trkpt lat="43.6701118" lon="11.0315485"><ele>209.0</ele><time>2026-05-03T09:35:26.007Z</time></trkpt><trkpt lat="43.6701851" lon="11.0315852"><ele>209.00000000000003</ele><time>2026-05-03T09:35:27.01Z</time></trkpt><trkpt lat="43.6702523" lon="11.0316277"><ele>209.0</ele><time>2026-05-03T09:35:28.01Z</time></trkpt><trkpt lat="43.6703107" lon="11.0316703"><ele>209.83333333333334</ele><time>2026-05-03T09:35:29.005Z</time></trkpt><trkpt lat="43.6703623" lon="11.0317245"><ele>210.66666666666669</ele><time>2026-05-03T09:35:30.003Z</time></trkpt><trkpt lat="43.670406" lon="11.0317918"><ele>211.5</ele><time>2026-05-03T09:35:31.025Z</time></trkpt><trkpt lat="43.6704401" lon="11.0318749"><ele>212.33333333333331</ele><time>2026-05-03T09:35:32.014Z</time></trkpt><trkpt lat="43.6704815" lon="11.0319713"><ele>213.16666666666666</ele><time>2026-05-03T09:35:33.006Z</time></trkpt><trkpt lat="43.6705204" lon="11.0320833"><ele>214.0</ele><time>2026-05-03T09:35:34.011Z</time></trkpt><trkpt lat="43.670564" lon="11.0321993"><ele>214.0</ele><time>2026-05-03T09:35:35.005Z</time></trkpt><trkpt lat="43.6706079" lon="11.0323177"><ele>213.99999999999997</ele><time>2026-05-03T09:35:36.013Z</time></trkpt><trkpt lat="43.6706538" lon="11.0324379"><ele>213.99999999999997</ele><time>2026-05-03T09:35:37.016Z</time></trkpt><trkpt lat="43.6706995" lon="11.0325524"><ele>214.0</ele><time>2026-05-03T09:35:38.009Z</time></trkpt><trkpt lat="43.6707402" lon="11.0326575"><ele>214.0</ele><time>2026-05-03T09:35:39.01Z</time></trkpt><trkpt lat="43.6707767" lon="11.0327585"><ele>215.83333333333331</ele><time>2026-05-03T09:35:40.014Z</time></trkpt><trkpt lat="43.6708081" lon="11.0328657"><ele>217.66666666666666</ele><time>2026-05-03T09:35:41.028Z</time></trkpt><trkpt lat="43.6708335" lon="11.0329831"><ele>219.5</ele><time>2026-05-03T09:35:42.005Z</time></trkpt><trkpt lat="43.6708584" lon="11.0331031"><ele>221.33333333333331</ele><time>2026-05-03T09:35:43.007Z</time></trkpt><trkpt lat="43.6708871" lon="11.0332195"><ele>223.16666666666666</ele><time>2026-05-03T09:35:44.013Z</time></trkpt><trkpt lat="43.6709266" lon="11.0333274"><ele>225.0</ele><time>2026-05-03T09:35:45.002Z</time></trkpt><trkpt lat="43.6709817" lon="11.0334181"><ele>224.2</ele><time>2026-05-03T09:35:46.005Z</time></trkpt><trkpt lat="43.6710431" lon="11.0334993"><ele>223.4</ele><time>2026-05-03T09:35:47.012Z</time></trkpt><trkpt lat="43.671103" lon="11.0335847"><ele>222.60000000000002</ele><time>2026-05-03T09:35:48.015Z</time></trkpt><trkpt lat="43.6711615" lon="11.0336735"><ele>221.8</ele><time>2026-05-03T09:35:49.017Z</time></trkpt><trkpt lat="43.6712324" lon="11.0337588"><ele>221.0</ele><time>2026-05-03T09:35:50.019Z</time></trkpt><trkpt lat="43.6713213" lon="11.0338317"><ele>221.0</ele><time>2026-05-03T09:35:51.014Z</time></trkpt><trkpt lat="43.6714268" lon="11.0339158"><ele>221.0</ele><time>2026-05-03T09:35:52.011Z</time></trkpt><trkpt lat="43.6715562" lon="11.034023"><ele>221.0</ele><time>2026-05-03T09:35:53.01Z</time></trkpt><trkpt lat="43.6717003" lon="11.0341544"><ele>221.0</ele><time>2026-05-03T09:35:54.006Z</time></trkpt><trkpt lat="43.6718496" lon="11.0342996"><ele>221.75</ele><time>2026-05-03T09:35:55.009Z</time></trkpt><trkpt lat="43.6719821" lon="11.034424"><ele>222.5</ele><time>2026-05-03T09:35:56.01Z</time></trkpt><trkpt lat="43.6721007" lon="11.034535"><ele>223.25</ele><time>2026-05-03T09:35:57.012Z</time></trkpt><trkpt lat="43.6722078" lon="11.034634"><ele>224.0</ele><time>2026-05-03T09:35:58.005Z</time></trkpt><trkpt lat="43.6723051" lon="11.0347179"><ele>224.00000000000003</ele><time>2026-05-03T09:35:59.009Z</time></trkpt><trkpt lat="43.672394" lon="11.0347851"><ele>224.0</ele><time>2026-05-03T09:36:00.004Z</time></trkpt><trkpt lat="43.6724754" lon="11.0348517"><ele>224.0</ele><time>2026-05-03T09:36:01.002Z</time></trkpt><trkpt lat="43.6725527" lon="11.0349153"><ele>224.0</ele><time>2026-05-03T09:36:02.005Z</time></trkpt><trkpt lat="43.6726227" lon="11.0349717"><ele>224.00000000000003</ele><time>2026-05-03T09:36:03.017Z</time></trkpt><trkpt lat="43.6726859" lon="11.035032"><ele>224.0</ele><time>2026-05-03T09:36:04.006Z</time></trkpt><trkpt lat="43.6727473" lon="11.0350865"><ele>224.83333333333334</ele><time>2026-05-03T09:36:05.012Z</time></trkpt><trkpt lat="43.6728023" lon="11.0351337"><ele>225.66666666666669</ele><time>2026-05-03T09:36:06.006Z</time></trkpt><trkpt lat="43.6728801" lon="11.0352193"><ele>226.5</ele><time>2026-05-03T09:36:08.003Z</time></trkpt><trkpt lat="43.6729297" lon="11.0352902"><ele>227.33333333333331</ele><time>2026-05-03T09:36:10.013Z</time></trkpt><trkpt lat="43.6730068" lon="11.0353117"><ele>228.16666666666666</ele><time>2026-05-03T09:36:12.019Z</time></trkpt><trkpt lat="43.6730717" lon="11.0352903"><ele>229.0</ele><time>2026-05-03T09:36:13.009Z</time></trkpt><trkpt lat="43.6731469" lon="11.0352382"><ele>229.0</ele><time>2026-05-03T09:36:14.017Z</time></trkpt><trkpt lat="43.673223" lon="11.0351748"><ele>228.99999999999997</ele><time>2026-05-03T09:36:15.015Z</time></trkpt><trkpt lat="43.6733021" lon="11.0351121"><ele>228.99999999999997</ele><time>2026-05-03T09:36:16.01Z</time></trkpt><trkpt lat="43.6733859" lon="11.0350512"><ele>229.0</ele><time>2026-05-03T09:36:17.014Z</time></trkpt><trkpt lat="43.6734712" lon="11.0349881"><ele>229.0</ele><time>2026-05-03T09:36:18.014Z</time></trkpt><trkpt lat="43.6735475" lon="11.0349055"><ele>225.2</ele><time>2026-05-03T09:36:19.011Z</time></trkpt><trkpt lat="43.6736183" lon="11.0348147"><ele>221.39999999999998</ele><time>2026-05-03T09:36:20.031Z</time></trkpt><trkpt lat="43.6736791" lon="11.0347121"><ele>217.6</ele><time>2026-05-03T09:36:21.012Z</time></trkpt><trkpt lat="43.6737281" lon="11.0345973"><ele>213.8</ele><time>2026-05-03T09:36:22.008Z</time></trkpt><trkpt lat="43.6737667" lon="11.0344746"><ele>210.0</ele><time>2026-05-03T09:36:23.009Z</time></trkpt><trkpt lat="43.6737978" lon="11.0343479"><ele>210.0</ele><time>2026-05-03T09:36:24.005Z</time></trkpt><trkpt lat="43.6738247" lon="11.0342194"><ele>210.0</ele><time>2026-05-03T09:36:25.008Z</time></trkpt><trkpt lat="43.6738368" lon="11.0340847"><ele>210.0</ele><time>2026-05-03T09:36:26.005Z</time></trkpt><trkpt lat="43.6738527" lon="11.0339524"><ele>210.0</ele><time>2026-05-03T09:36:27.032Z</time></trkpt><trkpt lat="43.6738739" lon="11.0338245"><ele>210.0</ele><time>2026-05-03T09:36:28.009Z</time></trkpt><trkpt lat="43.6738979" lon="11.0337013"><ele>208.83333333333334</ele><time>2026-05-03T09:36:29.008Z</time></trkpt><trkpt lat="43.6739257" lon="11.0335847"><ele>207.66666666666669</ele><time>2026-05-03T09:36:30.024Z</time></trkpt><trkpt lat="43.6739575" lon="11.0334754"><ele>206.5</ele><time>2026-05-03T09:36:31.004Z</time></trkpt><trkpt lat="43.6739822" lon="11.0333647"><ele>205.33333333333334</ele><time>2026-05-03T09:36:32.009Z</time></trkpt><trkpt lat="43.674013" lon="11.0332684"><ele>204.16666666666669</ele><time>2026-05-03T09:36:33.011Z</time></trkpt><trkpt lat="43.674039" lon="11.0331845"><ele>203.0</ele><time>2026-05-03T09:36:34.016Z</time></trkpt><trkpt lat="43.6740859" lon="11.0330387"><ele>202.00000000000003</ele><time>2026-05-03T09:36:36.006Z</time></trkpt><trkpt lat="43.674133" lon="11.0329805"><ele>201.0</ele><time>2026-05-03T09:36:37.006Z</time></trkpt><trkpt lat="43.6741954" lon="11.0328467"><ele>200.0</ele><time>2026-05-03T09:36:39.012Z</time></trkpt><trkpt lat="43.6742278" lon="11.0327448"><ele>199.0</ele><time>2026-05-03T09:36:41.013Z</time></trkpt><trkpt lat="43.6742484" lon="11.0326339"><ele>198.00000000000003</ele><time>2026-05-03T09:36:44.018Z</time></trkpt><trkpt lat="43.6742716" lon="11.0325297"><ele>197.0</ele><time>2026-05-03T09:36:46.006Z</time></trkpt><trkpt lat="43.6742155" lon="11.0324028"><ele>196.16666666666669</ele><time>2026-05-03T09:37:42.018Z</time></trkpt><trkpt lat="43.6742797" lon="11.0323137"><ele>195.33333333333334</ele><time>2026-05-03T09:37:55.01Z</time></trkpt><trkpt lat="43.6743278" lon="11.03225"><ele>194.5</ele><time>2026-05-03T09:37:57.016Z</time></trkpt><trkpt lat="43.6743897" lon="11.0321798"><ele>193.66666666666669</ele><time>2026-05-03T09:37:59.015Z</time></trkpt><trkpt lat="43.6744524" lon="11.0321148"><ele>192.83333333333334</ele><time>2026-05-03T09:38:01.014Z</time></trkpt><trkpt lat="43.6745345" lon="11.032033"><ele>192.0</ele><time>2026-05-03T09:38:03.005Z</time></trkpt><trkpt lat="43.6746247" lon="11.0319417"><ele>193.42857142857142</ele><time>2026-05-03T09:38:05.018Z</time></trkpt><trkpt lat="43.674676" lon="11.0318903"><ele>194.85714285714286</ele><time>2026-05-03T09:38:06.006Z</time></trkpt><trkpt lat="43.6747316" lon="11.0318387"><ele>196.28571428571428</ele><time>2026-05-03T09:38:07.005Z</time></trkpt><trkpt lat="43.6747855" lon="11.0317874"><ele>197.71428571428572</ele><time>2026-05-03T09:38:08.011Z</time></trkpt><trkpt lat="43.6748363" lon="11.0317353"><ele>199.14285714285714</ele><time>2026-05-03T09:38:09.007Z</time></trkpt><trkpt lat="43.674917" lon="11.0316413"><ele>200.57142857142856</ele><time>2026-05-03T09:38:11.013Z</time></trkpt><trkpt lat="43.6749746" lon="11.0315933"><ele>202.0</ele><time>2026-05-03T09:38:13.016Z</time></trkpt><trkpt lat="43.6750368" lon="11.0315349"><ele>201.99999999999997</ele><time>2026-05-03T09:38:16.014Z</time></trkpt><trkpt lat="43.6751105" lon="11.0316268"><ele>202.0</ele><time>2026-05-03T09:38:19.009Z</time></trkpt><trkpt lat="43.675128" lon="11.0317558"><ele>202.0</ele><time>2026-05-03T09:38:21.005Z</time></trkpt><trkpt lat="43.675104" lon="11.0318627"><ele>202.0</ele><time>2026-05-03T09:38:23.004Z</time></trkpt><trkpt lat="43.6750156" lon="11.0319089"><ele>201.99999999999997</ele><time>2026-05-03T09:38:25Z</time></trkpt><trkpt lat="43.6749484" lon="11.0319351"><ele>202.0</ele><time>2026-05-03T09:38:26.007Z</time></trkpt><trkpt lat="43.674866" lon="11.031959"><ele>202.0</ele><time>2026-05-03T09:38:27.004Z</time></trkpt><trkpt lat="43.674788" lon="11.0319935"><ele>202.0</ele><time>2026-05-03T09:38:28.006Z</time></trkpt><trkpt lat="43.6747117" lon="11.0320487"><ele>202.0</ele><time>2026-05-03T09:38:29.004Z</time></trkpt><trkpt lat="43.6746261" lon="11.0321594"><ele>202.0</ele><time>2026-05-03T09:38:30.001Z</time></trkpt><trkpt lat="43.6745449" lon="11.0323085"><ele>202.0</ele><time>2026-05-03T09:38:31.013Z</time></trkpt><trkpt lat="43.6744719" lon="11.0324626"><ele>201.0</ele><time>2026-05-03T09:38:32.002Z</time></trkpt><trkpt lat="43.674415" lon="11.0325943"><ele>200.0</ele><time>2026-05-03T09:38:33.001Z</time></trkpt><trkpt lat="43.6743668" lon="11.0327068"><ele>199.0</ele><time>2026-05-03T09:38:34.016Z</time></trkpt><trkpt lat="43.6743181" lon="11.0328078"><ele>198.0</ele><time>2026-05-03T09:38:35.018Z</time></trkpt><trkpt lat="43.6742644" lon="11.0328989"><ele>197.0</ele><time>2026-05-03T09:38:36.007Z</time></trkpt><trkpt lat="43.6742196" lon="11.0329922"><ele>197.0</ele><time>2026-05-03T09:38:37.006Z</time></trkpt><trkpt lat="43.6741787" lon="11.0330769"><ele>197.0</ele><time>2026-05-03T09:38:38.007Z</time></trkpt><trkpt lat="43.6741279" lon="11.033207"><ele>197.0</ele><time>2026-05-03T09:38:40.008Z</time></trkpt><trkpt lat="43.6741575" lon="11.0330538"><ele>197.0</ele><time>2026-05-03T09:41:23Z</time></trkpt><trkpt lat="43.6742078" lon="11.0329104"><ele>197.0</ele><time>2026-05-03T09:41:25.01Z</time></trkpt><trkpt lat="43.6742243" lon="11.0328207"><ele>197.0</ele><time>2026-05-03T09:41:26.004Z</time></trkpt><trkpt lat="43.6742319" lon="11.0326841"><ele>197.0</ele><time>2026-05-03T09:41:28.004Z</time></trkpt><trkpt lat="43.6742409" lon="11.032576"><ele>197.0</ele><time>2026-05-03T09:42:24.005Z</time></trkpt><trkpt lat="43.6742373" lon="11.0324248"><ele>197.0</ele><time>2026-05-03T09:42:26.003Z</time></trkpt><trkpt lat="43.6742915" lon="11.0323165"><ele>197.0</ele><time>2026-05-03T09:42:29.002Z</time></trkpt><trkpt lat="43.6743622" lon="11.0322375"><ele>196.16666666666669</ele><time>2026-05-03T09:42:31.016Z</time></trkpt><trkpt lat="43.6744148" lon="11.0321765"><ele>195.33333333333334</ele><time>2026-05-03T09:42:32.006Z</time></trkpt><trkpt lat="43.6744782" lon="11.0321061"><ele>194.5</ele><time>2026-05-03T09:42:33.004Z</time></trkpt><trkpt lat="43.6745521" lon="11.0320341"><ele>193.66666666666669</ele><time>2026-05-03T09:42:34.003Z</time></trkpt><trkpt lat="43.674634" lon="11.0319542"><ele>192.83333333333334</ele><time>2026-05-03T09:42:35.02Z</time></trkpt><trkpt lat="43.6747146" lon="11.0318707"><ele>192.0</ele><time>2026-05-03T09:42:36.014Z</time></trkpt><trkpt lat="43.6747928" lon="11.0317882"><ele>194.0</ele><time>2026-05-03T09:42:37.004Z</time></trkpt><trkpt lat="43.6748675" lon="11.0317065"><ele>196.0</ele><time>2026-05-03T09:42:38.004Z</time></trkpt><trkpt lat="43.6749324" lon="11.0316388"><ele>198.0</ele><time>2026-05-03T09:42:39.014Z</time></trkpt><trkpt lat="43.6749993" lon="11.0315687"><ele>200.0</ele><time>2026-05-03T09:42:41.019Z</time></trkpt><trkpt lat="43.6750157" lon="11.0314588"><ele>202.0</ele><time>2026-05-03T09:42:44.029Z</time></trkpt><trkpt lat="43.6749496" lon="11.0313192"><ele>204.8</ele><time>2026-05-03T09:42:46.017Z</time></trkpt><trkpt lat="43.6748966" lon="11.0312244"><ele>207.6</ele><time>2026-05-03T09:42:47.029Z</time></trkpt><trkpt lat="43.674839" lon="11.0311157"><ele>210.40000000000003</ele><time>2026-05-03T09:42:48.004Z</time></trkpt><trkpt lat="43.6747834" lon="11.0309991"><ele>213.20000000000002</ele><time>2026-05-03T09:42:49.018Z</time></trkpt><trkpt lat="43.6747317" lon="11.0308847"><ele>216.0</ele><time>2026-05-03T09:42:50.018Z</time></trkpt><trkpt lat="43.674686" lon="11.0307985"><ele>218.4</ele><time>2026-05-03T09:42:51.011Z</time></trkpt><trkpt lat="43.6746477" lon="11.030719"><ele>220.8</ele><time>2026-05-03T09:42:52.019Z</time></trkpt><trkpt lat="43.6746256" lon="11.0305577"><ele>223.20000000000002</ele><time>2026-05-03T09:42:54.022Z</time></trkpt><trkpt lat="43.6747054" lon="11.0304496"><ele>225.60000000000002</ele><time>2026-05-03T09:42:56.029Z</time></trkpt><trkpt lat="43.6747887" lon="11.0304397"><ele>228.0</ele><time>2026-05-03T09:42:57.016Z</time></trkpt><trkpt lat="43.674885" lon="11.030459"><ele>228.0</ele><time>2026-05-03T09:42:58.007Z</time></trkpt><trkpt lat="43.674998" lon="11.0304894"><ele>228.0</ele><time>2026-05-03T09:42:59.012Z</time></trkpt><trkpt lat="43.6751225" lon="11.0304973"><ele>228.0</ele><time>2026-05-03T09:43:00.012Z</time></trkpt><trkpt lat="43.6752532" lon="11.0304816"><ele>228.0</ele><time>2026-05-03T09:43:01.014Z</time></trkpt><trkpt lat="43.6753751" lon="11.0304465"><ele>230.60000000000002</ele><time>2026-05-03T09:43:02.044Z</time></trkpt><trkpt lat="43.6754873" lon="11.0304186"><ele>233.20000000000002</ele><time>2026-05-03T09:43:03.062Z</time></trkpt><trkpt lat="43.6755928" lon="11.0303972"><ele>235.8</ele><time>2026-05-03T09:43:04.125Z</time></trkpt><trkpt lat="43.6756903" lon="11.0303947"><ele>238.4</ele><time>2026-05-03T09:43:05.061Z</time></trkpt><trkpt lat="43.6757816" lon="11.0304301"><ele>241.0</ele><time>2026-05-03T09:43:06.036Z</time></trkpt><trkpt lat="43.6758742" lon="11.0304714"><ele>241.0</ele><time>2026-05-03T09:43:07.034Z</time></trkpt><trkpt lat="43.6759672" lon="11.0305219"><ele>241.00000000000003</ele><time>2026-05-03T09:43:08.026Z</time></trkpt><trkpt lat="43.6760675" lon="11.0305743"><ele>241.00000000000003</ele><time>2026-05-03T09:43:09.037Z</time></trkpt><trkpt lat="43.6761731" lon="11.0306219"><ele>241.0</ele><time>2026-05-03T09:43:10.036Z</time></trkpt><trkpt lat="43.6762803" lon="11.0306793"><ele>241.0</ele><time>2026-05-03T09:43:11.072Z</time></trkpt><trkpt lat="43.6763946" lon="11.0307232"><ele>242.75</ele><time>2026-05-03T09:43:12.102Z</time></trkpt><trkpt lat="43.6765142" lon="11.0307361"><ele>244.5</ele><time>2026-05-03T09:43:13.064Z</time></trkpt><trkpt lat="43.6766342" lon="11.0307392"><ele>246.25</ele><time>2026-05-03T09:43:14.049Z</time></trkpt><trkpt lat="43.676756" lon="11.0307211"><ele>248.0</ele><time>2026-05-03T09:43:15.028Z</time></trkpt><trkpt lat="43.6768739" lon="11.0306903"><ele>249.25</ele><time>2026-05-03T09:43:16.081Z</time></trkpt><trkpt lat="43.6769854" lon="11.0306488"><ele>250.5</ele><time>2026-05-03T09:43:17.014Z</time></trkpt><trkpt lat="43.6770936" lon="11.0305934"><ele>251.75</ele><time>2026-05-03T09:43:18.059Z</time></trkpt><trkpt lat="43.6771992" lon="11.0305227"><ele>253.0</ele><time>2026-05-03T09:43:19.026Z</time></trkpt><trkpt lat="43.6773037" lon="11.0304444"><ele>253.0</ele><time>2026-05-03T09:43:20.018Z</time></trkpt><trkpt lat="43.6774081" lon="11.0303657"><ele>253.0</ele><time>2026-05-03T09:43:21.019Z</time></trkpt><trkpt lat="43.6775117" lon="11.0302956"><ele>253.0</ele><time>2026-05-03T09:43:22.028Z</time></trkpt><trkpt lat="43.6776123" lon="11.0302282"><ele>253.0</ele><time>2026-05-03T09:43:23.049Z</time></trkpt><trkpt lat="43.6777122" lon="11.0301713"><ele>252.75</ele><time>2026-05-03T09:43:24.026Z</time></trkpt><trkpt lat="43.6778183" lon="11.0301277"><ele>252.5</ele><time>2026-05-03T09:43:25.019Z</time></trkpt><trkpt lat="43.6779276" lon="11.0300707"><ele>252.25</ele><time>2026-05-03T09:43:26.023Z</time></trkpt><trkpt lat="43.6780412" lon="11.0300106"><ele>252.0</ele><time>2026-05-03T09:43:27.014Z</time></trkpt><trkpt lat="43.6781553" lon="11.0299505"><ele>252.0</ele><time>2026-05-03T09:43:28.019Z</time></trkpt><trkpt lat="43.678268" lon="11.0298907"><ele>252.0</ele><time>2026-05-03T09:43:29.019Z</time></trkpt><trkpt lat="43.6783777" lon="11.029829"><ele>252.0</ele><time>2026-05-03T09:43:30.004Z</time></trkpt><trkpt lat="43.6784806" lon="11.0297543"><ele>252.0</ele><time>2026-05-03T09:43:31.018Z</time></trkpt><trkpt lat="43.6785799" lon="11.0296905"><ele>252.0</ele><time>2026-05-03T09:43:32.015Z</time></trkpt><trkpt lat="43.6786782" lon="11.0296337"><ele>252.0</ele><time>2026-05-03T09:43:33.006Z</time></trkpt><trkpt lat="43.6787837" lon="11.0295949"><ele>252.0</ele><time>2026-05-03T09:43:34.016Z</time></trkpt><trkpt lat="43.6788887" lon="11.0295663"><ele>252.0</ele><time>2026-05-03T09:43:35.016Z</time></trkpt><trkpt lat="43.6789915" lon="11.0295488"><ele>252.0</ele><time>2026-05-03T09:43:36.016Z</time></trkpt><trkpt lat="43.6790945" lon="11.0295252"><ele>252.0</ele><time>2026-05-03T09:43:37.008Z</time></trkpt><trkpt lat="43.6792085" lon="11.0295328"><ele>252.0</ele><time>2026-05-03T09:43:38.012Z</time></trkpt><trkpt lat="43.6793266" lon="11.0295549"><ele>252.0</ele><time>2026-05-03T09:43:39.011Z</time></trkpt><trkpt lat="43.679444" lon="11.0295867"><ele>252.0</ele><time>2026-05-03T09:43:40.017Z</time></trkpt><trkpt lat="43.6795681" lon="11.0296094"><ele>249.75</ele><time>2026-05-03T09:43:41.009Z</time></trkpt><trkpt lat="43.6796992" lon="11.0296286"><ele>247.5</ele><time>2026-05-03T09:43:42.015Z</time></trkpt><trkpt lat="43.6798322" lon="11.0296517"><ele>245.25</ele><time>2026-05-03T09:43:43.011Z</time></trkpt><trkpt lat="43.6799677" lon="11.0296782"><ele>243.0</ele><time>2026-05-03T09:43:44.012Z</time></trkpt><trkpt lat="43.6801008" lon="11.0297054"><ele>243.0</ele><time>2026-05-03T09:43:45.009Z</time></trkpt><trkpt lat="43.6802245" lon="11.0297353"><ele>243.0</ele><time>2026-05-03T09:43:46.012Z</time></trkpt><trkpt lat="43.6803398" lon="11.0297536"><ele>243.0</ele><time>2026-05-03T09:43:47.008Z</time></trkpt><trkpt lat="43.6804517" lon="11.0297611"><ele>243.0</ele><time>2026-05-03T09:43:48.02Z</time></trkpt><trkpt lat="43.6805618" lon="11.0297429"><ele>242.75</ele><time>2026-05-03T09:43:49.009Z</time></trkpt><trkpt lat="43.6806699" lon="11.0296885"><ele>242.5</ele><time>2026-05-03T09:43:50.002Z</time></trkpt><trkpt lat="43.680764" lon="11.0295806"><ele>242.25</ele><time>2026-05-03T09:43:51.01Z</time></trkpt><trkpt lat="43.6808609" lon="11.02945"><ele>242.0</ele><time>2026-05-03T09:43:52.009Z</time></trkpt><trkpt lat="43.6809392" lon="11.0292797"><ele>241.5</ele><time>2026-05-03T09:43:53.011Z</time></trkpt><trkpt lat="43.681021" lon="11.0291134"><ele>241.0</ele><time>2026-05-03T09:43:54.019Z</time></trkpt><trkpt lat="43.6810852" lon="11.028941"><ele>240.5</ele><time>2026-05-03T09:43:55.008Z</time></trkpt><trkpt lat="43.6811635" lon="11.0287892"><ele>240.0</ele><time>2026-05-03T09:43:56.01Z</time></trkpt><trkpt lat="43.6812543" lon="11.028641"><ele>240.0</ele><time>2026-05-03T09:43:57.005Z</time></trkpt><trkpt lat="43.681367" lon="11.0284806"><ele>240.0</ele><time>2026-05-03T09:43:58.012Z</time></trkpt><trkpt lat="43.6814968" lon="11.0283125"><ele>240.0</ele><time>2026-05-03T09:43:59.021Z</time></trkpt><trkpt lat="43.6816332" lon="11.0281366"><ele>239.0</ele><time>2026-05-03T09:44:00.022Z</time></trkpt><trkpt lat="43.6817605" lon="11.0279744"><ele>238.0</ele><time>2026-05-03T09:44:01.012Z</time></trkpt><trkpt lat="43.6818871" lon="11.0278154"><ele>237.0</ele><time>2026-05-03T09:44:02.037Z</time></trkpt><trkpt lat="43.6820191" lon="11.0276609"><ele>237.33333333333331</ele><time>2026-05-03T09:44:03.01Z</time></trkpt><trkpt lat="43.6821519" lon="11.0275078"><ele>237.66666666666666</ele><time>2026-05-03T09:44:04.036Z</time></trkpt><trkpt lat="43.6822818" lon="11.0273588"><ele>238.0</ele><time>2026-05-03T09:44:05.006Z</time></trkpt><trkpt lat="43.6824067" lon="11.0272149"><ele>238.0</ele><time>2026-05-03T09:44:06.011Z</time></trkpt><trkpt lat="43.6825249" lon="11.027072"><ele>238.0</ele><time>2026-05-03T09:44:07.009Z</time></trkpt><trkpt lat="43.6826314" lon="11.0269302"><ele>238.0</ele><time>2026-05-03T09:44:08.002Z</time></trkpt><trkpt lat="43.6827306" lon="11.0268061"><ele>238.0</ele><time>2026-05-03T09:44:09.008Z</time></trkpt><trkpt lat="43.682833" lon="11.0267152"><ele>237.75</ele><time>2026-05-03T09:44:10.008Z</time></trkpt><trkpt lat="43.6829451" lon="11.0266565"><ele>237.5</ele><time>2026-05-03T09:44:11.003Z</time></trkpt><trkpt lat="43.6830737" lon="11.0266306"><ele>237.25</ele><time>2026-05-03T09:44:12.022Z</time></trkpt><trkpt lat="43.6832208" lon="11.026629"><ele>237.0</ele><time>2026-05-03T09:44:13.006Z</time></trkpt><trkpt lat="43.6833831" lon="11.0266365"><ele>237.0</ele><time>2026-05-03T09:44:14.007Z</time></trkpt><trkpt lat="43.6835524" lon="11.0266471"><ele>237.0</ele><time>2026-05-03T09:44:15.011Z</time></trkpt><trkpt lat="43.6837229" lon="11.0266612"><ele>237.0</ele><time>2026-05-03T09:44:16.013Z</time></trkpt><trkpt lat="43.6838927" lon="11.0266692"><ele>237.0</ele><time>2026-05-03T09:44:17.003Z</time></trkpt><trkpt lat="43.684054" lon="11.0266706"><ele>237.0</ele><time>2026-05-03T09:44:18.007Z</time></trkpt><trkpt lat="43.6842011" lon="11.0266694"><ele>237.0</ele><time>2026-05-03T09:44:19.021Z</time></trkpt><trkpt lat="43.684336" lon="11.0266713"><ele>237.0</ele><time>2026-05-03T09:44:20.003Z</time></trkpt><trkpt lat="43.6844617" lon="11.026672"><ele>237.39999999999998</ele><time>2026-05-03T09:44:21.002Z</time></trkpt><trkpt lat="43.6845809" lon="11.0266714"><ele>237.79999999999998</ele><time>2026-05-03T09:44:22.013Z</time></trkpt><trkpt lat="43.6846943" lon="11.0266724"><ele>238.2</ele><time>2026-05-03T09:44:23.008Z</time></trkpt><trkpt lat="43.6847999" lon="11.0266754"><ele>238.6</ele><time>2026-05-03T09:44:24.011Z</time></trkpt><trkpt lat="43.6848956" lon="11.0266766"><ele>239.0</ele><time>2026-05-03T09:44:25.049Z</time></trkpt><trkpt lat="43.684986" lon="11.026672"><ele>239.0</ele><time>2026-05-03T09:44:26.031Z</time></trkpt><trkpt lat="43.6850744" lon="11.026672"><ele>238.99999999999997</ele><time>2026-05-03T09:44:27.001Z</time></trkpt><trkpt lat="43.6851575" lon="11.026672"><ele>238.99999999999997</ele><time>2026-05-03T09:44:28.009Z</time></trkpt><trkpt lat="43.6852424" lon="11.0266642"><ele>239.0</ele><time>2026-05-03T09:44:29.019Z</time></trkpt><trkpt lat="43.685333" lon="11.0266199"><ele>239.0</ele><time>2026-05-03T09:44:30.001Z</time></trkpt><trkpt lat="43.6854348" lon="11.0265545"><ele>238.0</ele><time>2026-05-03T09:44:31.012Z</time></trkpt><trkpt lat="43.685553" lon="11.0264901"><ele>237.0</ele><time>2026-05-03T09:44:32.008Z</time></trkpt><trkpt lat="43.6856806" lon="11.0264114"><ele>236.0</ele><time>2026-05-03T09:44:32.997Z</time></trkpt><trkpt lat="43.6858118" lon="11.0263137"><ele>235.0</ele><time>2026-05-03T09:44:34.012Z</time></trkpt><trkpt lat="43.6859388" lon="11.0262056"><ele>235.0</ele><time>2026-05-03T09:44:35.02Z</time></trkpt><trkpt lat="43.6860694" lon="11.0261128"><ele>235.0</ele><time>2026-05-03T09:44:36.009Z</time></trkpt><trkpt lat="43.6862075" lon="11.0260307"><ele>235.0</ele><time>2026-05-03T09:44:37.006Z</time></trkpt><trkpt lat="43.6863347" lon="11.0259281"><ele>235.0</ele><time>2026-05-03T09:44:38.01Z</time></trkpt><trkpt lat="43.6864649" lon="11.0258335"><ele>235.0</ele><time>2026-05-03T09:44:39.007Z</time></trkpt><trkpt lat="43.6866039" lon="11.0257474"><ele>235.0</ele><time>2026-05-03T09:44:40.004Z</time></trkpt><trkpt lat="43.6867449" lon="11.0256527"><ele>235.0</ele><time>2026-05-03T09:44:41.014Z</time></trkpt><trkpt lat="43.6868786" lon="11.0255592"><ele>236.25</ele><time>2026-05-03T09:44:42.005Z</time></trkpt><trkpt lat="43.6870032" lon="11.0254664"><ele>237.5</ele><time>2026-05-03T09:44:43.019Z</time></trkpt><trkpt lat="43.6871294" lon="11.0253784"><ele>238.75</ele><time>2026-05-03T09:44:44.004Z</time></trkpt><trkpt lat="43.6872562" lon="11.0252909"><ele>240.0</ele><time>2026-05-03T09:44:45.006Z</time></trkpt><trkpt lat="43.6873698" lon="11.0252077"><ele>240.0</ele><time>2026-05-03T09:44:46.017Z</time></trkpt><trkpt lat="43.6874783" lon="11.0251197"><ele>240.0</ele><time>2026-05-03T09:44:47.017Z</time></trkpt><trkpt lat="43.6875925" lon="11.0250181"><ele>240.0</ele><time>2026-05-03T09:44:48.01Z</time></trkpt><trkpt lat="43.6877133" lon="11.0249308"><ele>240.0</ele><time>2026-05-03T09:44:48.995Z</time></trkpt><trkpt lat="43.6878274" lon="11.024846"><ele>239.8</ele><time>2026-05-03T09:44:50.004Z</time></trkpt><trkpt lat="43.6879219" lon="11.0247749"><ele>239.6</ele><time>2026-05-03T09:44:51.001Z</time></trkpt><trkpt lat="43.687997" lon="11.0247214"><ele>239.39999999999998</ele><time>2026-05-03T09:44:52.009Z</time></trkpt><trkpt lat="43.6880832" lon="11.02471"><ele>239.2</ele><time>2026-05-03T09:44:53.009Z</time></trkpt><trkpt lat="43.68817" lon="11.0246846"><ele>239.0</ele><time>2026-05-03T09:44:54.004Z</time></trkpt><trkpt lat="43.6882736" lon="11.0246516"><ele>239.0</ele><time>2026-05-03T09:44:55.018Z</time></trkpt><trkpt lat="43.6883875" lon="11.0246146"><ele>239.0</ele><time>2026-05-03T09:44:56.009Z</time></trkpt><trkpt lat="43.6885064" lon="11.0245673"><ele>239.0</ele><time>2026-05-03T09:44:57.006Z</time></trkpt><trkpt lat="43.6886317" lon="11.0245254"><ele>239.0</ele><time>2026-05-03T09:44:58.011Z</time></trkpt><trkpt lat="43.68876" lon="11.0244733"><ele>237.5</ele><time>2026-05-03T09:44:59.012Z</time></trkpt><trkpt lat="43.6888922" lon="11.0244288"><ele>236.0</ele><time>2026-05-03T09:45:00.001Z</time></trkpt><trkpt lat="43.6890274" lon="11.0243858"><ele>234.5</ele><time>2026-05-03T09:45:01.018Z</time></trkpt><trkpt lat="43.6891678" lon="11.0243467"><ele>233.0</ele><time>2026-05-03T09:45:02.013Z</time></trkpt><trkpt lat="43.6893076" lon="11.0243113"><ele>232.25</ele><time>2026-05-03T09:45:03.005Z</time></trkpt><trkpt lat="43.6894456" lon="11.0242691"><ele>231.5</ele><time>2026-05-03T09:45:04.012Z</time></trkpt><trkpt lat="43.6895774" lon="11.0242114"><ele>230.75</ele><time>2026-05-03T09:45:05.012Z</time></trkpt><trkpt lat="43.6897086" lon="11.0241571"><ele>230.0</ele><time>2026-05-03T09:45:06.007Z</time></trkpt><trkpt lat="43.6898344" lon="11.0240958"><ele>228.25</ele><time>2026-05-03T09:45:07.008Z</time></trkpt><trkpt lat="43.689953" lon="11.0240534"><ele>226.5</ele><time>2026-05-03T09:45:08.004Z</time></trkpt><trkpt lat="43.690062" lon="11.024011"><ele>224.75</ele><time>2026-05-03T09:45:09.004Z</time></trkpt><trkpt lat="43.690171" lon="11.02396"><ele>223.0</ele><time>2026-05-03T09:45:10.01Z</time></trkpt><trkpt lat="43.6902901" lon="11.0238916"><ele>223.0</ele><time>2026-05-03T09:45:11.024Z</time></trkpt><trkpt lat="43.6904121" lon="11.0238316"><ele>223.0</ele><time>2026-05-03T09:45:12.015Z</time></trkpt><trkpt lat="43.690525" lon="11.02378"><ele>223.0</ele><time>2026-05-03T09:45:13.007Z</time></trkpt><trkpt lat="43.6906282" lon="11.0237356"><ele>223.0</ele><time>2026-05-03T09:45:14.004Z</time></trkpt><trkpt lat="43.6907322" lon="11.0236823"><ele>223.0</ele><time>2026-05-03T09:45:15.002Z</time></trkpt><trkpt lat="43.6908427" lon="11.0236218"><ele>223.0</ele><time>2026-05-03T09:45:16.003Z</time></trkpt><trkpt lat="43.690955" lon="11.0235577"><ele>223.0</ele><time>2026-05-03T09:45:16.999Z</time></trkpt><trkpt lat="43.6910596" lon="11.0235057"><ele>223.0</ele><time>2026-05-03T09:45:18.01Z</time></trkpt><trkpt lat="43.6911637" lon="11.0234679"><ele>224.5</ele><time>2026-05-03T09:45:19Z</time></trkpt><trkpt lat="43.6912728" lon="11.023435"><ele>226.0</ele><time>2026-05-03T09:45:19.999Z</time></trkpt><trkpt lat="43.6913865" lon="11.0234076"><ele>227.5</ele><time>2026-05-03T09:45:20.999Z</time></trkpt><trkpt lat="43.6915025" lon="11.0233882"><ele>229.0</ele><time>2026-05-03T09:45:22.003Z</time></trkpt><trkpt lat="43.691617" lon="11.0233603"><ele>229.0</ele><time>2026-05-03T09:45:23.002Z</time></trkpt><trkpt lat="43.6917259" lon="11.0233354"><ele>228.99999999999997</ele><time>2026-05-03T09:45:24.005Z</time></trkpt><trkpt lat="43.6918275" lon="11.0233127"><ele>228.99999999999997</ele><time>2026-05-03T09:45:25.006Z</time></trkpt><trkpt lat="43.6919259" lon="11.0232884"><ele>229.0</ele><time>2026-05-03T09:45:26.004Z</time></trkpt><trkpt lat="43.6920233" lon="11.0232575"><ele>229.0</ele><time>2026-05-03T09:45:27.007Z</time></trkpt><trkpt lat="43.6921203" lon="11.0232246"><ele>227.39999999999998</ele><time>2026-05-03T09:45:27.997Z</time></trkpt><trkpt lat="43.6922164" lon="11.023198"><ele>225.79999999999998</ele><time>2026-05-03T09:45:29.004Z</time></trkpt><trkpt lat="43.6923156" lon="11.0231958"><ele>224.20000000000002</ele><time>2026-05-03T09:45:30.01Z</time></trkpt><trkpt lat="43.692421" lon="11.0232054"><ele>222.60000000000002</ele><time>2026-05-03T09:45:31.002Z</time></trkpt><trkpt lat="43.6925263" lon="11.023247"><ele>221.0</ele><time>2026-05-03T09:45:31.997Z</time></trkpt><trkpt lat="43.6926211" lon="11.0232979"><ele>222.0</ele><time>2026-05-03T09:45:33.001Z</time></trkpt><trkpt lat="43.6927085" lon="11.0233527"><ele>223.00000000000003</ele><time>2026-05-03T09:45:33.998Z</time></trkpt><trkpt lat="43.6927902" lon="11.0234129"><ele>224.00000000000003</ele><time>2026-05-03T09:45:34.996Z</time></trkpt><trkpt lat="43.6928707" lon="11.0234823"><ele>225.0</ele><time>2026-05-03T09:45:35.998Z</time></trkpt><trkpt lat="43.6929535" lon="11.0235801"><ele>226.0</ele><time>2026-05-03T09:45:37.001Z</time></trkpt><trkpt lat="43.6930351" lon="11.0236916"><ele>224.4</ele><time>2026-05-03T09:45:37.997Z</time></trkpt><trkpt lat="43.6931126" lon="11.0238011"><ele>222.8</ele><time>2026-05-03T09:45:38.996Z</time></trkpt><trkpt lat="43.6931926" lon="11.0239086"><ele>221.20000000000002</ele><time>2026-05-03T09:45:40Z</time></trkpt><trkpt lat="43.6932733" lon="11.0240167"><ele>219.60000000000002</ele><time>2026-05-03T09:45:41.006Z</time></trkpt><trkpt lat="43.6933518" lon="11.0241143"><ele>218.0</ele><time>2026-05-03T09:45:42.004Z</time></trkpt><trkpt lat="43.69342" lon="11.0242058"><ele>218.0</ele><time>2026-05-03T09:45:43.003Z</time></trkpt><trkpt lat="43.693483" lon="11.0242912"><ele>218.0</ele><time>2026-05-03T09:45:43.996Z</time></trkpt><trkpt lat="43.6935451" lon="11.0243726"><ele>218.0</ele><time>2026-05-03T09:45:45.005Z</time></trkpt><trkpt lat="43.6936092" lon="11.0244534"><ele>218.0</ele><time>2026-05-03T09:45:45.997Z</time></trkpt><trkpt lat="43.6936836" lon="11.0245363"><ele>218.0</ele><time>2026-05-03T09:45:46.997Z</time></trkpt><trkpt lat="43.6937732" lon="11.0246039"><ele>216.4</ele><time>2026-05-03T09:45:48.003Z</time></trkpt><trkpt lat="43.693874" lon="11.0246455"><ele>214.8</ele><time>2026-05-03T09:45:48.997Z</time></trkpt><trkpt lat="43.6939857" lon="11.0246899"><ele>213.2</ele><time>2026-05-03T09:45:50.001Z</time></trkpt><trkpt lat="43.6940935" lon="11.0247152"><ele>211.6</ele><time>2026-05-03T09:45:50.993Z</time></trkpt><trkpt lat="43.6942107" lon="11.0247131"><ele>210.0</ele><time>2026-05-03T09:45:51.993Z</time></trkpt><trkpt lat="43.6943466" lon="11.0246631"><ele>210.75</ele><time>2026-05-03T09:45:52.997Z</time></trkpt><trkpt lat="43.6944853" lon="11.0246451"><ele>211.5</ele><time>2026-05-03T09:45:53.996Z</time></trkpt><trkpt lat="43.6946152" lon="11.0246151"><ele>212.25</ele><time>2026-05-03T09:45:55.005Z</time></trkpt><trkpt lat="43.6947326" lon="11.024566"><ele>213.0</ele><time>2026-05-03T09:45:56.007Z</time></trkpt><trkpt lat="43.6948471" lon="11.0245468"><ele>213.0</ele><time>2026-05-03T09:45:57.003Z</time></trkpt><trkpt lat="43.6949545" lon="11.0245242"><ele>213.0</ele><time>2026-05-03T09:45:58.002Z</time></trkpt><trkpt lat="43.6950598" lon="11.024512"><ele>213.0</ele><time>2026-05-03T09:45:58.996Z</time></trkpt><trkpt lat="43.695158" lon="11.0245037"><ele>213.0</ele><time>2026-05-03T09:45:59.996Z</time></trkpt><trkpt lat="43.6952598" lon="11.0245327"><ele>213.0</ele><time>2026-05-03T09:46:01Z</time></trkpt><trkpt lat="43.6953726" lon="11.0245661"><ele>215.0</ele><time>2026-05-03T09:46:02.002Z</time></trkpt><trkpt lat="43.6954894" lon="11.024617"><ele>217.0</ele><time>2026-05-03T09:46:03.008Z</time></trkpt><trkpt lat="43.6956122" lon="11.0246785"><ele>219.0</ele><time>2026-05-03T09:46:03.997Z</time></trkpt><trkpt lat="43.6957463" lon="11.0247445"><ele>221.0</ele><time>2026-05-03T09:46:04.997Z</time></trkpt><trkpt lat="43.6958928" lon="11.0248125"><ele>221.0</ele><time>2026-05-03T09:46:06.002Z</time></trkpt><trkpt lat="43.6960456" lon="11.0248867"><ele>221.0</ele><time>2026-05-03T09:46:07.006Z</time></trkpt><trkpt lat="43.6961971" lon="11.0249585"><ele>221.0</ele><time>2026-05-03T09:46:08.001Z</time></trkpt><trkpt lat="43.6963389" lon="11.0250238"><ele>221.5</ele><time>2026-05-03T09:46:09.004Z</time></trkpt><trkpt lat="43.6964779" lon="11.0250826"><ele>222.0</ele><time>2026-05-03T09:46:10.001Z</time></trkpt><trkpt lat="43.6966148" lon="11.0251469"><ele>222.5</ele><time>2026-05-03T09:46:11.006Z</time></trkpt><trkpt lat="43.6967489" lon="11.0252012"><ele>223.0</ele><time>2026-05-03T09:46:12.003Z</time></trkpt><trkpt lat="43.6968701" lon="11.0252535"><ele>222.75</ele><time>2026-05-03T09:46:13.007Z</time></trkpt><trkpt lat="43.6969881" lon="11.0253234"><ele>222.5</ele><time>2026-05-03T09:46:13.999Z</time></trkpt><trkpt lat="43.6971198" lon="11.0253852"><ele>222.25</ele><time>2026-05-03T09:46:15.003Z</time></trkpt><trkpt lat="43.6972419" lon="11.0254591"><ele>222.0</ele><time>2026-05-03T09:46:15.996Z</time></trkpt><trkpt lat="43.6973688" lon="11.0255134"><ele>222.0</ele><time>2026-05-03T09:46:17.008Z</time></trkpt><trkpt lat="43.6974951" lon="11.0255617"><ele>222.0</ele><time>2026-05-03T09:46:17.999Z</time></trkpt><trkpt lat="43.6976094" lon="11.0256108"><ele>222.0</ele><time>2026-05-03T09:46:19.003Z</time></trkpt><trkpt lat="43.697723" lon="11.0256362"><ele>222.0</ele><time>2026-05-03T09:46:19.995Z</time></trkpt><trkpt lat="43.6978383" lon="11.0256852"><ele>220.5</ele><time>2026-05-03T09:46:21.003Z</time></trkpt><trkpt lat="43.6979619" lon="11.0257256"><ele>219.0</ele><time>2026-05-03T09:46:22.007Z</time></trkpt><trkpt lat="43.6980798" lon="11.0257713"><ele>217.5</ele><time>2026-05-03T09:46:23.002Z</time></trkpt><trkpt lat="43.6982003" lon="11.025797"><ele>216.0</ele><time>2026-05-03T09:46:24.008Z</time></trkpt><trkpt lat="43.6983159" lon="11.0258466"><ele>216.0</ele><time>2026-05-03T09:46:25.003Z</time></trkpt><trkpt lat="43.6984216" lon="11.0259021"><ele>216.00000000000003</ele><time>2026-05-03T09:46:26Z</time></trkpt><trkpt lat="43.6985238" lon="11.0259683"><ele>216.00000000000003</ele><time>2026-05-03T09:46:27.004Z</time></trkpt><trkpt lat="43.6986261" lon="11.0260117"><ele>216.0</ele><time>2026-05-03T09:46:28.009Z</time></trkpt><trkpt lat="43.6987358" lon="11.026044"><ele>216.0</ele><time>2026-05-03T09:46:29.003Z</time></trkpt><trkpt lat="43.6988536" lon="11.0260594"><ele>215.25</ele><time>2026-05-03T09:46:29.998Z</time></trkpt><trkpt lat="43.6989731" lon="11.0260508"><ele>214.5</ele><time>2026-05-03T09:46:30.998Z</time></trkpt><trkpt lat="43.6990939" lon="11.0260187"><ele>213.75</ele><time>2026-05-03T09:46:31.995Z</time></trkpt><trkpt lat="43.6992037" lon="11.0259519"><ele>213.0</ele><time>2026-05-03T09:46:33.002Z</time></trkpt><trkpt lat="43.6992989" lon="11.025857"><ele>212.60000000000002</ele><time>2026-05-03T09:46:34.002Z</time></trkpt><trkpt lat="43.6993739" lon="11.0257308"><ele>212.20000000000002</ele><time>2026-05-03T09:46:34.996Z</time></trkpt><trkpt lat="43.6994345" lon="11.0255986"><ele>211.8</ele><time>2026-05-03T09:46:35.993Z</time></trkpt><trkpt lat="43.6994914" lon="11.0254722"><ele>211.4</ele><time>2026-05-03T09:46:36.996Z</time></trkpt><trkpt lat="43.699564" lon="11.0253676"><ele>211.0</ele><time>2026-05-03T09:46:38.004Z</time></trkpt><trkpt lat="43.6996527" lon="11.0252701"><ele>211.0</ele><time>2026-05-03T09:46:39.008Z</time></trkpt><trkpt lat="43.6997604" lon="11.025189"><ele>211.0</ele><time>2026-05-03T09:46:39.995Z</time></trkpt><trkpt lat="43.699883" lon="11.0251111"><ele>211.0</ele><time>2026-05-03T09:46:40.994Z</time></trkpt><trkpt lat="43.7000256" lon="11.02504"><ele>211.0</ele><time>2026-05-03T09:46:41.998Z</time></trkpt><trkpt lat="43.7001699" lon="11.0249458"><ele>210.66666666666666</ele><time>2026-05-03T09:46:42.995Z</time></trkpt><trkpt lat="43.7003139" lon="11.0248413"><ele>210.33333333333331</ele><time>2026-05-03T09:46:43.999Z</time></trkpt><trkpt lat="43.7004554" lon="11.02473"><ele>210.0</ele><time>2026-05-03T09:46:44.995Z</time></trkpt><trkpt lat="43.7005904" lon="11.0246249"><ele>210.0</ele><time>2026-05-03T09:46:46Z</time></trkpt><trkpt lat="43.7007118" lon="11.024525"><ele>210.0</ele><time>2026-05-03T09:46:47.004Z</time></trkpt><trkpt lat="43.7008205" lon="11.0244316"><ele>210.0</ele><time>2026-05-03T09:46:48.001Z</time></trkpt><trkpt lat="43.7009221" lon="11.0243372"><ele>210.0</ele><time>2026-05-03T09:46:48.993Z</time></trkpt><trkpt lat="43.7010159" lon="11.0242183"><ele>212.33333333333331</ele><time>2026-05-03T09:46:49.999Z</time></trkpt><trkpt lat="43.7011031" lon="11.0240679"><ele>214.66666666666666</ele><time>2026-05-03T09:46:51.011Z</time></trkpt><trkpt lat="43.7011723" lon="11.023882"><ele>217.0</ele><time>2026-05-03T09:46:51.995Z</time></trkpt><trkpt lat="43.7012355" lon="11.0236757"><ele>217.0</ele><time>2026-05-03T09:46:52.997Z</time></trkpt><trkpt lat="43.7013129" lon="11.0234653"><ele>217.0</ele><time>2026-05-03T09:46:53.997Z</time></trkpt><trkpt lat="43.7014044" lon="11.0232564"><ele>217.0</ele><time>2026-05-03T09:46:55.002Z</time></trkpt><trkpt lat="43.7015069" lon="11.0230595"><ele>215.66666666666666</ele><time>2026-05-03T09:46:56.006Z</time></trkpt><trkpt lat="43.7016109" lon="11.0228862"><ele>214.33333333333331</ele><time>2026-05-03T09:46:57.007Z</time></trkpt><trkpt lat="43.7017178" lon="11.0227386"><ele>213.0</ele><time>2026-05-03T09:46:58.001Z</time></trkpt><trkpt lat="43.7018118" lon="11.0225825"><ele>212.25</ele><time>2026-05-03T09:46:59.006Z</time></trkpt><trkpt lat="43.7018882" lon="11.0224175"><ele>211.5</ele><time>2026-05-03T09:47:00.003Z</time></trkpt><trkpt lat="43.7019541" lon="11.022264"><ele>210.75</ele><time>2026-05-03T09:47:01.003Z</time></trkpt><trkpt lat="43.7020266" lon="11.0221268"><ele>210.0</ele><time>2026-05-03T09:47:02.003Z</time></trkpt><trkpt lat="43.7021162" lon="11.0219998"><ele>211.0</ele><time>2026-05-03T09:47:02.994Z</time></trkpt><trkpt lat="43.702221" lon="11.0218723"><ele>212.0</ele><time>2026-05-03T09:47:04.001Z</time></trkpt><trkpt lat="43.7023382" lon="11.0217464"><ele>213.0</ele><time>2026-05-03T09:47:05.001Z</time></trkpt><trkpt lat="43.7024523" lon="11.0216216"><ele>214.0</ele><time>2026-05-03T09:47:06.005Z</time></trkpt><trkpt lat="43.7025574" lon="11.0215047"><ele>214.0</ele><time>2026-05-03T09:47:07.005Z</time></trkpt><trkpt lat="43.7026578" lon="11.021396"><ele>214.0</ele><time>2026-05-03T09:47:08.007Z</time></trkpt><trkpt lat="43.7027544" lon="11.0212901"><ele>214.0</ele><time>2026-05-03T09:47:08.994Z</time></trkpt><trkpt lat="43.7028433" lon="11.0211846"><ele>214.0</ele><time>2026-05-03T09:47:09.997Z</time></trkpt><trkpt lat="43.7029236" lon="11.0210869"><ele>214.49999999999997</ele><time>2026-05-03T09:47:11.003Z</time></trkpt><trkpt lat="43.7029975" lon="11.0209992"><ele>215.0</ele><time>2026-05-03T09:47:12.002Z</time></trkpt><trkpt lat="43.7030655" lon="11.0209188"><ele>215.5</ele><time>2026-05-03T09:47:13.001Z</time></trkpt><trkpt lat="43.7031316" lon="11.020845"><ele>216.0</ele><time>2026-05-03T09:47:13.998Z</time></trkpt><trkpt lat="43.7031989" lon="11.0207853"><ele>216.49999999999997</ele><time>2026-05-03T09:47:15.008Z</time></trkpt><trkpt lat="43.7032595" lon="11.0207268"><ele>217.0</ele><time>2026-05-03T09:47:16.002Z</time></trkpt><trkpt lat="43.7033197" lon="11.0206747"><ele>215.83333333333331</ele><time>2026-05-03T09:47:16.993Z</time></trkpt><trkpt lat="43.7033828" lon="11.020621"><ele>214.66666666666666</ele><time>2026-05-03T09:47:17.997Z</time></trkpt><trkpt lat="43.7034505" lon="11.0205644"><ele>213.5</ele><time>2026-05-03T09:47:19.002Z</time></trkpt><trkpt lat="43.7035196" lon="11.0205101"><ele>212.33333333333331</ele><time>2026-05-03T09:47:19.999Z</time></trkpt><trkpt lat="43.7035956" lon="11.0204626"><ele>211.16666666666666</ele><time>2026-05-03T09:47:21.001Z</time></trkpt><trkpt lat="43.7036822" lon="11.0204214"><ele>210.0</ele><time>2026-05-03T09:47:22.001Z</time></trkpt><trkpt lat="43.7037685" lon="11.0203698"><ele>209.83333333333334</ele><time>2026-05-03T09:47:23.007Z</time></trkpt><trkpt lat="43.7038545" lon="11.0203238"><ele>209.66666666666669</ele><time>2026-05-03T09:47:24.001Z</time></trkpt><trkpt lat="43.7039383" lon="11.0202773"><ele>209.5</ele><time>2026-05-03T09:47:25.008Z</time></trkpt><trkpt lat="43.7040184" lon="11.0202278"><ele>209.33333333333334</ele><time>2026-05-03T09:47:26.006Z</time></trkpt><trkpt lat="43.7040962" lon="11.0201779"><ele>209.16666666666669</ele><time>2026-05-03T09:47:27.002Z</time></trkpt><trkpt lat="43.7041719" lon="11.0201267"><ele>209.0</ele><time>2026-05-03T09:47:27.998Z</time></trkpt><trkpt lat="43.7042456" lon="11.0200749"><ele>209.00000000000003</ele><time>2026-05-03T09:47:28.995Z</time></trkpt><trkpt lat="43.7043193" lon="11.0200206"><ele>209.0</ele><time>2026-05-03T09:47:30.003Z</time></trkpt><trkpt lat="43.7043979" lon="11.0199624"><ele>209.0</ele><time>2026-05-03T09:47:30.998Z</time></trkpt><trkpt lat="43.7044735" lon="11.0198839"><ele>209.0</ele><time>2026-05-03T09:47:31.997Z</time></trkpt><trkpt lat="43.7045483" lon="11.0198134"><ele>209.00000000000003</ele><time>2026-05-03T09:47:32.995Z</time></trkpt><trkpt lat="43.7046158" lon="11.0197444"><ele>209.0</ele><time>2026-05-03T09:47:34.009Z</time></trkpt><trkpt lat="43.704678" lon="11.01968"><ele>208.83333333333334</ele><time>2026-05-03T09:47:35.004Z</time></trkpt><trkpt lat="43.704738" lon="11.0196199"><ele>208.66666666666669</ele><time>2026-05-03T09:47:36.002Z</time></trkpt><trkpt lat="43.7047941" lon="11.0195558"><ele>208.5</ele><time>2026-05-03T09:47:36.995Z</time></trkpt><trkpt lat="43.7048482" lon="11.0194979"><ele>208.33333333333331</ele><time>2026-05-03T09:47:38.015Z</time></trkpt><trkpt lat="43.7048996" lon="11.0194475"><ele>208.16666666666666</ele><time>2026-05-03T09:47:38.997Z</time></trkpt><trkpt lat="43.7050017" lon="11.0193823"><ele>208.0</ele><time>2026-05-03T09:47:41.004Z</time></trkpt><trkpt lat="43.7050917" lon="11.0193508"><ele>208.0</ele><time>2026-05-03T09:47:42.998Z</time></trkpt><trkpt lat="43.7051937" lon="11.0192936"><ele>208.0</ele><time>2026-05-03T09:47:45Z</time></trkpt><trkpt lat="43.7052935" lon="11.0192278"><ele>208.0</ele><time>2026-05-03T09:47:47.003Z</time></trkpt><trkpt lat="43.7054" lon="11.0191609"><ele>208.0</ele><time>2026-05-03T09:47:48.994Z</time></trkpt><trkpt lat="43.7054741" lon="11.0191133"><ele>208.0</ele><time>2026-05-03T09:47:51.007Z</time></trkpt><trkpt lat="43.7055635" lon="11.0190639"><ele>207.8</ele><time>2026-05-03T09:47:52.996Z</time></trkpt><trkpt lat="43.7056464" lon="11.018996"><ele>207.60000000000002</ele><time>2026-05-03T09:47:55.006Z</time></trkpt><trkpt lat="43.7057417" lon="11.0189544"><ele>207.39999999999998</ele><time>2026-05-03T09:47:57.005Z</time></trkpt><trkpt lat="43.7058353" lon="11.0188957"><ele>207.2</ele><time>2026-05-03T09:47:59.002Z</time></trkpt><trkpt lat="43.7058934" lon="11.0187824"><ele>207.0</ele><time>2026-05-03T09:48:00.995Z</time></trkpt><trkpt lat="43.7059603" lon="11.0186613"><ele>207.0</ele><time>2026-05-03T09:48:02.992Z</time></trkpt><trkpt lat="43.706039" lon="11.0185678"><ele>207.0</ele><time>2026-05-03T09:48:05.003Z</time></trkpt><trkpt lat="43.706121" lon="11.0184733"><ele>207.0</ele><time>2026-05-03T09:48:06.994Z</time></trkpt><trkpt lat="43.706217" lon="11.0183795"><ele>207.0</ele><time>2026-05-03T09:48:08.994Z</time></trkpt><trkpt lat="43.7063224" lon="11.018321"><ele>207.0</ele><time>2026-05-03T09:48:11.006Z</time></trkpt><trkpt lat="43.7064198" lon="11.0182845"><ele>207.6</ele><time>2026-05-03T09:48:12.998Z</time></trkpt><trkpt lat="43.7064916" lon="11.0181983"><ele>208.2</ele><time>2026-05-03T09:48:15.006Z</time></trkpt><trkpt lat="43.7065916" lon="11.0180632"><ele>208.8</ele><time>2026-05-03T09:48:17.004Z</time></trkpt><trkpt lat="43.7066296" lon="11.0179885"><ele>209.4</ele><time>2026-05-03T09:48:17.999Z</time></trkpt><trkpt lat="43.706692" lon="11.0178593"><ele>210.0</ele><time>2026-05-03T09:48:20.001Z</time></trkpt><trkpt lat="43.7067463" lon="11.0177446"><ele>210.0</ele><time>2026-05-03T09:48:21.999Z</time></trkpt><trkpt lat="43.7068086" lon="11.0176601"><ele>210.0</ele><time>2026-05-03T09:48:24Z</time></trkpt><trkpt lat="43.7068934" lon="11.0175762"><ele>210.0</ele><time>2026-05-03T09:48:25.997Z</time></trkpt><trkpt lat="43.7069771" lon="11.0175029"><ele>210.0</ele><time>2026-05-03T09:48:27.996Z</time></trkpt><trkpt lat="43.707065" lon="11.0174454"><ele>210.0</ele><time>2026-05-03T09:48:29.996Z</time></trkpt><trkpt lat="43.7071532" lon="11.0173755"><ele>209.0</ele><time>2026-05-03T09:48:32Z</time></trkpt><trkpt lat="43.7072434" lon="11.0173169"><ele>208.0</ele><time>2026-05-03T09:48:33.999Z</time></trkpt><trkpt lat="43.7073366" lon="11.0172623"><ele>207.0</ele><time>2026-05-03T09:48:35.998Z</time></trkpt><trkpt lat="43.7074255" lon="11.017212"><ele>206.0</ele><time>2026-05-03T09:48:38.004Z</time></trkpt><trkpt lat="43.7075108" lon="11.0171573"><ele>205.0</ele><time>2026-05-03T09:48:40.001Z</time></trkpt><trkpt lat="43.707596" lon="11.0171001"><ele>204.99999999999997</ele><time>2026-05-03T09:48:42Z</time></trkpt><trkpt lat="43.7076768" lon="11.0170494"><ele>205.0</ele><time>2026-05-03T09:48:43.997Z</time></trkpt><trkpt lat="43.7077468" lon="11.0169917"><ele>205.0</ele><time>2026-05-03T09:48:45.997Z</time></trkpt><trkpt lat="43.7078178" lon="11.0169479"><ele>205.0</ele><time>2026-05-03T09:48:48.001Z</time></trkpt><trkpt lat="43.7078824" lon="11.0169192"><ele>204.99999999999997</ele><time>2026-05-03T09:48:49.995Z</time></trkpt><trkpt lat="43.7079718" lon="11.0168917"><ele>205.0</ele><time>2026-05-03T09:48:52.997Z</time></trkpt><trkpt lat="43.7080351" lon="11.0168703"><ele>205.33333333333331</ele><time>2026-05-03T09:48:54.998Z</time></trkpt><trkpt lat="43.7081029" lon="11.0168477"><ele>205.66666666666666</ele><time>2026-05-03T09:48:56.997Z</time></trkpt><trkpt lat="43.7081864" lon="11.0168094"><ele>206.0</ele><time>2026-05-03T09:48:59.996Z</time></trkpt><trkpt lat="43.7082546" lon="11.0167493"><ele>206.33333333333331</ele><time>2026-05-03T09:49:03.006Z</time></trkpt><trkpt lat="43.7083023" lon="11.0166832"><ele>206.66666666666666</ele><time>2026-05-03T09:49:05.004Z</time></trkpt><trkpt lat="43.7083499" lon="11.0165985"><ele>207.0</ele><time>2026-05-03T09:49:07.003Z</time></trkpt><trkpt lat="43.7083744" lon="11.0164889"><ele>206.0</ele><time>2026-05-03T09:49:10.008Z</time></trkpt><trkpt lat="43.7083733" lon="11.0163687"><ele>205.0</ele><time>2026-05-03T09:49:18.996Z</time></trkpt><trkpt lat="43.7083501" lon="11.0162127"><ele>204.0</ele><time>2026-05-03T09:49:20.994Z</time></trkpt><trkpt lat="43.7083177" lon="11.0160413"><ele>203.0</ele><time>2026-05-03T09:49:22.999Z</time></trkpt><trkpt lat="43.708301" lon="11.0159518"><ele>202.0</ele><time>2026-05-03T09:49:24.002Z</time></trkpt><trkpt lat="43.7082712" lon="11.0158"><ele>199.99999999999997</ele><time>2026-05-03T09:49:26.002Z</time></trkpt><trkpt lat="43.7082515" lon="11.0156662"><ele>198.0</ele><time>2026-05-03T09:49:28.008Z</time></trkpt><trkpt lat="43.7082344" lon="11.015546"><ele>196.0</ele><time>2026-05-03T09:49:29.998Z</time></trkpt><trkpt lat="43.7082059" lon="11.0154426"><ele>194.0</ele><time>2026-05-03T09:49:31.999Z</time></trkpt><trkpt lat="43.708173" lon="11.0153485"><ele>192.0</ele><time>2026-05-03T09:49:34Z</time></trkpt><trkpt lat="43.7081394" lon="11.0152559"><ele>190.0</ele><time>2026-05-03T09:49:36.014Z</time></trkpt><trkpt lat="43.7081106" lon="11.0151613"><ele>190.0</ele><time>2026-05-03T09:49:37.998Z</time></trkpt><trkpt lat="43.7080829" lon="11.0150506"><ele>190.0</ele><time>2026-05-03T09:49:40.008Z</time></trkpt><trkpt lat="43.7080522" lon="11.0149712"><ele>190.0</ele><time>2026-05-03T09:49:42.005Z</time></trkpt><trkpt lat="43.708004" lon="11.0149009"><ele>190.0</ele><time>2026-05-03T09:49:44.003Z</time></trkpt><trkpt lat="43.7079516" lon="11.0148152"><ele>190.0</ele><time>2026-05-03T09:49:45.994Z</time></trkpt><trkpt lat="43.7079231" lon="11.0147008"><ele>190.0</ele><time>2026-05-03T09:49:47.994Z</time></trkpt><trkpt lat="43.7079172" lon="11.0145833"><ele>188.33333333333334</ele><time>2026-05-03T09:49:49.995Z</time></trkpt><trkpt lat="43.7079166" lon="11.0144642"><ele>186.66666666666669</ele><time>2026-05-03T09:49:52.001Z</time></trkpt><trkpt lat="43.7079123" lon="11.0143497"><ele>185.0</ele><time>2026-05-03T09:49:54.021Z</time></trkpt><trkpt lat="43.7078981" lon="11.0142202"><ele>183.33333333333334</ele><time>2026-05-03T09:49:56.004Z</time></trkpt><trkpt lat="43.707884" lon="11.0140946"><ele>181.66666666666666</ele><time>2026-05-03T09:49:57.997Z</time></trkpt><trkpt lat="43.707879" lon="11.0139742"><ele>180.0</ele><time>2026-05-03T09:49:59.995Z</time></trkpt><trkpt lat="43.7078782" lon="11.0138704"><ele>177.6</ele><time>2026-05-03T09:50:02.009Z</time></trkpt><trkpt lat="43.7078732" lon="11.013743"><ele>175.2</ele><time>2026-05-03T09:50:04.002Z</time></trkpt><trkpt lat="43.7078587" lon="11.0135923"><ele>172.8</ele><time>2026-05-03T09:50:06.001Z</time></trkpt><trkpt lat="43.7078434" lon="11.0134518"><ele>170.4</ele><time>2026-05-03T09:50:07.996Z</time></trkpt><trkpt lat="43.707821" lon="11.0133167"><ele>168.0</ele><time>2026-05-03T09:50:09.997Z</time></trkpt><trkpt lat="43.7078025" lon="11.0132133"><ele>167.0</ele><time>2026-05-03T09:50:11.995Z</time></trkpt><trkpt lat="43.7078038" lon="11.013097"><ele>166.0</ele><time>2026-05-03T09:50:15.001Z</time></trkpt><trkpt lat="43.707815" lon="11.0130002"><ele>165.0</ele><time>2026-05-03T09:50:16.992Z</time></trkpt><trkpt lat="43.7077976" lon="11.012881"><ele>164.0</ele><time>2026-05-03T09:50:19.997Z</time></trkpt><trkpt lat="43.7077531" lon="11.012772"><ele>163.0</ele><time>2026-05-03T09:50:22.999Z</time></trkpt><trkpt lat="43.7077185" lon="11.0126942"><ele>162.0</ele><time>2026-05-03T09:50:26.001Z</time></trkpt><trkpt lat="43.7077484" lon="11.0125999"><ele>162.0</ele><time>2026-05-03T09:50:29.994Z</time></trkpt><trkpt lat="43.7078199" lon="11.0126591"><ele>162.0</ele><time>2026-05-03T09:50:52.006Z</time></trkpt><trkpt lat="43.7078892" lon="11.0127396"><ele>162.0</ele><time>2026-05-03T09:50:54.995Z</time></trkpt><trkpt lat="43.7079393" lon="11.0127986"><ele>162.0</ele><time>2026-05-03T09:50:57.993Z</time></trkpt><trkpt lat="43.7079833" lon="11.0128632"><ele>162.0</ele><time>2026-05-03T09:51:05.996Z</time></trkpt><trkpt lat="43.7080381" lon="11.0129213"><ele>162.0</ele><time>2026-05-03T09:51:08.997Z</time></trkpt><trkpt lat="43.7080857" lon="11.0129792"><ele>162.0</ele><time>2026-05-03T09:51:10.999Z</time></trkpt><trkpt lat="43.7081453" lon="11.0130346"><ele>162.0</ele><time>2026-05-03T09:51:12.999Z</time></trkpt><trkpt lat="43.7082131" lon="11.0131"><ele>162.0</ele><time>2026-05-03T09:51:14.998Z</time></trkpt><trkpt lat="43.708289" lon="11.0131661"><ele>162.0</ele><time>2026-05-03T09:51:17.012Z</time></trkpt><trkpt lat="43.70837" lon="11.013236"><ele>162.0</ele><time>2026-05-03T09:51:18.997Z</time></trkpt><trkpt lat="43.7084344" lon="11.0132881"><ele>162.0</ele><time>2026-05-03T09:51:20.991Z</time></trkpt><trkpt lat="43.7084939" lon="11.0133308"><ele>162.0</ele><time>2026-05-03T09:51:22.999Z</time></trkpt><trkpt lat="43.7085499" lon="11.0133762"><ele>161.8</ele><time>2026-05-03T09:51:25.003Z</time></trkpt><trkpt lat="43.7086079" lon="11.0134279"><ele>161.6</ele><time>2026-05-03T09:51:27.016Z</time></trkpt><trkpt lat="43.7086915" lon="11.0135211"><ele>161.4</ele><time>2026-05-03T09:51:28.991Z</time></trkpt><trkpt lat="43.7087432" lon="11.0135821"><ele>161.20000000000002</ele><time>2026-05-03T09:51:29.99Z</time></trkpt><trkpt lat="43.7088242" lon="11.0136792"><ele>161.0</ele><time>2026-05-03T09:51:31.998Z</time></trkpt><trkpt lat="43.7089022" lon="11.0137696"><ele>161.0</ele><time>2026-05-03T09:51:33.994Z</time></trkpt><trkpt lat="43.7089727" lon="11.0138496"><ele>161.0</ele><time>2026-05-03T09:51:36.006Z</time></trkpt><trkpt lat="43.7090694" lon="11.0139134"><ele>161.0</ele><time>2026-05-03T09:51:38.004Z</time></trkpt><trkpt lat="43.7091716" lon="11.0139491"><ele>161.0</ele><time>2026-05-03T09:51:39.999Z</time></trkpt><trkpt lat="43.7092579" lon="11.0139889"><ele>161.0</ele><time>2026-05-03T09:51:41.995Z</time></trkpt><trkpt lat="43.7093451" lon="11.0140651"><ele>160.5</ele><time>2026-05-03T09:51:44.009Z</time></trkpt><trkpt lat="43.7093965" lon="11.0141934"><ele>160.0</ele><time>2026-05-03T09:51:45.997Z</time></trkpt><trkpt lat="43.7094005" lon="11.0143217"><ele>159.5</ele><time>2026-05-03T09:51:48.011Z</time></trkpt><trkpt lat="43.7094712" lon="11.0144002"><ele>159.0</ele><time>2026-05-03T09:51:49.995Z</time></trkpt><trkpt lat="43.70952" lon="11.0144599"><ele>158.5</ele><time>2026-05-03T09:51:50.997Z</time></trkpt><trkpt lat="43.7095765" lon="11.0145254"><ele>158.0</ele><time>2026-05-03T09:51:51.995Z</time></trkpt><trkpt lat="43.709629" lon="11.0145812"><ele>158.0</ele><time>2026-05-03T09:51:52.999Z</time></trkpt><trkpt lat="43.7096807" lon="11.0146436"><ele>158.0</ele><time>2026-05-03T09:51:53.995Z</time></trkpt><trkpt lat="43.7097718" lon="11.0147342"><ele>158.0</ele><time>2026-05-03T09:51:55.992Z</time></trkpt><trkpt lat="43.7098475" lon="11.0148099"><ele>158.0</ele><time>2026-05-03T09:51:57.998Z</time></trkpt><trkpt lat="43.7099151" lon="11.0148914"><ele>158.0</ele><time>2026-05-03T09:52:00.002Z</time></trkpt><trkpt lat="43.709974" lon="11.0149709"><ele>158.0</ele><time>2026-05-03T09:52:02.009Z</time></trkpt><trkpt lat="43.7100092" lon="11.0150591"><ele>159.8</ele><time>2026-05-03T09:52:03.998Z</time></trkpt><trkpt lat="43.7100072" lon="11.015179"><ele>161.60000000000002</ele><time>2026-05-03T09:52:06.011Z</time></trkpt><trkpt lat="43.7099846" lon="11.0153369"><ele>163.39999999999998</ele><time>2026-05-03T09:52:08.009Z</time></trkpt><trkpt lat="43.7099647" lon="11.0154803"><ele>165.2</ele><time>2026-05-03T09:52:10.003Z</time></trkpt><trkpt lat="43.7099532" lon="11.0156013"><ele>167.0</ele><time>2026-05-03T09:52:12.012Z</time></trkpt><trkpt lat="43.7099499" lon="11.01572"><ele>167.0</ele><time>2026-05-03T09:52:13.993Z</time></trkpt><trkpt lat="43.7099598" lon="11.0158089"><ele>167.0</ele><time>2026-05-03T09:52:15.997Z</time></trkpt><trkpt lat="43.7099731" lon="11.0159108"><ele>167.0</ele><time>2026-05-03T09:52:17.999Z</time></trkpt><trkpt lat="43.7100106" lon="11.0160014"><ele>167.0</ele><time>2026-05-03T09:52:36.009Z</time></trkpt><trkpt lat="43.7100414" lon="11.0161086"><ele>167.0</ele><time>2026-05-03T09:52:38.001Z</time></trkpt><trkpt lat="43.7100808" lon="11.0161846"><ele>167.0</ele><time>2026-05-03T09:52:39.003Z</time></trkpt><trkpt lat="43.7101255" lon="11.016268"><ele>167.0</ele><time>2026-05-03T09:52:39.991Z</time></trkpt><trkpt lat="43.7101803" lon="11.0164009"><ele>167.71428571428572</ele><time>2026-05-03T09:52:42.002Z</time></trkpt><trkpt lat="43.7102217" lon="11.0164848"><ele>168.42857142857144</ele><time>2026-05-03T09:52:44.003Z</time></trkpt><trkpt lat="43.7102842" lon="11.0165329"><ele>169.14285714285717</ele><time>2026-05-03T09:52:45.995Z</time></trkpt><trkpt lat="43.7103557" lon="11.0165664"><ele>169.85714285714286</ele><time>2026-05-03T09:52:48.002Z</time></trkpt><trkpt lat="43.7104161" lon="11.016608"><ele>170.57142857142858</ele><time>2026-05-03T09:52:49.995Z</time></trkpt><trkpt lat="43.7104925" lon="11.0166148"><ele>171.2857142857143</ele><time>2026-05-03T09:52:52.993Z</time></trkpt><trkpt lat="43.7105545" lon="11.0165931"><ele>172.0</ele><time>2026-05-03T09:52:55.01Z</time></trkpt><trkpt lat="43.7106356" lon="11.0165742"><ele>169.2</ele><time>2026-05-03T09:52:58Z</time></trkpt><trkpt lat="43.7107194" lon="11.0165623"><ele>166.39999999999998</ele><time>2026-05-03T09:53:00.991Z</time></trkpt><trkpt lat="43.7107867" lon="11.0165428"><ele>163.60000000000002</ele><time>2026-05-03T09:53:02.997Z</time></trkpt><trkpt lat="43.7108826" lon="11.0164694"><ele>160.8</ele><time>2026-05-03T09:53:04.997Z</time></trkpt><trkpt lat="43.7109665" lon="11.0163615"><ele>158.0</ele><time>2026-05-03T09:53:07.012Z</time></trkpt><trkpt lat="43.7110393" lon="11.0162867"><ele>156.83333333333331</ele><time>2026-05-03T09:53:09.006Z</time></trkpt><trkpt lat="43.7111169" lon="11.0162379"><ele>155.66666666666666</ele><time>2026-05-03T09:53:10.994Z</time></trkpt><trkpt lat="43.7111881" lon="11.0161975"><ele>154.5</ele><time>2026-05-03T09:53:12.999Z</time></trkpt><trkpt lat="43.7112629" lon="11.0161708"><ele>153.33333333333334</ele><time>2026-05-03T09:53:15.01Z</time></trkpt><trkpt lat="43.7113561" lon="11.0161854"><ele>152.16666666666669</ele><time>2026-05-03T09:53:17.997Z</time></trkpt><trkpt lat="43.7114451" lon="11.0161843"><ele>151.0</ele><time>2026-05-03T09:53:21.006Z</time></trkpt><trkpt lat="43.7115106" lon="11.0161679"><ele>151.0</ele><time>2026-05-03T09:53:22.995Z</time></trkpt><trkpt lat="43.7115842" lon="11.0161296"><ele>151.0</ele><time>2026-05-03T09:53:25.002Z</time></trkpt><trkpt lat="43.7116534" lon="11.0160911"><ele>151.0</ele><time>2026-05-03T09:53:27Z</time></trkpt><trkpt lat="43.7117208" lon="11.0160428"><ele>151.0</ele><time>2026-05-03T09:53:29.001Z</time></trkpt><trkpt lat="43.7118209" lon="11.0159829"><ele>151.0</ele><time>2026-05-03T09:53:31.004Z</time></trkpt><trkpt lat="43.71192" lon="11.0159225"><ele>151.0</ele><time>2026-05-03T09:53:33.005Z</time></trkpt><trkpt lat="43.7120016" lon="11.0158476"><ele>147.66666666666669</ele><time>2026-05-03T09:53:35.005Z</time></trkpt><trkpt lat="43.7120615" lon="11.0157828"><ele>144.33333333333334</ele><time>2026-05-03T09:53:36.993Z</time></trkpt><trkpt lat="43.7121095" lon="11.0157251"><ele>141.0</ele><time>2026-05-03T09:53:38.996Z</time></trkpt><trkpt lat="43.712185" lon="11.0156559"><ele>137.66666666666666</ele><time>2026-05-03T09:53:41.993Z</time></trkpt><trkpt lat="43.7122283" lon="11.0155864"><ele>134.33333333333331</ele><time>2026-05-03T09:53:43.996Z</time></trkpt><trkpt lat="43.7122957" lon="11.0155108"><ele>131.0</ele><time>2026-05-03T09:53:46.996Z</time></trkpt><trkpt lat="43.7123568" lon="11.0154137"><ele>131.0</ele><time>2026-05-03T09:53:49.991Z</time></trkpt><trkpt lat="43.7124207" lon="11.0153189"><ele>131.0</ele><time>2026-05-03T09:53:53.006Z</time></trkpt><trkpt lat="43.7124622" lon="11.0152174"><ele>131.0</ele><time>2026-05-03T09:53:55.995Z</time></trkpt><trkpt lat="43.7125029" lon="11.0151211"><ele>131.0</ele><time>2026-05-03T09:53:59.002Z</time></trkpt><trkpt lat="43.7125548" lon="11.0150312"><ele>131.0</ele><time>2026-05-03T09:54:01Z</time></trkpt><trkpt lat="43.712633" lon="11.0149375"><ele>131.0</ele><time>2026-05-03T09:54:02.999Z</time></trkpt><trkpt lat="43.7127147" lon="11.0148599"><ele>127.6</ele><time>2026-05-03T09:54:04.998Z</time></trkpt><trkpt lat="43.7127826" lon="11.0147767"><ele>124.19999999999999</ele><time>2026-05-03T09:54:06.994Z</time></trkpt><trkpt lat="43.7128442" lon="11.0146668"><ele>120.80000000000001</ele><time>2026-05-03T09:54:08.995Z</time></trkpt><trkpt lat="43.7129214" lon="11.0145396"><ele>117.4</ele><time>2026-05-03T09:54:11.002Z</time></trkpt><trkpt lat="43.7130085" lon="11.014427"><ele>114.0</ele><time>2026-05-03T09:54:13Z</time></trkpt><trkpt lat="43.7130745" lon="11.0143335"><ele>114.0</ele><time>2026-05-03T09:54:15.004Z</time></trkpt><trkpt lat="43.7131453" lon="11.0142287"><ele>114.0</ele><time>2026-05-03T09:54:16.995Z</time></trkpt><trkpt lat="43.7132148" lon="11.0141459"><ele>114.0</ele><time>2026-05-03T09:54:19Z</time></trkpt><trkpt lat="43.7132924" lon="11.0140529"><ele>114.0</ele><time>2026-05-03T09:54:20.993Z</time></trkpt><trkpt lat="43.7133573" lon="11.013964"><ele>114.0</ele><time>2026-05-03T09:54:23.002Z</time></trkpt><trkpt lat="43.7134155" lon="11.0138792"><ele>112.0</ele><time>2026-05-03T09:54:24.999Z</time></trkpt><trkpt lat="43.7134708" lon="11.0137957"><ele>110.0</ele><time>2026-05-03T09:54:26.996Z</time></trkpt><trkpt lat="43.7135186" lon="11.0137204"><ele>108.0</ele><time>2026-05-03T09:54:29.005Z</time></trkpt><trkpt lat="43.7135691" lon="11.0136287"><ele>106.0</ele><time>2026-05-03T09:54:30.996Z</time></trkpt><trkpt lat="43.7136135" lon="11.0135315"><ele>104.0</ele><time>2026-05-03T09:54:32.996Z</time></trkpt><trkpt lat="43.7136514" lon="11.0134474"><ele>102.0</ele><time>2026-05-03T09:54:35Z</time></trkpt><trkpt lat="43.7136892" lon="11.0133688"><ele>100.83333333333333</ele><time>2026-05-03T09:54:37.012Z</time></trkpt><trkpt lat="43.7137402" lon="11.0132576"><ele>99.66666666666667</ele><time>2026-05-03T09:54:40.002Z</time></trkpt><trkpt lat="43.7137722" lon="11.0131638"><ele>98.5</ele><time>2026-05-03T09:54:42.007Z</time></trkpt><trkpt lat="43.7138074" lon="11.0130703"><ele>97.33333333333334</ele><time>2026-05-03T09:54:43.99Z</time></trkpt><trkpt lat="43.713843" lon="11.0129638"><ele>96.16666666666667</ele><time>2026-05-03T09:54:47.003Z</time></trkpt><trkpt lat="43.7137819" lon="11.0128853"><ele>95.0</ele><time>2026-05-03T09:54:50.006Z</time></trkpt><trkpt lat="43.7137103" lon="11.0128889"><ele>95.0</ele><time>2026-05-03T09:54:51.993Z</time></trkpt><trkpt lat="43.7136289" lon="11.0128831"><ele>95.0</ele><time>2026-05-03T09:54:54.006Z</time></trkpt><trkpt lat="43.7135457" lon="11.0128603"><ele>95.0</ele><time>2026-05-03T09:54:55.992Z</time></trkpt><trkpt lat="43.7134975" lon="11.0127643"><ele>95.0</ele><time>2026-05-03T09:54:57.997Z</time></trkpt><trkpt lat="43.7134873" lon="11.0126136"><ele>95.0</ele><time>2026-05-03T09:55:00.004Z</time></trkpt><trkpt lat="43.7134868" lon="11.0125262"><ele>95.0</ele><time>2026-05-03T09:55:01.005Z</time></trkpt><trkpt lat="43.7134854" lon="11.0124379"><ele>92.66666666666667</ele><time>2026-05-03T09:55:01.995Z</time></trkpt><trkpt lat="43.7134829" lon="11.0123457"><ele>90.33333333333334</ele><time>2026-05-03T09:55:03.002Z</time></trkpt><trkpt lat="43.7134803" lon="11.0122488"><ele>88.0</ele><time>2026-05-03T09:55:03.994Z</time></trkpt><trkpt lat="43.7134796" lon="11.0121237"><ele>85.66666666666667</ele><time>2026-05-03T09:55:04.997Z</time></trkpt><trkpt lat="43.7134803" lon="11.0119638"><ele>83.33333333333333</ele><time>2026-05-03T09:55:06.003Z</time></trkpt><trkpt lat="43.7134892" lon="11.011817"><ele>81.0</ele><time>2026-05-03T09:55:07.001Z</time></trkpt><trkpt lat="43.7135026" lon="11.0116834"><ele>81.19999999999999</ele><time>2026-05-03T09:55:08.005Z</time></trkpt><trkpt lat="43.7135124" lon="11.0115581"><ele>81.39999999999999</ele><time>2026-05-03T09:55:08.996Z</time></trkpt><trkpt lat="43.713526" lon="11.0114433"><ele>81.6</ele><time>2026-05-03T09:55:09.996Z</time></trkpt><trkpt lat="43.7135519" lon="11.0113338"><ele>81.8</ele><time>2026-05-03T09:55:11.004Z</time></trkpt><trkpt lat="43.7135877" lon="11.011213"><ele>82.0</ele><time>2026-05-03T09:55:11.996Z</time></trkpt><trkpt lat="43.713637" lon="11.0110857"><ele>82.0</ele><time>2026-05-03T09:55:13.001Z</time></trkpt><trkpt lat="43.7136859" lon="11.0109533"><ele>82.0</ele><time>2026-05-03T09:55:14Z</time></trkpt><trkpt lat="43.7137347" lon="11.0108206"><ele>82.0</ele><time>2026-05-03T09:55:14.996Z</time></trkpt><trkpt lat="43.7137786" lon="11.0106926"><ele>82.0</ele><time>2026-05-03T09:55:16Z</time></trkpt><trkpt lat="43.7138239" lon="11.0105766"><ele>82.0</ele><time>2026-05-03T09:55:17.003Z</time></trkpt><trkpt lat="43.7138622" lon="11.0104622"><ele>80.83333333333333</ele><time>2026-05-03T09:55:17.995Z</time></trkpt><trkpt lat="43.7139032" lon="11.010357"><ele>79.66666666666666</ele><time>2026-05-03T09:55:18.992Z</time></trkpt><trkpt lat="43.7139373" lon="11.0102551"><ele>78.5</ele><time>2026-05-03T09:55:20.002Z</time></trkpt><trkpt lat="43.7139771" lon="11.0101618"><ele>77.33333333333333</ele><time>2026-05-03T09:55:21.002Z</time></trkpt><trkpt lat="43.7140145" lon="11.0100667"><ele>76.16666666666667</ele><time>2026-05-03T09:55:22.016Z</time></trkpt><trkpt lat="43.7140482" lon="11.0099726"><ele>75.0</ele><time>2026-05-03T09:55:23.002Z</time></trkpt><trkpt lat="43.7140699" lon="11.0098847"><ele>73.2</ele><time>2026-05-03T09:55:23.997Z</time></trkpt><trkpt lat="43.7140892" lon="11.0097358"><ele>71.4</ele><time>2026-05-03T09:55:25.995Z</time></trkpt><trkpt lat="43.7140837" lon="11.0095715"><ele>69.6</ele><time>2026-05-03T09:55:27.998Z</time></trkpt><trkpt lat="43.7140871" lon="11.0094477"><ele>67.8</ele><time>2026-05-03T09:55:28.996Z</time></trkpt><trkpt lat="43.7140991" lon="11.0093094"><ele>66.0</ele><time>2026-05-03T09:55:29.992Z</time></trkpt><trkpt lat="43.7141086" lon="11.0091764"><ele>64.5</ele><time>2026-05-03T09:55:31.001Z</time></trkpt><trkpt lat="43.7141058" lon="11.0090554"><ele>63.0</ele><time>2026-05-03T09:55:32.001Z</time></trkpt><trkpt lat="43.7140998" lon="11.0089469"><ele>61.5</ele><time>2026-05-03T09:55:33.008Z</time></trkpt><trkpt lat="43.7140912" lon="11.0088487"><ele>60.0</ele><time>2026-05-03T09:55:33.999Z</time></trkpt><trkpt lat="43.7140869" lon="11.0087516"><ele>58.5</ele><time>2026-05-03T09:55:34.999Z</time></trkpt><trkpt lat="43.7140889" lon="11.0086425"><ele>57.0</ele><time>2026-05-03T09:55:36.003Z</time></trkpt><trkpt lat="43.7141006" lon="11.0085308"><ele>57.0</ele><time>2026-05-03T09:55:36.998Z</time></trkpt><trkpt lat="43.7141108" lon="11.0084244"><ele>57.0</ele><time>2026-05-03T09:55:37.996Z</time></trkpt><trkpt lat="43.7141282" lon="11.008328"><ele>57.0</ele><time>2026-05-03T09:55:38.998Z</time></trkpt><trkpt lat="43.7141476" lon="11.008244"><ele>57.0</ele><time>2026-05-03T09:55:39.992Z</time></trkpt><trkpt lat="43.7141825" lon="11.0080917"><ele>57.0</ele><time>2026-05-03T09:55:42.002Z</time></trkpt><trkpt lat="43.7141957" lon="11.0079993"><ele>57.0</ele><time>2026-05-03T09:55:42.997Z</time></trkpt><trkpt lat="43.7141973" lon="11.0078932"><ele>56.2</ele><time>2026-05-03T09:55:43.991Z</time></trkpt><trkpt lat="43.7141864" lon="11.0077881"><ele>55.400000000000006</ele><time>2026-05-03T09:55:45.001Z</time></trkpt><trkpt lat="43.7141519" lon="11.0076802"><ele>54.599999999999994</ele><time>2026-05-03T09:55:46.002Z</time></trkpt><trkpt lat="43.7141014" lon="11.0075531"><ele>53.8</ele><time>2026-05-03T09:55:47.001Z</time></trkpt><trkpt lat="43.7140474" lon="11.0074281"><ele>53.0</ele><time>2026-05-03T09:55:47.995Z</time></trkpt><trkpt lat="43.7139901" lon="11.0072987"><ele>52.2</ele><time>2026-05-03T09:55:48.997Z</time></trkpt><trkpt lat="43.7139293" lon="11.0071747"><ele>51.4</ele><time>2026-05-03T09:55:49.998Z</time></trkpt><trkpt lat="43.7138642" lon="11.007066"><ele>50.6</ele><time>2026-05-03T09:55:51.005Z</time></trkpt><trkpt lat="43.7137934" lon="11.0069599"><ele>49.800000000000004</ele><time>2026-05-03T09:55:52Z</time></trkpt><trkpt lat="43.7137362" lon="11.0068373"><ele>49.0</ele><time>2026-05-03T09:55:52.999Z</time></trkpt><trkpt lat="43.7137016" lon="11.0067008"><ele>48.2</ele><time>2026-05-03T09:55:53.995Z</time></trkpt><trkpt lat="43.7136768" lon="11.0065643"><ele>47.400000000000006</ele><time>2026-05-03T09:55:55.002Z</time></trkpt><trkpt lat="43.7136837" lon="11.0064182"><ele>46.6</ele><time>2026-05-03T09:55:55.996Z</time></trkpt><trkpt lat="43.7137101" lon="11.0062685"><ele>45.8</ele><time>2026-05-03T09:55:57Z</time></trkpt><trkpt lat="43.7137558" lon="11.0061284"><ele>45.0</ele><time>2026-05-03T09:55:57.993Z</time></trkpt><trkpt lat="43.7138051" lon="11.0060049"><ele>45.0</ele><time>2026-05-03T09:55:59.01Z</time></trkpt><trkpt lat="43.7138541" lon="11.0058936"><ele>45.0</ele><time>2026-05-03T09:55:59.996Z</time></trkpt><trkpt lat="43.7139058" lon="11.0057934"><ele>45.0</ele><time>2026-05-03T09:56:00.995Z</time></trkpt><trkpt lat="43.7139587" lon="11.0057024"><ele>45.0</ele><time>2026-05-03T09:56:01.996Z</time></trkpt><trkpt lat="43.7140175" lon="11.0056199"><ele>45.0</ele><time>2026-05-03T09:56:03Z</time></trkpt><trkpt lat="43.7140724" lon="11.0055202"><ele>45.0</ele><time>2026-05-03T09:56:03.996Z</time></trkpt><trkpt lat="43.714121" lon="11.0053805"><ele>45.0</ele><time>2026-05-03T09:56:05.007Z</time></trkpt><trkpt lat="43.7141692" lon="11.0052001"><ele>45.0</ele><time>2026-05-03T09:56:06.001Z</time></trkpt><trkpt lat="43.7142204" lon="11.0050136"><ele>45.0</ele><time>2026-05-03T09:56:07.011Z</time></trkpt><trkpt lat="43.7142646" lon="11.0048385"><ele>45.0</ele><time>2026-05-03T09:56:08.005Z</time></trkpt><trkpt lat="43.714304" lon="11.0046758"><ele>44.4</ele><time>2026-05-03T09:56:08.993Z</time></trkpt><trkpt lat="43.7143309" lon="11.0045208"><ele>43.8</ele><time>2026-05-03T09:56:10.001Z</time></trkpt><trkpt lat="43.7143576" lon="11.0043787"><ele>43.2</ele><time>2026-05-03T09:56:10.992Z</time></trkpt><trkpt lat="43.7143825" lon="11.0042471"><ele>42.6</ele><time>2026-05-03T09:56:11.994Z</time></trkpt><trkpt lat="43.7144073" lon="11.0041274"><ele>42.0</ele><time>2026-05-03T09:56:12.992Z</time></trkpt><trkpt lat="43.7144303" lon="11.0040159"><ele>41.4</ele><time>2026-05-03T09:56:13.989Z</time></trkpt><trkpt lat="43.7144545" lon="11.003919"><ele>40.800000000000004</ele><time>2026-05-03T09:56:15.002Z</time></trkpt><trkpt lat="43.7145201" lon="11.003786"><ele>40.2</ele><time>2026-05-03T09:56:16.992Z</time></trkpt><trkpt lat="43.7145978" lon="11.0037289"><ele>39.6</ele><time>2026-05-03T09:56:18.996Z</time></trkpt><trkpt lat="43.7146964" lon="11.003755"><ele>39.0</ele><time>2026-05-03T09:56:21.041Z</time></trkpt><trkpt lat="43.7147574" lon="11.0038222"><ele>39.0</ele><time>2026-05-03T09:56:22.001Z</time></trkpt><trkpt lat="43.7148299" lon="11.0039298"><ele>39.0</ele><time>2026-05-03T09:56:22.996Z</time></trkpt><trkpt lat="43.7149137" lon="11.0040469"><ele>39.0</ele><time>2026-05-03T09:56:23.993Z</time></trkpt><trkpt lat="43.7150352" lon="11.0041673"><ele>39.0</ele><time>2026-05-03T09:56:24.997Z</time></trkpt><trkpt lat="43.7151665" lon="11.004291"><ele>38.333333333333336</ele><time>2026-05-03T09:56:25.993Z</time></trkpt><trkpt lat="43.7153017" lon="11.0043985"><ele>37.66666666666667</ele><time>2026-05-03T09:56:26.992Z</time></trkpt><trkpt lat="43.7154471" lon="11.0044973"><ele>37.0</ele><time>2026-05-03T09:56:28Z</time></trkpt><trkpt lat="43.7155953" lon="11.0045915"><ele>37.0</ele><time>2026-05-03T09:56:28.999Z</time></trkpt><trkpt lat="43.7157443" lon="11.0046775"><ele>37.0</ele><time>2026-05-03T09:56:29.998Z</time></trkpt><trkpt lat="43.7158958" lon="11.0047445"><ele>37.0</ele><time>2026-05-03T09:56:30.996Z</time></trkpt><trkpt lat="43.7160427" lon="11.0048111"><ele>36.66666666666667</ele><time>2026-05-03T09:56:32.004Z</time></trkpt><trkpt lat="43.7161882" lon="11.0048792"><ele>36.333333333333336</ele><time>2026-05-03T09:56:33.001Z</time></trkpt><trkpt lat="43.7163318" lon="11.0049497"><ele>36.0</ele><time>2026-05-03T09:56:33.992Z</time></trkpt><trkpt lat="43.7164727" lon="11.0050234"><ele>35.75</ele><time>2026-05-03T09:56:34.992Z</time></trkpt><trkpt lat="43.7166096" lon="11.0051052"><ele>35.5</ele><time>2026-05-03T09:56:35.997Z</time></trkpt><trkpt lat="43.7167434" lon="11.0051911"><ele>35.25</ele><time>2026-05-03T09:56:36.998Z</time></trkpt><trkpt lat="43.7168731" lon="11.0052838"><ele>35.0</ele><time>2026-05-03T09:56:38.016Z</time></trkpt><trkpt lat="43.7170019" lon="11.005383"><ele>35.0</ele><time>2026-05-03T09:56:38.99Z</time></trkpt><trkpt lat="43.7171294" lon="11.0054872"><ele>35.0</ele><time>2026-05-03T09:56:39.994Z</time></trkpt><trkpt lat="43.7172575" lon="11.0055942"><ele>35.0</ele><time>2026-05-03T09:56:40.999Z</time></trkpt><trkpt lat="43.7173862" lon="11.0057068"><ele>35.0</ele><time>2026-05-03T09:56:41.989Z</time></trkpt><trkpt lat="43.7175176" lon="11.0058236"><ele>35.0</ele><time>2026-05-03T09:56:42.999Z</time></trkpt><trkpt lat="43.7176502" lon="11.0059436"><ele>35.0</ele><time>2026-05-03T09:56:44.006Z</time></trkpt><trkpt lat="43.7177863" lon="11.0060666"><ele>34.0</ele><time>2026-05-03T09:56:44.999Z</time></trkpt><trkpt lat="43.7179237" lon="11.0061884"><ele>33.0</ele><time>2026-05-03T09:56:45.992Z</time></trkpt><trkpt lat="43.718063" lon="11.0063092"><ele>32.0</ele><time>2026-05-03T09:56:46.996Z</time></trkpt><trkpt lat="43.7182025" lon="11.0064295"><ele>32.0</ele><time>2026-05-03T09:56:47.993Z</time></trkpt><trkpt lat="43.7183377" lon="11.0065485"><ele>32.0</ele><time>2026-05-03T09:56:48.994Z</time></trkpt><trkpt lat="43.7184704" lon="11.006665"><ele>32.0</ele><time>2026-05-03T09:56:50.005Z</time></trkpt><trkpt lat="43.7185995" lon="11.0067818"><ele>32.33333333333333</ele><time>2026-05-03T09:56:50.99Z</time></trkpt><trkpt lat="43.7187245" lon="11.0068976"><ele>32.666666666666664</ele><time>2026-05-03T09:56:51.996Z</time></trkpt><trkpt lat="43.7188492" lon="11.0070135"><ele>33.0</ele><time>2026-05-03T09:56:52.996Z</time></trkpt><trkpt lat="43.718978" lon="11.0071276"><ele>33.0</ele><time>2026-05-03T09:56:53.998Z</time></trkpt><trkpt lat="43.7191067" lon="11.0072394"><ele>33.0</ele><time>2026-05-03T09:56:55.003Z</time></trkpt><trkpt lat="43.7192322" lon="11.0073519"><ele>33.0</ele><time>2026-05-03T09:56:56Z</time></trkpt><trkpt lat="43.7193551" lon="11.0074674"><ele>32.5</ele><time>2026-05-03T09:56:56.998Z</time></trkpt><trkpt lat="43.7194767" lon="11.0075863"><ele>32.0</ele><time>2026-05-03T09:56:58.003Z</time></trkpt><trkpt lat="43.7195999" lon="11.0077056"><ele>31.5</ele><time>2026-05-03T09:56:58.993Z</time></trkpt><trkpt lat="43.7197195" lon="11.0078137"><ele>31.0</ele><time>2026-05-03T09:56:59.991Z</time></trkpt><trkpt lat="43.7198343" lon="11.0079171"><ele>31.0</ele><time>2026-05-03T09:57:01.001Z</time></trkpt><trkpt lat="43.7199532" lon="11.0080087"><ele>31.0</ele><time>2026-05-03T09:57:01.999Z</time></trkpt><trkpt lat="43.7200728" lon="11.0080951"><ele>31.0</ele><time>2026-05-03T09:57:02.997Z</time></trkpt><trkpt lat="43.7201867" lon="11.0081758"><ele>31.0</ele><time>2026-05-03T09:57:03.998Z</time></trkpt><trkpt lat="43.7202886" lon="11.0082617"><ele>30.8</ele><time>2026-05-03T09:57:04.996Z</time></trkpt><trkpt lat="43.7203865" lon="11.008337"><ele>30.6</ele><time>2026-05-03T09:57:06.004Z</time></trkpt><trkpt lat="43.7204777" lon="11.0084072"><ele>30.4</ele><time>2026-05-03T09:57:07.001Z</time></trkpt><trkpt lat="43.7205659" lon="11.0084774"><ele>30.2</ele><time>2026-05-03T09:57:07.998Z</time></trkpt><trkpt lat="43.7206597" lon="11.0085435"><ele>30.0</ele><time>2026-05-03T09:57:09Z</time></trkpt><trkpt lat="43.7207576" lon="11.0086118"><ele>30.0</ele><time>2026-05-03T09:57:10.003Z</time></trkpt><trkpt lat="43.7208608" lon="11.0086831"><ele>30.0</ele><time>2026-05-03T09:57:10.992Z</time></trkpt><trkpt lat="43.7209694" lon="11.0087548"><ele>30.0</ele><time>2026-05-03T09:57:11.991Z</time></trkpt><trkpt lat="43.7210803" lon="11.0088355"><ele>30.0</ele><time>2026-05-03T09:57:12.993Z</time></trkpt><trkpt lat="43.7211892" lon="11.0089272"><ele>30.25</ele><time>2026-05-03T09:57:13.99Z</time></trkpt><trkpt lat="43.7212965" lon="11.0090172"><ele>30.5</ele><time>2026-05-03T09:57:15.008Z</time></trkpt><trkpt lat="43.7214061" lon="11.0091004"><ele>30.75</ele><time>2026-05-03T09:57:16.002Z</time></trkpt><trkpt lat="43.7215128" lon="11.0091821"><ele>31.0</ele><time>2026-05-03T09:57:16.995Z</time></trkpt><trkpt lat="43.7216138" lon="11.0092552"><ele>31.0</ele><time>2026-05-03T09:57:17.995Z</time></trkpt><trkpt lat="43.7217136" lon="11.0093252"><ele>31.0</ele><time>2026-05-03T09:57:19.012Z</time></trkpt><trkpt lat="43.7218108" lon="11.0093964"><ele>31.0</ele><time>2026-05-03T09:57:19.994Z</time></trkpt><trkpt lat="43.7219034" lon="11.0094645"><ele>31.0</ele><time>2026-05-03T09:57:20.991Z</time></trkpt><trkpt lat="43.7219966" lon="11.0095397"><ele>31.0</ele><time>2026-05-03T09:57:21.995Z</time></trkpt><trkpt lat="43.7220979" lon="11.009611"><ele>31.0</ele><time>2026-05-03T09:57:23.007Z</time></trkpt><trkpt lat="43.7222015" lon="11.009692"><ele>31.0</ele><time>2026-05-03T09:57:23.993Z</time></trkpt><trkpt lat="43.7222984" lon="11.0097695"><ele>31.0</ele><time>2026-05-03T09:57:25.007Z</time></trkpt><trkpt lat="43.7223885" lon="11.0098364"><ele>31.0</ele><time>2026-05-03T09:57:25.99Z</time></trkpt><trkpt lat="43.7225016" lon="11.0098982"><ele>31.0</ele><time>2026-05-03T09:57:26.996Z</time></trkpt><trkpt lat="43.7226203" lon="11.0099691"><ele>31.0</ele><time>2026-05-03T09:57:28.002Z</time></trkpt><trkpt lat="43.7227336" lon="11.0100249"><ele>31.0</ele><time>2026-05-03T09:57:28.996Z</time></trkpt><trkpt lat="43.7228555" lon="11.0101068"><ele>31.0</ele><time>2026-05-03T09:57:30.001Z</time></trkpt><trkpt lat="43.722989" lon="11.0101986"><ele>31.333333333333336</ele><time>2026-05-03T09:57:30.995Z</time></trkpt><trkpt lat="43.723127" lon="11.0102871"><ele>31.666666666666664</ele><time>2026-05-03T09:57:32.001Z</time></trkpt><trkpt lat="43.7232684" lon="11.0103518"><ele>32.0</ele><time>2026-05-03T09:57:32.995Z</time></trkpt><trkpt lat="43.7234134" lon="11.0104166"><ele>32.0</ele><time>2026-05-03T09:57:33.989Z</time></trkpt><trkpt lat="43.7235466" lon="11.0104875"><ele>32.0</ele><time>2026-05-03T09:57:34.995Z</time></trkpt><trkpt lat="43.7236731" lon="11.0105503"><ele>32.0</ele><time>2026-05-03T09:57:36.01Z</time></trkpt><trkpt lat="43.7238095" lon="11.0106175"><ele>32.0</ele><time>2026-05-03T09:57:36.997Z</time></trkpt><trkpt lat="43.7239461" lon="11.0106932"><ele>32.25</ele><time>2026-05-03T09:57:37.992Z</time></trkpt><trkpt lat="43.7240755" lon="11.0107827"><ele>32.5</ele><time>2026-05-03T09:57:38.991Z</time></trkpt><trkpt lat="43.7241958" lon="11.0108871"><ele>32.75</ele><time>2026-05-03T09:57:39.992Z</time></trkpt><trkpt lat="43.7243012" lon="11.0110189"><ele>33.0</ele><time>2026-05-03T09:57:41.003Z</time></trkpt><trkpt lat="43.7243931" lon="11.0111649"><ele>34.0</ele><time>2026-05-03T09:57:41.993Z</time></trkpt><trkpt lat="43.724471" lon="11.0113081"><ele>35.0</ele><time>2026-05-03T09:57:42.996Z</time></trkpt><trkpt lat="43.7245412" lon="11.0114558"><ele>36.0</ele><time>2026-05-03T09:57:44.008Z</time></trkpt><trkpt lat="43.7246111" lon="11.0116058"><ele>37.0</ele><time>2026-05-03T09:57:44.996Z</time></trkpt><trkpt lat="43.7246971" lon="11.0117278"><ele>38.400000000000006</ele><time>2026-05-03T09:57:45.994Z</time></trkpt><trkpt lat="43.7247667" lon="11.0118471"><ele>39.800000000000004</ele><time>2026-05-03T09:57:46.992Z</time></trkpt><trkpt lat="43.7248369" lon="11.0119625"><ele>41.2</ele><time>2026-05-03T09:57:47.993Z</time></trkpt><trkpt lat="43.7248985" lon="11.0120877"><ele>42.6</ele><time>2026-05-03T09:57:48.996Z</time></trkpt><trkpt lat="43.7249521" lon="11.0122216"><ele>44.0</ele><time>2026-05-03T09:57:49.993Z</time></trkpt><trkpt lat="43.7249908" lon="11.012375"><ele>45.0</ele><time>2026-05-03T09:57:50.994Z</time></trkpt><trkpt lat="43.7250177" lon="11.0125331"><ele>46.0</ele><time>2026-05-03T09:57:51.989Z</time></trkpt><trkpt lat="43.7250319" lon="11.0126762"><ele>47.0</ele><time>2026-05-03T09:57:53.002Z</time></trkpt><trkpt lat="43.7250234" lon="11.0128074"><ele>48.0</ele><time>2026-05-03T09:57:53.99Z</time></trkpt><trkpt lat="43.7250078" lon="11.0129193"><ele>49.0</ele><time>2026-05-03T09:57:54.992Z</time></trkpt><trkpt lat="43.7249928" lon="11.0130222"><ele>49.0</ele><time>2026-05-03T09:57:55.996Z</time></trkpt><trkpt lat="43.7249723" lon="11.0131217"><ele>49.0</ele><time>2026-05-03T09:57:57.007Z</time></trkpt><trkpt lat="43.7249404" lon="11.0132138"><ele>49.0</ele><time>2026-05-03T09:57:58.001Z</time></trkpt><trkpt lat="43.7249026" lon="11.0133682"><ele>49.0</ele><time>2026-05-03T09:57:59.994Z</time></trkpt><trkpt lat="43.7249593" lon="11.0135124"><ele>49.0</ele><time>2026-05-03T09:58:01.99Z</time></trkpt><trkpt lat="43.7250308" lon="11.0135554"><ele>49.2</ele><time>2026-05-03T09:58:02.996Z</time></trkpt><trkpt lat="43.7251265" lon="11.013584"><ele>49.400000000000006</ele><time>2026-05-03T09:58:04.005Z</time></trkpt><trkpt lat="43.725235" lon="11.0136386"><ele>49.6</ele><time>2026-05-03T09:58:05.005Z</time></trkpt><trkpt lat="43.7253407" lon="11.0137171"><ele>49.8</ele><time>2026-05-03T09:58:05.997Z</time></trkpt><trkpt lat="43.725432" lon="11.0138069"><ele>50.0</ele><time>2026-05-03T09:58:07.001Z</time></trkpt><trkpt lat="43.7255107" lon="11.0138859"><ele>50.00000000000001</ele><time>2026-05-03T09:58:07.992Z</time></trkpt><trkpt lat="43.7255744" lon="11.013948"><ele>50.0</ele><time>2026-05-03T09:58:08.991Z</time></trkpt><trkpt lat="43.7256239" lon="11.0140047"><ele>50.0</ele><time>2026-05-03T09:58:09.996Z</time></trkpt><trkpt lat="43.7257136" lon="11.0141161"><ele>50.0</ele><time>2026-05-03T09:58:11.99Z</time></trkpt><trkpt lat="43.7257668" lon="11.0141943"><ele>50.00000000000001</ele><time>2026-05-03T09:58:13.008Z</time></trkpt><trkpt lat="43.725821" lon="11.0142875"><ele>50.0</ele><time>2026-05-03T09:58:14.002Z</time></trkpt><trkpt lat="43.7258687" lon="11.014397"><ele>50.25</ele><time>2026-05-03T09:58:14.994Z</time></trkpt><trkpt lat="43.7259106" lon="11.0145333"><ele>50.5</ele><time>2026-05-03T09:58:15.996Z</time></trkpt><trkpt lat="43.7259371" lon="11.0147095"><ele>50.75</ele><time>2026-05-03T09:58:16.992Z</time></trkpt><trkpt lat="43.725954" lon="11.014916"><ele>51.0</ele><time>2026-05-03T09:58:17.995Z</time></trkpt><trkpt lat="43.7259668" lon="11.0151615"><ele>51.33333333333333</ele><time>2026-05-03T09:58:19.007Z</time></trkpt><trkpt lat="43.7259806" lon="11.0154285"><ele>51.666666666666664</ele><time>2026-05-03T09:58:19.988Z</time></trkpt><trkpt lat="43.7260212" lon="11.0156913"><ele>52.0</ele><time>2026-05-03T09:58:20.986Z</time></trkpt><trkpt lat="43.7260769" lon="11.0159571"><ele>50.666666666666664</ele><time>2026-05-03T09:58:21.99Z</time></trkpt><trkpt lat="43.7261383" lon="11.0162123"><ele>49.33333333333333</ele><time>2026-05-03T09:58:22.993Z</time></trkpt><trkpt lat="43.726211" lon="11.016442"><ele>48.0</ele><time>2026-05-03T09:58:23.987Z</time></trkpt><trkpt lat="43.7262904" lon="11.0166492"><ele>48.0</ele><time>2026-05-03T09:58:24.986Z</time></trkpt><trkpt lat="43.7263704" lon="11.0168364"><ele>48.0</ele><time>2026-05-03T09:58:26.003Z</time></trkpt><trkpt lat="43.7264438" lon="11.0170106"><ele>48.0</ele><time>2026-05-03T09:58:26.999Z</time></trkpt><trkpt lat="43.7265106" lon="11.0171722"><ele>48.0</ele><time>2026-05-03T09:58:28.002Z</time></trkpt><trkpt lat="43.7265739" lon="11.0173192"><ele>48.0</ele><time>2026-05-03T09:58:28.997Z</time></trkpt><trkpt lat="43.7266322" lon="11.0174533"><ele>48.0</ele><time>2026-05-03T09:58:29.989Z</time></trkpt><trkpt lat="43.7266847" lon="11.017579"><ele>48.0</ele><time>2026-05-03T09:58:30.99Z</time></trkpt><trkpt lat="43.7267298" lon="11.0176987"><ele>48.0</ele><time>2026-05-03T09:58:31.996Z</time></trkpt><trkpt lat="43.7267647" lon="11.017815"><ele>48.0</ele><time>2026-05-03T09:58:32.993Z</time></trkpt><trkpt lat="43.726781" lon="11.0179318"><ele>48.0</ele><time>2026-05-03T09:58:33.99Z</time></trkpt><trkpt lat="43.7267872" lon="11.0180412"><ele>48.0</ele><time>2026-05-03T09:58:34.993Z</time></trkpt><trkpt lat="43.7267902" lon="11.0181397"><ele>48.0</ele><time>2026-05-03T09:58:35.995Z</time></trkpt><trkpt lat="43.7268056" lon="11.0182282"><ele>48.0</ele><time>2026-05-03T09:58:37.001Z</time></trkpt><trkpt lat="43.7268413" lon="11.0183147"><ele>48.0</ele><time>2026-05-03T09:58:37.992Z</time></trkpt><trkpt lat="43.7269049" lon="11.0183955"><ele>48.0</ele><time>2026-05-03T09:58:38.992Z</time></trkpt><trkpt lat="43.726986" lon="11.0184732"><ele>45.5</ele><time>2026-05-03T09:58:40.008Z</time></trkpt><trkpt lat="43.7270748" lon="11.0185668"><ele>43.0</ele><time>2026-05-03T09:58:40.993Z</time></trkpt><trkpt lat="43.7271659" lon="11.0186909"><ele>40.5</ele><time>2026-05-03T09:58:41.994Z</time></trkpt><trkpt lat="43.7272442" lon="11.0188531"><ele>38.0</ele><time>2026-05-03T09:58:42.99Z</time></trkpt><trkpt lat="43.7273229" lon="11.0190375"><ele>36.0</ele><time>2026-05-03T09:58:43.993Z</time></trkpt><trkpt lat="43.7273992" lon="11.0192405"><ele>34.0</ele><time>2026-05-03T09:58:44.987Z</time></trkpt><trkpt lat="43.7274809" lon="11.0194411"><ele>32.0</ele><time>2026-05-03T09:58:45.994Z</time></trkpt><trkpt lat="43.7275632" lon="11.0196388"><ele>32.0</ele><time>2026-05-03T09:58:46.99Z</time></trkpt><trkpt lat="43.7276464" lon="11.0198356"><ele>32.0</ele><time>2026-05-03T09:58:47.994Z</time></trkpt><trkpt lat="43.7277319" lon="11.0200318"><ele>32.0</ele><time>2026-05-03T09:58:48.999Z</time></trkpt><trkpt lat="43.7278191" lon="11.0202274"><ele>31.333333333333332</ele><time>2026-05-03T09:58:49.99Z</time></trkpt><trkpt lat="43.7279027" lon="11.0204179"><ele>30.666666666666664</ele><time>2026-05-03T09:58:50.993Z</time></trkpt><trkpt lat="43.7279805" lon="11.0206073"><ele>30.0</ele><time>2026-05-03T09:58:51.986Z</time></trkpt><trkpt lat="43.7280569" lon="11.0207933"><ele>30.0</ele><time>2026-05-03T09:58:52.995Z</time></trkpt><trkpt lat="43.7281313" lon="11.0209674"><ele>30.0</ele><time>2026-05-03T09:58:53.994Z</time></trkpt><trkpt lat="43.728202" lon="11.0211314"><ele>30.0</ele><time>2026-05-03T09:58:55.001Z</time></trkpt><trkpt lat="43.7282686" lon="11.021284"><ele>30.0</ele><time>2026-05-03T09:58:55.993Z</time></trkpt><trkpt lat="43.7283293" lon="11.0214242"><ele>30.0</ele><time>2026-05-03T09:58:56.992Z</time></trkpt><trkpt lat="43.7283826" lon="11.0215539"><ele>30.0</ele><time>2026-05-03T09:58:57.994Z</time></trkpt><trkpt lat="43.7284276" lon="11.0216755"><ele>30.0</ele><time>2026-05-03T09:58:58.992Z</time></trkpt><trkpt lat="43.7284628" lon="11.0217931"><ele>30.0</ele><time>2026-05-03T09:58:59.996Z</time></trkpt><trkpt lat="43.7284819" lon="11.021912"><ele>30.0</ele><time>2026-05-03T09:59:00.993Z</time></trkpt><trkpt lat="43.72848" lon="11.0220257"><ele>30.0</ele><time>2026-05-03T09:59:01.992Z</time></trkpt><trkpt lat="43.728451" lon="11.0221325"><ele>30.0</ele><time>2026-05-03T09:59:02.996Z</time></trkpt><trkpt lat="43.7283959" lon="11.0222292"><ele>30.0</ele><time>2026-05-03T09:59:03.993Z</time></trkpt><trkpt lat="43.7283126" lon="11.0223259"><ele>30.0</ele><time>2026-05-03T09:59:05.007Z</time></trkpt><trkpt lat="43.7282047" lon="11.0224355"><ele>30.0</ele><time>2026-05-03T09:59:05.987Z</time></trkpt><trkpt lat="43.7280808" lon="11.0225645"><ele>30.0</ele><time>2026-05-03T09:59:06.985Z</time></trkpt><trkpt lat="43.7279482" lon="11.0227135"><ele>30.0</ele><time>2026-05-03T09:59:07.992Z</time></trkpt><trkpt lat="43.7278192" lon="11.0228672"><ele>30.0</ele><time>2026-05-03T09:59:08.992Z</time></trkpt><trkpt lat="43.7276956" lon="11.0230109"><ele>30.333333333333336</ele><time>2026-05-03T09:59:09.985Z</time></trkpt><trkpt lat="43.7275722" lon="11.023148"><ele>30.666666666666668</ele><time>2026-05-03T09:59:10.994Z</time></trkpt><trkpt lat="43.7274493" lon="11.0232862"><ele>31.0</ele><time>2026-05-03T09:59:11.988Z</time></trkpt><trkpt lat="43.7273395" lon="11.0234317"><ele>31.333333333333336</ele><time>2026-05-03T09:59:12.989Z</time></trkpt><trkpt lat="43.7272474" lon="11.0235939"><ele>31.666666666666664</ele><time>2026-05-03T09:59:13.994Z</time></trkpt><trkpt lat="43.7271744" lon="11.0237767"><ele>32.0</ele><time>2026-05-03T09:59:15.003Z</time></trkpt><trkpt lat="43.7271212" lon="11.0239731"><ele>31.666666666666664</ele><time>2026-05-03T09:59:15.995Z</time></trkpt><trkpt lat="43.7270896" lon="11.0241793"><ele>31.333333333333336</ele><time>2026-05-03T09:59:16.988Z</time></trkpt><trkpt lat="43.7270809" lon="11.024391"><ele>31.0</ele><time>2026-05-03T09:59:17.988Z</time></trkpt><trkpt lat="43.7270952" lon="11.0246055"><ele>31.0</ele><time>2026-05-03T09:59:18.989Z</time></trkpt><trkpt lat="43.727123" lon="11.0248327"><ele>31.0</ele><time>2026-05-03T09:59:19.987Z</time></trkpt><trkpt lat="43.7271598" lon="11.0250671"><ele>31.0</ele><time>2026-05-03T09:59:20.994Z</time></trkpt><trkpt lat="43.7271953" lon="11.0252905"><ele>30.75</ele><time>2026-05-03T09:59:21.992Z</time></trkpt><trkpt lat="43.7272249" lon="11.0254982"><ele>30.5</ele><time>2026-05-03T09:59:23.008Z</time></trkpt><trkpt lat="43.727253" lon="11.0256913"><ele>30.25</ele><time>2026-05-03T09:59:23.993Z</time></trkpt><trkpt lat="43.7272856" lon="11.0258725"><ele>30.0</ele><time>2026-05-03T09:59:24.989Z</time></trkpt><trkpt lat="43.727317" lon="11.0260532"><ele>30.5</ele><time>2026-05-03T09:59:25.986Z</time></trkpt><trkpt lat="43.7273526" lon="11.0262397"><ele>31.0</ele><time>2026-05-03T09:59:26.985Z</time></trkpt><trkpt lat="43.7274056" lon="11.0264152"><ele>31.5</ele><time>2026-05-03T09:59:27.988Z</time></trkpt><trkpt lat="43.7274762" lon="11.0265651"><ele>32.0</ele><time>2026-05-03T09:59:28.992Z</time></trkpt><trkpt lat="43.7275584" lon="11.0266889"><ele>32.6</ele><time>2026-05-03T09:59:29.995Z</time></trkpt><trkpt lat="43.7276364" lon="11.0268019"><ele>33.2</ele><time>2026-05-03T09:59:30.995Z</time></trkpt><trkpt lat="43.7277046" lon="11.0269088"><ele>33.8</ele><time>2026-05-03T09:59:31.989Z</time></trkpt><trkpt lat="43.7277559" lon="11.0270183"><ele>34.4</ele><time>2026-05-03T09:59:32.997Z</time></trkpt><trkpt lat="43.7277875" lon="11.0271316"><ele>35.0</ele><time>2026-05-03T09:59:34.009Z</time></trkpt><trkpt lat="43.7277936" lon="11.0272581"><ele>35.0</ele><time>2026-05-03T09:59:34.986Z</time></trkpt><trkpt lat="43.7277931" lon="11.0273965"><ele>35.0</ele><time>2026-05-03T09:59:35.989Z</time></trkpt><trkpt lat="43.7277933" lon="11.0275335"><ele>35.0</ele><time>2026-05-03T09:59:36.999Z</time></trkpt><trkpt lat="43.7277898" lon="11.0276585"><ele>35.0</ele><time>2026-05-03T09:59:37.99Z</time></trkpt><trkpt lat="43.7277729" lon="11.0277695"><ele>35.0</ele><time>2026-05-03T09:59:38.988Z</time></trkpt><trkpt lat="43.7277425" lon="11.0278674"><ele>35.0</ele><time>2026-05-03T09:59:39.987Z</time></trkpt><trkpt lat="43.7276998" lon="11.0279537"><ele>35.166666666666664</ele><time>2026-05-03T09:59:40.991Z</time></trkpt><trkpt lat="43.7276505" lon="11.0280253"><ele>35.33333333333333</ele><time>2026-05-03T09:59:41.992Z</time></trkpt><trkpt lat="43.7275994" lon="11.028084"><ele>35.5</ele><time>2026-05-03T09:59:42.992Z</time></trkpt><trkpt lat="43.7275273" lon="11.0281653"><ele>35.666666666666664</ele><time>2026-05-03T09:59:45.002Z</time></trkpt><trkpt lat="43.7274562" lon="11.0282642"><ele>35.833333333333336</ele><time>2026-05-03T09:59:52.99Z</time></trkpt><trkpt lat="43.7273967" lon="11.0283551"><ele>36.0</ele><time>2026-05-03T09:59:53.991Z</time></trkpt><trkpt lat="43.7273113" lon="11.0284785"><ele>36.333333333333336</ele><time>2026-05-03T09:59:54.999Z</time></trkpt><trkpt lat="43.7272014" lon="11.0286389"><ele>36.66666666666667</ele><time>2026-05-03T09:59:55.992Z</time></trkpt><trkpt lat="43.7270754" lon="11.0288203"><ele>37.0</ele><time>2026-05-03T09:59:56.996Z</time></trkpt><trkpt lat="43.726945" lon="11.0290103"><ele>37.0</ele><time>2026-05-03T09:59:57.989Z</time></trkpt><trkpt lat="43.726815" lon="11.0292069"><ele>37.0</ele><time>2026-05-03T09:59:59.006Z</time></trkpt><trkpt lat="43.7266937" lon="11.0294161"><ele>37.0</ele><time>2026-05-03T10:00:00.001Z</time></trkpt><trkpt lat="43.726586" lon="11.029636"><ele>37.0</ele><time>2026-05-03T10:00:00.993Z</time></trkpt><trkpt lat="43.726493" lon="11.0298534"><ele>37.0</ele><time>2026-05-03T10:00:01.996Z</time></trkpt><trkpt lat="43.726411" lon="11.0300556"><ele>37.0</ele><time>2026-05-03T10:00:02.999Z</time></trkpt><trkpt lat="43.7263364" lon="11.0302411"><ele>38.0</ele><time>2026-05-03T10:00:03.986Z</time></trkpt><trkpt lat="43.7262632" lon="11.0304117"><ele>39.0</ele><time>2026-05-03T10:00:04.984Z</time></trkpt><trkpt lat="43.7261841" lon="11.030571"><ele>40.0</ele><time>2026-05-03T10:00:05.99Z</time></trkpt><trkpt lat="43.7260946" lon="11.0307179"><ele>41.0</ele><time>2026-05-03T10:00:06.991Z</time></trkpt><trkpt lat="43.7259821" lon="11.0308558"><ele>41.0</ele><time>2026-05-03T10:00:07.987Z</time></trkpt><trkpt lat="43.7258293" lon="11.0309794"><ele>41.0</ele><time>2026-05-03T10:00:08.998Z</time></trkpt><trkpt lat="43.7256585" lon="11.0311165"><ele>41.0</ele><time>2026-05-03T10:00:09.996Z</time></trkpt><trkpt lat="43.7254798" lon="11.0312703"><ele>41.0</ele><time>2026-05-03T10:00:10.989Z</time></trkpt><trkpt lat="43.7253094" lon="11.0314466"><ele>41.0</ele><time>2026-05-03T10:00:11.985Z</time></trkpt><trkpt lat="43.7251465" lon="11.0316276"><ele>41.0</ele><time>2026-05-03T10:00:12.988Z</time></trkpt><trkpt lat="43.7249886" lon="11.0318118"><ele>41.0</ele><time>2026-05-03T10:00:14.006Z</time></trkpt><trkpt lat="43.7248432" lon="11.0320041"><ele>41.0</ele><time>2026-05-03T10:00:14.991Z</time></trkpt><trkpt lat="43.7247029" lon="11.0322031"><ele>41.0</ele><time>2026-05-03T10:00:15.995Z</time></trkpt><trkpt lat="43.72457" lon="11.032434"><ele>40.33333333333333</ele><time>2026-05-03T10:00:16.999Z</time></trkpt><trkpt lat="43.7244385" lon="11.0326827"><ele>39.666666666666664</ele><time>2026-05-03T10:00:17.995Z</time></trkpt><trkpt lat="43.7243138" lon="11.0329413"><ele>39.0</ele><time>2026-05-03T10:00:18.997Z</time></trkpt><trkpt lat="43.7241863" lon="11.0332003"><ele>41.0</ele><time>2026-05-03T10:00:19.991Z</time></trkpt><trkpt lat="43.7240572" lon="11.0334609"><ele>43.0</ele><time>2026-05-03T10:00:21Z</time></trkpt><trkpt lat="43.7239336" lon="11.0337178"><ele>43.0</ele><time>2026-05-03T10:00:21.987Z</time></trkpt><trkpt lat="43.7238239" lon="11.0339672"><ele>43.0</ele><time>2026-05-03T10:00:22.991Z</time></trkpt><trkpt lat="43.7237271" lon="11.034212"><ele>43.0</ele><time>2026-05-03T10:00:23.987Z</time></trkpt><trkpt lat="43.7236373" lon="11.0344641"><ele>42.66666666666667</ele><time>2026-05-03T10:00:24.997Z</time></trkpt><trkpt lat="43.7235429" lon="11.034728"><ele>42.333333333333336</ele><time>2026-05-03T10:00:25.994Z</time></trkpt><trkpt lat="43.7234504" lon="11.034997"><ele>42.0</ele><time>2026-05-03T10:00:26.989Z</time></trkpt><trkpt lat="43.7233587" lon="11.035256"><ele>42.0</ele><time>2026-05-03T10:00:27.997Z</time></trkpt><trkpt lat="43.7232715" lon="11.0355016"><ele>42.0</ele><time>2026-05-03T10:00:28.991Z</time></trkpt><trkpt lat="43.7231901" lon="11.0357344"><ele>42.0</ele><time>2026-05-03T10:00:30Z</time></trkpt><trkpt lat="43.7231085" lon="11.0359557"><ele>43.333333333333336</ele><time>2026-05-03T10:00:30.993Z</time></trkpt><trkpt lat="43.7230255" lon="11.0361732"><ele>44.66666666666667</ele><time>2026-05-03T10:00:31.993Z</time></trkpt><trkpt lat="43.7229392" lon="11.0363916"><ele>46.0</ele><time>2026-05-03T10:00:32.992Z</time></trkpt><trkpt lat="43.722836" lon="11.0366162"><ele>43.333333333333336</ele><time>2026-05-03T10:00:33.994Z</time></trkpt><trkpt lat="43.7227072" lon="11.0368465"><ele>40.666666666666664</ele><time>2026-05-03T10:00:34.992Z</time></trkpt><trkpt lat="43.7225637" lon="11.0370746"><ele>38.0</ele><time>2026-05-03T10:00:35.997Z</time></trkpt><trkpt lat="43.7224255" lon="11.0372937"><ele>41.0</ele><time>2026-05-03T10:00:36.992Z</time></trkpt><trkpt lat="43.722294" lon="11.0375091"><ele>44.0</ele><time>2026-05-03T10:00:38.003Z</time></trkpt><trkpt lat="43.7221568" lon="11.0377223"><ele>47.0</ele><time>2026-05-03T10:00:38.998Z</time></trkpt><trkpt lat="43.7220024" lon="11.0379171"><ele>46.666666666666664</ele><time>2026-05-03T10:00:39.989Z</time></trkpt><trkpt lat="43.7218295" lon="11.0380907"><ele>46.333333333333336</ele><time>2026-05-03T10:00:40.993Z</time></trkpt><trkpt lat="43.7216414" lon="11.0382476"><ele>46.0</ele><time>2026-05-03T10:00:41.994Z</time></trkpt><trkpt lat="43.7214418" lon="11.0383925"><ele>46.0</ele><time>2026-05-03T10:00:42.996Z</time></trkpt><trkpt lat="43.7212327" lon="11.0385248"><ele>46.0</ele><time>2026-05-03T10:00:43.988Z</time></trkpt><trkpt lat="43.721027" lon="11.0386476"><ele>43.0</ele><time>2026-05-03T10:00:44.999Z</time></trkpt><trkpt lat="43.7208355" lon="11.0387643"><ele>40.0</ele><time>2026-05-03T10:00:45.996Z</time></trkpt><trkpt lat="43.7206564" lon="11.0388762"><ele>37.0</ele><time>2026-05-03T10:00:46.987Z</time></trkpt><trkpt lat="43.7204899" lon="11.0389862"><ele>37.0</ele><time>2026-05-03T10:00:47.997Z</time></trkpt><trkpt lat="43.7203392" lon="11.0391011"><ele>37.0</ele><time>2026-05-03T10:00:48.995Z</time></trkpt><trkpt lat="43.7202106" lon="11.039237"><ele>37.0</ele><time>2026-05-03T10:00:49.991Z</time></trkpt><trkpt lat="43.7201004" lon="11.0394077"><ele>37.0</ele><time>2026-05-03T10:00:50.993Z</time></trkpt><trkpt lat="43.7200067" lon="11.0396249"><ele>37.0</ele><time>2026-05-03T10:00:51.988Z</time></trkpt><trkpt lat="43.7199252" lon="11.0398856"><ele>37.0</ele><time>2026-05-03T10:00:52.991Z</time></trkpt><trkpt lat="43.7198481" lon="11.0401728"><ele>38.0</ele><time>2026-05-03T10:00:53.989Z</time></trkpt><trkpt lat="43.7197677" lon="11.0404735"><ele>39.0</ele><time>2026-05-03T10:00:54.986Z</time></trkpt><trkpt lat="43.7196775" lon="11.0407898"><ele>41.0</ele><time>2026-05-03T10:00:55.986Z</time></trkpt><trkpt lat="43.7195845" lon="11.0411141"><ele>43.0</ele><time>2026-05-03T10:00:56.988Z</time></trkpt><trkpt lat="43.7194952" lon="11.0414255"><ele>42.5</ele><time>2026-05-03T10:00:57.997Z</time></trkpt><trkpt lat="43.7194083" lon="11.0417372"><ele>42.0</ele><time>2026-05-03T10:00:58.995Z</time></trkpt><trkpt lat="43.7193193" lon="11.042053"><ele>42.0</ele><time>2026-05-03T10:00:59.985Z</time></trkpt><trkpt lat="43.7192295" lon="11.042371"><ele>42.0</ele><time>2026-05-03T10:01:00.99Z</time></trkpt><trkpt lat="43.7191403" lon="11.0426857"><ele>41.5</ele><time>2026-05-03T10:01:01.992Z</time></trkpt><trkpt lat="43.7190525" lon="11.0429963"><ele>41.0</ele><time>2026-05-03T10:01:02.992Z</time></trkpt><trkpt lat="43.7189697" lon="11.0432944"><ele>41.666666666666664</ele><time>2026-05-03T10:01:03.987Z</time></trkpt><trkpt lat="43.7188916" lon="11.0435786"><ele>42.333333333333336</ele><time>2026-05-03T10:01:04.989Z</time></trkpt><trkpt lat="43.7188164" lon="11.0438557"><ele>43.0</ele><time>2026-05-03T10:01:05.988Z</time></trkpt><trkpt lat="43.7187409" lon="11.044127"><ele>41.66666666666667</ele><time>2026-05-03T10:01:06.986Z</time></trkpt><trkpt lat="43.7186561" lon="11.0443791"><ele>40.333333333333336</ele><time>2026-05-03T10:01:07.985Z</time></trkpt><trkpt lat="43.7185589" lon="11.0446236"><ele>39.0</ele><time>2026-05-03T10:01:08.986Z</time></trkpt><trkpt lat="43.7184332" lon="11.04487"><ele>42.0</ele><time>2026-05-03T10:01:09.985Z</time></trkpt><trkpt lat="43.7182721" lon="11.0451197"><ele>45.0</ele><time>2026-05-03T10:01:10.997Z</time></trkpt><trkpt lat="43.7180986" lon="11.0453662"><ele>45.0</ele><time>2026-05-03T10:01:12.003Z</time></trkpt><trkpt lat="43.7179316" lon="11.0456218"><ele>45.0</ele><time>2026-05-03T10:01:12.997Z</time></trkpt><trkpt lat="43.7177688" lon="11.0458787"><ele>44.5</ele><time>2026-05-03T10:01:13.994Z</time></trkpt><trkpt lat="43.7176171" lon="11.0461497"><ele>44.0</ele><time>2026-05-03T10:01:15.001Z</time></trkpt><trkpt lat="43.7174676" lon="11.0464215"><ele>49.0</ele><time>2026-05-03T10:01:16Z</time></trkpt><trkpt lat="43.7173205" lon="11.0466983"><ele>54.0</ele><time>2026-05-03T10:01:16.99Z</time></trkpt><trkpt lat="43.7171774" lon="11.0469758"><ele>54.0</ele><time>2026-05-03T10:01:17.996Z</time></trkpt><trkpt lat="43.7170451" lon="11.0472594"><ele>54.0</ele><time>2026-05-03T10:01:18.996Z</time></trkpt><trkpt lat="43.71692" lon="11.0475516"><ele>48.5</ele><time>2026-05-03T10:01:19.991Z</time></trkpt><trkpt lat="43.7168131" lon="11.0478571"><ele>43.0</ele><time>2026-05-03T10:01:20.998Z</time></trkpt><trkpt lat="43.7167121" lon="11.0481669"><ele>43.5</ele><time>2026-05-03T10:01:21.989Z</time></trkpt><trkpt lat="43.7166198" lon="11.0484831"><ele>44.0</ele><time>2026-05-03T10:01:22.99Z</time></trkpt><trkpt lat="43.7165387" lon="11.0488169"><ele>46.5</ele><time>2026-05-03T10:01:24.005Z</time></trkpt><trkpt lat="43.7164464" lon="11.0491616"><ele>49.0</ele><time>2026-05-03T10:01:24.987Z</time></trkpt><trkpt lat="43.7163543" lon="11.0494982"><ele>49.0</ele><time>2026-05-03T10:01:25.99Z</time></trkpt><trkpt lat="43.7162571" lon="11.0498214"><ele>49.0</ele><time>2026-05-03T10:01:26.991Z</time></trkpt><trkpt lat="43.7161536" lon="11.0501607"><ele>48.5</ele><time>2026-05-03T10:01:28Z</time></trkpt><trkpt lat="43.7160419" lon="11.0505009"><ele>48.0</ele><time>2026-05-03T10:01:28.986Z</time></trkpt><trkpt lat="43.7159278" lon="11.0508308"><ele>48.0</ele><time>2026-05-03T10:01:29.996Z</time></trkpt><trkpt lat="43.7158167" lon="11.0511549"><ele>48.0</ele><time>2026-05-03T10:01:31.005Z</time></trkpt><trkpt lat="43.7157093" lon="11.0514762"><ele>51.5</ele><time>2026-05-03T10:01:31.985Z</time></trkpt><trkpt lat="43.7156034" lon="11.0517828"><ele>55.0</ele><time>2026-05-03T10:01:32.988Z</time></trkpt><trkpt lat="43.7155038" lon="11.0520728"><ele>55.0</ele><time>2026-05-03T10:01:33.996Z</time></trkpt><trkpt lat="43.7154033" lon="11.0523412"><ele>55.0</ele><time>2026-05-03T10:01:34.996Z</time></trkpt><trkpt lat="43.7153014" lon="11.0525985"><ele>55.0</ele><time>2026-05-03T10:01:35.999Z</time></trkpt><trkpt lat="43.7151986" lon="11.0528471"><ele>55.33333333333333</ele><time>2026-05-03T10:01:36.991Z</time></trkpt><trkpt lat="43.7151009" lon="11.0530875"><ele>55.66666666666667</ele><time>2026-05-03T10:01:37.982Z</time></trkpt><trkpt lat="43.7150072" lon="11.0533203"><ele>56.0</ele><time>2026-05-03T10:01:38.986Z</time></trkpt><trkpt lat="43.714914" lon="11.0535526"><ele>56.0</ele><time>2026-05-03T10:01:39.987Z</time></trkpt><trkpt lat="43.7148151" lon="11.0537958"><ele>56.0</ele><time>2026-05-03T10:01:40.991Z</time></trkpt><trkpt lat="43.7147103" lon="11.054048"><ele>56.0</ele><time>2026-05-03T10:01:41.989Z</time></trkpt><trkpt lat="43.7146088" lon="11.0542962"><ele>57.0</ele><time>2026-05-03T10:01:42.99Z</time></trkpt><trkpt lat="43.7145141" lon="11.0545339"><ele>58.0</ele><time>2026-05-03T10:01:43.984Z</time></trkpt><trkpt lat="43.7144177" lon="11.0547632"><ele>59.0</ele><time>2026-05-03T10:01:44.986Z</time></trkpt><trkpt lat="43.7143225" lon="11.0549967"><ele>59.0</ele><time>2026-05-03T10:01:46.004Z</time></trkpt><trkpt lat="43.7142267" lon="11.0552444"><ele>59.0</ele><time>2026-05-03T10:01:46.988Z</time></trkpt><trkpt lat="43.7141256" lon="11.0555234"><ele>59.0</ele><time>2026-05-03T10:01:47.987Z</time></trkpt><trkpt lat="43.7140159" lon="11.055808"><ele>59.333333333333336</ele><time>2026-05-03T10:01:48.995Z</time></trkpt><trkpt lat="43.7138951" lon="11.0560631"><ele>59.66666666666667</ele><time>2026-05-03T10:01:49.983Z</time></trkpt><trkpt lat="43.7137805" lon="11.0563099"><ele>60.0</ele><time>2026-05-03T10:01:50.985Z</time></trkpt><trkpt lat="43.7136769" lon="11.0565611"><ele>61.33333333333333</ele><time>2026-05-03T10:01:51.988Z</time></trkpt><trkpt lat="43.7135825" lon="11.0568009"><ele>62.666666666666664</ele><time>2026-05-03T10:01:52.994Z</time></trkpt><trkpt lat="43.7134937" lon="11.057027"><ele>64.0</ele><time>2026-05-03T10:01:53.994Z</time></trkpt><trkpt lat="43.7134062" lon="11.0572454"><ele>60.666666666666664</ele><time>2026-05-03T10:01:54.985Z</time></trkpt><trkpt lat="43.7133246" lon="11.0574523"><ele>57.33333333333333</ele><time>2026-05-03T10:01:55.997Z</time></trkpt><trkpt lat="43.7132543" lon="11.0576532"><ele>54.0</ele><time>2026-05-03T10:01:56.989Z</time></trkpt><trkpt lat="43.7131964" lon="11.0578643"><ele>54.0</ele><time>2026-05-03T10:01:57.986Z</time></trkpt><trkpt lat="43.7131601" lon="11.0581054"><ele>54.0</ele><time>2026-05-03T10:01:58.99Z</time></trkpt><trkpt lat="43.7131278" lon="11.0583541"><ele>54.0</ele><time>2026-05-03T10:01:59.994Z</time></trkpt><trkpt lat="43.7130902" lon="11.0586012"><ele>56.0</ele><time>2026-05-03T10:02:01.003Z</time></trkpt><trkpt lat="43.7130361" lon="11.0588447"><ele>58.0</ele><time>2026-05-03T10:02:01.99Z</time></trkpt><trkpt lat="43.7129726" lon="11.0590748"><ele>60.0</ele><time>2026-05-03T10:02:02.989Z</time></trkpt><trkpt lat="43.7129078" lon="11.0592898"><ele>61.33333333333333</ele><time>2026-05-03T10:02:03.999Z</time></trkpt><trkpt lat="43.7128443" lon="11.0594937"><ele>62.666666666666664</ele><time>2026-05-03T10:02:04.997Z</time></trkpt><trkpt lat="43.7127841" lon="11.059695"><ele>64.0</ele><time>2026-05-03T10:02:05.989Z</time></trkpt><trkpt lat="43.712722" lon="11.0598877"><ele>60.5</ele><time>2026-05-03T10:02:06.995Z</time></trkpt><trkpt lat="43.7126586" lon="11.060067"><ele>57.0</ele><time>2026-05-03T10:02:07.987Z</time></trkpt><trkpt lat="43.7125919" lon="11.0602355"><ele>53.5</ele><time>2026-05-03T10:02:08.985Z</time></trkpt><trkpt lat="43.7125208" lon="11.0604008"><ele>50.0</ele><time>2026-05-03T10:02:09.986Z</time></trkpt><trkpt lat="43.7124432" lon="11.0605649"><ele>50.0</ele><time>2026-05-03T10:02:10.988Z</time></trkpt><trkpt lat="43.7123484" lon="11.0607229"><ele>50.0</ele><time>2026-05-03T10:02:11.986Z</time></trkpt><trkpt lat="43.7122558" lon="11.0608826"><ele>50.0</ele><time>2026-05-03T10:02:12.986Z</time></trkpt><trkpt lat="43.7121746" lon="11.0610201"><ele>50.0</ele><time>2026-05-03T10:02:13.995Z</time></trkpt><trkpt lat="43.7121049" lon="11.0611455"><ele>50.25</ele><time>2026-05-03T10:02:14.987Z</time></trkpt><trkpt lat="43.7120313" lon="11.0612699"><ele>50.5</ele><time>2026-05-03T10:02:15.987Z</time></trkpt><trkpt lat="43.7119581" lon="11.0613962"><ele>50.75</ele><time>2026-05-03T10:02:16.986Z</time></trkpt><trkpt lat="43.7118821" lon="11.0615108"><ele>51.0</ele><time>2026-05-03T10:02:17.999Z</time></trkpt><trkpt lat="43.711809" lon="11.0616178"><ele>50.5</ele><time>2026-05-03T10:02:18.986Z</time></trkpt><trkpt lat="43.7117382" lon="11.0617118"><ele>50.0</ele><time>2026-05-03T10:02:19.985Z</time></trkpt><trkpt lat="43.7116669" lon="11.0617959"><ele>49.5</ele><time>2026-05-03T10:02:20.993Z</time></trkpt><trkpt lat="43.7115962" lon="11.0618715"><ele>49.0</ele><time>2026-05-03T10:02:21.99Z</time></trkpt><trkpt lat="43.7115257" lon="11.0619309"><ele>48.5</ele><time>2026-05-03T10:02:22.984Z</time></trkpt><trkpt lat="43.7114539" lon="11.0619751"><ele>48.0</ele><time>2026-05-03T10:02:23.989Z</time></trkpt><trkpt lat="43.7113775" lon="11.061999"><ele>48.0</ele><time>2026-05-03T10:02:24.982Z</time></trkpt><trkpt lat="43.7113002" lon="11.0619958"><ele>48.0</ele><time>2026-05-03T10:02:25.988Z</time></trkpt><trkpt lat="43.711221" lon="11.0619631"><ele>48.0</ele><time>2026-05-03T10:02:26.989Z</time></trkpt><trkpt lat="43.711137" lon="11.0619156"><ele>48.0</ele><time>2026-05-03T10:02:27.989Z</time></trkpt><trkpt lat="43.7110476" lon="11.0618897"><ele>48.0</ele><time>2026-05-03T10:02:28.997Z</time></trkpt><trkpt lat="43.7109615" lon="11.0619017"><ele>48.0</ele><time>2026-05-03T10:02:29.989Z</time></trkpt><trkpt lat="43.7108832" lon="11.0619444"><ele>47.833333333333336</ele><time>2026-05-03T10:02:30.985Z</time></trkpt><trkpt lat="43.7108172" lon="11.0620101"><ele>47.666666666666664</ele><time>2026-05-03T10:02:31.996Z</time></trkpt><trkpt lat="43.7107678" lon="11.0620939"><ele>47.5</ele><time>2026-05-03T10:02:33.003Z</time></trkpt><trkpt lat="43.7107367" lon="11.0621878"><ele>47.33333333333333</ele><time>2026-05-03T10:02:34.01Z</time></trkpt><trkpt lat="43.7107197" lon="11.0622875"><ele>47.166666666666664</ele><time>2026-05-03T10:02:34.989Z</time></trkpt><trkpt lat="43.710712" lon="11.062398"><ele>47.0</ele><time>2026-05-03T10:02:35.989Z</time></trkpt><trkpt lat="43.7106884" lon="11.0625123"><ele>47.0</ele><time>2026-05-03T10:02:36.991Z</time></trkpt><trkpt lat="43.7106471" lon="11.0626298"><ele>47.0</ele><time>2026-05-03T10:02:37.983Z</time></trkpt><trkpt lat="43.7105816" lon="11.0627291"><ele>47.0</ele><time>2026-05-03T10:02:39.002Z</time></trkpt><trkpt lat="43.710507" lon="11.0628134"><ele>47.0</ele><time>2026-05-03T10:02:39.986Z</time></trkpt><trkpt lat="43.7104258" lon="11.062895"><ele>47.0</ele><time>2026-05-03T10:02:40.987Z</time></trkpt><trkpt lat="43.7103371" lon="11.0629804"><ele>47.0</ele><time>2026-05-03T10:02:41.991Z</time></trkpt><trkpt lat="43.7102434" lon="11.0630771"><ele>47.0</ele><time>2026-05-03T10:02:42.989Z</time></trkpt><trkpt lat="43.710146" lon="11.0631784"><ele>47.0</ele><time>2026-05-03T10:02:43.985Z</time></trkpt><trkpt lat="43.7100521" lon="11.063288"><ele>47.0</ele><time>2026-05-03T10:02:44.994Z</time></trkpt><trkpt lat="43.7099639" lon="11.0634046"><ele>47.25</ele><time>2026-05-03T10:02:46.003Z</time></trkpt><trkpt lat="43.709882" lon="11.0635271"><ele>47.5</ele><time>2026-05-03T10:02:46.996Z</time></trkpt><trkpt lat="43.7098038" lon="11.0636535"><ele>47.75</ele><time>2026-05-03T10:02:47.99Z</time></trkpt><trkpt lat="43.7097313" lon="11.0637883"><ele>48.0</ele><time>2026-05-03T10:02:48.985Z</time></trkpt><trkpt lat="43.7096622" lon="11.0639279"><ele>48.0</ele><time>2026-05-03T10:02:49.984Z</time></trkpt><trkpt lat="43.7095954" lon="11.0640722"><ele>48.0</ele><time>2026-05-03T10:02:50.991Z</time></trkpt><trkpt lat="43.7095313" lon="11.0642223"><ele>48.0</ele><time>2026-05-03T10:02:51.997Z</time></trkpt><trkpt lat="43.7094721" lon="11.0643797"><ele>48.0</ele><time>2026-05-03T10:02:52.983Z</time></trkpt><trkpt lat="43.7094186" lon="11.0645436"><ele>48.0</ele><time>2026-05-03T10:02:53.987Z</time></trkpt><trkpt lat="43.7093711" lon="11.0647083"><ele>48.0</ele><time>2026-05-03T10:02:54.989Z</time></trkpt><trkpt lat="43.7093289" lon="11.0648772"><ele>48.0</ele><time>2026-05-03T10:02:55.992Z</time></trkpt><trkpt lat="43.709291" lon="11.0650586"><ele>48.0</ele><time>2026-05-03T10:02:56.994Z</time></trkpt><trkpt lat="43.7092635" lon="11.0652485"><ele>48.0</ele><time>2026-05-03T10:02:57.987Z</time></trkpt><trkpt lat="43.7092361" lon="11.0654392"><ele>48.0</ele><time>2026-05-03T10:02:58.984Z</time></trkpt><trkpt lat="43.709211" lon="11.0656326"><ele>48.0</ele><time>2026-05-03T10:02:59.986Z</time></trkpt><trkpt lat="43.7091893" lon="11.0658258"><ele>48.0</ele><time>2026-05-03T10:03:01Z</time></trkpt><trkpt lat="43.7091679" lon="11.0660197"><ele>47.666666666666664</ele><time>2026-05-03T10:03:01.987Z</time></trkpt><trkpt lat="43.7091466" lon="11.0662189"><ele>47.33333333333333</ele><time>2026-05-03T10:03:02.983Z</time></trkpt><trkpt lat="43.7091232" lon="11.0664273"><ele>47.0</ele><time>2026-05-03T10:03:03.987Z</time></trkpt><trkpt lat="43.7090986" lon="11.0666542"><ele>47.0</ele><time>2026-05-03T10:03:04.997Z</time></trkpt><trkpt lat="43.7090792" lon="11.0669144"><ele>47.0</ele><time>2026-05-03T10:03:05.986Z</time></trkpt><trkpt lat="43.7090567" lon="11.0672144"><ele>47.0</ele><time>2026-05-03T10:03:06.988Z</time></trkpt><trkpt lat="43.7090197" lon="11.0675323"><ele>47.33333333333333</ele><time>2026-05-03T10:03:07.984Z</time></trkpt><trkpt lat="43.7089778" lon="11.0678414"><ele>47.666666666666664</ele><time>2026-05-03T10:03:08.99Z</time></trkpt><trkpt lat="43.7089386" lon="11.068136"><ele>48.0</ele><time>2026-05-03T10:03:09.983Z</time></trkpt><trkpt lat="43.7088975" lon="11.068423"><ele>48.0</ele><time>2026-05-03T10:03:10.99Z</time></trkpt><trkpt lat="43.708851" lon="11.0687015"><ele>48.0</ele><time>2026-05-03T10:03:11.989Z</time></trkpt><trkpt lat="43.7087936" lon="11.0689686"><ele>48.0</ele><time>2026-05-03T10:03:12.986Z</time></trkpt><trkpt lat="43.7087142" lon="11.0692198"><ele>47.666666666666664</ele><time>2026-05-03T10:03:13.987Z</time></trkpt><trkpt lat="43.7086308" lon="11.0694593"><ele>47.33333333333333</ele><time>2026-05-03T10:03:14.981Z</time></trkpt><trkpt lat="43.708536" lon="11.0696795"><ele>47.0</ele><time>2026-05-03T10:03:15.991Z</time></trkpt><trkpt lat="43.7084298" lon="11.0698906"><ele>47.666666666666664</ele><time>2026-05-03T10:03:16.985Z</time></trkpt><trkpt lat="43.7083179" lon="11.0700849"><ele>48.33333333333333</ele><time>2026-05-03T10:03:17.983Z</time></trkpt><trkpt lat="43.7082106" lon="11.0702656"><ele>49.0</ele><time>2026-05-03T10:03:18.984Z</time></trkpt><trkpt lat="43.7081101" lon="11.070434"><ele>49.0</ele><time>2026-05-03T10:03:19.984Z</time></trkpt><trkpt lat="43.7080159" lon="11.0705908"><ele>49.0</ele><time>2026-05-03T10:03:20.999Z</time></trkpt><trkpt lat="43.7079284" lon="11.0707328"><ele>49.0</ele><time>2026-05-03T10:03:21.99Z</time></trkpt><trkpt lat="43.7078518" lon="11.0708544"><ele>49.0</ele><time>2026-05-03T10:03:22.986Z</time></trkpt><trkpt lat="43.7077838" lon="11.0709512"><ele>49.2</ele><time>2026-05-03T10:03:23.985Z</time></trkpt><trkpt lat="43.7077139" lon="11.0710222"><ele>49.400000000000006</ele><time>2026-05-03T10:03:24.984Z</time></trkpt><trkpt lat="43.7076342" lon="11.0710709"><ele>49.6</ele><time>2026-05-03T10:03:25.987Z</time></trkpt><trkpt lat="43.7075371" lon="11.071101"><ele>49.8</ele><time>2026-05-03T10:03:26.996Z</time></trkpt><trkpt lat="43.70744" lon="11.0711409"><ele>50.0</ele><time>2026-05-03T10:03:27.983Z</time></trkpt><trkpt lat="43.707361" lon="11.0712118"><ele>50.0</ele><time>2026-05-03T10:03:28.984Z</time></trkpt><trkpt lat="43.7073072" lon="11.071322"><ele>50.0</ele><time>2026-05-03T10:03:29.986Z</time></trkpt><trkpt lat="43.7072838" lon="11.0714637"><ele>50.0</ele><time>2026-05-03T10:03:30.982Z</time></trkpt><trkpt lat="43.7072772" lon="11.0716161"><ele>50.0</ele><time>2026-05-03T10:03:31.996Z</time></trkpt><trkpt lat="43.7072585" lon="11.0717697"><ele>50.0</ele><time>2026-05-03T10:03:32.99Z</time></trkpt><trkpt lat="43.7072023" lon="11.071926"><ele>50.333333333333336</ele><time>2026-05-03T10:03:33.987Z</time></trkpt><trkpt lat="43.7071061" lon="11.0720936"><ele>50.66666666666667</ele><time>2026-05-03T10:03:34.989Z</time></trkpt><trkpt lat="43.7069894" lon="11.0722769"><ele>51.0</ele><time>2026-05-03T10:03:35.987Z</time></trkpt><trkpt lat="43.7068607" lon="11.0724781"><ele>51.0</ele><time>2026-05-03T10:03:36.988Z</time></trkpt><trkpt lat="43.7067212" lon="11.072701"><ele>51.0</ele><time>2026-05-03T10:03:37.991Z</time></trkpt><trkpt lat="43.7065825" lon="11.0729413"><ele>51.0</ele><time>2026-05-03T10:03:38.999Z</time></trkpt><trkpt lat="43.7064506" lon="11.0731884"><ele>51.0</ele><time>2026-05-03T10:03:39.989Z</time></trkpt><trkpt lat="43.7063291" lon="11.0734427"><ele>51.0</ele><time>2026-05-03T10:03:40.985Z</time></trkpt><trkpt lat="43.7062212" lon="11.073707"><ele>51.0</ele><time>2026-05-03T10:03:41.992Z</time></trkpt><trkpt lat="43.7061217" lon="11.0739773"><ele>51.33333333333333</ele><time>2026-05-03T10:03:42.997Z</time></trkpt><trkpt lat="43.7060327" lon="11.0742541"><ele>51.666666666666664</ele><time>2026-05-03T10:03:43.999Z</time></trkpt><trkpt lat="43.7059576" lon="11.0745374"><ele>52.0</ele><time>2026-05-03T10:03:44.984Z</time></trkpt><trkpt lat="43.7058941" lon="11.0748248"><ele>51.666666666666664</ele><time>2026-05-03T10:03:45.995Z</time></trkpt><trkpt lat="43.7058397" lon="11.0751166"><ele>51.33333333333333</ele><time>2026-05-03T10:03:46.981Z</time></trkpt><trkpt lat="43.7057939" lon="11.0754172"><ele>51.0</ele><time>2026-05-03T10:03:47.994Z</time></trkpt><trkpt lat="43.7057569" lon="11.075734"><ele>50.5</ele><time>2026-05-03T10:03:48.988Z</time></trkpt><trkpt lat="43.7057317" lon="11.0760753"><ele>50.0</ele><time>2026-05-03T10:03:49.983Z</time></trkpt><trkpt lat="43.7057059" lon="11.0764282"><ele>50.0</ele><time>2026-05-03T10:03:50.983Z</time></trkpt><trkpt lat="43.7056802" lon="11.0767735"><ele>50.0</ele><time>2026-05-03T10:03:51.989Z</time></trkpt><trkpt lat="43.7056552" lon="11.0771063"><ele>50.0</ele><time>2026-05-03T10:03:52.989Z</time></trkpt><trkpt lat="43.7056295" lon="11.0774328"><ele>50.0</ele><time>2026-05-03T10:03:54.002Z</time></trkpt><trkpt lat="43.7056035" lon="11.0777558"><ele>50.5</ele><time>2026-05-03T10:03:54.992Z</time></trkpt><trkpt lat="43.7055771" lon="11.078076"><ele>51.0</ele><time>2026-05-03T10:03:55.983Z</time></trkpt><trkpt lat="43.7055509" lon="11.078394"><ele>52.0</ele><time>2026-05-03T10:03:56.995Z</time></trkpt><trkpt lat="43.705525" lon="11.0787094"><ele>53.0</ele><time>2026-05-03T10:03:57.996Z</time></trkpt><trkpt lat="43.7055004" lon="11.0790228"><ele>53.0</ele><time>2026-05-03T10:03:58.986Z</time></trkpt><trkpt lat="43.7054762" lon="11.0793343"><ele>53.0</ele><time>2026-05-03T10:03:59.987Z</time></trkpt><trkpt lat="43.7054484" lon="11.0796428"><ele>53.0</ele><time>2026-05-03T10:04:00.99Z</time></trkpt><trkpt lat="43.7054141" lon="11.0799469"><ele>53.0</ele><time>2026-05-03T10:04:01.995Z</time></trkpt><trkpt lat="43.7053724" lon="11.0802519"><ele>53.0</ele><time>2026-05-03T10:04:02.994Z</time></trkpt><trkpt lat="43.7053253" lon="11.080564"><ele>53.5</ele><time>2026-05-03T10:04:03.998Z</time></trkpt><trkpt lat="43.7052738" lon="11.0808775"><ele>54.0</ele><time>2026-05-03T10:04:05.003Z</time></trkpt><trkpt lat="43.705221" lon="11.0811903"><ele>53.5</ele><time>2026-05-03T10:04:06.005Z</time></trkpt><trkpt lat="43.7051607" lon="11.0814998"><ele>53.0</ele><time>2026-05-03T10:04:06.985Z</time></trkpt><trkpt lat="43.7050967" lon="11.0818046"><ele>53.0</ele><time>2026-05-03T10:04:07.983Z</time></trkpt><trkpt lat="43.7050257" lon="11.0821032"><ele>53.0</ele><time>2026-05-03T10:04:08.996Z</time></trkpt><trkpt lat="43.7049495" lon="11.0823972"><ele>53.0</ele><time>2026-05-03T10:04:09.991Z</time></trkpt><trkpt lat="43.7048689" lon="11.0826879"><ele>53.0</ele><time>2026-05-03T10:04:10.992Z</time></trkpt><trkpt lat="43.7047873" lon="11.0829781"><ele>53.333333333333336</ele><time>2026-05-03T10:04:12.008Z</time></trkpt><trkpt lat="43.7047065" lon="11.0832645"><ele>53.66666666666667</ele><time>2026-05-03T10:04:12.991Z</time></trkpt><trkpt lat="43.7046269" lon="11.0835372"><ele>54.0</ele><time>2026-05-03T10:04:14.002Z</time></trkpt><trkpt lat="43.7045539" lon="11.0837963"><ele>54.0</ele><time>2026-05-03T10:04:15.004Z</time></trkpt><trkpt lat="43.7044873" lon="11.0840524"><ele>54.0</ele><time>2026-05-03T10:04:15.983Z</time></trkpt><trkpt lat="43.7044355" lon="11.0843136"><ele>54.0</ele><time>2026-05-03T10:04:16.991Z</time></trkpt><trkpt lat="43.7044013" lon="11.0845794"><ele>54.0</ele><time>2026-05-03T10:04:17.986Z</time></trkpt><trkpt lat="43.7043887" lon="11.08485"><ele>54.0</ele><time>2026-05-03T10:04:18.986Z</time></trkpt><trkpt lat="43.704392" lon="11.0851224"><ele>54.0</ele><time>2026-05-03T10:04:19.986Z</time></trkpt><trkpt lat="43.7044144" lon="11.0853911"><ele>54.0</ele><time>2026-05-03T10:04:20.989Z</time></trkpt><trkpt lat="43.7044539" lon="11.0856493"><ele>54.0</ele><time>2026-05-03T10:04:21.994Z</time></trkpt><trkpt lat="43.7045058" lon="11.0858965"><ele>54.0</ele><time>2026-05-03T10:04:22.994Z</time></trkpt><trkpt lat="43.7045619" lon="11.086131"><ele>54.0</ele><time>2026-05-03T10:04:23.993Z</time></trkpt><trkpt lat="43.7046144" lon="11.0863507"><ele>54.0</ele><time>2026-05-03T10:04:24.988Z</time></trkpt><trkpt lat="43.7046496" lon="11.0865571"><ele>54.0</ele><time>2026-05-03T10:04:25.981Z</time></trkpt><trkpt lat="43.7046657" lon="11.0867403"><ele>54.0</ele><time>2026-05-03T10:04:26.984Z</time></trkpt><trkpt lat="43.7046639" lon="11.0868989"><ele>54.00000000000001</ele><time>2026-05-03T10:04:28.001Z</time></trkpt><trkpt lat="43.7046476" lon="11.0870391"><ele>54.00000000000001</ele><time>2026-05-03T10:04:28.99Z</time></trkpt><trkpt lat="43.7046138" lon="11.0871703"><ele>54.0</ele><time>2026-05-03T10:04:29.99Z</time></trkpt><trkpt lat="43.7045623" lon="11.0872875"><ele>54.0</ele><time>2026-05-03T10:04:30.986Z</time></trkpt><trkpt lat="43.7045065" lon="11.0873892"><ele>54.2</ele><time>2026-05-03T10:04:31.985Z</time></trkpt><trkpt lat="43.7044479" lon="11.0874726"><ele>54.400000000000006</ele><time>2026-05-03T10:04:32.995Z</time></trkpt><trkpt lat="43.7043789" lon="11.0875304"><ele>54.6</ele><time>2026-05-03T10:04:33.981Z</time></trkpt><trkpt lat="43.7042917" lon="11.0875496"><ele>54.8</ele><time>2026-05-03T10:04:34.981Z</time></trkpt><trkpt lat="43.7041837" lon="11.0875441"><ele>55.0</ele><time>2026-05-03T10:04:35.995Z</time></trkpt><trkpt lat="43.7040624" lon="11.087536"><ele>55.0</ele><time>2026-05-03T10:04:36.987Z</time></trkpt><trkpt lat="43.7039366" lon="11.0875383"><ele>55.0</ele><time>2026-05-03T10:04:37.989Z</time></trkpt><trkpt lat="43.7038054" lon="11.0875473"><ele>55.0</ele><time>2026-05-03T10:04:38.993Z</time></trkpt><trkpt lat="43.7036672" lon="11.0875652"><ele>55.0</ele><time>2026-05-03T10:04:40.005Z</time></trkpt><trkpt lat="43.7035112" lon="11.0875851"><ele>54.33333333333333</ele><time>2026-05-03T10:04:40.994Z</time></trkpt><trkpt lat="43.7033325" lon="11.0876217"><ele>53.66666666666667</ele><time>2026-05-03T10:04:41.994Z</time></trkpt><trkpt lat="43.7031361" lon="11.0876887"><ele>53.0</ele><time>2026-05-03T10:04:42.989Z</time></trkpt><trkpt lat="43.7029427" lon="11.0877771"><ele>53.0</ele><time>2026-05-03T10:04:43.99Z</time></trkpt><trkpt lat="43.7027668" lon="11.0878781"><ele>53.0</ele><time>2026-05-03T10:04:44.995Z</time></trkpt><trkpt lat="43.702606" lon="11.0879883"><ele>53.0</ele><time>2026-05-03T10:04:45.992Z</time></trkpt><trkpt lat="43.7024561" lon="11.0881025"><ele>53.333333333333336</ele><time>2026-05-03T10:04:46.989Z</time></trkpt><trkpt lat="43.7023124" lon="11.0882207"><ele>53.66666666666667</ele><time>2026-05-03T10:04:47.988Z</time></trkpt><trkpt lat="43.7021733" lon="11.0883469"><ele>54.0</ele><time>2026-05-03T10:04:48.983Z</time></trkpt><trkpt lat="43.7020408" lon="11.0884865"><ele>54.33333333333333</ele><time>2026-05-03T10:04:49.984Z</time></trkpt><trkpt lat="43.7019143" lon="11.0886376"><ele>54.666666666666664</ele><time>2026-05-03T10:04:51.002Z</time></trkpt><trkpt lat="43.7017944" lon="11.0888004"><ele>55.0</ele><time>2026-05-03T10:04:51.987Z</time></trkpt><trkpt lat="43.7016779" lon="11.0889709"><ele>54.666666666666664</ele><time>2026-05-03T10:04:52.987Z</time></trkpt><trkpt lat="43.7015653" lon="11.0891489"><ele>54.33333333333333</ele><time>2026-05-03T10:04:53.989Z</time></trkpt><trkpt lat="43.7014584" lon="11.0893365"><ele>54.0</ele><time>2026-05-03T10:04:54.99Z</time></trkpt><trkpt lat="43.7013543" lon="11.0895298"><ele>54.0</ele><time>2026-05-03T10:04:55.984Z</time></trkpt><trkpt lat="43.7012527" lon="11.0897284"><ele>54.0</ele><time>2026-05-03T10:04:56.987Z</time></trkpt><trkpt lat="43.7011511" lon="11.089929"><ele>54.0</ele><time>2026-05-03T10:04:57.98Z</time></trkpt><trkpt lat="43.7010499" lon="11.090132"><ele>54.33333333333333</ele><time>2026-05-03T10:04:58.989Z</time></trkpt><trkpt lat="43.700943" lon="11.0903316"><ele>54.666666666666664</ele><time>2026-05-03T10:04:59.98Z</time></trkpt><trkpt lat="43.7008466" lon="11.0905419"><ele>55.0</ele><time>2026-05-03T10:05:00.985Z</time></trkpt><trkpt lat="43.7007458" lon="11.0907481"><ele>55.666666666666664</ele><time>2026-05-03T10:05:01.986Z</time></trkpt><trkpt lat="43.7006431" lon="11.0909526"><ele>56.33333333333333</ele><time>2026-05-03T10:05:02.991Z</time></trkpt><trkpt lat="43.7005379" lon="11.0911544"><ele>57.0</ele><time>2026-05-03T10:05:03.99Z</time></trkpt><trkpt lat="43.7004304" lon="11.0913534"><ele>57.0</ele><time>2026-05-03T10:05:04.99Z</time></trkpt><trkpt lat="43.7003179" lon="11.0915467"><ele>57.0</ele><time>2026-05-03T10:05:05.991Z</time></trkpt><trkpt lat="43.7002011" lon="11.0917345"><ele>57.0</ele><time>2026-05-03T10:05:06.998Z</time></trkpt><trkpt lat="43.7000791" lon="11.0919166"><ele>57.0</ele><time>2026-05-03T10:05:07.993Z</time></trkpt><trkpt lat="43.6999548" lon="11.0920958"><ele>57.0</ele><time>2026-05-03T10:05:08.982Z</time></trkpt><trkpt lat="43.6998288" lon="11.0922724"><ele>57.0</ele><time>2026-05-03T10:05:09.98Z</time></trkpt><trkpt lat="43.6997005" lon="11.0924459"><ele>57.0</ele><time>2026-05-03T10:05:10.981Z</time></trkpt><trkpt lat="43.6995689" lon="11.0926143"><ele>57.0</ele><time>2026-05-03T10:05:11.983Z</time></trkpt><trkpt lat="43.6994346" lon="11.0927796"><ele>57.0</ele><time>2026-05-03T10:05:12.98Z</time></trkpt><trkpt lat="43.6992972" lon="11.0929423"><ele>57.0</ele><time>2026-05-03T10:05:13.994Z</time></trkpt><trkpt lat="43.6991612" lon="11.0931102"><ele>57.0</ele><time>2026-05-03T10:05:14.993Z</time></trkpt><trkpt lat="43.6990241" lon="11.0932798"><ele>57.0</ele><time>2026-05-03T10:05:15.984Z</time></trkpt><trkpt lat="43.6988907" lon="11.0934585"><ele>57.0</ele><time>2026-05-03T10:05:16.99Z</time></trkpt><trkpt lat="43.6987614" lon="11.093647"><ele>57.0</ele><time>2026-05-03T10:05:17.995Z</time></trkpt><trkpt lat="43.6986353" lon="11.0938424"><ele>57.0</ele><time>2026-05-03T10:05:18.982Z</time></trkpt><trkpt lat="43.698513" lon="11.0940455"><ele>56.66666666666667</ele><time>2026-05-03T10:05:19.993Z</time></trkpt><trkpt lat="43.6983982" lon="11.0942603"><ele>56.333333333333336</ele><time>2026-05-03T10:05:20.978Z</time></trkpt><trkpt lat="43.6982932" lon="11.0944878"><ele>56.0</ele><time>2026-05-03T10:05:21.979Z</time></trkpt><trkpt lat="43.6981969" lon="11.0947245"><ele>56.333333333333336</ele><time>2026-05-03T10:05:22.98Z</time></trkpt><trkpt lat="43.6981114" lon="11.0949702"><ele>56.66666666666667</ele><time>2026-05-03T10:05:23.989Z</time></trkpt><trkpt lat="43.6980427" lon="11.095228"><ele>57.0</ele><time>2026-05-03T10:05:24.986Z</time></trkpt><trkpt lat="43.6979821" lon="11.095492"><ele>57.33333333333333</ele><time>2026-05-03T10:05:25.982Z</time></trkpt><trkpt lat="43.6979336" lon="11.0957621"><ele>57.666666666666664</ele><time>2026-05-03T10:05:26.979Z</time></trkpt><trkpt lat="43.6978974" lon="11.0960361"><ele>58.0</ele><time>2026-05-03T10:05:27.981Z</time></trkpt><trkpt lat="43.6978726" lon="11.0963088"><ele>58.0</ele><time>2026-05-03T10:05:28.982Z</time></trkpt><trkpt lat="43.6978586" lon="11.0965765"><ele>58.0</ele><time>2026-05-03T10:05:29.983Z</time></trkpt><trkpt lat="43.6978529" lon="11.0968387"><ele>58.0</ele><time>2026-05-03T10:05:30.978Z</time></trkpt><trkpt lat="43.6978457" lon="11.0970974"><ele>58.0</ele><time>2026-05-03T10:05:31.985Z</time></trkpt><trkpt lat="43.6978351" lon="11.0973565"><ele>58.0</ele><time>2026-05-03T10:05:32.98Z</time></trkpt><trkpt lat="43.697821" lon="11.0976157"><ele>58.0</ele><time>2026-05-03T10:05:33.98Z</time></trkpt><trkpt lat="43.6978009" lon="11.0978723"><ele>58.666666666666664</ele><time>2026-05-03T10:05:34.998Z</time></trkpt><trkpt lat="43.6977759" lon="11.0981248"><ele>59.33333333333333</ele><time>2026-05-03T10:05:35.982Z</time></trkpt><trkpt lat="43.6977438" lon="11.0983702"><ele>60.0</ele><time>2026-05-03T10:05:36.981Z</time></trkpt><trkpt lat="43.6976985" lon="11.0985998"><ele>60.0</ele><time>2026-05-03T10:05:37.984Z</time></trkpt><trkpt lat="43.697639" lon="11.098813"><ele>60.0</ele><time>2026-05-03T10:05:38.985Z</time></trkpt><trkpt lat="43.6975663" lon="11.0990116"><ele>60.0</ele><time>2026-05-03T10:05:39.984Z</time></trkpt><trkpt lat="43.6974838" lon="11.0991898"><ele>60.25</ele><time>2026-05-03T10:05:40.986Z</time></trkpt><trkpt lat="43.6973953" lon="11.0993428"><ele>60.5</ele><time>2026-05-03T10:05:41.988Z</time></trkpt><trkpt lat="43.6973105" lon="11.0994696"><ele>60.75</ele><time>2026-05-03T10:05:42.987Z</time></trkpt><trkpt lat="43.6972358" lon="11.0995698"><ele>61.0</ele><time>2026-05-03T10:05:43.986Z</time></trkpt><trkpt lat="43.6971647" lon="11.0996454"><ele>60.99999999999999</ele><time>2026-05-03T10:05:44.985Z</time></trkpt><trkpt lat="43.6970945" lon="11.0996953"><ele>61.0</ele><time>2026-05-03T10:05:45.987Z</time></trkpt><trkpt lat="43.6970195" lon="11.0997129"><ele>60.99999999999999</ele><time>2026-05-03T10:05:46.995Z</time></trkpt><trkpt lat="43.696942" lon="11.0997175"><ele>60.99999999999999</ele><time>2026-05-03T10:05:47.988Z</time></trkpt><trkpt lat="43.6968725" lon="11.0997442"><ele>61.0</ele><time>2026-05-03T10:05:48.986Z</time></trkpt><trkpt lat="43.6968226" lon="11.0998044"><ele>60.99999999999999</ele><time>2026-05-03T10:05:49.987Z</time></trkpt><trkpt lat="43.6967904" lon="11.0998895"><ele>60.99999999999999</ele><time>2026-05-03T10:05:50.987Z</time></trkpt><trkpt lat="43.6967716" lon="11.099995"><ele>61.0</ele><time>2026-05-03T10:05:51.99Z</time></trkpt><trkpt lat="43.6967806" lon="11.1001245"><ele>60.99999999999999</ele><time>2026-05-03T10:05:52.993Z</time></trkpt><trkpt lat="43.6967976" lon="11.1002715"><ele>60.99999999999999</ele><time>2026-05-03T10:05:53.994Z</time></trkpt><trkpt lat="43.6967919" lon="11.1004308"><ele>61.0</ele><time>2026-05-03T10:05:54.985Z</time></trkpt><trkpt lat="43.6967656" lon="11.100595"><ele>61.0</ele><time>2026-05-03T10:05:55.984Z</time></trkpt><trkpt lat="43.6967223" lon="11.1007536"><ele>61.4</ele><time>2026-05-03T10:05:56.991Z</time></trkpt><trkpt lat="43.6966645" lon="11.1008912"><ele>61.8</ele><time>2026-05-03T10:05:57.983Z</time></trkpt><trkpt lat="43.6966011" lon="11.1010067"><ele>62.199999999999996</ele><time>2026-05-03T10:05:58.995Z</time></trkpt><trkpt lat="43.6965374" lon="11.1011125"><ele>62.599999999999994</ele><time>2026-05-03T10:05:59.98Z</time></trkpt><trkpt lat="43.6964716" lon="11.1012231"><ele>63.0</ele><time>2026-05-03T10:06:00.986Z</time></trkpt><trkpt lat="43.6964029" lon="11.1013454"><ele>63.0</ele><time>2026-05-03T10:06:01.983Z</time></trkpt><trkpt lat="43.6963317" lon="11.1014769"><ele>63.0</ele><time>2026-05-03T10:06:02.981Z</time></trkpt><trkpt lat="43.6962536" lon="11.1016077"><ele>63.0</ele><time>2026-05-03T10:06:03.985Z</time></trkpt><trkpt lat="43.6961741" lon="11.1017428"><ele>63.0</ele><time>2026-05-03T10:06:04.983Z</time></trkpt><trkpt lat="43.6960911" lon="11.1018805"><ele>63.25</ele><time>2026-05-03T10:06:05.99Z</time></trkpt><trkpt lat="43.696008" lon="11.1020163"><ele>63.5</ele><time>2026-05-03T10:06:06.984Z</time></trkpt><trkpt lat="43.6959275" lon="11.1021494"><ele>63.75</ele><time>2026-05-03T10:06:07.986Z</time></trkpt><trkpt lat="43.6958492" lon="11.1022873"><ele>64.0</ele><time>2026-05-03T10:06:08.993Z</time></trkpt><trkpt lat="43.6957719" lon="11.1024346"><ele>64.25</ele><time>2026-05-03T10:06:09.984Z</time></trkpt><trkpt lat="43.6956984" lon="11.1025889"><ele>64.5</ele><time>2026-05-03T10:06:10.984Z</time></trkpt><trkpt lat="43.6956418" lon="11.102748"><ele>64.75</ele><time>2026-05-03T10:06:11.986Z</time></trkpt><trkpt lat="43.6955976" lon="11.1029027"><ele>65.0</ele><time>2026-05-03T10:06:12.988Z</time></trkpt><trkpt lat="43.6955619" lon="11.1030512"><ele>65.0</ele><time>2026-05-03T10:06:13.991Z</time></trkpt><trkpt lat="43.6955304" lon="11.103197"><ele>65.0</ele><time>2026-05-03T10:06:14.989Z</time></trkpt><trkpt lat="43.6955007" lon="11.1033471"><ele>65.0</ele><time>2026-05-03T10:06:15.982Z</time></trkpt><trkpt lat="43.6954736" lon="11.1034962"><ele>65.0</ele><time>2026-05-03T10:06:16.989Z</time></trkpt><trkpt lat="43.6954484" lon="11.1036338"><ele>65.0</ele><time>2026-05-03T10:06:17.981Z</time></trkpt><trkpt lat="43.6954222" lon="11.1037597"><ele>65.2</ele><time>2026-05-03T10:06:18.987Z</time></trkpt><trkpt lat="43.6953952" lon="11.1038862"><ele>65.4</ele><time>2026-05-03T10:06:19.983Z</time></trkpt><trkpt lat="43.6953688" lon="11.1040095"><ele>65.6</ele><time>2026-05-03T10:06:20.982Z</time></trkpt><trkpt lat="43.6953411" lon="11.1041276"><ele>65.8</ele><time>2026-05-03T10:06:21.987Z</time></trkpt><trkpt lat="43.6953082" lon="11.1042402"><ele>66.0</ele><time>2026-05-03T10:06:22.995Z</time></trkpt><trkpt lat="43.6952609" lon="11.1043364"><ele>66.0</ele><time>2026-05-03T10:06:23.987Z</time></trkpt><trkpt lat="43.6952042" lon="11.1044156"><ele>66.0</ele><time>2026-05-03T10:06:24.997Z</time></trkpt><trkpt lat="43.6951605" lon="11.1045004"><ele>66.0</ele><time>2026-05-03T10:06:25.984Z</time></trkpt><trkpt lat="43.6951357" lon="11.1046076"><ele>66.0</ele><time>2026-05-03T10:06:26.981Z</time></trkpt><trkpt lat="43.6951336" lon="11.1047387"><ele>66.0</ele><time>2026-05-03T10:06:27.989Z</time></trkpt><trkpt lat="43.6951464" lon="11.104884"><ele>66.0</ele><time>2026-05-03T10:06:29Z</time></trkpt><trkpt lat="43.6951476" lon="11.1050391"><ele>66.0</ele><time>2026-05-03T10:06:29.979Z</time></trkpt><trkpt lat="43.6951348" lon="11.1052049"><ele>66.0</ele><time>2026-05-03T10:06:30.985Z</time></trkpt><trkpt lat="43.6951064" lon="11.1053754"><ele>66.0</ele><time>2026-05-03T10:06:31.984Z</time></trkpt><trkpt lat="43.6950753" lon="11.1055505"><ele>66.0</ele><time>2026-05-03T10:06:32.986Z</time></trkpt><trkpt lat="43.6950433" lon="11.1057276"><ele>66.25</ele><time>2026-05-03T10:06:33.986Z</time></trkpt><trkpt lat="43.695013" lon="11.1059006"><ele>66.5</ele><time>2026-05-03T10:06:34.983Z</time></trkpt><trkpt lat="43.6949854" lon="11.1060675"><ele>66.75</ele><time>2026-05-03T10:06:36.005Z</time></trkpt><trkpt lat="43.6949575" lon="11.1062308"><ele>67.0</ele><time>2026-05-03T10:06:36.981Z</time></trkpt><trkpt lat="43.6949303" lon="11.1063932"><ele>67.0</ele><time>2026-05-03T10:06:37.982Z</time></trkpt><trkpt lat="43.6949032" lon="11.1065564"><ele>67.0</ele><time>2026-05-03T10:06:38.999Z</time></trkpt><trkpt lat="43.6948714" lon="11.1067193"><ele>67.0</ele><time>2026-05-03T10:06:39.981Z</time></trkpt><trkpt lat="43.6948372" lon="11.1068847"><ele>67.0</ele><time>2026-05-03T10:06:40.982Z</time></trkpt><trkpt lat="43.6947979" lon="11.1070524"><ele>67.25</ele><time>2026-05-03T10:06:41.986Z</time></trkpt><trkpt lat="43.6947605" lon="11.107225"><ele>67.5</ele><time>2026-05-03T10:06:42.979Z</time></trkpt><trkpt lat="43.6947216" lon="11.1074017"><ele>67.75</ele><time>2026-05-03T10:06:43.98Z</time></trkpt><trkpt lat="43.6946893" lon="11.1075865"><ele>68.0</ele><time>2026-05-03T10:06:44.981Z</time></trkpt><trkpt lat="43.6946534" lon="11.1077759"><ele>68.0</ele><time>2026-05-03T10:06:45.983Z</time></trkpt><trkpt lat="43.6946208" lon="11.1079706"><ele>68.0</ele><time>2026-05-03T10:06:46.985Z</time></trkpt><trkpt lat="43.6945845" lon="11.1081663"><ele>68.0</ele><time>2026-05-03T10:06:47.979Z</time></trkpt><trkpt lat="43.694551" lon="11.1083617"><ele>68.0</ele><time>2026-05-03T10:06:48.981Z</time></trkpt><trkpt lat="43.6945091" lon="11.1085506"><ele>68.0</ele><time>2026-05-03T10:06:49.982Z</time></trkpt><trkpt lat="43.6944541" lon="11.1087332"><ele>68.0</ele><time>2026-05-03T10:06:50.986Z</time></trkpt><trkpt lat="43.6943896" lon="11.1089123"><ele>68.0</ele><time>2026-05-03T10:06:51.982Z</time></trkpt><trkpt lat="43.6943203" lon="11.1090889"><ele>68.0</ele><time>2026-05-03T10:06:52.983Z</time></trkpt><trkpt lat="43.6942458" lon="11.1092634"><ele>69.0</ele><time>2026-05-03T10:06:53.983Z</time></trkpt><trkpt lat="43.694168" lon="11.1094395"><ele>70.0</ele><time>2026-05-03T10:06:54.994Z</time></trkpt><trkpt lat="43.6940902" lon="11.1096179"><ele>71.0</ele><time>2026-05-03T10:06:55.98Z</time></trkpt><trkpt lat="43.694015" lon="11.1098009"><ele>71.66666666666667</ele><time>2026-05-03T10:06:56.985Z</time></trkpt><trkpt lat="43.6939423" lon="11.1099869"><ele>72.33333333333333</ele><time>2026-05-03T10:06:57.994Z</time></trkpt><trkpt lat="43.6938735" lon="11.1101752"><ele>73.0</ele><time>2026-05-03T10:06:58.982Z</time></trkpt><trkpt lat="43.6938175" lon="11.1103672"><ele>73.0</ele><time>2026-05-03T10:06:59.985Z</time></trkpt><trkpt lat="43.6937739" lon="11.1105499"><ele>73.0</ele><time>2026-05-03T10:07:00.982Z</time></trkpt><trkpt lat="43.6937446" lon="11.1107233"><ele>73.0</ele><time>2026-05-03T10:07:01.99Z</time></trkpt><trkpt lat="43.6937232" lon="11.1108869"><ele>73.0</ele><time>2026-05-03T10:07:02.99Z</time></trkpt><trkpt lat="43.6937047" lon="11.1110346"><ele>73.33333333333333</ele><time>2026-05-03T10:07:03.98Z</time></trkpt><trkpt lat="43.6936888" lon="11.111168"><ele>73.66666666666666</ele><time>2026-05-03T10:07:04.984Z</time></trkpt><trkpt lat="43.6936715" lon="11.1112888"><ele>74.0</ele><time>2026-05-03T10:07:05.99Z</time></trkpt><trkpt lat="43.6936591" lon="11.1114021"><ele>74.33333333333333</ele><time>2026-05-03T10:07:06.981Z</time></trkpt><trkpt lat="43.6936412" lon="11.1115093"><ele>74.66666666666667</ele><time>2026-05-03T10:07:07.984Z</time></trkpt><trkpt lat="43.6936211" lon="11.1116097"><ele>75.0</ele><time>2026-05-03T10:07:08.99Z</time></trkpt><trkpt lat="43.6935913" lon="11.1116952"><ele>74.5</ele><time>2026-05-03T10:07:09.982Z</time></trkpt><trkpt lat="43.6935595" lon="11.1117716"><ele>74.0</ele><time>2026-05-03T10:07:10.99Z</time></trkpt><trkpt lat="43.6935262" lon="11.1118492"><ele>73.5</ele><time>2026-05-03T10:07:11.982Z</time></trkpt><trkpt lat="43.6934859" lon="11.1119428"><ele>73.0</ele><time>2026-05-03T10:07:12.985Z</time></trkpt><trkpt lat="43.6934319" lon="11.1120456"><ele>72.5</ele><time>2026-05-03T10:07:13.987Z</time></trkpt><trkpt lat="43.6933616" lon="11.1121487"><ele>72.0</ele><time>2026-05-03T10:07:14.986Z</time></trkpt><trkpt lat="43.6932817" lon="11.1122592"><ele>72.0</ele><time>2026-05-03T10:07:15.978Z</time></trkpt><trkpt lat="43.6932029" lon="11.1123916"><ele>72.0</ele><time>2026-05-03T10:07:16.978Z</time></trkpt><trkpt lat="43.6931145" lon="11.1125444"><ele>72.0</ele><time>2026-05-03T10:07:17.983Z</time></trkpt><trkpt lat="43.6930133" lon="11.1127252"><ele>72.0</ele><time>2026-05-03T10:07:18.989Z</time></trkpt><trkpt lat="43.6929015" lon="11.1129311"><ele>72.33333333333333</ele><time>2026-05-03T10:07:19.984Z</time></trkpt><trkpt lat="43.6927698" lon="11.113148"><ele>72.66666666666666</ele><time>2026-05-03T10:07:20.987Z</time></trkpt><trkpt lat="43.6926119" lon="11.1133536"><ele>73.0</ele><time>2026-05-03T10:07:21.984Z</time></trkpt><trkpt lat="43.6924575" lon="11.1135493"><ele>73.0</ele><time>2026-05-03T10:07:22.979Z</time></trkpt><trkpt lat="43.6923076" lon="11.1137508"><ele>73.0</ele><time>2026-05-03T10:07:23.98Z</time></trkpt><trkpt lat="43.6921631" lon="11.1139556"><ele>73.0</ele><time>2026-05-03T10:07:24.983Z</time></trkpt><trkpt lat="43.6920237" lon="11.1141595"><ele>71.66666666666666</ele><time>2026-05-03T10:07:25.978Z</time></trkpt><trkpt lat="43.6918882" lon="11.1143646"><ele>70.33333333333333</ele><time>2026-05-03T10:07:26.984Z</time></trkpt><trkpt lat="43.6917497" lon="11.114581"><ele>69.0</ele><time>2026-05-03T10:07:27.983Z</time></trkpt><trkpt lat="43.6916132" lon="11.114832"><ele>69.66666666666667</ele><time>2026-05-03T10:07:28.983Z</time></trkpt><trkpt lat="43.691482" lon="11.115093"><ele>70.33333333333334</ele><time>2026-05-03T10:07:29.982Z</time></trkpt><trkpt lat="43.6913667" lon="11.1153481"><ele>71.0</ele><time>2026-05-03T10:07:30.985Z</time></trkpt><trkpt lat="43.6912614" lon="11.1155975"><ele>71.33333333333334</ele><time>2026-05-03T10:07:31.982Z</time></trkpt><trkpt lat="43.69116" lon="11.115844"><ele>71.66666666666667</ele><time>2026-05-03T10:07:32.984Z</time></trkpt><trkpt lat="43.6910611" lon="11.1160899"><ele>72.0</ele><time>2026-05-03T10:07:33.98Z</time></trkpt><trkpt lat="43.6909739" lon="11.1163354"><ele>71.66666666666667</ele><time>2026-05-03T10:07:34.98Z</time></trkpt><trkpt lat="43.6909034" lon="11.1165856"><ele>71.33333333333334</ele><time>2026-05-03T10:07:35.984Z</time></trkpt><trkpt lat="43.6908369" lon="11.1168288"><ele>71.0</ele><time>2026-05-03T10:07:36.98Z</time></trkpt><trkpt lat="43.6907741" lon="11.1170554"><ele>71.0</ele><time>2026-05-03T10:07:37.982Z</time></trkpt><trkpt lat="43.6907089" lon="11.1172612"><ele>71.0</ele><time>2026-05-03T10:07:38.981Z</time></trkpt><trkpt lat="43.6906358" lon="11.1174442"><ele>71.0</ele><time>2026-05-03T10:07:39.979Z</time></trkpt><trkpt lat="43.6905561" lon="11.1176041"><ele>71.0</ele><time>2026-05-03T10:07:40.977Z</time></trkpt><trkpt lat="43.6904741" lon="11.1177462"><ele>71.0</ele><time>2026-05-03T10:07:41.984Z</time></trkpt><trkpt lat="43.690393" lon="11.117878"><ele>71.0</ele><time>2026-05-03T10:07:42.981Z</time></trkpt><trkpt lat="43.6903123" lon="11.1180087"><ele>71.0</ele><time>2026-05-03T10:07:43.98Z</time></trkpt><trkpt lat="43.690231" lon="11.1181434"><ele>71.25</ele><time>2026-05-03T10:07:44.98Z</time></trkpt><trkpt lat="43.6901382" lon="11.1182671"><ele>71.5</ele><time>2026-05-03T10:07:45.981Z</time></trkpt><trkpt lat="43.6900361" lon="11.1183788"><ele>71.75</ele><time>2026-05-03T10:07:46.984Z</time></trkpt><trkpt lat="43.6899285" lon="11.1184876"><ele>72.0</ele><time>2026-05-03T10:07:47.982Z</time></trkpt><trkpt lat="43.6898158" lon="11.1185906"><ele>72.0</ele><time>2026-05-03T10:07:48.989Z</time></trkpt><trkpt lat="43.6896985" lon="11.1186824"><ele>72.0</ele><time>2026-05-03T10:07:49.986Z</time></trkpt><trkpt lat="43.6895851" lon="11.1187772"><ele>72.0</ele><time>2026-05-03T10:07:50.978Z</time></trkpt><trkpt lat="43.6894852" lon="11.118898"><ele>72.0</ele><time>2026-05-03T10:07:51.98Z</time></trkpt><trkpt lat="43.6894024" lon="11.1190447"><ele>72.0</ele><time>2026-05-03T10:07:52.987Z</time></trkpt><trkpt lat="43.6893491" lon="11.1192145"><ele>72.0</ele><time>2026-05-03T10:07:53.98Z</time></trkpt><trkpt lat="43.6893185" lon="11.1193949"><ele>72.0</ele><time>2026-05-03T10:07:54.987Z</time></trkpt><trkpt lat="43.6893184" lon="11.1195851"><ele>72.0</ele><time>2026-05-03T10:07:55.98Z</time></trkpt><trkpt lat="43.6893348" lon="11.1197771"><ele>72.0</ele><time>2026-05-03T10:07:56.983Z</time></trkpt><trkpt lat="43.6893481" lon="11.1199651"><ele>72.0</ele><time>2026-05-03T10:07:57.987Z</time></trkpt><trkpt lat="43.6893526" lon="11.1201482"><ele>72.0</ele><time>2026-05-03T10:07:58.986Z</time></trkpt><trkpt lat="43.6893544" lon="11.1203324"><ele>72.0</ele><time>2026-05-03T10:07:59.981Z</time></trkpt><trkpt lat="43.6893335" lon="11.1205191"><ele>72.0</ele><time>2026-05-03T10:08:00.984Z</time></trkpt><trkpt lat="43.6892941" lon="11.1207074"><ele>72.0</ele><time>2026-05-03T10:08:01.986Z</time></trkpt><trkpt lat="43.6892485" lon="11.1209"><ele>72.0</ele><time>2026-05-03T10:08:02.98Z</time></trkpt><trkpt lat="43.6892058" lon="11.1210896"><ele>72.0</ele><time>2026-05-03T10:08:03.985Z</time></trkpt><trkpt lat="43.6891648" lon="11.121266"><ele>72.25</ele><time>2026-05-03T10:08:04.982Z</time></trkpt><trkpt lat="43.6891343" lon="11.1214328"><ele>72.5</ele><time>2026-05-03T10:08:05.985Z</time></trkpt><trkpt lat="43.6890969" lon="11.1215911"><ele>72.75</ele><time>2026-05-03T10:08:06.982Z</time></trkpt><trkpt lat="43.6890518" lon="11.1217482"><ele>73.0</ele><time>2026-05-03T10:08:07.981Z</time></trkpt><trkpt lat="43.6889999" lon="11.1219041"><ele>73.25</ele><time>2026-05-03T10:08:08.994Z</time></trkpt><trkpt lat="43.6889298" lon="11.1220484"><ele>73.5</ele><time>2026-05-03T10:08:09.989Z</time></trkpt><trkpt lat="43.6888419" lon="11.1221768"><ele>73.75</ele><time>2026-05-03T10:08:10.996Z</time></trkpt><trkpt lat="43.6887381" lon="11.1222908"><ele>74.0</ele><time>2026-05-03T10:08:11.985Z</time></trkpt><trkpt lat="43.6886295" lon="11.1224026"><ele>74.25</ele><time>2026-05-03T10:08:12.983Z</time></trkpt><trkpt lat="43.688518" lon="11.1225123"><ele>74.5</ele><time>2026-05-03T10:08:13.986Z</time></trkpt><trkpt lat="43.6884112" lon="11.1226187"><ele>74.75</ele><time>2026-05-03T10:08:14.98Z</time></trkpt><trkpt lat="43.6883169" lon="11.1227224"><ele>75.0</ele><time>2026-05-03T10:08:15.979Z</time></trkpt><trkpt lat="43.688238" lon="11.1228397"><ele>75.0</ele><time>2026-05-03T10:08:16.991Z</time></trkpt><trkpt lat="43.6881688" lon="11.1229695"><ele>75.0</ele><time>2026-05-03T10:08:17.983Z</time></trkpt><trkpt lat="43.6881003" lon="11.1231051"><ele>75.0</ele><time>2026-05-03T10:08:18.988Z</time></trkpt><trkpt lat="43.6880192" lon="11.1232507"><ele>75.0</ele><time>2026-05-03T10:08:19.987Z</time></trkpt><trkpt lat="43.6879167" lon="11.1234048"><ele>74.75</ele><time>2026-05-03T10:08:20.983Z</time></trkpt><trkpt lat="43.6878094" lon="11.1235599"><ele>74.5</ele><time>2026-05-03T10:08:21.983Z</time></trkpt><trkpt lat="43.6877011" lon="11.1236995"><ele>74.25</ele><time>2026-05-03T10:08:22.989Z</time></trkpt><trkpt lat="43.687597" lon="11.123822"><ele>74.0</ele><time>2026-05-03T10:08:23.985Z</time></trkpt><trkpt lat="43.6875022" lon="11.123939"><ele>74.0</ele><time>2026-05-03T10:08:24.984Z</time></trkpt><trkpt lat="43.6874105" lon="11.1240295"><ele>74.0</ele><time>2026-05-03T10:08:25.981Z</time></trkpt><trkpt lat="43.6873258" lon="11.1241192"><ele>74.0</ele><time>2026-05-03T10:08:26.981Z</time></trkpt><trkpt lat="43.6872463" lon="11.1242294"><ele>74.0</ele><time>2026-05-03T10:08:27.983Z</time></trkpt><trkpt lat="43.6871623" lon="11.1243496"><ele>73.75</ele><time>2026-05-03T10:08:28.981Z</time></trkpt><trkpt lat="43.6870735" lon="11.1244728"><ele>73.5</ele><time>2026-05-03T10:08:29.985Z</time></trkpt><trkpt lat="43.6869856" lon="11.1245991"><ele>73.25</ele><time>2026-05-03T10:08:30.988Z</time></trkpt><trkpt lat="43.686898" lon="11.1247208"><ele>73.0</ele><time>2026-05-03T10:08:31.98Z</time></trkpt><trkpt lat="43.6868099" lon="11.1248347"><ele>74.0</ele><time>2026-05-03T10:08:32.981Z</time></trkpt><trkpt lat="43.6867209" lon="11.1249532"><ele>75.0</ele><time>2026-05-03T10:08:33.977Z</time></trkpt><trkpt lat="43.6866316" lon="11.1250674"><ele>76.0</ele><time>2026-05-03T10:08:34.988Z</time></trkpt><trkpt lat="43.6865396" lon="11.1251657"><ele>77.0</ele><time>2026-05-03T10:08:35.996Z</time></trkpt><trkpt lat="43.6864533" lon="11.1252663"><ele>77.0</ele><time>2026-05-03T10:08:36.978Z</time></trkpt><trkpt lat="43.686368" lon="11.125372"><ele>77.0</ele><time>2026-05-03T10:08:37.995Z</time></trkpt><trkpt lat="43.6862836" lon="11.1254807"><ele>77.0</ele><time>2026-05-03T10:08:38.992Z</time></trkpt><trkpt lat="43.6861924" lon="11.1255903"><ele>77.0</ele><time>2026-05-03T10:08:39.985Z</time></trkpt><trkpt lat="43.6860974" lon="11.1256991"><ele>77.25</ele><time>2026-05-03T10:08:40.988Z</time></trkpt><trkpt lat="43.6860003" lon="11.1258007"><ele>77.5</ele><time>2026-05-03T10:08:41.98Z</time></trkpt><trkpt lat="43.6859008" lon="11.1258973"><ele>77.75</ele><time>2026-05-03T10:08:42.987Z</time></trkpt><trkpt lat="43.6858034" lon="11.1259859"><ele>78.0</ele><time>2026-05-03T10:08:43.984Z</time></trkpt><trkpt lat="43.6857091" lon="11.1260652"><ele>78.0</ele><time>2026-05-03T10:08:44.977Z</time></trkpt><trkpt lat="43.6856278" lon="11.1261504"><ele>78.0</ele><time>2026-05-03T10:08:45.981Z</time></trkpt><trkpt lat="43.6855428" lon="11.1262253"><ele>78.0</ele><time>2026-05-03T10:08:46.98Z</time></trkpt><trkpt lat="43.6854612" lon="11.126306"><ele>78.0</ele><time>2026-05-03T10:08:47.978Z</time></trkpt><trkpt lat="43.685375" lon="11.1263846"><ele>78.0</ele><time>2026-05-03T10:08:48.98Z</time></trkpt><trkpt lat="43.6852882" lon="11.1264726"><ele>78.4</ele><time>2026-05-03T10:08:49.99Z</time></trkpt><trkpt lat="43.6851935" lon="11.1265539"><ele>78.8</ele><time>2026-05-03T10:08:50.979Z</time></trkpt><trkpt lat="43.685102" lon="11.1266428"><ele>79.2</ele><time>2026-05-03T10:08:51.993Z</time></trkpt><trkpt lat="43.685013" lon="11.1267254"><ele>79.6</ele><time>2026-05-03T10:08:52.984Z</time></trkpt><trkpt lat="43.6849282" lon="11.1268057"><ele>80.0</ele><time>2026-05-03T10:08:53.984Z</time></trkpt><trkpt lat="43.6848524" lon="11.1268925"><ele>80.0</ele><time>2026-05-03T10:08:54.984Z</time></trkpt><trkpt lat="43.6847774" lon="11.126981"><ele>80.0</ele><time>2026-05-03T10:08:55.98Z</time></trkpt><trkpt lat="43.6847051" lon="11.1270739"><ele>80.0</ele><time>2026-05-03T10:08:56.984Z</time></trkpt><trkpt lat="43.6846433" lon="11.1271709"><ele>80.0</ele><time>2026-05-03T10:08:57.98Z</time></trkpt><trkpt lat="43.6845792" lon="11.127254"><ele>80.0</ele><time>2026-05-03T10:08:58.983Z</time></trkpt><trkpt lat="43.6845222" lon="11.1273383"><ele>80.4</ele><time>2026-05-03T10:08:59.977Z</time></trkpt><trkpt lat="43.6844747" lon="11.1274172"><ele>80.8</ele><time>2026-05-03T10:09:00.993Z</time></trkpt><trkpt lat="43.6844196" lon="11.1275481"><ele>81.19999999999999</ele><time>2026-05-03T10:09:02.982Z</time></trkpt><trkpt lat="43.6843887" lon="11.127643"><ele>81.6</ele><time>2026-05-03T10:09:04.982Z</time></trkpt><trkpt lat="43.6843468" lon="11.1277582"><ele>82.0</ele><time>2026-05-03T10:09:07.982Z</time></trkpt><trkpt lat="43.6843378" lon="11.1278992"><ele>82.0</ele><time>2026-05-03T10:09:09.977Z</time></trkpt><trkpt lat="43.6843537" lon="11.127986"><ele>82.0</ele><time>2026-05-03T10:09:10.978Z</time></trkpt><trkpt lat="43.6843833" lon="11.1280816"><ele>82.0</ele><time>2026-05-03T10:09:11.98Z</time></trkpt><trkpt lat="43.6844197" lon="11.1281912"><ele>82.0</ele><time>2026-05-03T10:09:12.987Z</time></trkpt><trkpt lat="43.6844744" lon="11.1282977"><ele>82.0</ele><time>2026-05-03T10:09:13.979Z</time></trkpt><trkpt lat="43.6845346" lon="11.1284008"><ele>82.0</ele><time>2026-05-03T10:09:14.986Z</time></trkpt><trkpt lat="43.6845938" lon="11.1284986"><ele>82.39999999999999</ele><time>2026-05-03T10:09:15.982Z</time></trkpt><trkpt lat="43.6846365" lon="11.1286138"><ele>82.8</ele><time>2026-05-03T10:09:16.984Z</time></trkpt><trkpt lat="43.6846694" lon="11.1287441"><ele>83.2</ele><time>2026-05-03T10:09:17.985Z</time></trkpt><trkpt lat="43.6847008" lon="11.128875"><ele>83.6</ele><time>2026-05-03T10:09:18.982Z</time></trkpt><trkpt lat="43.6847334" lon="11.1290067"><ele>84.0</ele><time>2026-05-03T10:09:19.98Z</time></trkpt><trkpt lat="43.6847694" lon="11.1291423"><ele>84.2</ele><time>2026-05-03T10:09:20.982Z</time></trkpt><trkpt lat="43.6848082" lon="11.129277"><ele>84.4</ele><time>2026-05-03T10:09:21.981Z</time></trkpt><trkpt lat="43.684855" lon="11.1294063"><ele>84.6</ele><time>2026-05-03T10:09:22.988Z</time></trkpt><trkpt lat="43.6849015" lon="11.1295307"><ele>84.8</ele><time>2026-05-03T10:09:23.98Z</time></trkpt><trkpt lat="43.684958" lon="11.129643"><ele>85.0</ele><time>2026-05-03T10:09:24.985Z</time></trkpt><trkpt lat="43.6850333" lon="11.1297446"><ele>85.0</ele><time>2026-05-03T10:09:25.98Z</time></trkpt><trkpt lat="43.6851199" lon="11.1298439"><ele>85.0</ele><time>2026-05-03T10:09:26.987Z</time></trkpt><trkpt lat="43.6852143" lon="11.129938"><ele>85.0</ele><time>2026-05-03T10:09:27.978Z</time></trkpt><trkpt lat="43.6853087" lon="11.1300295"><ele>85.0</ele><time>2026-05-03T10:09:28.981Z</time></trkpt><trkpt lat="43.6853989" lon="11.130121"><ele>86.0</ele><time>2026-05-03T10:09:29.981Z</time></trkpt><trkpt lat="43.6854876" lon="11.1302106"><ele>87.0</ele><time>2026-05-03T10:09:30.981Z</time></trkpt><trkpt lat="43.6855767" lon="11.1302962"><ele>88.0</ele><time>2026-05-03T10:09:31.98Z</time></trkpt><trkpt lat="43.6856637" lon="11.1303841"><ele>89.0</ele><time>2026-05-03T10:09:32.984Z</time></trkpt><trkpt lat="43.6857458" lon="11.1304809"><ele>90.0</ele><time>2026-05-03T10:09:33.979Z</time></trkpt><trkpt lat="43.6858269" lon="11.1305806"><ele>90.0</ele><time>2026-05-03T10:09:34.991Z</time></trkpt><trkpt lat="43.6859132" lon="11.1306699"><ele>90.0</ele><time>2026-05-03T10:09:35.983Z</time></trkpt><trkpt lat="43.6859999" lon="11.1307585"><ele>90.0</ele><time>2026-05-03T10:09:36.977Z</time></trkpt><trkpt lat="43.6860859" lon="11.1308454"><ele>90.0</ele><time>2026-05-03T10:09:37.981Z</time></trkpt><trkpt lat="43.6861677" lon="11.1309385"><ele>90.0</ele><time>2026-05-03T10:09:38.981Z</time></trkpt><trkpt lat="43.6862592" lon="11.1310236"><ele>90.8</ele><time>2026-05-03T10:09:39.979Z</time></trkpt><trkpt lat="43.6863495" lon="11.1311168"><ele>91.6</ele><time>2026-05-03T10:09:40.981Z</time></trkpt><trkpt lat="43.6864421" lon="11.1312059"><ele>92.4</ele><time>2026-05-03T10:09:41.98Z</time></trkpt><trkpt lat="43.6865298" lon="11.1313021"><ele>93.2</ele><time>2026-05-03T10:09:42.989Z</time></trkpt><trkpt lat="43.6866158" lon="11.1313925"><ele>94.0</ele><time>2026-05-03T10:09:43.984Z</time></trkpt><trkpt lat="43.686692" lon="11.1314852"><ele>93.83333333333333</ele><time>2026-05-03T10:09:44.981Z</time></trkpt><trkpt lat="43.6867534" lon="11.1315799"><ele>93.66666666666666</ele><time>2026-05-03T10:09:45.982Z</time></trkpt><trkpt lat="43.6868079" lon="11.1316724"><ele>93.5</ele><time>2026-05-03T10:09:46.983Z</time></trkpt><trkpt lat="43.6868616" lon="11.1317598"><ele>93.33333333333333</ele><time>2026-05-03T10:09:47.984Z</time></trkpt><trkpt lat="43.6868999" lon="11.1318427"><ele>93.16666666666667</ele><time>2026-05-03T10:09:48.982Z</time></trkpt><trkpt lat="43.686954" lon="11.1319697"><ele>93.0</ele><time>2026-05-03T10:09:50.995Z</time></trkpt><trkpt lat="43.6870275" lon="11.1320742"><ele>93.80000000000001</ele><time>2026-05-03T10:10:03.983Z</time></trkpt><trkpt lat="43.687082" lon="11.1321309"><ele>94.6</ele><time>2026-05-03T10:10:04.981Z</time></trkpt><trkpt lat="43.6871562" lon="11.1322149"><ele>95.4</ele><time>2026-05-03T10:10:05.981Z</time></trkpt><trkpt lat="43.6872193" lon="11.1323377"><ele>96.19999999999999</ele><time>2026-05-03T10:10:06.978Z</time></trkpt><trkpt lat="43.6872857" lon="11.1324649"><ele>97.0</ele><time>2026-05-03T10:10:07.979Z</time></trkpt><trkpt lat="43.6873542" lon="11.1325878"><ele>97.6</ele><time>2026-05-03T10:10:08.975Z</time></trkpt><trkpt lat="43.6874148" lon="11.1327136"><ele>98.19999999999999</ele><time>2026-05-03T10:10:09.977Z</time></trkpt><trkpt lat="43.6874548" lon="11.1328505"><ele>98.8</ele><time>2026-05-03T10:10:10.986Z</time></trkpt><trkpt lat="43.6874898" lon="11.132993"><ele>99.4</ele><time>2026-05-03T10:10:12.002Z</time></trkpt><trkpt lat="43.6875268" lon="11.1331346"><ele>100.0</ele><time>2026-05-03T10:10:12.982Z</time></trkpt><trkpt lat="43.6875513" lon="11.1332725"><ele>100.2</ele><time>2026-05-03T10:10:13.982Z</time></trkpt><trkpt lat="43.6875729" lon="11.1333995"><ele>100.4</ele><time>2026-05-03T10:10:14.976Z</time></trkpt><trkpt lat="43.6875816" lon="11.1335263"><ele>100.6</ele><time>2026-05-03T10:10:15.982Z</time></trkpt><trkpt lat="43.6875954" lon="11.1336542"><ele>100.8</ele><time>2026-05-03T10:10:16.984Z</time></trkpt><trkpt lat="43.6876254" lon="11.1337814"><ele>101.0</ele><time>2026-05-03T10:10:17.982Z</time></trkpt><trkpt lat="43.6876709" lon="11.1339043"><ele>101.0</ele><time>2026-05-03T10:10:18.977Z</time></trkpt><trkpt lat="43.6877158" lon="11.1340278"><ele>101.0</ele><time>2026-05-03T10:10:19.98Z</time></trkpt><trkpt lat="43.6877662" lon="11.1341444"><ele>101.0</ele><time>2026-05-03T10:10:20.977Z</time></trkpt><trkpt lat="43.6878132" lon="11.134266"><ele>101.0</ele><time>2026-05-03T10:10:21.979Z</time></trkpt><trkpt lat="43.6878468" lon="11.1344001"><ele>101.0</ele><time>2026-05-03T10:10:22.984Z</time></trkpt><trkpt lat="43.687889" lon="11.1345368"><ele>102.0</ele><time>2026-05-03T10:10:23.992Z</time></trkpt><trkpt lat="43.6879343" lon="11.1346746"><ele>103.0</ele><time>2026-05-03T10:10:24.978Z</time></trkpt><trkpt lat="43.6879892" lon="11.134807"><ele>104.0</ele><time>2026-05-03T10:10:25.981Z</time></trkpt><trkpt lat="43.6880469" lon="11.1349419"><ele>105.0</ele><time>2026-05-03T10:10:26.976Z</time></trkpt><trkpt lat="43.6881047" lon="11.1350721"><ele>106.0</ele><time>2026-05-03T10:10:27.975Z</time></trkpt><trkpt lat="43.6881696" lon="11.1351932"><ele>106.19999999999999</ele><time>2026-05-03T10:10:28.977Z</time></trkpt><trkpt lat="43.688241" lon="11.1353052"><ele>106.39999999999999</ele><time>2026-05-03T10:10:29.977Z</time></trkpt><trkpt lat="43.6883047" lon="11.1354264"><ele>106.6</ele><time>2026-05-03T10:10:30.978Z</time></trkpt><trkpt lat="43.6883654" lon="11.1355499"><ele>106.8</ele><time>2026-05-03T10:10:31.979Z</time></trkpt><trkpt lat="43.6884261" lon="11.1356742"><ele>107.0</ele><time>2026-05-03T10:10:32.977Z</time></trkpt><trkpt lat="43.6884868" lon="11.1357989"><ele>107.0</ele><time>2026-05-03T10:10:33.994Z</time></trkpt><trkpt lat="43.6885447" lon="11.1359217"><ele>106.99999999999999</ele><time>2026-05-03T10:10:34.98Z</time></trkpt><trkpt lat="43.6885972" lon="11.1360384"><ele>106.99999999999999</ele><time>2026-05-03T10:10:35.976Z</time></trkpt><trkpt lat="43.6886437" lon="11.1361358"><ele>107.0</ele><time>2026-05-03T10:10:36.984Z</time></trkpt><trkpt lat="43.6886816" lon="11.1362119"><ele>107.0</ele><time>2026-05-03T10:10:37.98Z</time></trkpt><trkpt lat="43.6887295" lon="11.1363414"><ele>107.5</ele><time>2026-05-03T10:10:39.992Z</time></trkpt><trkpt lat="43.6887806" lon="11.1365088"><ele>108.0</ele><time>2026-05-03T10:10:41.975Z</time></trkpt><trkpt lat="43.6888563" lon="11.1365908"><ele>108.5</ele><time>2026-05-03T10:10:42.977Z</time></trkpt><trkpt lat="43.6889592" lon="11.1366901"><ele>109.0</ele><time>2026-05-03T10:10:43.98Z</time></trkpt><trkpt lat="43.6890777" lon="11.1368298"><ele>110.2</ele><time>2026-05-03T10:10:44.983Z</time></trkpt><trkpt lat="43.6891796" lon="11.1369447"><ele>111.4</ele><time>2026-05-03T10:10:45.979Z</time></trkpt><trkpt lat="43.6892453" lon="11.1370173"><ele>112.6</ele><time>2026-05-03T10:10:46.998Z</time></trkpt><trkpt lat="43.6892903" lon="11.1370795"><ele>113.8</ele><time>2026-05-03T10:10:47.981Z</time></trkpt><trkpt lat="43.6893543" lon="11.1372084"><ele>115.0</ele><time>2026-05-03T10:10:49.981Z</time></trkpt><trkpt lat="43.6894048" lon="11.137321"><ele>115.0</ele><time>2026-05-03T10:10:51.98Z</time></trkpt></trkseg></trk></gpx>